Wetterdaten: Donnerstag, 20.07.2017
Datum Zeit Temp. A. Temp. A. max Feuchte A. Luftdruck Regen Wind Richtung Richtung Sonnenschein ET UV Solar Taupunkt Windchill Windböen
20.07.2017 00:00 15,6 °C 15,7 °C 90 % 1012,0 hPa 0,0 mm 1,7 km/h (1 Bft) W-NW 282 ° 0 min 0,000 mm 0,0 UV-I 0 W/m² 14,0 °C 15,6 °C 4,8 km/h (1 Bft)
20.07.2017 00:01 15,5 °C 15,6 °C 90 % 1012,0 hPa 0,0 mm 2,3 km/h (1 Bft) O-SO 105 ° 0 min 0,000 mm 0,0 UV-I 0 W/m² 13,9 °C 15,5 °C 4,8 km/h (1 Bft)
20.07.2017 00:02 15,4 °C 15,5 °C 91 % 1012,1 hPa 0,2 mm 0,6 km/h (0 Bft) NO 36 ° 0 min 0,000 mm 0,0 UV-I 0 W/m² 13,9 °C 15,4 °C 4,8 km/h (1 Bft)
20.07.2017 00:03 15,3 °C 15,4 °C 91 % 1012,2 hPa 0,0 mm 2,6 km/h (1 Bft) NO 46 ° 0 min 0,000 mm 0,0 UV-I 0 W/m² 13,8 °C 15,3 °C 6,4 km/h (2 Bft)
20.07.2017 00:04 15,3 °C 15,4 °C 91 % 1012,2 hPa 0,0 mm 1,3 km/h (1 Bft) NO 46 ° 0 min 0,000 mm 0,0 UV-I 0 W/m² 13,8 °C 15,3 °C 3,2 km/h (1 Bft)
20.07.2017 00:05 15,3 °C 15,3 °C 91 % 1012,1 hPa 0,0 mm 0,7 km/h (0 Bft) NO 46 ° 0 min 0,000 mm 0,0 UV-I 0 W/m² 13,8 °C 15,3 °C 3,2 km/h (1 Bft)
20.07.2017 00:06 15,2 °C 15,3 °C 91 % 1012,1 hPa 0,2 mm 3,2 km/h (1 Bft) W 277 ° 0 min 0,000 mm 0,0 UV-I 0 W/m² 13,7 °C 15,2 °C 9,7 km/h (2 Bft)
20.07.2017 00:07 15,3 °C 15,3 °C 92 % 1012,0 hPa 0,0 mm 5,8 km/h (2 Bft) W 263 ° 0 min 0,000 mm 0,0 UV-I 0 W/m² 14,0 °C 15,3 °C 9,7 km/h (2 Bft)
20.07.2017 00:08 15,2 °C 15,3 °C 92 % 1012,0 hPa 0,2 mm 6,2 km/h (2 Bft) W 275 ° 0 min 0,000 mm 0,0 UV-I 0 W/m² 13,9 °C 15,2 °C 9,7 km/h (2 Bft)
20.07.2017 00:09 15,3 °C 15,3 °C 92 % 1012,0 hPa 0,0 mm 4,6 km/h (1 Bft) W-NW 285 ° 0 min 0,000 mm 0,0 UV-I 0 W/m² 14,0 °C 15,3 °C 11,3 km/h (2 Bft)
20.07.2017 00:10 15,3 °C 15,3 °C 92 % 1011,9 hPa 0,2 mm 2,2 km/h (1 Bft) S-SO 157 ° 0 min 0,000 mm 0,0 UV-I 0 W/m² 14,0 °C 15,3 °C 4,8 km/h (1 Bft)
20.07.2017 00:11 15,3 °C 15,3 °C 92 % 1012,0 hPa 0,0 mm 1,9 km/h (1 Bft) S-SO 157 ° 0 min 0,000 mm 0,0 UV-I 0 W/m² 14,0 °C 15,3 °C 4,8 km/h (1 Bft)
20.07.2017 00:12 15,3 °C 15,3 °C 92 % 1012,0 hPa 0,2 mm 1,1 km/h (1 Bft) S-SO 154 ° 0 min 0,000 mm 0,0 UV-I 0 W/m² 14,0 °C 15,3 °C 3,2 km/h (1 Bft)
20.07.2017 00:13 15,2 °C 15,3 °C 91 % 1011,9 hPa 0,0 mm 1,1 km/h (1 Bft) S-SO 154 ° 0 min 0,000 mm 0,0 UV-I 0 W/m² 13,7 °C 15,2 °C 3,2 km/h (1 Bft)
20.07.2017 00:14 15,2 °C 15,2 °C 92 % 1011,9 hPa 0,0 mm 0,1 km/h (0 Bft) S-SO 154 ° 0 min 0,000 mm 0,0 UV-I 0 W/m² 13,9 °C 15,2 °C 1,6 km/h (1 Bft)
20.07.2017 00:15 15,2 °C 15,2 °C 92 % 1011,8 hPa 0,2 mm 0,0 km/h (0 Bft) S-SO 154 ° 0 min 0,000 mm 0,0 UV-I 0 W/m² 13,9 °C 15,2 °C 0,0 km/h (0 Bft)
20.07.2017 00:16 15,1 °C 15,2 °C 92 % 1011,8 hPa 0,0 mm 0,9 km/h (0 Bft) S-SO 154 ° 0 min 0,000 mm 0,0 UV-I 0 W/m² 13,8 °C 15,1 °C 3,2 km/h (1 Bft)
20.07.2017 00:17 15,1 °C 15,1 °C 92 % 1011,7 hPa 0,0 mm 0,0 km/h (0 Bft) S-SO 154 ° 0 min 0,000 mm 0,0 UV-I 0 W/m² 13,8 °C 15,1 °C 0,0 km/h (0 Bft)
20.07.2017 00:18 15,1 °C 15,1 °C 92 % 1011,7 hPa 0,2 mm 1,8 km/h (1 Bft) S-SO 154 ° 0 min 0,000 mm 0,0 UV-I 0 W/m² 13,8 °C 15,1 °C 3,2 km/h (1 Bft)
20.07.2017 00:19 15,1 °C 15,1 °C 92 % 1011,7 hPa 0,0 mm 2,7 km/h (1 Bft) S-SO 153 ° 0 min 0,000 mm 0,0 UV-I 0 W/m² 13,8 °C 15,1 °C 4,8 km/h (1 Bft)
20.07.2017 00:20 15,1 °C 15,1 °C 92 % 1011,7 hPa 0,2 mm 4,0 km/h (1 Bft) O-SO 105 ° 0 min 0,000 mm 0,0 UV-I 0 W/m² 13,8 °C 15,1 °C 4,8 km/h (1 Bft)
20.07.2017 00:21 15,1 °C 15,1 °C 93 % 1011,7 hPa 0,0 mm 1,6 km/h (1 Bft) O-SO 105 ° 0 min 0,000 mm 0,0 UV-I 0 W/m² 14,0 °C 15,1 °C 3,2 km/h (1 Bft)
20.07.2017 00:22 15,0 °C 15,1 °C 93 % 1011,6 hPa 0,0 mm 1,5 km/h (1 Bft) O-SO 105 ° 0 min 0,000 mm 0,0 UV-I 0 W/m² 13,9 °C 15,0 °C 3,2 km/h (1 Bft)
20.07.2017 00:23 15,0 °C 15,1 °C 92 % 1011,6 hPa 0,0 mm 0,1 km/h (0 Bft) O-SO 105 ° 0 min 0,000 mm 0,0 UV-I 0 W/m² 13,7 °C 15,0 °C 1,6 km/h (1 Bft)
20.07.2017 00:24 15,0 °C 15,0 °C 93 % 1011,4 hPa 0,0 mm 0,1 km/h (0 Bft) O-SO 105 ° 0 min 0,000 mm 0,0 UV-I 0 W/m² 13,9 °C 15,0 °C 1,6 km/h (1 Bft)
20.07.2017 00:25 14,9 °C 15,0 °C 93 % 1011,4 hPa 0,0 mm 0,0 km/h (0 Bft) O-SO 105 ° 0 min 0,000 mm 0,0 UV-I 0 W/m² 13,8 °C 14,9 °C 0,0 km/h (0 Bft)
20.07.2017 00:26 14,9 °C 15,0 °C 93 % 1011,4 hPa 0,2 mm 0,1 km/h (0 Bft) O-SO 105 ° 0 min 0,000 mm 0,0 UV-I 0 W/m² 13,8 °C 14,9 °C 1,6 km/h (1 Bft)
20.07.2017 00:27 14,9 °C 14,9 °C 93 % 1011,3 hPa 0,0 mm 0,8 km/h (0 Bft) O-SO 105 ° 0 min 0,000 mm 0,0 UV-I 0 W/m² 13,8 °C 14,9 °C 3,2 km/h (1 Bft)
20.07.2017 00:28 14,9 °C 14,9 °C 93 % 1011,3 hPa 0,0 mm 0,1 km/h (0 Bft) O-SO 105 ° 0 min 0,000 mm 0,0 UV-I 0 W/m² 13,8 °C 14,9 °C 1,6 km/h (1 Bft)
20.07.2017 00:29 14,9 °C 14,9 °C 93 % 1011,2 hPa 0,0 mm 0,0 km/h (0 Bft) O-SO 105 ° 0 min 0,000 mm 0,0 UV-I 0 W/m² 13,8 °C 14,9 °C 0,0 km/h (0 Bft)
20.07.2017 00:30 14,9 °C 14,9 °C 93 % 1011,1 hPa 0,0 mm 0,0 km/h (0 Bft) O-SO 105 ° 0 min 0,000 mm 0,0 UV-I 0 W/m² 13,8 °C 14,9 °C 0,0 km/h (0 Bft)
20.07.2017 00:31 14,9 °C 14,9 °C 93 % 1011,1 hPa 0,0 mm 1,0 km/h (0 Bft) O-NO 60 ° 0 min 0,000 mm 0,0 UV-I 0 W/m² 13,8 °C 14,9 °C 3,2 km/h (1 Bft)
20.07.2017 00:32 14,9 °C 14,9 °C 93 % 1011,1 hPa 0,0 mm 0,6 km/h (0 Bft) S-SO 151 ° 0 min 0,000 mm 0,0 UV-I 0 W/m² 13,8 °C 14,9 °C 3,2 km/h (1 Bft)
20.07.2017 00:33 14,9 °C 14,9 °C 93 % 1011,0 hPa 0,0 mm 1,6 km/h (1 Bft) N-NW 347 ° 0 min 0,000 mm 0,0 UV-I 0 W/m² 13,8 °C 14,9 °C 4,8 km/h (1 Bft)
20.07.2017 00:34 14,9 °C 14,9 °C 93 % 1011,0 hPa 0,0 mm 1,8 km/h (1 Bft) N-NW 347 ° 0 min 0,000 mm 0,0 UV-I 0 W/m² 13,8 °C 14,9 °C 3,2 km/h (1 Bft)
20.07.2017 00:35 14,9 °C 14,9 °C 93 % 1011,0 hPa 0,0 mm 1,0 km/h (0 Bft) N 5 ° 0 min 0,000 mm 0,0 UV-I 0 W/m² 13,8 °C 14,9 °C 3,2 km/h (1 Bft)
20.07.2017 00:36 14,9 °C 14,9 °C 93 % 1010,9 hPa 0,0 mm 4,3 km/h (1 Bft) SO 125 ° 0 min 0,000 mm 0,0 UV-I 0 W/m² 13,8 °C 14,9 °C 8,0 km/h (2 Bft)
20.07.2017 00:37 14,9 °C 14,9 °C 93 % 1010,9 hPa 0,0 mm 2,3 km/h (1 Bft) SO 125 ° 0 min 0,000 mm 0,0 UV-I 0 W/m² 13,8 °C 14,9 °C 4,8 km/h (1 Bft)
20.07.2017 00:38 14,9 °C 14,9 °C 93 % 1010,9 hPa 0,0 mm 0,1 km/h (0 Bft) SO 125 ° 0 min 0,000 mm 0,0 UV-I 0 W/m² 13,8 °C 14,9 °C 1,6 km/h (1 Bft)
20.07.2017 00:39 14,9 °C 14,9 °C 93 % 1010,9 hPa 0,0 mm 1,5 km/h (1 Bft) N-NW 329 ° 0 min 0,000 mm 0,0 UV-I 0 W/m² 13,8 °C 14,9 °C 3,2 km/h (1 Bft)
20.07.2017 00:40 14,9 °C 14,9 °C 93 % 1010,9 hPa 0,0 mm 2,9 km/h (1 Bft) N 350 ° 0 min 0,000 mm 0,0 UV-I 0 W/m² 13,8 °C 14,9 °C 6,4 km/h (2 Bft)
20.07.2017 00:41 14,9 °C 14,9 °C 93 % 1010,7 hPa 0,0 mm 2,4 km/h (1 Bft) W-NW 294 ° 0 min 0,000 mm 0,0 UV-I 0 W/m² 13,8 °C 14,9 °C 3,2 km/h (1 Bft)
20.07.2017 00:42 14,9 °C 14,9 °C 94 % 1010,7 hPa 0,0 mm 1,5 km/h (1 Bft) W-NW 294 ° 0 min 0,000 mm 0,0 UV-I 0 W/m² 13,9 °C 14,9 °C 3,2 km/h (1 Bft)
20.07.2017 00:43 14,9 °C 14,9 °C 94 % 1010,8 hPa 0,0 mm 0,0 km/h (0 Bft) W-NW 294 ° 0 min 0,000 mm 0,0 UV-I 0 W/m² 13,9 °C 14,9 °C 0,0 km/h (0 Bft)
20.07.2017 00:44 14,9 °C 14,9 °C 94 % 1010,8 hPa 0,0 mm 0,2 km/h (0 Bft) NW 315 ° 0 min 0,000 mm 0,0 UV-I 0 W/m² 13,9 °C 14,9 °C 1,6 km/h (1 Bft)
20.07.2017 00:45 14,9 °C 14,9 °C 94 % 1010,9 hPa 0,0 mm 3,8 km/h (1 Bft) O 86 ° 0 min 0,000 mm 0,0 UV-I 0 W/m² 13,9 °C 14,9 °C 6,4 km/h (2 Bft)
20.07.2017 00:46 15,0 °C 15,0 °C 94 % 1010,9 hPa 0,0 mm 9,3 km/h (2 Bft) O 86 ° 0 min 0,000 mm 0,0 UV-I 0 W/m² 14,0 °C 15,0 °C 14,5 km/h (3 Bft)
20.07.2017 00:47 14,9 °C 15,0 °C 94 % 1010,9 hPa 0,0 mm 4,8 km/h (1 Bft) O 81 ° 0 min 0,000 mm 0,0 UV-I 0 W/m² 13,9 °C 14,9 °C 9,7 km/h (2 Bft)
20.07.2017 00:48 15,0 °C 15,0 °C 93 % 1010,9 hPa 0,0 mm 1,8 km/h (1 Bft) O-NO 60 ° 0 min 0,000 mm 0,0 UV-I 0 W/m² 13,9 °C 15,0 °C 3,2 km/h (1 Bft)
20.07.2017 00:49 15,0 °C 15,0 °C 93 % 1010,9 hPa 0,0 mm 2,5 km/h (1 Bft) W-SW 250 ° 0 min 0,000 mm 0,0 UV-I 0 W/m² 13,9 °C 15,0 °C 4,8 km/h (1 Bft)
20.07.2017 00:50 15,1 °C 15,1 °C 93 % 1010,8 hPa 0,0 mm 1,7 km/h (1 Bft) O-SO 115 ° 0 min 0,000 mm 0,0 UV-I 0 W/m² 14,0 °C 15,1 °C 3,2 km/h (1 Bft)
20.07.2017 00:51 15,1 °C 15,1 °C 93 % 1010,7 hPa 0,0 mm 0,3 km/h (0 Bft) O-SO 115 ° 0 min 0,000 mm 0,0 UV-I 0 W/m² 14,0 °C 15,1 °C 1,6 km/h (1 Bft)
20.07.2017 00:52 15,1 °C 15,1 °C 93 % 1010,7 hPa 0,0 mm 0,0 km/h (0 Bft) O-SO 115 ° 0 min 0,000 mm 0,0 UV-I 0 W/m² 14,0 °C 15,1 °C 0,0 km/h (0 Bft)
20.07.2017 00:53 15,1 °C 15,1 °C 93 % 1010,6 hPa 0,0 mm 0,1 km/h (0 Bft) O-SO 115 ° 0 min 0,000 mm 0,0 UV-I 0 W/m² 14,0 °C 15,1 °C 1,6 km/h (1 Bft)
20.07.2017 00:54 15,1 °C 15,1 °C 93 % 1010,6 hPa 0,0 mm 0,1 km/h (0 Bft) O-SO 113 ° 0 min 0,000 mm 0,0 UV-I 0 W/m² 14,0 °C 15,1 °C 1,6 km/h (1 Bft)
20.07.2017 00:55 15,1 °C 15,1 °C 93 % 1010,5 hPa 0,0 mm 0,7 km/h (0 Bft) N 355 ° 0 min 0,000 mm 0,0 UV-I 0 W/m² 14,0 °C 15,1 °C 1,6 km/h (1 Bft)
20.07.2017 00:56 15,1 °C 15,1 °C 93 % 1010,5 hPa 0,0 mm 3,7 km/h (1 Bft) NO 49 ° 0 min 0,000 mm 0,0 UV-I 0 W/m² 14,0 °C 15,1 °C 6,4 km/h (2 Bft)
20.07.2017 00:57 15,1 °C 15,1 °C 93 % 1010,4 hPa 0,0 mm 3,4 km/h (1 Bft) O-NO 60 ° 0 min 0,000 mm 0,0 UV-I 0 W/m² 14,0 °C 15,1 °C 6,4 km/h (2 Bft)
20.07.2017 00:58 15,0 °C 15,1 °C 93 % 1010,4 hPa 0,0 mm 4,2 km/h (1 Bft) O 88 ° 0 min 0,000 mm 0,0 UV-I 0 W/m² 13,9 °C 15,0 °C 8,0 km/h (2 Bft)
20.07.2017 00:59 15,0 °C 15,1 °C 93 % 1010,4 hPa 0,0 mm 2,5 km/h (1 Bft) NO 54 ° 0 min 0,000 mm 0,0 UV-I 0 W/m² 13,9 °C 15,0 °C 3,2 km/h (1 Bft)
20.07.2017 01:00 15,0 °C 15,0 °C 93 % 1010,4 hPa 0,0 mm 1,0 km/h (0 Bft) O 98 ° 0 min 0,000 mm 0,0 UV-I 0 W/m² 13,9 °C 15,0 °C 3,2 km/h (1 Bft)
20.07.2017 01:01 15,0 °C 15,0 °C 93 % 1010,4 hPa 0,0 mm 2,9 km/h (1 Bft) O-NO 69 ° 0 min 0,000 mm 0,0 UV-I 0 W/m² 13,9 °C 15,0 °C 4,8 km/h (1 Bft)
20.07.2017 01:02 14,9 °C 15,0 °C 93 % 1010,4 hPa 0,0 mm 0,5 km/h (0 Bft) O-NO 69 ° 0 min 0,000 mm 0,0 UV-I 0 W/m² 13,8 °C 14,9 °C 3,2 km/h (1 Bft)
20.07.2017 01:03 14,9 °C 15,0 °C 93 % 1010,4 hPa 0,0 mm 1,0 km/h (0 Bft) O-NO 60 ° 0 min 0,000 mm 0,0 UV-I 0 W/m² 13,8 °C 14,9 °C 3,2 km/h (1 Bft)
20.07.2017 01:04 14,9 °C 14,9 °C 93 % 1010,3 hPa 0,0 mm 2,4 km/h (1 Bft) NO 38 ° 0 min 0,000 mm 0,0 UV-I 0 W/m² 13,8 °C 14,9 °C 4,8 km/h (1 Bft)
20.07.2017 01:05 14,9 °C 14,9 °C 93 % 1010,3 hPa 0,0 mm 0,3 km/h (0 Bft) NO 38 ° 0 min 0,000 mm 0,0 UV-I 0 W/m² 13,8 °C 14,9 °C 1,6 km/h (1 Bft)
20.07.2017 01:06 14,9 °C 14,9 °C 94 % 1010,2 hPa 0,0 mm 0,0 km/h (0 Bft) NO 38 ° 0 min 0,000 mm 0,0 UV-I 0 W/m² 13,9 °C 14,9 °C 0,0 km/h (0 Bft)
20.07.2017 01:07 14,9 °C 14,9 °C 94 % 1010,2 hPa 0,0 mm 0,0 km/h (0 Bft) NO 38 ° 0 min 0,000 mm 0,0 UV-I 0 W/m² 13,9 °C 14,9 °C 0,0 km/h (0 Bft)
20.07.2017 01:08 14,9 °C 14,9 °C 94 % 1010,2 hPa 0,0 mm 0,0 km/h (0 Bft) NO 38 ° 0 min 0,000 mm 0,0 UV-I 0 W/m² 13,9 °C 14,9 °C 0,0 km/h (0 Bft)
20.07.2017 01:09 14,9 °C 14,9 °C 94 % 1010,2 hPa 0,0 mm 0,0 km/h (0 Bft) O-NO 71 ° 0 min 0,000 mm 0,0 UV-I 0 W/m² 13,9 °C 14,9 °C 0,0 km/h (0 Bft)
20.07.2017 01:10 14,9 °C 14,9 °C 94 % 1010,2 hPa 0,0 mm 0,0 km/h (0 Bft) O-NO 70 ° 0 min 0,000 mm 0,0 UV-I 0 W/m² 13,9 °C 14,9 °C 0,0 km/h (0 Bft)
20.07.2017 01:11 14,9 °C 14,9 °C 94 % 1010,1 hPa 0,0 mm 1,4 km/h (1 Bft) NW 322 ° 0 min 0,000 mm 0,0 UV-I 0 W/m² 13,9 °C 14,9 °C 3,2 km/h (1 Bft)
20.07.2017 01:12 14,8 °C 14,9 °C 94 % 1010,1 hPa 0,0 mm 0,0 km/h (0 Bft) NW 322 ° 0 min 0,000 mm 0,0 UV-I 0 W/m² 13,8 °C 14,8 °C 0,0 km/h (0 Bft)
20.07.2017 01:13 14,8 °C 14,9 °C 94 % 1010,1 hPa 0,0 mm 0,2 km/h (0 Bft) NW 322 ° 0 min 0,000 mm 0,0 UV-I 0 W/m² 13,8 °C 14,8 °C 1,6 km/h (1 Bft)
20.07.2017 01:14 14,8 °C 14,8 °C 94 % 1010,0 hPa 0,0 mm 1,6 km/h (1 Bft) NW 325 ° 0 min 0,000 mm 0,0 UV-I 0 W/m² 13,8 °C 14,8 °C 4,8 km/h (1 Bft)
20.07.2017 01:15 14,8 °C 14,8 °C 94 % 1010,0 hPa 0,0 mm 1,2 km/h (1 Bft) NW 325 ° 0 min 0,000 mm 0,0 UV-I 0 W/m² 13,8 °C 14,8 °C 1,6 km/h (1 Bft)
20.07.2017 01:16 14,8 °C 14,8 °C 94 % 1009,9 hPa 0,0 mm 0,2 km/h (0 Bft) NW 325 ° 0 min 0,000 mm 0,0 UV-I 0 W/m² 13,8 °C 14,8 °C 1,6 km/h (1 Bft)
20.07.2017 01:17 14,8 °C 14,8 °C 94 % 1009,9 hPa 0,0 mm 0,3 km/h (0 Bft) NW 322 ° 0 min 0,000 mm 0,0 UV-I 0 W/m² 13,8 °C 14,8 °C 1,6 km/h (1 Bft)
20.07.2017 01:18 14,8 °C 14,8 °C 94 % 1009,9 hPa 0,0 mm 3,4 km/h (1 Bft) S-SO 152 ° 0 min 0,000 mm 0,0 UV-I 0 W/m² 13,8 °C 14,8 °C 8,0 km/h (2 Bft)
20.07.2017 01:19 14,8 °C 14,8 °C 94 % 1009,9 hPa 0,0 mm 1,9 km/h (1 Bft) NW 314 ° 0 min 0,000 mm 0,0 UV-I 0 W/m² 13,8 °C 14,8 °C 6,4 km/h (2 Bft)
20.07.2017 01:20 14,9 °C 14,9 °C 94 % 1009,9 hPa 0,0 mm 2,3 km/h (1 Bft) NW 315 ° 0 min 0,000 mm 0,0 UV-I 0 W/m² 13,9 °C 14,9 °C 4,8 km/h (1 Bft)
20.07.2017 01:21 14,9 °C 14,9 °C 94 % 1009,8 hPa 0,0 mm 2,5 km/h (1 Bft) NW 317 ° 0 min 0,000 mm 0,0 UV-I 0 W/m² 13,9 °C 14,9 °C 4,8 km/h (1 Bft)
20.07.2017 01:22 14,9 °C 14,9 °C 94 % 1009,8 hPa 0,0 mm 2,5 km/h (1 Bft) NW 317 ° 0 min 0,000 mm 0,0 UV-I 0 W/m² 13,9 °C 14,9 °C 4,8 km/h (1 Bft)
20.07.2017 01:23 14,9 °C 14,9 °C 94 % 1009,7 hPa 0,0 mm 0,9 km/h (0 Bft) NW 317 ° 0 min 0,000 mm 0,0 UV-I 0 W/m² 13,9 °C 14,9 °C 3,2 km/h (1 Bft)
20.07.2017 01:24 14,9 °C 14,9 °C 94 % 1009,7 hPa 0,0 mm 1,0 km/h (0 Bft) NW 317 ° 0 min 0,000 mm 0,0 UV-I 0 W/m² 13,9 °C 14,9 °C 1,6 km/h (1 Bft)
20.07.2017 01:25 14,9 °C 14,9 °C 94 % 1009,6 hPa 0,0 mm 0,9 km/h (0 Bft) NW 317 ° 0 min 0,000 mm 0,0 UV-I 0 W/m² 13,9 °C 14,9 °C 3,2 km/h (1 Bft)
20.07.2017 01:26 14,9 °C 14,9 °C 94 % 1009,6 hPa 0,0 mm 2,6 km/h (1 Bft) N-NW 331 ° 0 min 0,000 mm 0,0 UV-I 0 W/m² 13,9 °C 14,9 °C 4,8 km/h (1 Bft)
20.07.2017 01:27 14,9 °C 14,9 °C 94 % 1009,6 hPa 0,0 mm 1,0 km/h (0 Bft) N-NW 331 ° 0 min 0,000 mm 0,0 UV-I 0 W/m² 13,9 °C 14,9 °C 1,6 km/h (1 Bft)
20.07.2017 01:28 14,9 °C 14,9 °C 94 % 1009,5 hPa 0,0 mm 1,1 km/h (1 Bft) N-NW 331 ° 0 min 0,000 mm 0,0 UV-I 0 W/m² 13,9 °C 14,9 °C 3,2 km/h (1 Bft)
20.07.2017 01:29 14,9 °C 14,9 °C 94 % 1009,5 hPa 0,0 mm 1,7 km/h (1 Bft) N-NW 331 ° 0 min 0,000 mm 0,0 UV-I 0 W/m² 13,9 °C 14,9 °C 3,2 km/h (1 Bft)
20.07.2017 01:30 14,9 °C 14,9 °C 94 % 1009,6 hPa 0,0 mm 1,8 km/h (1 Bft) N-NW 327 ° 0 min 0,000 mm 0,0 UV-I 0 W/m² 13,9 °C 14,9 °C 3,2 km/h (1 Bft)
20.07.2017 01:31 14,9 °C 14,9 °C 94 % 1009,6 hPa 0,0 mm 3,8 km/h (1 Bft) NW 311 ° 0 min 0,000 mm 0,0 UV-I 0 W/m² 13,9 °C 14,9 °C 8,0 km/h (2 Bft)
20.07.2017 01:32 14,9 °C 14,9 °C 94 % 1009,7 hPa 0,0 mm 2,2 km/h (1 Bft) N-NW 329 ° 0 min 0,000 mm 0,0 UV-I 0 W/m² 13,9 °C 14,9 °C 6,4 km/h (2 Bft)
20.07.2017 01:33 14,9 °C 14,9 °C 94 % 1009,7 hPa 0,0 mm 3,0 km/h (1 Bft) N-NW 329 ° 0 min 0,000 mm 0,0 UV-I 0 W/m² 13,9 °C 14,9 °C 4,8 km/h (1 Bft)
20.07.2017 01:34 14,9 °C 14,9 °C 94 % 1009,7 hPa 0,0 mm 3,7 km/h (1 Bft) W-SW 256 ° 0 min 0,000 mm 0,0 UV-I 0 W/m² 13,9 °C 14,9 °C 6,4 km/h (2 Bft)
20.07.2017 01:35 14,9 °C 14,9 °C 94 % 1009,8 hPa 0,0 mm 7,3 km/h (2 Bft) W 273 ° 0 min 0,000 mm 0,0 UV-I 0 W/m² 13,9 °C 14,9 °C 16,1 km/h (3 Bft)
20.07.2017 01:36 14,9 °C 14,9 °C 94 % 1009,9 hPa 0,0 mm 7,1 km/h (2 Bft) SW 218 ° 0 min 0,000 mm 0,0 UV-I 0 W/m² 13,9 °C 14,9 °C 12,9 km/h (3 Bft)
20.07.2017 01:37 15,0 °C 15,0 °C 94 % 1009,9 hPa 0,0 mm 3,5 km/h (1 Bft) SW 221 ° 0 min 0,000 mm 0,0 UV-I 0 W/m² 14,0 °C 15,0 °C 4,8 km/h (1 Bft)
20.07.2017 01:38 15,1 °C 15,1 °C 93 % 1009,9 hPa 0,0 mm 2,7 km/h (1 Bft) W-SW 248 ° 0 min 0,000 mm 0,0 UV-I 0 W/m² 14,0 °C 15,1 °C 4,8 km/h (1 Bft)
20.07.2017 01:39 15,1 °C 15,1 °C 93 % 1009,9 hPa 0,0 mm 2,7 km/h (1 Bft) SW 219 ° 0 min 0,000 mm 0,0 UV-I 0 W/m² 14,0 °C 15,1 °C 4,8 km/h (1 Bft)
20.07.2017 01:40 15,2 °C 15,2 °C 93 % 1009,8 hPa 0,0 mm 4,5 km/h (1 Bft) SO 132 ° 0 min 0,000 mm 0,0 UV-I 0 W/m² 14,1 °C 15,2 °C 6,4 km/h (2 Bft)
20.07.2017 01:41 15,1 °C 15,2 °C 93 % 1009,8 hPa 0,0 mm 5,4 km/h (1 Bft) SO 136 ° 0 min 0,000 mm 0,0 UV-I 0 W/m² 14,0 °C 15,1 °C 8,0 km/h (2 Bft)
20.07.2017 01:42 15,1 °C 15,2 °C 93 % 1009,8 hPa 0,0 mm 5,1 km/h (1 Bft) NO 51 ° 0 min 0,000 mm 0,0 UV-I 0 W/m² 14,0 °C 15,1 °C 6,4 km/h (2 Bft)
20.07.2017 01:43 15,1 °C 15,1 °C 93 % 1009,8 hPa 0,0 mm 2,3 km/h (1 Bft) NO 51 ° 0 min 0,000 mm 0,0 UV-I 0 W/m² 14,0 °C 15,1 °C 4,8 km/h (1 Bft)
20.07.2017 01:44 15,1 °C 15,1 °C 93 % 1009,8 hPa 0,0 mm 0,0 km/h (0 Bft) NO 51 ° 0 min 0,000 mm 0,0 UV-I 0 W/m² 14,0 °C 15,1 °C 0,0 km/h (0 Bft)
20.07.2017 01:45 15,1 °C 15,1 °C 93 % 1009,8 hPa 0,0 mm 1,4 km/h (1 Bft) NW 323 ° 0 min 0,000 mm 0,0 UV-I 0 W/m² 14,0 °C 15,1 °C 3,2 km/h (1 Bft)
20.07.2017 01:46 15,1 °C 15,1 °C 93 % 1009,9 hPa 0,0 mm 1,3 km/h (1 Bft) W 274 ° 0 min 0,000 mm 0,0 UV-I 0 W/m² 14,0 °C 15,1 °C 6,4 km/h (2 Bft)
20.07.2017 01:47 15,0 °C 15,1 °C 93 % 1009,9 hPa 0,0 mm 7,8 km/h (2 Bft) W 271 ° 0 min 0,000 mm 0,0 UV-I 0 W/m² 13,9 °C 15,0 °C 11,3 km/h (2 Bft)
20.07.2017 01:48 15,1 °C 15,1 °C 93 % 1009,9 hPa 0,0 mm 7,5 km/h (2 Bft) W 279 ° 0 min 0,000 mm 0,0 UV-I 0 W/m² 14,0 °C 15,1 °C 11,3 km/h (2 Bft)
20.07.2017 01:49 15,2 °C 15,2 °C 93 % 1010,0 hPa 0,0 mm 8,6 km/h (2 Bft) W-NW 295 ° 0 min 0,000 mm 0,0 UV-I 0 W/m² 14,1 °C 15,2 °C 12,9 km/h (3 Bft)
20.07.2017 01:50 15,2 °C 15,2 °C 92 % 1009,9 hPa 0,0 mm 5,6 km/h (1 Bft) W 265 ° 0 min 0,000 mm 0,0 UV-I 0 W/m² 13,9 °C 15,2 °C 9,7 km/h (2 Bft)
20.07.2017 01:51 15,3 °C 15,3 °C 92 % 1010,0 hPa 0,0 mm 4,8 km/h (1 Bft) S-SW 200 ° 0 min 0,000 mm 0,0 UV-I 0 W/m² 14,0 °C 15,3 °C 6,4 km/h (2 Bft)
20.07.2017 01:52 15,4 °C 15,4 °C 92 % 1010,0 hPa 0,0 mm 4,8 km/h (1 Bft) SW 236 ° 0 min 0,000 mm 0,0 UV-I 0 W/m² 14,1 °C 15,4 °C 8,0 km/h (2 Bft)
20.07.2017 01:53 15,4 °C 15,4 °C 91 % 1010,0 hPa 0,0 mm 2,7 km/h (1 Bft) S 190 ° 0 min 0,000 mm 0,0 UV-I 0 W/m² 13,9 °C 15,4 °C 4,8 km/h (1 Bft)
20.07.2017 01:54 15,4 °C 15,4 °C 91 % 1010,0 hPa 0,0 mm 5,5 km/h (1 Bft) S-SO 163 ° 0 min 0,000 mm 0,0 UV-I 0 W/m² 13,9 °C 15,4 °C 9,7 km/h (2 Bft)
20.07.2017 01:55 15,4 °C 15,5 °C 91 % 1010,0 hPa 0,0 mm 3,2 km/h (1 Bft) SO 142 ° 0 min 0,000 mm 0,0 UV-I 0 W/m² 13,9 °C 15,4 °C 6,4 km/h (2 Bft)
20.07.2017 01:56 15,4 °C 15,4 °C 91 % 1009,9 hPa 0,0 mm 5,0 km/h (1 Bft) O-SO 106 ° 0 min 0,000 mm 0,0 UV-I 0 W/m² 13,9 °C 15,4 °C 9,7 km/h (2 Bft)
20.07.2017 01:57 15,3 °C 15,4 °C 92 % 1009,9 hPa 0,0 mm 1,8 km/h (1 Bft) NW 316 ° 0 min 0,000 mm 0,0 UV-I 0 W/m² 14,0 °C 15,3 °C 3,2 km/h (1 Bft)
20.07.2017 01:58 15,3 °C 15,3 °C 92 % 1009,9 hPa 0,0 mm 1,5 km/h (1 Bft) NW 311 ° 0 min 0,000 mm 0,0 UV-I 0 W/m² 14,0 °C 15,3 °C 3,2 km/h (1 Bft)
20.07.2017 01:59 15,2 °C 15,3 °C 92 % 1009,9 hPa 0,0 mm 1,5 km/h (1 Bft) N-NO 24 ° 0 min 0,000 mm 0,0 UV-I 0 W/m² 13,9 °C 15,2 °C 3,2 km/h (1 Bft)
20.07.2017 02:00 15,2 °C 15,2 °C 92 % 1009,9 hPa 0,0 mm 1,3 km/h (1 Bft) N-NO 24 ° 0 min 0,000 mm 0,0 UV-I 0 W/m² 13,9 °C 15,2 °C 3,2 km/h (1 Bft)
20.07.2017 02:01 15,1 °C 15,2 °C 92 % 1009,9 hPa 0,0 mm 1,5 km/h (1 Bft) N 10 ° 0 min 0,000 mm 0,0 UV-I 0 W/m² 13,8 °C 15,1 °C 4,8 km/h (1 Bft)
20.07.2017 02:02 15,1 °C 15,2 °C 92 % 1009,9 hPa 0,0 mm 2,2 km/h (1 Bft) W-NW 294 ° 0 min 0,000 mm 0,0 UV-I 0 W/m² 13,8 °C 15,1 °C 3,2 km/h (1 Bft)
20.07.2017 02:03 15,1 °C 15,1 °C 92 % 1009,9 hPa 0,0 mm 0,0 km/h (0 Bft) W-NW 294 ° 0 min 0,000 mm 0,0 UV-I 0 W/m² 13,8 °C 15,1 °C 0,0 km/h (0 Bft)
20.07.2017 02:04 15,0 °C 15,1 °C 92 % 1009,9 hPa 0,0 mm 0,0 km/h (0 Bft) W-NW 294 ° 0 min 0,000 mm 0,0 UV-I 0 W/m² 13,7 °C 15,0 °C 0,0 km/h (0 Bft)
20.07.2017 02:05 15,0 °C 15,0 °C 93 % 1009,9 hPa 0,0 mm 1,9 km/h (1 Bft) W-NW 294 ° 0 min 0,000 mm 0,0 UV-I 0 W/m² 13,9 °C 15,0 °C 4,8 km/h (1 Bft)
20.07.2017 02:06 14,9 °C 15,0 °C 93 % 1009,9 hPa 0,0 mm 0,1 km/h (0 Bft) W-NW 294 ° 0 min 0,000 mm 0,0 UV-I 0 W/m² 13,8 °C 14,9 °C 1,6 km/h (1 Bft)
20.07.2017 02:07 14,9 °C 14,9 °C 92 % 1009,8 hPa 0,0 mm 1,1 km/h (1 Bft) W-NW 294 ° 0 min 0,000 mm 0,0 UV-I 0 W/m² 13,6 °C 14,9 °C 3,2 km/h (1 Bft)
20.07.2017 02:08 14,9 °C 14,9 °C 92 % 1009,8 hPa 0,0 mm 0,9 km/h (0 Bft) W-NW 294 ° 0 min 0,000 mm 0,0 UV-I 0 W/m² 13,6 °C 14,9 °C 3,2 km/h (1 Bft)
20.07.2017 02:09 14,8 °C 14,9 °C 92 % 1009,8 hPa 0,0 mm 0,0 km/h (0 Bft) W-NW 294 ° 0 min 0,000 mm 0,0 UV-I 0 W/m² 13,5 °C 14,8 °C 0,0 km/h (0 Bft)
20.07.2017 02:10 14,8 °C 14,8 °C 92 % 1009,8 hPa 0,0 mm 0,0 km/h (0 Bft) W-NW 294 ° 0 min 0,000 mm 0,0 UV-I 0 W/m² 13,5 °C 14,8 °C 0,0 km/h (0 Bft)
20.07.2017 02:11 14,8 °C 14,8 °C 92 % 1009,8 hPa 0,0 mm 0,0 km/h (0 Bft) W-NW 294 ° 0 min 0,000 mm 0,0 UV-I 0 W/m² 13,5 °C 14,8 °C 0,0 km/h (0 Bft)
20.07.2017 02:12 14,8 °C 14,8 °C 92 % 1009,8 hPa 0,0 mm 0,0 km/h (0 Bft) W-NW 294 ° 0 min 0,000 mm 0,0 UV-I 0 W/m² 13,5 °C 14,8 °C 0,0 km/h (0 Bft)
20.07.2017 02:13 14,8 °C 14,8 °C 92 % 1009,8 hPa 0,0 mm 0,0 km/h (0 Bft) W-NW 294 ° 0 min 0,000 mm 0,0 UV-I 0 W/m² 13,5 °C 14,8 °C 0,0 km/h (0 Bft)
20.07.2017 02:14 14,8 °C 14,8 °C 92 % 1009,8 hPa 0,0 mm 0,0 km/h (0 Bft) W-NW 294 ° 0 min 0,000 mm 0,0 UV-I 0 W/m² 13,5 °C 14,8 °C 0,0 km/h (0 Bft)
20.07.2017 02:15 14,7 °C 14,8 °C 93 % 1009,7 hPa 0,0 mm 0,8 km/h (0 Bft) W-NW 294 ° 0 min 0,000 mm 0,0 UV-I 0 W/m² 13,6 °C 14,7 °C 1,6 km/h (1 Bft)
20.07.2017 02:16 14,7 °C 14,7 °C 92 % 1009,7 hPa 0,0 mm 1,1 km/h (1 Bft) W-NW 294 ° 0 min 0,000 mm 0,0 UV-I 0 W/m² 13,4 °C 14,7 °C 3,2 km/h (1 Bft)
20.07.2017 02:17 14,6 °C 14,7 °C 92 % 1009,8 hPa 0,0 mm 0,0 km/h (0 Bft) W-NW 294 ° 0 min 0,000 mm 0,0 UV-I 0 W/m² 13,3 °C 14,6 °C 0,0 km/h (0 Bft)
20.07.2017 02:18 14,6 °C 14,6 °C 93 % 1009,7 hPa 0,0 mm 0,0 km/h (0 Bft) W-NW 294 ° 0 min 0,000 mm 0,0 UV-I 0 W/m² 13,5 °C 14,6 °C 0,0 km/h (0 Bft)
20.07.2017 02:19 14,6 °C 14,6 °C 93 % 1009,7 hPa 0,0 mm 0,0 km/h (0 Bft) W-NW 294 ° 0 min 0,000 mm 0,0 UV-I 0 W/m² 13,5 °C 14,6 °C 0,0 km/h (0 Bft)
20.07.2017 02:20 14,4 °C 14,6 °C 93 % 1009,7 hPa 0,0 mm 0,0 km/h (0 Bft) W-NW 294 ° 0 min 0,000 mm 0,0 UV-I 0 W/m² 13,3 °C 14,4 °C 0,0 km/h (0 Bft)
20.07.2017 02:21 14,4 °C 14,4 °C 93 % 1009,7 hPa 0,0 mm 0,0 km/h (0 Bft) W-NW 294 ° 0 min 0,000 mm 0,0 UV-I 0 W/m² 13,3 °C 14,4 °C 0,0 km/h (0 Bft)
20.07.2017 02:22 14,3 °C 14,4 °C 93 % 1009,7 hPa 0,0 mm 0,0 km/h (0 Bft) W-NW 294 ° 0 min 0,000 mm 0,0 UV-I 0 W/m² 13,2 °C 14,3 °C 0,0 km/h (0 Bft)
20.07.2017 02:23 14,3 °C 14,4 °C 93 % 1009,7 hPa 0,0 mm 1,1 km/h (1 Bft) W-NW 286 ° 0 min 0,000 mm 0,0 UV-I 0 W/m² 13,2 °C 14,3 °C 3,2 km/h (1 Bft)
20.07.2017 02:24 14,3 °C 14,3 °C 93 % 1009,7 hPa 0,0 mm 4,0 km/h (1 Bft) W 281 ° 0 min 0,000 mm 0,0 UV-I 0 W/m² 13,2 °C 14,3 °C 4,8 km/h (1 Bft)
20.07.2017 02:25 14,3 °C 14,3 °C 93 % 1009,8 hPa 0,0 mm 3,4 km/h (1 Bft) W 281 ° 0 min 0,000 mm 0,0 UV-I 0 W/m² 13,2 °C 14,3 °C 4,8 km/h (1 Bft)
20.07.2017 02:26 14,3 °C 14,3 °C 93 % 1009,8 hPa 0,0 mm 5,2 km/h (1 Bft) W-NW 288 ° 0 min 0,000 mm 0,0 UV-I 0 W/m² 13,2 °C 14,3 °C 6,4 km/h (2 Bft)
20.07.2017 02:27 14,3 °C 14,3 °C 93 % 1009,8 hPa 0,0 mm 2,6 km/h (1 Bft) W-NW 288 ° 0 min 0,000 mm 0,0 UV-I 0 W/m² 13,2 °C 14,3 °C 4,8 km/h (1 Bft)
20.07.2017 02:28 14,3 °C 14,3 °C 94 % 1009,7 hPa 0,0 mm 2,0 km/h (1 Bft) W-NW 303 ° 0 min 0,000 mm 0,0 UV-I 0 W/m² 13,3 °C 14,3 °C 6,4 km/h (2 Bft)
20.07.2017 02:29 14,4 °C 14,4 °C 94 % 1009,8 hPa 0,0 mm 4,4 km/h (1 Bft) W-NW 286 ° 0 min 0,000 mm 0,0 UV-I 0 W/m² 13,4 °C 14,4 °C 6,4 km/h (2 Bft)
20.07.2017 02:30 14,4 °C 14,4 °C 94 % 1009,7 hPa 0,0 mm 3,7 km/h (1 Bft) W-NW 286 ° 0 min 0,000 mm 0,0 UV-I 0 W/m² 13,4 °C 14,4 °C 6,4 km/h (2 Bft)
20.07.2017 02:31 14,4 °C 14,4 °C 94 % 1009,7 hPa 0,0 mm 5,0 km/h (1 Bft) W 270 ° 0 min 0,000 mm 0,0 UV-I 0 W/m² 13,4 °C 14,4 °C 6,4 km/h (2 Bft)
20.07.2017 02:32 14,4 °C 14,4 °C 94 % 1009,7 hPa 0,0 mm 5,8 km/h (2 Bft) W 265 ° 0 min 0,000 mm 0,0 UV-I 0 W/m² 13,4 °C 14,4 °C 9,7 km/h (2 Bft)
20.07.2017 02:33 14,4 °C 14,4 °C 93 % 1009,7 hPa 0,0 mm 5,2 km/h (1 Bft) W 271 ° 0 min 0,000 mm 0,0 UV-I 0 W/m² 13,3 °C 14,4 °C 6,4 km/h (2 Bft)
20.07.2017 02:34 14,4 °C 14,4 °C 94 % 1009,7 hPa 0,0 mm 5,4 km/h (1 Bft) W 272 ° 0 min 0,000 mm 0,0 UV-I 0 W/m² 13,4 °C 14,4 °C 6,4 km/h (2 Bft)
20.07.2017 02:35 14,4 °C 14,4 °C 94 % 1009,7 hPa 0,0 mm 6,1 km/h (2 Bft) W 268 ° 0 min 0,000 mm 0,0 UV-I 0 W/m² 13,4 °C 14,4 °C 9,7 km/h (2 Bft)
20.07.2017 02:36 14,4 °C 14,4 °C 93 % 1009,7 hPa 0,0 mm 4,4 km/h (1 Bft) W-NW 286 ° 0 min 0,000 mm 0,0 UV-I 0 W/m² 13,3 °C 14,4 °C 6,4 km/h (2 Bft)
20.07.2017 02:37 14,5 °C 14,5 °C 93 % 1009,6 hPa 0,0 mm 5,6 km/h (1 Bft) W 276 ° 0 min 0,000 mm 0,0 UV-I 0 W/m² 13,4 °C 14,5 °C 8,0 km/h (2 Bft)
20.07.2017 02:38 14,5 °C 14,5 °C 93 % 1009,7 hPa 0,0 mm 4,0 km/h (1 Bft) W 273 ° 0 min 0,000 mm 0,0 UV-I 0 W/m² 13,4 °C 14,5 °C 4,8 km/h (1 Bft)
20.07.2017 02:39 14,5 °C 14,5 °C 93 % 1009,6 hPa 0,0 mm 3,6 km/h (1 Bft) W 263 ° 0 min 0,000 mm 0,0 UV-I 0 W/m² 13,4 °C 14,5 °C 4,8 km/h (1 Bft)
20.07.2017 02:40 14,5 °C 14,5 °C 93 % 1009,6 hPa 0,0 mm 3,0 km/h (1 Bft) W 271 ° 0 min 0,000 mm 0,0 UV-I 0 W/m² 13,4 °C 14,5 °C 4,8 km/h (1 Bft)
20.07.2017 02:41 14,4 °C 14,5 °C 93 % 1009,6 hPa 0,0 mm 2,1 km/h (1 Bft) W 271 ° 0 min 0,000 mm 0,0 UV-I 0 W/m² 13,3 °C 14,4 °C 3,2 km/h (1 Bft)
20.07.2017 02:42 14,4 °C 14,4 °C 93 % 1009,7 hPa 0,0 mm 3,5 km/h (1 Bft) W 270 ° 0 min 0,000 mm 0,0 UV-I 0 W/m² 13,3 °C 14,4 °C 6,4 km/h (2 Bft)
20.07.2017 02:43 14,4 °C 14,4 °C 93 % 1009,6 hPa 0,0 mm 1,9 km/h (1 Bft) W 270 ° 0 min 0,000 mm 0,0 UV-I 0 W/m² 13,3 °C 14,4 °C 3,2 km/h (1 Bft)
20.07.2017 02:44 14,4 °C 14,4 °C 93 % 1009,6 hPa 0,0 mm 0,1 km/h (0 Bft) W 270 ° 0 min 0,000 mm 0,0 UV-I 0 W/m² 13,3 °C 14,4 °C 1,6 km/h (1 Bft)
20.07.2017 02:45 14,4 °C 14,4 °C 93 % 1009,6 hPa 0,0 mm 0,0 km/h (0 Bft) W 270 ° 0 min 0,000 mm 0,0 UV-I 0 W/m² 13,3 °C 14,4 °C 0,0 km/h (0 Bft)
20.07.2017 02:46 14,3 °C 14,4 °C 93 % 1009,6 hPa 0,0 mm 0,0 km/h (0 Bft) W 270 ° 0 min 0,000 mm 0,0 UV-I 0 W/m² 13,2 °C 14,3 °C 0,0 km/h (0 Bft)
20.07.2017 02:47 14,3 °C 14,3 °C 93 % 1009,5 hPa 0,0 mm 0,0 km/h (0 Bft) W 270 ° 0 min 0,000 mm 0,0 UV-I 0 W/m² 13,2 °C 14,3 °C 0,0 km/h (0 Bft)
20.07.2017 02:48 14,3 °C 14,3 °C 93 % 1009,5 hPa 0,0 mm 0,6 km/h (0 Bft) W-NW 283 ° 0 min 0,000 mm 0,0 UV-I 0 W/m² 13,2 °C 14,3 °C 3,2 km/h (1 Bft)
20.07.2017 02:49 14,3 °C 14,3 °C 93 % 1009,5 hPa 0,0 mm 0,9 km/h (0 Bft) W-NW 283 ° 0 min 0,000 mm 0,0 UV-I 0 W/m² 13,2 °C 14,3 °C 3,2 km/h (1 Bft)
20.07.2017 02:50 14,3 °C 14,3 °C 93 % 1009,5 hPa 0,0 mm 0,0 km/h (0 Bft) W-NW 283 ° 0 min 0,000 mm 0,0 UV-I 0 W/m² 13,2 °C 14,3 °C 0,0 km/h (0 Bft)
20.07.2017 02:51 14,3 °C 14,3 °C 93 % 1009,5 hPa 0,0 mm 0,0 km/h (0 Bft) W-NW 283 ° 0 min 0,000 mm 0,0 UV-I 0 W/m² 13,2 °C 14,3 °C 0,0 km/h (0 Bft)
20.07.2017 02:52 14,3 °C 14,3 °C 93 % 1009,6 hPa 0,0 mm 0,0 km/h (0 Bft) W-NW 283 ° 0 min 0,000 mm 0,0 UV-I 0 W/m² 13,2 °C 14,3 °C 0,0 km/h (0 Bft)
20.07.2017 02:53 14,3 °C 14,3 °C 93 % 1009,6 hPa 0,0 mm 0,0 km/h (0 Bft) W-NW 283 ° 0 min 0,000 mm 0,0 UV-I 0 W/m² 13,2 °C 14,3 °C 0,0 km/h (0 Bft)
20.07.2017 02:54 14,2 °C 14,3 °C 93 % 1009,6 hPa 0,0 mm 0,0 km/h (0 Bft) W-NW 283 ° 0 min 0,000 mm 0,0 UV-I 0 W/m² 13,1 °C 14,2 °C 0,0 km/h (0 Bft)
20.07.2017 02:55 14,2 °C 14,2 °C 93 % 1009,5 hPa 0,0 mm 0,3 km/h (0 Bft) W-NW 283 ° 0 min 0,000 mm 0,0 UV-I 0 W/m² 13,1 °C 14,2 °C 1,6 km/h (1 Bft)
20.07.2017 02:56 14,2 °C 14,2 °C 93 % 1009,5 hPa 0,0 mm 0,0 km/h (0 Bft) W-NW 283 ° 0 min 0,000 mm 0,0 UV-I 0 W/m² 13,1 °C 14,2 °C 0,0 km/h (0 Bft)
20.07.2017 02:57 14,2 °C 14,2 °C 94 % 1009,5 hPa 0,0 mm 0,1 km/h (0 Bft) W-SW 238 ° 0 min 0,000 mm 0,0 UV-I 0 W/m² 13,2 °C 14,2 °C 3,2 km/h (1 Bft)
20.07.2017 02:58 14,2 °C 14,2 °C 94 % 1009,5 hPa 0,0 mm 1,0 km/h (0 Bft) W-SW 238 ° 0 min 0,000 mm 0,0 UV-I 0 W/m² 13,2 °C 14,2 °C 3,2 km/h (1 Bft)
20.07.2017 02:59 14,2 °C 14,2 °C 94 % 1009,5 hPa 0,0 mm 0,0 km/h (0 Bft) W-SW 238 ° 0 min 0,000 mm 0,0 UV-I 0 W/m² 13,2 °C 14,2 °C 0,0 km/h (0 Bft)
20.07.2017 03:00 14,2 °C 14,2 °C 94 % 1009,5 hPa 0,0 mm 0,7 km/h (0 Bft) W-NW 284 ° 0 min 0,000 mm 0,0 UV-I 0 W/m² 13,2 °C 14,2 °C 3,2 km/h (1 Bft)
20.07.2017 03:01 14,2 °C 14,2 °C 94 % 1009,5 hPa 0,0 mm 2,3 km/h (1 Bft) W-SW 239 ° 0 min 0,000 mm 0,0 UV-I 0 W/m² 13,2 °C 14,2 °C 4,8 km/h (1 Bft)
20.07.2017 03:02 14,2 °C 14,2 °C 94 % 1009,5 hPa 0,0 mm 1,3 km/h (1 Bft) SW 234 ° 0 min 0,000 mm 0,0 UV-I 0 W/m² 13,2 °C 14,2 °C 3,2 km/h (1 Bft)
20.07.2017 03:03 14,2 °C 14,2 °C 94 % 1009,5 hPa 0,0 mm 0,0 km/h (0 Bft) SW 234 ° 0 min 0,000 mm 0,0 UV-I 0 W/m² 13,2 °C 14,2 °C 0,0 km/h (0 Bft)
20.07.2017 03:04 14,3 °C 14,3 °C 94 % 1009,5 hPa 0,0 mm 1,8 km/h (1 Bft) W 268 ° 0 min 0,000 mm 0,0 UV-I 0 W/m² 13,3 °C 14,3 °C 4,8 km/h (1 Bft)
20.07.2017 03:05 14,3 °C 14,3 °C 94 % 1009,4 hPa 0,0 mm 1,3 km/h (1 Bft) S 185 ° 0 min 0,000 mm 0,0 UV-I 0 W/m² 13,3 °C 14,3 °C 4,8 km/h (1 Bft)
20.07.2017 03:06 14,4 °C 14,4 °C 94 % 1009,4 hPa 0,0 mm 0,6 km/h (0 Bft) S 185 ° 0 min 0,000 mm 0,0 UV-I 0 W/m² 13,4 °C 14,4 °C 3,2 km/h (1 Bft)
20.07.2017 03:07 14,4 °C 14,4 °C 94 % 1009,3 hPa 0,0 mm 0,8 km/h (0 Bft) S 185 ° 0 min 0,000 mm 0,0 UV-I 0 W/m² 13,4 °C 14,4 °C 1,6 km/h (1 Bft)
20.07.2017 03:08 14,3 °C 14,4 °C 93 % 1009,3 hPa 0,0 mm 0,3 km/h (0 Bft) S 185 ° 0 min 0,000 mm 0,0 UV-I 0 W/m² 13,2 °C 14,3 °C 1,6 km/h (1 Bft)
20.07.2017 03:09 14,3 °C 14,3 °C 93 % 1009,3 hPa 0,0 mm 1,1 km/h (1 Bft) S-SW 204 ° 0 min 0,000 mm 0,0 UV-I 0 W/m² 13,2 °C 14,3 °C 3,2 km/h (1 Bft)
20.07.2017 03:10 14,3 °C 14,3 °C 93 % 1009,4 hPa 0,0 mm 0,7 km/h (0 Bft) S-SW 204 ° 0 min 0,000 mm 0,0 UV-I 0 W/m² 13,2 °C 14,3 °C 3,2 km/h (1 Bft)
20.07.2017 03:11 14,3 °C 14,3 °C 94 % 1009,4 hPa 0,0 mm 0,5 km/h (0 Bft) S-SW 212 ° 0 min 0,000 mm 0,0 UV-I 0 W/m² 13,3 °C 14,3 °C 1,6 km/h (1 Bft)
20.07.2017 03:12 14,3 °C 14,3 °C 94 % 1009,4 hPa 0,0 mm 0,1 km/h (0 Bft) S-SW 212 ° 0 min 0,000 mm 0,0 UV-I 0 W/m² 13,3 °C 14,3 °C 1,6 km/h (1 Bft)
20.07.2017 03:13 14,2 °C 14,3 °C 93 % 1009,4 hPa 0,0 mm 0,3 km/h (0 Bft) S-SW 212 ° 0 min 0,000 mm 0,0 UV-I 0 W/m² 13,1 °C 14,2 °C 1,6 km/h (1 Bft)
20.07.2017 03:14 14,2 °C 14,2 °C 93 % 1009,4 hPa 0,0 mm 0,1 km/h (0 Bft) W-NW 298 ° 0 min 0,000 mm 0,0 UV-I 0 W/m² 13,1 °C 14,2 °C 3,2 km/h (1 Bft)
20.07.2017 03:15 14,3 °C 14,3 °C 93 % 1009,4 hPa 0,0 mm 3,0 km/h (1 Bft) S-SO 168 ° 0 min 0,000 mm 0,0 UV-I 0 W/m² 13,2 °C 14,3 °C 6,4 km/h (2 Bft)
20.07.2017 03:16 14,3 °C 14,3 °C 93 % 1009,4 hPa 0,0 mm 0,6 km/h (0 Bft) S-SO 168 ° 0 min 0,000 mm 0,0 UV-I 0 W/m² 13,2 °C 14,3 °C 1,6 km/h (1 Bft)
20.07.2017 03:17 14,3 °C 14,3 °C 93 % 1009,4 hPa 0,0 mm 0,3 km/h (0 Bft) S-SO 168 ° 0 min 0,000 mm 0,0 UV-I 0 W/m² 13,2 °C 14,3 °C 1,6 km/h (1 Bft)
20.07.2017 03:18 14,3 °C 14,3 °C 93 % 1009,4 hPa 0,0 mm 0,3 km/h (0 Bft) S-SO 168 ° 0 min 0,000 mm 0,0 UV-I 0 W/m² 13,2 °C 14,3 °C 1,6 km/h (1 Bft)
20.07.2017 03:19 14,4 °C 14,4 °C 93 % 1009,4 hPa 0,0 mm 0,0 km/h (0 Bft) S 171 ° 0 min 0,000 mm 0,0 UV-I 0 W/m² 13,3 °C 14,4 °C 0,0 km/h (0 Bft)
20.07.2017 03:20 14,4 °C 14,4 °C 93 % 1009,4 hPa 0,0 mm 1,4 km/h (1 Bft) W-SW 244 ° 0 min 0,000 mm 0,0 UV-I 0 W/m² 13,3 °C 14,4 °C 4,8 km/h (1 Bft)
20.07.2017 03:21 14,5 °C 14,5 °C 93 % 1009,4 hPa 0,0 mm 2,8 km/h (1 Bft) S-SW 194 ° 0 min 0,000 mm 0,0 UV-I 0 W/m² 13,4 °C 14,5 °C 8,0 km/h (2 Bft)
20.07.2017 03:22 14,6 °C 14,6 °C 93 % 1009,4 hPa 0,0 mm 1,1 km/h (1 Bft) S-SW 194 ° 0 min 0,000 mm 0,0 UV-I 0 W/m² 13,5 °C 14,6 °C 3,2 km/h (1 Bft)
20.07.2017 03:23 14,6 °C 14,6 °C 92 % 1009,5 hPa 0,0 mm 0,0 km/h (0 Bft) S-SW 194 ° 0 min 0,000 mm 0,0 UV-I 0 W/m² 13,3 °C 14,6 °C 0,0 km/h (0 Bft)
20.07.2017 03:24 14,6 °C 14,6 °C 92 % 1009,5 hPa 0,0 mm 0,1 km/h (0 Bft) S-SW 194 ° 0 min 0,000 mm 0,0 UV-I 0 W/m² 13,3 °C 14,6 °C 1,6 km/h (1 Bft)
20.07.2017 03:25 14,5 °C 14,6 °C 92 % 1009,5 hPa 0,0 mm 0,0 km/h (0 Bft) S-SW 194 ° 0 min 0,000 mm 0,0 UV-I 0 W/m² 13,2 °C 14,5 °C 0,0 km/h (0 Bft)
20.07.2017 03:26 14,4 °C 14,5 °C 92 % 1009,5 hPa 0,0 mm 0,6 km/h (0 Bft) S-SW 194 ° 0 min 0,000 mm 0,0 UV-I 0 W/m² 13,1 °C 14,4 °C 1,6 km/h (1 Bft)
20.07.2017 03:27 14,4 °C 14,4 °C 93 % 1009,5 hPa 0,0 mm 0,2 km/h (0 Bft) S-SW 194 ° 0 min 0,000 mm 0,0 UV-I 0 W/m² 13,3 °C 14,4 °C 1,6 km/h (1 Bft)
20.07.2017 03:28 14,4 °C 14,4 °C 93 % 1009,5 hPa 0,0 mm 0,1 km/h (0 Bft) S-SW 194 ° 0 min 0,000 mm 0,0 UV-I 0 W/m² 13,3 °C 14,4 °C 1,6 km/h (1 Bft)
20.07.2017 03:29 14,3 °C 14,4 °C 92 % 1009,5 hPa 0,0 mm 0,4 km/h (0 Bft) S-SW 194 ° 0 min 0,000 mm 0,0 UV-I 0 W/m² 13,0 °C 14,3 °C 1,6 km/h (1 Bft)
20.07.2017 03:30 14,2 °C 14,3 °C 93 % 1009,5 hPa 0,0 mm 0,1 km/h (0 Bft) S-SW 194 ° 0 min 0,000 mm 0,0 UV-I 0 W/m² 13,1 °C 14,2 °C 1,6 km/h (1 Bft)
20.07.2017 03:31 14,2 °C 14,2 °C 93 % 1009,5 hPa 0,0 mm 0,0 km/h (0 Bft) S-SW 194 ° 0 min 0,000 mm 0,0 UV-I 0 W/m² 13,1 °C 14,2 °C 0,0 km/h (0 Bft)
20.07.2017 03:32 14,2 °C 14,2 °C 93 % 1009,7 hPa 0,0 mm 1,2 km/h (1 Bft) W 265 ° 0 min 0,000 mm 0,0 UV-I 0 W/m² 13,1 °C 14,2 °C 3,2 km/h (1 Bft)
20.07.2017 03:33 14,2 °C 14,2 °C 93 % 1009,6 hPa 0,0 mm 0,0 km/h (0 Bft) W 265 ° 0 min 0,000 mm 0,0 UV-I 0 W/m² 13,1 °C 14,2 °C 0,0 km/h (0 Bft)
20.07.2017 03:34 14,1 °C 14,2 °C 93 % 1009,6 hPa 0,0 mm 3,1 km/h (1 Bft) NW 323 ° 0 min 0,000 mm 0,0 UV-I 0 W/m² 13,0 °C 14,1 °C 6,4 km/h (2 Bft)
20.07.2017 03:35 14,1 °C 14,1 °C 93 % 1009,6 hPa 0,0 mm 2,1 km/h (1 Bft) NW 305 ° 0 min 0,000 mm 0,0 UV-I 0 W/m² 13,0 °C 14,1 °C 4,8 km/h (1 Bft)
20.07.2017 03:36 14,1 °C 14,1 °C 93 % 1009,6 hPa 0,0 mm 0,7 km/h (0 Bft) NW 305 ° 0 min 0,000 mm 0,0 UV-I 0 W/m² 13,0 °C 14,1 °C 1,6 km/h (1 Bft)
20.07.2017 03:37 14,1 °C 14,1 °C 94 % 1009,7 hPa 0,0 mm 0,0 km/h (0 Bft) NW 305 ° 0 min 0,000 mm 0,0 UV-I 0 W/m² 13,1 °C 14,1 °C 0,0 km/h (0 Bft)
20.07.2017 03:38 14,1 °C 14,1 °C 94 % 1009,7 hPa 0,0 mm 0,0 km/h (0 Bft) NW 305 ° 0 min 0,000 mm 0,0 UV-I 0 W/m² 13,1 °C 14,1 °C 0,0 km/h (0 Bft)
20.07.2017 03:39 14,1 °C 14,1 °C 94 % 1009,7 hPa 0,0 mm 0,0 km/h (0 Bft) NW 305 ° 0 min 0,000 mm 0,0 UV-I 0 W/m² 13,1 °C 14,1 °C 0,0 km/h (0 Bft)
20.07.2017 03:40 14,1 °C 14,1 °C 94 % 1009,7 hPa 0,0 mm 0,7 km/h (0 Bft) NW 305 ° 0 min 0,000 mm 0,0 UV-I 0 W/m² 13,1 °C 14,1 °C 1,6 km/h (1 Bft)
20.07.2017 03:41 14,1 °C 14,1 °C 93 % 1009,7 hPa 0,0 mm 0,2 km/h (0 Bft) NW 305 ° 0 min 0,000 mm 0,0 UV-I 0 W/m² 13,0 °C 14,1 °C 1,6 km/h (1 Bft)
20.07.2017 03:42 14,1 °C 14,1 °C 94 % 1009,8 hPa 0,0 mm 0,0 km/h (0 Bft) NW 305 ° 0 min 0,000 mm 0,0 UV-I 0 W/m² 13,1 °C 14,1 °C 0,0 km/h (0 Bft)
20.07.2017 03:43 14,1 °C 14,1 °C 93 % 1009,7 hPa 0,0 mm 0,0 km/h (0 Bft) NW 305 ° 0 min 0,000 mm 0,0 UV-I 0 W/m² 13,0 °C 14,1 °C 0,0 km/h (0 Bft)
20.07.2017 03:44 14,0 °C 14,1 °C 93 % 1009,8 hPa 0,0 mm 0,0 km/h (0 Bft) NW 305 ° 0 min 0,000 mm 0,0 UV-I 0 W/m² 12,9 °C 14,0 °C 0,0 km/h (0 Bft)
20.07.2017 03:45 14,0 °C 14,1 °C 93 % 1009,7 hPa 0,0 mm 0,0 km/h (0 Bft) NW 305 ° 0 min 0,000 mm 0,0 UV-I 0 W/m² 12,9 °C 14,0 °C 0,0 km/h (0 Bft)
20.07.2017 03:46 14,1 °C 14,1 °C 94 % 1009,8 hPa 0,0 mm 0,0 km/h (0 Bft) NW 305 ° 0 min 0,000 mm 0,0 UV-I 0 W/m² 13,1 °C 14,1 °C 0,0 km/h (0 Bft)
20.07.2017 03:47 14,1 °C 14,1 °C 94 % 1009,7 hPa 0,0 mm 0,0 km/h (0 Bft) NW 305 ° 0 min 0,000 mm 0,0 UV-I 0 W/m² 13,1 °C 14,1 °C 0,0 km/h (0 Bft)
20.07.2017 03:48 14,1 °C 14,1 °C 94 % 1009,8 hPa 0,0 mm 0,0 km/h (0 Bft) NW 305 ° 0 min 0,000 mm 0,0 UV-I 0 W/m² 13,1 °C 14,1 °C 0,0 km/h (0 Bft)
20.07.2017 03:49 14,1 °C 14,1 °C 94 % 1009,7 hPa 0,0 mm 0,3 km/h (0 Bft) NW 305 ° 0 min 0,000 mm 0,0 UV-I 0 W/m² 13,1 °C 14,1 °C 1,6 km/h (1 Bft)
20.07.2017 03:50 14,1 °C 14,1 °C 94 % 1009,7 hPa 0,0 mm 0,0 km/h (0 Bft) NW 305 ° 0 min 0,000 mm 0,0 UV-I 0 W/m² 13,1 °C 14,1 °C 0,0 km/h (0 Bft)
20.07.2017 03:51 14,1 °C 14,1 °C 94 % 1009,7 hPa 0,0 mm 0,0 km/h (0 Bft) NW 305 ° 0 min 0,000 mm 0,0 UV-I 0 W/m² 13,1 °C 14,1 °C 0,0 km/h (0 Bft)
20.07.2017 03:52 14,1 °C 14,1 °C 94 % 1009,7 hPa 0,0 mm 0,0 km/h (0 Bft) NW 305 ° 0 min 0,000 mm 0,0 UV-I 0 W/m² 13,1 °C 14,1 °C 0,0 km/h (0 Bft)
20.07.2017 03:53 14,1 °C 14,1 °C 94 % 1009,8 hPa 0,0 mm 0,0 km/h (0 Bft) NW 305 ° 0 min 0,000 mm 0,0 UV-I 0 W/m² 13,1 °C 14,1 °C 0,0 km/h (0 Bft)
20.07.2017 03:54 14,1 °C 14,1 °C 94 % 1009,8 hPa 0,0 mm 0,9 km/h (0 Bft) NW 305 ° 0 min 0,000 mm 0,0 UV-I 0 W/m² 13,1 °C 14,1 °C 3,2 km/h (1 Bft)
20.07.2017 03:55 14,1 °C 14,1 °C 94 % 1009,8 hPa 0,0 mm 0,0 km/h (0 Bft) NW 305 ° 0 min 0,000 mm 0,0 UV-I 0 W/m² 13,1 °C 14,1 °C 0,0 km/h (0 Bft)
20.07.2017 03:56 14,1 °C 14,1 °C 94 % 1009,8 hPa 0,0 mm 0,0 km/h (0 Bft) NW 305 ° 0 min 0,000 mm 0,0 UV-I 0 W/m² 13,1 °C 14,1 °C 0,0 km/h (0 Bft)
20.07.2017 03:57 14,1 °C 14,1 °C 94 % 1009,8 hPa 0,0 mm 0,0 km/h (0 Bft) NW 305 ° 0 min 0,000 mm 0,0 UV-I 0 W/m² 13,1 °C 14,1 °C 0,0 km/h (0 Bft)
20.07.2017 03:58 14,1 °C 14,1 °C 94 % 1009,9 hPa 0,0 mm 0,0 km/h (0 Bft) NW 305 ° 0 min 0,000 mm 0,0 UV-I 0 W/m² 13,1 °C 14,1 °C 0,0 km/h (0 Bft)
20.07.2017 03:59 14,1 °C 14,1 °C 94 % 1009,9 hPa 0,0 mm 0,0 km/h (0 Bft) NW 305 ° 0 min 0,000 mm 0,0 UV-I 0 W/m² 13,1 °C 14,1 °C 0,0 km/h (0 Bft)
20.07.2017 04:00 14,1 °C 14,1 °C 94 % 1009,8 hPa 0,0 mm 0,0 km/h (0 Bft) NW 305 ° 0 min 0,000 mm 0,0 UV-I 0 W/m² 13,1 °C 14,1 °C 0,0 km/h (0 Bft)
20.07.2017 04:01 14,0 °C 14,1 °C 94 % 1009,8 hPa 0,0 mm 0,0 km/h (0 Bft) NW 305 ° 0 min 0,000 mm 0,0 UV-I 0 W/m² 13,0 °C 14,0 °C 0,0 km/h (0 Bft)
20.07.2017 04:02 13,9 °C 14,0 °C 94 % 1009,8 hPa 0,0 mm 0,0 km/h (0 Bft) NW 305 ° 0 min 0,000 mm 0,0 UV-I 0 W/m² 12,9 °C 13,9 °C 0,0 km/h (0 Bft)
20.07.2017 04:03 13,9 °C 14,0 °C 94 % 1009,8 hPa 0,0 mm 0,0 km/h (0 Bft) NW 305 ° 0 min 0,000 mm 0,0 UV-I 0 W/m² 12,9 °C 13,9 °C 0,0 km/h (0 Bft)
20.07.2017 04:04 13,9 °C 14,0 °C 94 % 1009,8 hPa 0,0 mm 0,0 km/h (0 Bft) NW 305 ° 0 min 0,000 mm 0,0 UV-I 0 W/m² 12,9 °C 13,9 °C 0,0 km/h (0 Bft)
20.07.2017 04:05 13,9 °C 13,9 °C 94 % 1009,7 hPa 0,0 mm 0,0 km/h (0 Bft) NW 305 ° 0 min 0,000 mm 0,0 UV-I 0 W/m² 12,9 °C 13,9 °C 0,0 km/h (0 Bft)
20.07.2017 04:06 13,9 °C 13,9 °C 94 % 1009,7 hPa 0,0 mm 0,0 km/h (0 Bft) NW 305 ° 0 min 0,000 mm 0,0 UV-I 0 W/m² 12,9 °C 13,9 °C 0,0 km/h (0 Bft)
20.07.2017 04:07 13,9 °C 13,9 °C 94 % 1009,7 hPa 0,0 mm 0,0 km/h (0 Bft) NW 305 ° 0 min 0,000 mm 0,0 UV-I 0 W/m² 12,9 °C 13,9 °C 0,0 km/h (0 Bft)
20.07.2017 04:08 13,9 °C 13,9 °C 94 % 1009,7 hPa 0,0 mm 0,3 km/h (0 Bft) NW 305 ° 0 min 0,000 mm 0,0 UV-I 0 W/m² 12,9 °C 13,9 °C 1,6 km/h (1 Bft)
20.07.2017 04:09 13,9 °C 13,9 °C 94 % 1009,7 hPa 0,0 mm 0,0 km/h (0 Bft) NW 305 ° 0 min 0,000 mm 0,0 UV-I 0 W/m² 12,9 °C 13,9 °C 0,0 km/h (0 Bft)
20.07.2017 04:10 13,9 °C 13,9 °C 94 % 1009,7 hPa 0,0 mm 0,0 km/h (0 Bft) NW 305 ° 0 min 0,000 mm 0,0 UV-I 0 W/m² 12,9 °C 13,9 °C 0,0 km/h (0 Bft)
20.07.2017 04:11 13,9 °C 13,9 °C 94 % 1009,8 hPa 0,0 mm 0,3 km/h (0 Bft) NW 305 ° 0 min 0,000 mm 0,0 UV-I 0 W/m² 12,9 °C 13,9 °C 1,6 km/h (1 Bft)
20.07.2017 04:12 13,8 °C 13,9 °C 94 % 1009,8 hPa 0,0 mm 2,7 km/h (1 Bft) NW 305 ° 0 min 0,000 mm 0,0 UV-I 0 W/m² 12,9 °C 13,8 °C 3,2 km/h (1 Bft)
20.07.2017 04:13 13,9 °C 13,9 °C 94 % 1009,8 hPa 0,0 mm 2,3 km/h (1 Bft) NW 305 ° 0 min 0,000 mm 0,0 UV-I 0 W/m² 12,9 °C 13,9 °C 4,8 km/h (1 Bft)
20.07.2017 04:14 13,9 °C 13,9 °C 94 % 1009,8 hPa 0,0 mm 2,2 km/h (1 Bft) NW 305 ° 0 min 0,000 mm 0,0 UV-I 0 W/m² 12,9 °C 13,9 °C 3,2 km/h (1 Bft)
20.07.2017 04:15 13,9 °C 13,9 °C 94 % 1009,8 hPa 0,0 mm 1,1 km/h (1 Bft) W-SW 256 ° 0 min 0,000 mm 0,0 UV-I 0 W/m² 12,9 °C 13,9 °C 3,2 km/h (1 Bft)
20.07.2017 04:16 14,0 °C 14,0 °C 94 % 1009,8 hPa 0,0 mm 0,5 km/h (0 Bft) W-SW 256 ° 0 min 0,000 mm 0,0 UV-I 0 W/m² 13,0 °C 14,0 °C 1,6 km/h (1 Bft)
20.07.2017 04:17 14,0 °C 14,0 °C 94 % 1009,8 hPa 0,0 mm 1,0 km/h (0 Bft) W-SW 238 ° 0 min 0,000 mm 0,0 UV-I 0 W/m² 13,0 °C 14,0 °C 3,2 km/h (1 Bft)
20.07.2017 04:18 14,1 °C 14,1 °C 94 % 1009,8 hPa 0,0 mm 0,0 km/h (0 Bft) W-SW 238 ° 0 min 0,000 mm 0,0 UV-I 0 W/m² 13,1 °C 14,1 °C 0,0 km/h (0 Bft)
20.07.2017 04:19 14,0 °C 14,1 °C 94 % 1009,8 hPa 0,0 mm 0,5 km/h (0 Bft) W-SW 238 ° 0 min 0,000 mm 0,0 UV-I 0 W/m² 13,0 °C 14,0 °C 1,6 km/h (1 Bft)
20.07.2017 04:20 14,1 °C 14,1 °C 94 % 1009,9 hPa 0,0 mm 0,0 km/h (0 Bft) W-SW 238 ° 0 min 0,000 mm 0,0 UV-I 0 W/m² 13,1 °C 14,1 °C 0,0 km/h (0 Bft)
20.07.2017 04:21 14,1 °C 14,1 °C 94 % 1009,9 hPa 0,0 mm 1,7 km/h (1 Bft) N 5 ° 0 min 0,000 mm 0,0 UV-I 0 W/m² 13,1 °C 14,1 °C 3,2 km/h (1 Bft)
20.07.2017 04:22 14,2 °C 14,2 °C 94 % 1009,9 hPa 0,0 mm 1,3 km/h (1 Bft) S 186 ° 0 min 0,000 mm 0,0 UV-I 0 W/m² 13,2 °C 14,2 °C 3,2 km/h (1 Bft)
20.07.2017 04:23 14,2 °C 14,2 °C 94 % 1009,9 hPa 0,0 mm 1,3 km/h (1 Bft) S 186 ° 0 min 0,000 mm 0,0 UV-I 0 W/m² 13,2 °C 14,2 °C 3,2 km/h (1 Bft)
20.07.2017 04:24 14,2 °C 14,2 °C 94 % 1010,0 hPa 0,0 mm 0,1 km/h (0 Bft) S 186 ° 0 min 0,000 mm 0,0 UV-I 0 W/m² 13,2 °C 14,2 °C 1,6 km/h (1 Bft)
20.07.2017 04:25 14,2 °C 14,3 °C 94 % 1010,0 hPa 0,0 mm 0,6 km/h (0 Bft) S 190 ° 0 min 0,000 mm 0,0 UV-I 0 W/m² 13,2 °C 14,2 °C 1,6 km/h (1 Bft)
20.07.2017 04:26 14,2 °C 14,2 °C 94 % 1010,0 hPa 0,0 mm 0,0 km/h (0 Bft) S 190 ° 0 min 0,000 mm 0,0 UV-I 0 W/m² 13,2 °C 14,2 °C 0,0 km/h (0 Bft)
20.07.2017 04:27 14,2 °C 14,2 °C 94 % 1010,0 hPa 0,0 mm 0,7 km/h (0 Bft) S 190 ° 0 min 0,000 mm 0,0 UV-I 0 W/m² 13,2 °C 14,2 °C 3,2 km/h (1 Bft)
20.07.2017 04:28 14,2 °C 14,3 °C 94 % 1010,0 hPa 0,0 mm 0,2 km/h (0 Bft) S 190 ° 0 min 0,000 mm 0,0 UV-I 0 W/m² 13,2 °C 14,2 °C 1,6 km/h (1 Bft)
20.07.2017 04:29 14,2 °C 14,2 °C 94 % 1010,1 hPa 0,0 mm 0,7 km/h (0 Bft) S 190 ° 0 min 0,000 mm 0,0 UV-I 0 W/m² 13,2 °C 14,2 °C 1,6 km/h (1 Bft)
20.07.2017 04:30 14,2 °C 14,2 °C 94 % 1010,1 hPa 0,0 mm 3,2 km/h (1 Bft) NW 323 ° 0 min 0,000 mm 0,0 UV-I 0 W/m² 13,2 °C 14,2 °C 6,4 km/h (2 Bft)
20.07.2017 04:31 14,2 °C 14,2 °C 94 % 1010,1 hPa 0,0 mm 1,1 km/h (1 Bft) NW 320 ° 0 min 0,000 mm 0,0 UV-I 0 W/m² 13,2 °C 14,2 °C 3,2 km/h (1 Bft)
20.07.2017 04:32 14,2 °C 14,2 °C 94 % 1010,1 hPa 0,0 mm 1,3 km/h (1 Bft) NW 320 ° 0 min 0,000 mm 0,0 UV-I 0 W/m² 13,2 °C 14,2 °C 3,2 km/h (1 Bft)
20.07.2017 04:33 14,2 °C 14,2 °C 93 % 1010,2 hPa 0,0 mm 0,1 km/h (0 Bft) NW 320 ° 0 min 0,000 mm 0,0 UV-I 0 W/m² 13,1 °C 14,2 °C 1,6 km/h (1 Bft)
20.07.2017 04:34 14,3 °C 14,3 °C 94 % 1010,2 hPa 0,0 mm 0,1 km/h (0 Bft) NW 320 ° 0 min 0,000 mm 0,0 UV-I 0 W/m² 13,3 °C 14,3 °C 1,6 km/h (1 Bft)
20.07.2017 04:35 14,3 °C 14,3 °C 94 % 1010,2 hPa 0,0 mm 1,3 km/h (1 Bft) NW 320 ° 0 min 0,000 mm 0,0 UV-I 0 W/m² 13,3 °C 14,3 °C 3,2 km/h (1 Bft)
20.07.2017 04:36 14,3 °C 14,3 °C 94 % 1010,3 hPa 0,0 mm 0,0 km/h (0 Bft) NW 320 ° 0 min 0,000 mm 0,0 UV-I 0 W/m² 13,3 °C 14,3 °C 0,0 km/h (0 Bft)
20.07.2017 04:37 14,3 °C 14,3 °C 94 % 1010,3 hPa 0,0 mm 0,1 km/h (0 Bft) NW 320 ° 0 min 0,000 mm 0,0 UV-I 0 W/m² 13,3 °C 14,3 °C 1,6 km/h (1 Bft)
20.07.2017 04:38 14,2 °C 14,3 °C 94 % 1010,3 hPa 0,0 mm 3,6 km/h (1 Bft) NW 320 ° 0 min 0,000 mm 0,0 UV-I 0 W/m² 13,2 °C 14,2 °C 4,8 km/h (1 Bft)
20.07.2017 04:39 14,2 °C 14,3 °C 94 % 1010,2 hPa 0,0 mm 1,5 km/h (1 Bft) NW 320 ° 0 min 0,000 mm 0,0 UV-I 0 W/m² 13,2 °C 14,2 °C 3,2 km/h (1 Bft)
20.07.2017 04:40 14,2 °C 14,3 °C 93 % 1010,3 hPa 0,0 mm 0,5 km/h (0 Bft) NW 320 ° 0 min 0,000 mm 0,0 UV-I 0 W/m² 13,1 °C 14,2 °C 3,2 km/h (1 Bft)
20.07.2017 04:41 14,2 °C 14,2 °C 93 % 1010,3 hPa 0,0 mm 0,8 km/h (0 Bft) NW 320 ° 0 min 0,000 mm 0,0 UV-I 0 W/m² 13,1 °C 14,2 °C 3,2 km/h (1 Bft)
20.07.2017 04:42 14,2 °C 14,2 °C 93 % 1010,4 hPa 0,0 mm 1,5 km/h (1 Bft) S-SW 211 ° 0 min 0,000 mm 0,0 UV-I 0 W/m² 13,1 °C 14,2 °C 3,2 km/h (1 Bft)
20.07.2017 04:43 14,3 °C 14,3 °C 93 % 1010,4 hPa 0,0 mm 1,6 km/h (1 Bft) S-SW 194 ° 0 min 0,000 mm 0,0 UV-I 0 W/m² 13,2 °C 14,3 °C 4,8 km/h (1 Bft)
20.07.2017 04:44 14,3 °C 14,3 °C 93 % 1010,4 hPa 0,0 mm 5,1 km/h (1 Bft) S 178 ° 0 min 0,000 mm 0,0 UV-I 0 W/m² 13,2 °C 14,3 °C 9,7 km/h (2 Bft)
20.07.2017 04:45 14,4 °C 14,4 °C 93 % 1010,4 hPa 0,0 mm 6,4 km/h (2 Bft) S-SW 206 ° 0 min 0,000 mm 0,0 UV-I 0 W/m² 13,3 °C 14,4 °C 9,7 km/h (2 Bft)
20.07.2017 04:46 14,6 °C 14,6 °C 92 % 1010,4 hPa 0,0 mm 4,1 km/h (1 Bft) S-SW 210 ° 0 min 0,000 mm 0,0 UV-I 0 W/m² 13,3 °C 14,6 °C 4,8 km/h (1 Bft)
20.07.2017 04:47 14,8 °C 14,8 °C 91 % 1010,5 hPa 0,0 mm 5,2 km/h (1 Bft) S-SW 203 ° 0 min 0,000 mm 0,0 UV-I 0 W/m² 13,3 °C 14,8 °C 8,0 km/h (2 Bft)
20.07.2017 04:48 15,1 °C 15,1 °C 90 % 1010,5 hPa 0,0 mm 6,2 km/h (2 Bft) SW 223 ° 0 min 0,000 mm 0,0 UV-I 0 W/m² 13,5 °C 15,1 °C 8,0 km/h (2 Bft)
20.07.2017 04:49 15,3 °C 15,3 °C 88 % 1010,5 hPa 0,0 mm 4,0 km/h (1 Bft) S-SW 213 ° 0 min 0,000 mm 0,0 UV-I 0 W/m² 13,3 °C 15,3 °C 4,8 km/h (1 Bft)
20.07.2017 04:50 15,4 °C 15,4 °C 87 % 1010,6 hPa 0,0 mm 2,4 km/h (1 Bft) SW 226 ° 0 min 0,000 mm 0,0 UV-I 0 W/m² 13,2 °C 15,4 °C 3,2 km/h (1 Bft)
20.07.2017 04:51 15,7 °C 15,7 °C 86 % 1010,5 hPa 0,0 mm 4,0 km/h (1 Bft) SW 222 ° 0 min 0,000 mm 0,0 UV-I 0 W/m² 13,4 °C 15,7 °C 8,0 km/h (2 Bft)
20.07.2017 04:52 15,8 °C 15,8 °C 85 % 1010,6 hPa 0,0 mm 2,0 km/h (1 Bft) W 270 ° 0 min 0,000 mm 0,0 UV-I 0 W/m² 13,3 °C 15,8 °C 6,4 km/h (2 Bft)
20.07.2017 04:53 16,0 °C 16,0 °C 84 % 1010,7 hPa 0,0 mm 5,1 km/h (1 Bft) W-SW 254 ° 0 min 0,000 mm 0,0 UV-I 0 W/m² 13,3 °C 16,0 °C 12,9 km/h (3 Bft)
20.07.2017 04:54 16,1 °C 16,1 °C 84 % 1010,7 hPa 0,0 mm 4,1 km/h (1 Bft) SW 214 ° 0 min 0,000 mm 0,0 UV-I 0 W/m² 13,4 °C 16,1 °C 6,4 km/h (2 Bft)
20.07.2017 04:55 16,2 °C 16,2 °C 84 % 1010,6 hPa 0,0 mm 9,3 km/h (2 Bft) W 261 ° 0 min 0,000 mm 0,0 UV-I 0 W/m² 13,5 °C 16,2 °C 16,1 km/h (3 Bft)
20.07.2017 04:56 16,3 °C 16,3 °C 83 % 1010,6 hPa 0,0 mm 8,4 km/h (2 Bft) W-SW 238 ° 0 min 0,000 mm 0,0 UV-I 0 W/m² 13,4 °C 16,3 °C 12,9 km/h (3 Bft)
20.07.2017 04:57 16,3 °C 16,3 °C 83 % 1010,6 hPa 0,0 mm 8,3 km/h (2 Bft) W-SW 237 ° 0 min 0,000 mm 0,0 UV-I 0 W/m² 13,4 °C 16,3 °C 14,5 km/h (3 Bft)
20.07.2017 04:58 16,4 °C 16,4 °C 82 % 1010,7 hPa 0,0 mm 6,9 km/h (2 Bft) W 271 ° 0 min 0,000 mm 0,0 UV-I 0 W/m² 13,3 °C 16,4 °C 11,3 km/h (2 Bft)
20.07.2017 04:59 16,4 °C 16,4 °C 82 % 1010,6 hPa 0,0 mm 8,0 km/h (2 Bft) W 264 ° 0 min 0,000 mm 0,0 UV-I 0 W/m² 13,3 °C 16,4 °C 12,9 km/h (3 Bft)
20.07.2017 05:00 16,6 °C 16,6 °C 82 % 1010,7 hPa 0,0 mm 6,6 km/h (2 Bft) W 278 ° 0 min 0,000 mm 0,0 UV-I 0 W/m² 13,5 °C 16,6 °C 11,3 km/h (2 Bft)
20.07.2017 05:01 16,6 °C 16,6 °C 82 % 1010,7 hPa 0,0 mm 6,7 km/h (2 Bft) W 275 ° 0 min 0,000 mm 0,0 UV-I 0 W/m² 13,5 °C 16,6 °C 11,3 km/h (2 Bft)
20.07.2017 05:02 16,6 °C 16,6 °C 82 % 1010,7 hPa 0,0 mm 7,2 km/h (2 Bft) W 263 ° 0 min 0,000 mm 0,0 UV-I 0 W/m² 13,5 °C 16,6 °C 14,5 km/h (3 Bft)
20.07.2017 05:03 16,6 °C 16,6 °C 82 % 1010,6 hPa 0,0 mm 10,1 km/h (2 Bft) W 268 ° 0 min 0,000 mm 0,0 UV-I 0 W/m² 13,5 °C 16,6 °C 16,1 km/h (3 Bft)
20.07.2017 05:04 16,6 °C 16,6 °C 81 % 1010,6 hPa 0,0 mm 9,1 km/h (2 Bft) W-SW 242 ° 0 min 0,000 mm 0,0 UV-I 0 W/m² 13,3 °C 16,6 °C 12,9 km/h (3 Bft)
20.07.2017 05:05 16,7 °C 16,7 °C 81 % 1010,8 hPa 0,0 mm 3,9 km/h (1 Bft) SW 236 ° 0 min 0,000 mm 0,0 UV-I 0 W/m² 13,4 °C 16,7 °C 11,3 km/h (2 Bft)
20.07.2017 05:06 16,7 °C 16,7 °C 81 % 1010,7 hPa 0,0 mm 8,4 km/h (2 Bft) W-SW 242 ° 0 min 0,000 mm 0,0 UV-I 0 W/m² 13,4 °C 16,7 °C 16,1 km/h (3 Bft)
20.07.2017 05:07 16,8 °C 16,8 °C 81 % 1010,7 hPa 0,0 mm 12,3 km/h (3 Bft) W-SW 252 ° 0 min 0,000 mm 0,0 UV-I 0 W/m² 13,5 °C 16,8 °C 17,7 km/h (3 Bft)
20.07.2017 05:08 16,8 °C 16,8 °C 81 % 1010,7 hPa 0,0 mm 9,0 km/h (2 Bft) W 267 ° 0 min 0,000 mm 0,0 UV-I 0 W/m² 13,5 °C 16,8 °C 17,7 km/h (3 Bft)
20.07.2017 05:09 16,8 °C 16,8 °C 81 % 1010,7 hPa 0,0 mm 6,1 km/h (2 Bft) W 262 ° 0 min 0,000 mm 0,0 UV-I 0 W/m² 13,5 °C 16,8 °C 9,7 km/h (2 Bft)
20.07.2017 05:10 16,8 °C 16,9 °C 81 % 1010,7 hPa 0,0 mm 9,1 km/h (2 Bft) W 269 ° 0 min 0,000 mm 0,0 UV-I 0 W/m² 13,5 °C 16,8 °C 16,1 km/h (3 Bft)
20.07.2017 05:11 16,8 °C 16,8 °C 81 % 1010,7 hPa 0,0 mm 8,2 km/h (2 Bft) W-SW 250 ° 0 min 0,000 mm 0,0 UV-I 0 W/m² 13,5 °C 16,8 °C 12,9 km/h (3 Bft)
20.07.2017 05:12 16,8 °C 16,9 °C 81 % 1010,6 hPa 0,0 mm 9,5 km/h (2 Bft) W 273 ° 0 min 0,000 mm 0,0 UV-I 0 W/m² 13,5 °C 16,8 °C 14,5 km/h (3 Bft)
20.07.2017 05:13 16,9 °C 16,9 °C 80 % 1010,6 hPa 0,0 mm 6,9 km/h (2 Bft) W 274 ° 0 min 0,000 mm 0,0 UV-I 0 W/m² 13,4 °C 16,9 °C 12,9 km/h (3 Bft)
20.07.2017 05:14 16,9 °C 16,9 °C 81 % 1010,7 hPa 0,0 mm 8,0 km/h (2 Bft) W 263 ° 0 min 0,000 mm 0,0 UV-I 0 W/m² 13,6 °C 16,9 °C 11,3 km/h (2 Bft)
20.07.2017 05:15 16,8 °C 16,9 °C 81 % 1010,7 hPa 0,0 mm 9,1 km/h (2 Bft) W-SW 250 ° 0 min 0,000 mm 0,0 UV-I 0 W/m² 13,5 °C 16,8 °C 16,1 km/h (3 Bft)
20.07.2017 05:16 16,9 °C 16,9 °C 81 % 1010,6 hPa 0,0 mm 6,0 km/h (2 Bft) W-SW 239 ° 0 min 0,000 mm 0,0 UV-I 0 W/m² 13,6 °C 16,9 °C 14,5 km/h (3 Bft)
20.07.2017 05:17 16,8 °C 16,9 °C 81 % 1010,7 hPa 0,0 mm 6,0 km/h (2 Bft) W 266 ° 0 min 0,000 mm 0,0 UV-I 0 W/m² 13,5 °C 16,8 °C 12,9 km/h (3 Bft)
20.07.2017 05:18 16,8 °C 16,8 °C 81 % 1010,7 hPa 0,0 mm 7,7 km/h (2 Bft) W-SW 254 ° 0 min 0,000 mm 0,0 UV-I 0 W/m² 13,5 °C 16,8 °C 11,3 km/h (2 Bft)
20.07.2017 05:19 16,8 °C 16,8 °C 80 % 1010,6 hPa 0,0 mm 4,0 km/h (1 Bft) W-SW 248 ° 0 min 0,000 mm 0,0 UV-I 0 W/m² 13,3 °C 16,8 °C 9,7 km/h (2 Bft)
20.07.2017 05:20 16,9 °C 16,9 °C 80 % 1010,6 hPa 0,0 mm 2,8 km/h (1 Bft) W-SW 248 ° 0 min 0,000 mm 0,0 UV-I 0 W/m² 13,4 °C 16,9 °C 4,8 km/h (1 Bft)
20.07.2017 05:21 16,9 °C 16,9 °C 80 % 1010,6 hPa 0,0 mm 3,4 km/h (1 Bft) W-SW 256 ° 0 min 0,000 mm 0,0 UV-I 0 W/m² 13,4 °C 16,9 °C 4,8 km/h (1 Bft)
20.07.2017 05:22 16,9 °C 16,9 °C 80 % 1010,6 hPa 0,0 mm 2,5 km/h (1 Bft) SW 233 ° 0 min 0,000 mm 0,0 UV-I 0 W/m² 13,4 °C 16,9 °C 6,4 km/h (2 Bft)
20.07.2017 05:23 16,9 °C 16,9 °C 81 % 1010,6 hPa 0,0 mm 5,7 km/h (1 Bft) W-SW 245 ° 0 min 0,000 mm 0,0 UV-I 0 W/m² 13,6 °C 16,9 °C 11,3 km/h (2 Bft)
20.07.2017 05:24 16,9 °C 16,9 °C 79 % 1010,6 hPa 0,0 mm 2,9 km/h (1 Bft) W 261 ° 0 min 0,000 mm 0,0 UV-I 0 W/m² 13,2 °C 16,9 °C 4,8 km/h (1 Bft)
20.07.2017 05:25 16,9 °C 16,9 °C 79 % 1010,6 hPa 0,0 mm 4,1 km/h (1 Bft) W-SW 252 ° 0 min 0,000 mm 0,0 UV-I 0 W/m² 13,2 °C 16,9 °C 4,8 km/h (1 Bft)
20.07.2017 05:26 17,0 °C 17,0 °C 80 % 1010,6 hPa 0,0 mm 5,8 km/h (2 Bft) W-SW 248 ° 0 min 0,000 mm 0,0 UV-I 0 W/m² 13,5 °C 17,0 °C 9,7 km/h (2 Bft)
20.07.2017 05:27 17,0 °C 17,1 °C 79 % 1010,6 hPa 0,0 mm 3,1 km/h (1 Bft) W 276 ° 0 min 0,000 mm 0,0 UV-I 0 W/m² 13,3 °C 17,0 °C 6,4 km/h (2 Bft)
20.07.2017 05:28 17,1 °C 17,1 °C 79 % 1010,6 hPa 0,0 mm 6,5 km/h (2 Bft) W-NW 290 ° 0 min 0,000 mm 0,0 UV-I 0 W/m² 13,4 °C 17,1 °C 11,3 km/h (2 Bft)
20.07.2017 05:29 17,1 °C 17,1 °C 80 % 1010,7 hPa 0,0 mm 11,1 km/h (2 Bft) W-SW 247 ° 0 min 0,000 mm 0,0 UV-I 0 W/m² 13,6 °C 17,1 °C 12,9 km/h (3 Bft)
20.07.2017 05:30 17,1 °C 17,1 °C 80 % 1010,6 hPa 0,0 mm 7,3 km/h (2 Bft) W 265 ° 0 min 0,000 mm 0,0 UV-I 0 W/m² 13,6 °C 17,1 °C 12,9 km/h (3 Bft)
20.07.2017 05:31 17,1 °C 17,1 °C 80 % 1010,5 hPa 0,0 mm 8,9 km/h (2 Bft) SW 233 ° 0 min 0,000 mm 0,0 UV-I 0 W/m² 13,6 °C 17,1 °C 14,5 km/h (3 Bft)
20.07.2017 05:32 17,1 °C 17,1 °C 80 % 1010,5 hPa 0,0 mm 10,0 km/h (2 Bft) W 261 ° 0 min 0,000 mm 0,0 UV-I 0 W/m² 13,6 °C 17,1 °C 16,1 km/h (3 Bft)
20.07.2017 05:33 17,1 °C 17,1 °C 80 % 1010,5 hPa 0,0 mm 10,9 km/h (2 Bft) SW 232 ° 0 min 0,000 mm 0,0 UV-I 0 W/m² 13,6 °C 17,1 °C 17,7 km/h (3 Bft)
20.07.2017 05:34 17,1 °C 17,1 °C 80 % 1010,6 hPa 0,0 mm 3,4 km/h (1 Bft) W-SW 238 ° 0 min 0,000 mm 0,0 UV-I 0 W/m² 13,6 °C 17,1 °C 6,4 km/h (2 Bft)
20.07.2017 05:35 17,2 °C 17,2 °C 78 % 1010,5 hPa 0,0 mm 3,6 km/h (1 Bft) SW 224 ° 0 min 0,000 mm 0,0 UV-I 0 W/m² 13,3 °C 17,2 °C 6,4 km/h (2 Bft)
20.07.2017 05:36 17,3 °C 17,3 °C 79 % 1010,5 hPa 0,0 mm 4,2 km/h (1 Bft) W 260 ° 0 min 0,000 mm 0,0 UV-I 0 W/m² 13,6 °C 17,3 °C 12,9 km/h (3 Bft)
20.07.2017 05:37 17,3 °C 17,3 °C 79 % 1010,5 hPa 0,0 mm 9,7 km/h (2 Bft) S-SW 213 ° 0 min 0,000 mm 0,0 UV-I 0 W/m² 13,6 °C 17,3 °C 14,5 km/h (3 Bft)
20.07.2017 05:38 17,4 °C 17,4 °C 78 % 1010,5 hPa 0,0 mm 5,3 km/h (1 Bft) SW 229 ° 0 min 0,000 mm 0,0 UV-I 0 W/m² 13,5 °C 17,4 °C 12,9 km/h (3 Bft)
20.07.2017 05:39 17,4 °C 17,4 °C 78 % 1010,5 hPa 0,0 mm 5,0 km/h (1 Bft) SW 232 ° 0 min 0,000 mm 0,0 UV-I 0 W/m² 13,5 °C 17,4 °C 12,9 km/h (3 Bft)
20.07.2017 05:40 17,5 °C 17,6 °C 78 % 1010,4 hPa 0,0 mm 8,9 km/h (2 Bft) W-NW 283 ° 0 min 0,000 mm 0,0 UV-I 0 W/m² 13,6 °C 17,5 °C 14,5 km/h (3 Bft)
20.07.2017 05:41 17,6 °C 17,6 °C 78 % 1010,4 hPa 0,0 mm 9,5 km/h (2 Bft) W 259 ° 0 min 0,000 mm 0,0 UV-I 0 W/m² 13,7 °C 17,6 °C 14,5 km/h (3 Bft)
20.07.2017 05:42 17,7 °C 17,7 °C 77 % 1010,4 hPa 0,0 mm 8,9 km/h (2 Bft) W 265 ° 0 min 0,000 mm 0,0 UV-I 0 W/m² 13,6 °C 17,7 °C 17,7 km/h (3 Bft)
20.07.2017 05:43 17,8 °C 17,8 °C 77 % 1010,3 hPa 0,0 mm 8,0 km/h (2 Bft) W 265 ° 0 min 0,000 mm 0,0 UV-I 0 W/m² 13,7 °C 17,8 °C 12,9 km/h (3 Bft)
20.07.2017 05:44 17,9 °C 17,9 °C 75 % 1010,3 hPa 0,0 mm 5,9 km/h (2 Bft) W 277 ° 0 min 0,000 mm 0,0 UV-I 0 W/m² 13,4 °C 17,9 °C 11,3 km/h (2 Bft)
20.07.2017 05:45 18,0 °C 18,0 °C 76 % 1010,4 hPa 0,0 mm 5,2 km/h (1 Bft) W-SW 239 ° 0 min 0,000 mm 0,0 UV-I 5 W/m² 13,7 °C 18,0 °C 9,7 km/h (2 Bft)
20.07.2017 05:46 18,1 °C 18,1 °C 75 % 1010,3 hPa 0,0 mm 7,3 km/h (2 Bft) W 264 ° 0 min 0,000 mm 0,0 UV-I 5 W/m² 13,6 °C 18,1 °C 11,3 km/h (2 Bft)
20.07.2017 05:47 18,2 °C 18,2 °C 75 % 1010,4 hPa 0,0 mm 9,5 km/h (2 Bft) W-NW 283 ° 0 min 0,000 mm 0,0 UV-I 7 W/m² 13,7 °C 18,2 °C 14,5 km/h (3 Bft)
20.07.2017 05:48 18,3 °C 18,3 °C 75 % 1010,4 hPa 0,0 mm 12,8 km/h (3 Bft) W-SW 257 ° 0 min 0,000 mm 0,0 UV-I 9 W/m² 13,8 °C 18,3 °C 20,9 km/h (4 Bft)
20.07.2017 05:49 18,3 °C 18,3 °C 75 % 1010,3 hPa 0,0 mm 4,9 km/h (1 Bft) W-SW 257 ° 0 min 0,000 mm 0,0 UV-I 11 W/m² 13,8 °C 18,3 °C 9,7 km/h (2 Bft)
20.07.2017 05:50 18,2 °C 18,3 °C 76 % 1010,4 hPa 0,0 mm 7,5 km/h (2 Bft) W 267 ° 0 min 0,000 mm 0,0 UV-I 12 W/m² 13,9 °C 18,2 °C 17,7 km/h (3 Bft)
20.07.2017 05:51 18,2 °C 18,3 °C 76 % 1010,4 hPa 0,0 mm 9,7 km/h (2 Bft) W-SW 249 ° 0 min 0,000 mm 0,0 UV-I 14 W/m² 13,9 °C 18,2 °C 17,7 km/h (3 Bft)
20.07.2017 05:52 18,2 °C 18,2 °C 77 % 1010,4 hPa 0,0 mm 8,7 km/h (2 Bft) W-SW 254 ° 0 min 0,000 mm 0,0 UV-I 14 W/m² 14,1 °C 18,2 °C 12,9 km/h (3 Bft)
20.07.2017 05:53 18,2 °C 18,2 °C 76 % 1010,4 hPa 0,0 mm 4,1 km/h (1 Bft) W 279 ° 0 min 0,000 mm 0,0 UV-I 14 W/m² 13,9 °C 18,2 °C 6,4 km/h (2 Bft)
20.07.2017 05:54 18,2 °C 18,2 °C 77 % 1010,4 hPa 0,0 mm 4,0 km/h (1 Bft) SW 220 ° 0 min 0,000 mm 0,0 UV-I 16 W/m² 14,1 °C 18,2 °C 12,9 km/h (3 Bft)
20.07.2017 05:55 18,2 °C 18,2 °C 75 % 1010,4 hPa 0,0 mm 4,7 km/h (1 Bft) W 263 ° 0 min 0,000 mm 0,0 UV-I 16 W/m² 13,7 °C 18,2 °C 11,3 km/h (2 Bft)
20.07.2017 05:56 18,2 °C 18,2 °C 75 % 1010,5 hPa 0,0 mm 8,4 km/h (2 Bft) SW 231 ° 0 min 0,000 mm 0,0 UV-I 16 W/m² 13,7 °C 18,2 °C 12,9 km/h (3 Bft)
20.07.2017 05:57 18,3 °C 18,3 °C 76 % 1010,4 hPa 0,0 mm 8,2 km/h (2 Bft) W 263 ° 0 min 0,000 mm 0,0 UV-I 16 W/m² 14,0 °C 18,3 °C 14,5 km/h (3 Bft)
20.07.2017 05:58 18,3 °C 18,3 °C 75 % 1010,5 hPa 0,0 mm 7,8 km/h (2 Bft) W-NW 292 ° 0 min 0,000 mm 0,0 UV-I 16 W/m² 13,8 °C 18,3 °C 11,3 km/h (2 Bft)
20.07.2017 05:59 18,3 °C 18,3 °C 76 % 1010,5 hPa 0,0 mm 4,3 km/h (1 Bft) W-SW 257 ° 0 min 0,000 mm 0,0 UV-I 16 W/m² 14,0 °C 18,3 °C 6,4 km/h (2 Bft)
20.07.2017 06:00 18,3 °C 18,3 °C 75 % 1010,5 hPa 0,0 mm 4,2 km/h (1 Bft) W-SW 253 ° 0 min 0,025 mm 0,0 UV-I 18 W/m² 13,8 °C 18,3 °C 11,3 km/h (2 Bft)
20.07.2017 06:01 18,2 °C 18,3 °C 74 % 1010,5 hPa 0,0 mm 6,1 km/h (2 Bft) S-SW 203 ° 0 min 0,000 mm 0,0 UV-I 18 W/m² 13,5 °C 18,2 °C 14,5 km/h (3 Bft)
20.07.2017 06:02 18,3 °C 18,3 °C 73 % 1010,5 hPa 0,0 mm 3,6 km/h (1 Bft) W-SW 237 ° 0 min 0,000 mm 0,0 UV-I 18 W/m² 13,4 °C 18,3 °C 9,7 km/h (2 Bft)
20.07.2017 06:03 18,3 °C 18,3 °C 75 % 1010,5 hPa 0,0 mm 4,1 km/h (1 Bft) W 259 ° 0 min 0,000 mm 0,0 UV-I 18 W/m² 13,8 °C 18,3 °C 6,4 km/h (2 Bft)
20.07.2017 06:04 18,3 °C 18,3 °C 75 % 1010,5 hPa 0,0 mm 3,9 km/h (1 Bft) W-SW 238 ° 0 min 0,000 mm 0,0 UV-I 18 W/m² 13,8 °C 18,3 °C 6,4 km/h (2 Bft)
20.07.2017 06:05 18,3 °C 18,3 °C 74 % 1010,5 hPa 0,0 mm 2,5 km/h (1 Bft) W 281 ° 0 min 0,000 mm 0,0 UV-I 18 W/m² 13,6 °C 18,3 °C 6,4 km/h (2 Bft)
20.07.2017 06:06 18,2 °C 18,3 °C 75 % 1010,5 hPa 0,0 mm 3,8 km/h (1 Bft) W 267 ° 0 min 0,000 mm 0,0 UV-I 16 W/m² 13,7 °C 18,2 °C 6,4 km/h (2 Bft)
20.07.2017 06:07 18,2 °C 18,3 °C 75 % 1010,6 hPa 0,0 mm 3,7 km/h (1 Bft) W 268 ° 0 min 0,000 mm 0,0 UV-I 14 W/m² 13,7 °C 18,2 °C 6,4 km/h (2 Bft)
20.07.2017 06:08 18,2 °C 18,3 °C 76 % 1010,6 hPa 0,0 mm 1,7 km/h (1 Bft) W 275 ° 0 min 0,000 mm 0,0 UV-I 14 W/m² 13,9 °C 18,2 °C 3,2 km/h (1 Bft)
20.07.2017 06:09 18,1 °C 18,2 °C 79 % 1010,5 hPa 0,0 mm 1,5 km/h (1 Bft) W 275 ° 0 min 0,000 mm 0,0 UV-I 14 W/m² 14,4 °C 18,1 °C 3,2 km/h (1 Bft)
20.07.2017 06:10 18,0 °C 18,1 °C 76 % 1010,5 hPa 0,0 mm 1,7 km/h (1 Bft) W 275 ° 0 min 0,000 mm 0,0 UV-I 12 W/m² 13,7 °C 18,0 °C 3,2 km/h (1 Bft)
20.07.2017 06:11 18,1 °C 18,1 °C 75 % 1010,5 hPa 0,0 mm 0,3 km/h (0 Bft) W 275 ° 0 min 0,000 mm 0,0 UV-I 12 W/m² 13,6 °C 18,1 °C 1,6 km/h (1 Bft)
20.07.2017 06:12 18,1 °C 18,1 °C 77 % 1010,6 hPa 0,0 mm 1,3 km/h (1 Bft) W 281 ° 0 min 0,000 mm 0,0 UV-I 12 W/m² 14,0 °C 18,1 °C 4,8 km/h (1 Bft)
20.07.2017 06:13 18,0 °C 18,1 °C 78 % 1010,6 hPa 0,0 mm 2,9 km/h (1 Bft) S-SW 192 ° 0 min 0,000 mm 0,0 UV-I 11 W/m² 14,1 °C 18,0 °C 8,0 km/h (2 Bft)
20.07.2017 06:14 18,0 °C 18,0 °C 74 % 1010,6 hPa 0,0 mm 3,8 km/h (1 Bft) SW 221 ° 0 min 0,000 mm 0,0 UV-I 11 W/m² 13,3 °C 18,0 °C 12,9 km/h (3 Bft)
20.07.2017 06:15 18,1 °C 18,1 °C 76 % 1010,6 hPa 0,0 mm 4,5 km/h (1 Bft) W 271 ° 0 min 0,000 mm 0,0 UV-I 9 W/m² 13,8 °C 18,1 °C 6,4 km/h (2 Bft)
20.07.2017 06:16 18,1 °C 18,1 °C 75 % 1010,6 hPa 0,0 mm 4,2 km/h (1 Bft) W 261 ° 0 min 0,000 mm 0,0 UV-I 9 W/m² 13,6 °C 18,1 °C 8,0 km/h (2 Bft)
20.07.2017 06:17 18,2 °C 18,2 °C 75 % 1010,6 hPa 0,0 mm 1,5 km/h (1 Bft) W 261 ° 0 min 0,000 mm 0,0 UV-I 9 W/m² 13,7 °C 18,2 °C 4,8 km/h (1 Bft)
20.07.2017 06:18 18,3 °C 18,3 °C 74 % 1010,6 hPa 0,0 mm 3,2 km/h (1 Bft) W-SW 241 ° 0 min 0,000 mm 0,0 UV-I 9 W/m² 13,6 °C 18,3 °C 6,4 km/h (2 Bft)
20.07.2017 06:19 18,3 °C 18,3 °C 74 % 1010,6 hPa 0,0 mm 0,1 km/h (0 Bft) W-SW 241 ° 0 min 0,000 mm 0,0 UV-I 9 W/m² 13,6 °C 18,3 °C 1,6 km/h (1 Bft)
20.07.2017 06:20 18,3 °C 18,3 °C 75 % 1010,7 hPa 0,0 mm 0,1 km/h (0 Bft) W-SW 241 ° 0 min 0,000 mm 0,0 UV-I 9 W/m² 13,8 °C 18,3 °C 1,6 km/h (1 Bft)
20.07.2017 06:21 18,3 °C 18,3 °C 74 % 1010,6 hPa 0,0 mm 0,0 km/h (0 Bft) W-SW 241 ° 0 min 0,000 mm 0,0 UV-I 11 W/m² 13,6 °C 18,3 °C 0,0 km/h (0 Bft)
20.07.2017 06:22 18,3 °C 18,3 °C 75 % 1010,6 hPa 0,0 mm 3,5 km/h (1 Bft) S-SW 194 ° 0 min 0,000 mm 0,0 UV-I 11 W/m² 13,8 °C 18,3 °C 9,7 km/h (2 Bft)
20.07.2017 06:23 18,3 °C 18,3 °C 74 % 1010,7 hPa 0,0 mm 3,5 km/h (1 Bft) S-SW 202 ° 0 min 0,000 mm 0,0 UV-I 11 W/m² 13,6 °C 18,3 °C 4,8 km/h (1 Bft)
20.07.2017 06:24 18,2 °C 18,3 °C 76 % 1010,7 hPa 0,0 mm 1,3 km/h (1 Bft) S-SW 197 ° 0 min 0,000 mm 0,0 UV-I 11 W/m² 13,9 °C 18,2 °C 3,2 km/h (1 Bft)
20.07.2017 06:25 18,2 °C 18,2 °C 74 % 1010,7 hPa 0,0 mm 1,6 km/h (1 Bft) S-SW 197 ° 0 min 0,000 mm 0,0 UV-I 11 W/m² 13,5 °C 18,2 °C 3,2 km/h (1 Bft)
20.07.2017 06:26 18,2 °C 18,2 °C 74 % 1010,7 hPa 0,0 mm 1,7 km/h (1 Bft) S 178 ° 0 min 0,000 mm 0,0 UV-I 11 W/m² 13,5 °C 18,2 °C 3,2 km/h (1 Bft)
20.07.2017 06:27 18,1 °C 18,2 °C 77 % 1010,7 hPa 0,0 mm 4,0 km/h (1 Bft) S 172 ° 0 min 0,000 mm 0,0 UV-I 12 W/m² 14,0 °C 18,1 °C 8,0 km/h (2 Bft)
20.07.2017 06:28 17,9 °C 18,1 °C 78 % 1010,7 hPa 0,0 mm 2,9 km/h (1 Bft) S 172 ° 0 min 0,000 mm 0,0 UV-I 14 W/m² 14,0 °C 17,9 °C 4,8 km/h (1 Bft)
20.07.2017 06:29 17,8 °C 17,9 °C 78 % 1010,7 hPa 0,0 mm 0,3 km/h (0 Bft) S 172 ° 0 min 0,000 mm 0,0 UV-I 14 W/m² 13,9 °C 17,8 °C 1,6 km/h (1 Bft)
20.07.2017 06:30 17,7 °C 17,8 °C 80 % 1010,7 hPa 0,0 mm 0,5 km/h (0 Bft) S 172 ° 0 min 0,000 mm 0,0 UV-I 14 W/m² 14,2 °C 17,7 °C 3,2 km/h (1 Bft)
20.07.2017 06:31 17,7 °C 17,7 °C 76 % 1010,7 hPa 0,0 mm 1,8 km/h (1 Bft) S 177 ° 0 min 0,000 mm 0,0 UV-I 11 W/m² 13,4 °C 17,7 °C 3,2 km/h (1 Bft)
20.07.2017 06:32 17,7 °C 17,7 °C 78 % 1010,7 hPa 0,0 mm 3,0 km/h (1 Bft) S-SO 165 ° 0 min 0,000 mm 0,0 UV-I 11 W/m² 13,8 °C 17,7 °C 6,4 km/h (2 Bft)
20.07.2017 06:33 17,8 °C 17,8 °C 77 % 1010,7 hPa 0,0 mm 1,9 km/h (1 Bft) S-SO 165 ° 0 min 0,000 mm 0,0 UV-I 11 W/m² 13,7 °C 17,8 °C 3,2 km/h (1 Bft)
20.07.2017 06:34 17,7 °C 17,8 °C 78 % 1010,8 hPa 0,0 mm 2,5 km/h (1 Bft) S-SO 165 ° 0 min 0,000 mm 0,0 UV-I 11 W/m² 13,8 °C 17,7 °C 3,2 km/h (1 Bft)
20.07.2017 06:35 17,6 °C 17,7 °C 79 % 1010,7 hPa 0,0 mm 2,5 km/h (1 Bft) S-SO 165 ° 0 min 0,000 mm 0,0 UV-I 11 W/m² 13,9 °C 17,6 °C 3,2 km/h (1 Bft)
20.07.2017 06:36 17,5 °C 17,6 °C 80 % 1010,7 hPa 0,0 mm 2,4 km/h (1 Bft) S-SO 165 ° 0 min 0,000 mm 0,0 UV-I 11 W/m² 14,0 °C 17,5 °C 3,2 km/h (1 Bft)
20.07.2017 06:37 17,4 °C 17,5 °C 79 % 1010,7 hPa 0,0 mm 4,3 km/h (1 Bft) S-SO 166 ° 0 min 0,000 mm 0,0 UV-I 11 W/m² 13,7 °C 17,4 °C 6,4 km/h (2 Bft)
20.07.2017 06:38 17,4 °C 17,4 °C 79 % 1010,7 hPa 0,0 mm 1,5 km/h (1 Bft) S-SO 166 ° 0 min 0,000 mm 0,0 UV-I 11 W/m² 13,7 °C 17,4 °C 4,8 km/h (1 Bft)
20.07.2017 06:39 17,3 °C 17,4 °C 80 % 1010,7 hPa 0,0 mm 1,8 km/h (1 Bft) S-SO 165 ° 0 min 0,000 mm 0,0 UV-I 9 W/m² 13,8 °C 17,3 °C 3,2 km/h (1 Bft)
20.07.2017 06:40 17,3 °C 17,3 °C 80 % 1010,7 hPa 0,0 mm 3,4 km/h (1 Bft) S-SO 165 ° 0 min 0,000 mm 0,0 UV-I 9 W/m² 13,8 °C 17,3 °C 6,4 km/h (2 Bft)
20.07.2017 06:41 17,2 °C 17,3 °C 82 % 1010,7 hPa 0,0 mm 1,6 km/h (1 Bft) S-SO 157 ° 0 min 0,000 mm 0,0 UV-I 9 W/m² 14,1 °C 17,2 °C 3,2 km/h (1 Bft)
20.07.2017 06:42 17,1 °C 17,2 °C 82 % 1010,7 hPa 0,2 mm 0,2 km/h (0 Bft) S-SO 157 ° 0 min 0,000 mm 0,0 UV-I 9 W/m² 14,0 °C 17,1 °C 1,6 km/h (1 Bft)
20.07.2017 06:43 17,1 °C 17,1 °C 82 % 1010,7 hPa 0,0 mm 3,0 km/h (1 Bft) S-SO 157 ° 0 min 0,000 mm 0,0 UV-I 9 W/m² 14,0 °C 17,1 °C 4,8 km/h (1 Bft)
20.07.2017 06:44 16,9 °C 17,1 °C 82 % 1010,7 hPa 0,0 mm 2,6 km/h (1 Bft) S-SO 157 ° 0 min 0,000 mm 0,0 UV-I 9 W/m² 13,8 °C 16,9 °C 4,8 km/h (1 Bft)
20.07.2017 06:45 16,9 °C 16,9 °C 83 % 1010,8 hPa 0,0 mm 1,5 km/h (1 Bft) S-SO 157 ° 0 min 0,000 mm 0,0 UV-I 9 W/m² 14,0 °C 16,9 °C 3,2 km/h (1 Bft)
20.07.2017 06:46 16,8 °C 16,9 °C 83 % 1010,8 hPa 0,0 mm 0,8 km/h (0 Bft) S-SO 157 ° 0 min 0,000 mm 0,0 UV-I 9 W/m² 13,9 °C 16,8 °C 3,2 km/h (1 Bft)
20.07.2017 06:47 16,7 °C 16,8 °C 83 % 1010,8 hPa 0,0 mm 0,6 km/h (0 Bft) S-SO 157 ° 0 min 0,000 mm 0,0 UV-I 11 W/m² 13,8 °C 16,7 °C 1,6 km/h (1 Bft)
20.07.2017 06:48 16,7 °C 16,7 °C 84 % 1010,9 hPa 0,0 mm 0,9 km/h (0 Bft) S-SO 157 ° 0 min 0,000 mm 0,0 UV-I 11 W/m² 14,0 °C 16,7 °C 1,6 km/h (1 Bft)
20.07.2017 06:49 16,7 °C 16,7 °C 84 % 1010,9 hPa 0,0 mm 0,6 km/h (0 Bft) S-SO 157 ° 0 min 0,000 mm 0,0 UV-I 11 W/m² 14,0 °C 16,7 °C 3,2 km/h (1 Bft)
20.07.2017 06:50 16,6 °C 16,7 °C 85 % 1010,9 hPa 0,0 mm 1,4 km/h (1 Bft) S-SO 157 ° 0 min 0,000 mm 0,0 UV-I 11 W/m² 14,1 °C 16,6 °C 3,2 km/h (1 Bft)
20.07.2017 06:51 16,6 °C 16,6 °C 85 % 1010,9 hPa 0,0 mm 0,5 km/h (0 Bft) S-SO 157 ° 0 min 0,000 mm 0,0 UV-I 11 W/m² 14,1 °C 16,6 °C 1,6 km/h (1 Bft)
20.07.2017 06:52 16,6 °C 16,6 °C 85 % 1010,9 hPa 0,0 mm 0,4 km/h (0 Bft) S-SO 157 ° 0 min 0,000 mm 0,0 UV-I 12 W/m² 14,1 °C 16,6 °C 1,6 km/h (1 Bft)
20.07.2017 06:53 16,5 °C 16,6 °C 85 % 1010,9 hPa 0,0 mm 0,0 km/h (0 Bft) S-SO 157 ° 0 min 0,000 mm 0,0 UV-I 12 W/m² 14,0 °C 16,5 °C 0,0 km/h (0 Bft)
20.07.2017 06:54 16,5 °C 16,6 °C 85 % 1010,9 hPa 0,0 mm 0,0 km/h (0 Bft) S-SO 157 ° 0 min 0,000 mm 0,0 UV-I 12 W/m² 14,0 °C 16,5 °C 0,0 km/h (0 Bft)
20.07.2017 06:55 16,5 °C 16,6 °C 86 % 1010,9 hPa 0,0 mm 0,0 km/h (0 Bft) S-SO 157 ° 0 min 0,000 mm 0,0 UV-I 14 W/m² 14,1 °C 16,5 °C 0,0 km/h (0 Bft)
20.07.2017 06:56 16,4 °C 16,5 °C 86 % 1010,9 hPa 0,0 mm 1,1 km/h (1 Bft) S-SO 157 ° 0 min 0,000 mm 0,0 UV-I 14 W/m² 14,1 °C 16,4 °C 8,0 km/h (2 Bft)
20.07.2017 06:57 16,5 °C 16,5 °C 86 % 1011,0 hPa 0,0 mm 5,5 km/h (1 Bft) S-SO 159 ° 0 min 0,000 mm 0,0 UV-I 14 W/m² 14,1 °C 16,5 °C 8,0 km/h (2 Bft)
20.07.2017 06:58 16,5 °C 16,5 °C 87 % 1010,9 hPa 0,0 mm 1,8 km/h (1 Bft) S-SO 159 ° 0 min 0,000 mm 0,0 UV-I 14 W/m² 14,3 °C 16,5 °C 3,2 km/h (1 Bft)
20.07.2017 06:59 16,5 °C 16,5 °C 87 % 1011,0 hPa 0,0 mm 1,9 km/h (1 Bft) S-SO 159 ° 0 min 0,000 mm 0,0 UV-I 14 W/m² 14,3 °C 16,5 °C 3,2 km/h (1 Bft)
20.07.2017 07:00 16,4 °C 16,5 °C 87 % 1010,9 hPa 0,0 mm 1,1 km/h (1 Bft) S-SO 159 ° 0 min 0,000 mm 0,0 UV-I 14 W/m² 14,2 °C 16,4 °C 1,6 km/h (1 Bft)
20.07.2017 07:01 16,4 °C 16,4 °C 88 % 1010,9 hPa 0,0 mm 1,3 km/h (1 Bft) S-SO 159 ° 0 min 0,026 mm 0,0 UV-I 14 W/m² 14,4 °C 16,4 °C 1,6 km/h (1 Bft)
20.07.2017 07:02 16,3 °C 16,4 °C 88 % 1010,9 hPa 0,0 mm 1,0 km/h (0 Bft) S-SO 159 ° 0 min 0,000 mm 0,0 UV-I 14 W/m² 14,3 °C 16,3 °C 1,6 km/h (1 Bft)
20.07.2017 07:03 16,2 °C 16,3 °C 89 % 1010,9 hPa 0,0 mm 0,0 km/h (0 Bft) S-SO 159 ° 0 min 0,000 mm 0,0 UV-I 14 W/m² 14,4 °C 16,2 °C 0,0 km/h (0 Bft)
20.07.2017 07:04 16,2 °C 16,2 °C 89 % 1010,9 hPa 0,0 mm 0,0 km/h (0 Bft) S-SO 159 ° 0 min 0,000 mm 0,0 UV-I 16 W/m² 14,4 °C 16,2 °C 0,0 km/h (0 Bft)
20.07.2017 07:05 16,1 °C 16,2 °C 90 % 1010,9 hPa 0,0 mm 0,0 km/h (0 Bft) S-SO 159 ° 0 min 0,000 mm 0,0 UV-I 16 W/m² 14,5 °C 16,1 °C 0,0 km/h (0 Bft)
20.07.2017 07:06 16,1 °C 16,1 °C 89 % 1010,9 hPa 0,0 mm 0,0 km/h (0 Bft) S-SO 159 ° 0 min 0,000 mm 0,0 UV-I 18 W/m² 14,3 °C 16,1 °C 0,0 km/h (0 Bft)
20.07.2017 07:07 16,0 °C 16,1 °C 90 % 1010,9 hPa 0,0 mm 0,0 km/h (0 Bft) S-SO 159 ° 0 min 0,000 mm 0,0 UV-I 18 W/m² 14,4 °C 16,0 °C 0,0 km/h (0 Bft)
20.07.2017 07:08 16,0 °C 16,0 °C 90 % 1011,0 hPa 0,0 mm 0,0 km/h (0 Bft) S-SO 159 ° 0 min 0,000 mm 0,0 UV-I 18 W/m² 14,4 °C 16,0 °C 0,0 km/h (0 Bft)
20.07.2017 07:09 16,0 °C 16,0 °C 89 % 1011,0 hPa 0,0 mm 0,0 km/h (0 Bft) S-SO 159 ° 0 min 0,000 mm 0,0 UV-I 19 W/m² 14,2 °C 16,0 °C 0,0 km/h (0 Bft)
20.07.2017 07:10 16,0 °C 16,0 °C 89 % 1011,0 hPa 0,0 mm 1,0 km/h (0 Bft) S-SO 159 ° 0 min 0,000 mm 0,0 UV-I 19 W/m² 14,2 °C 16,0 °C 3,2 km/h (1 Bft)
20.07.2017 07:11 16,0 °C 16,0 °C 88 % 1011,0 hPa 0,0 mm 1,9 km/h (1 Bft) S-SO 159 ° 0 min 0,000 mm 0,0 UV-I 21 W/m² 14,0 °C 16,0 °C 3,2 km/h (1 Bft)
20.07.2017 07:12 16,1 °C 16,1 °C 89 % 1011,0 hPa 0,0 mm 2,5 km/h (1 Bft) S-SO 159 ° 0 min 0,000 mm 0,0 UV-I 21 W/m² 14,3 °C 16,1 °C 3,2 km/h (1 Bft)
20.07.2017 07:13 16,2 °C 16,2 °C 89 % 1011,1 hPa 0,0 mm 3,6 km/h (1 Bft) S 184 ° 0 min 0,000 mm 0,0 UV-I 21 W/m² 14,4 °C 16,2 °C 6,4 km/h (2 Bft)
20.07.2017 07:14 16,2 °C 16,2 °C 89 % 1011,0 hPa 0,0 mm 1,7 km/h (1 Bft) S 184 ° 0 min 0,000 mm 0,0 UV-I 21 W/m² 14,4 °C 16,2 °C 4,8 km/h (1 Bft)
20.07.2017 07:15 16,2 °C 16,2 °C 90 % 1011,1 hPa 0,0 mm 0,0 km/h (0 Bft) S 184 ° 0 min 0,000 mm 0,0 UV-I 21 W/m² 14,6 °C 16,2 °C 0,0 km/h (0 Bft)
20.07.2017 07:16 16,2 °C 16,2 °C 90 % 1011,1 hPa 0,0 mm 2,1 km/h (1 Bft) S 184 ° 0 min 0,000 mm 0,0 UV-I 21 W/m² 14,6 °C 16,2 °C 4,8 km/h (1 Bft)
20.07.2017 07:17 16,2 °C 16,2 °C 90 % 1011,0 hPa 0,0 mm 2,4 km/h (1 Bft) S 184 ° 0 min 0,000 mm 0,0 UV-I 21 W/m² 14,6 °C 16,2 °C 3,2 km/h (1 Bft)
20.07.2017 07:18 16,2 °C 16,2 °C 90 % 1011,1 hPa 0,0 mm 3,4 km/h (1 Bft) S 184 ° 0 min 0,000 mm 0,0 UV-I 21 W/m² 14,6 °C 16,2 °C 4,8 km/h (1 Bft)
20.07.2017 07:19 16,2 °C 16,2 °C 90 % 1011,0 hPa 0,0 mm 2,1 km/h (1 Bft) S 184 ° 0 min 0,000 mm 0,0 UV-I 21 W/m² 14,6 °C 16,2 °C 4,8 km/h (1 Bft)
20.07.2017 07:20 16,2 °C 16,2 °C 90 % 1011,1 hPa 0,0 mm 0,4 km/h (0 Bft) S 184 ° 0 min 0,000 mm 0,0 UV-I 21 W/m² 14,6 °C 16,2 °C 3,2 km/h (1 Bft)
20.07.2017 07:21 16,2 °C 16,2 °C 90 % 1011,1 hPa 0,0 mm 3,5 km/h (1 Bft) S-SW 196 ° 0 min 0,000 mm 0,0 UV-I 21 W/m² 14,6 °C 16,2 °C 6,4 km/h (2 Bft)
20.07.2017 07:22 16,2 °C 16,3 °C 90 % 1011,1 hPa 0,0 mm 4,1 km/h (1 Bft) SO 140 ° 0 min 0,000 mm 0,0 UV-I 21 W/m² 14,6 °C 16,2 °C 6,4 km/h (2 Bft)
20.07.2017 07:23 16,2 °C 16,3 °C 90 % 1011,0 hPa 0,0 mm 2,5 km/h (1 Bft) SO 140 ° 0 min 0,000 mm 0,0 UV-I 19 W/m² 14,6 °C 16,2 °C 4,8 km/h (1 Bft)
20.07.2017 07:24 16,2 °C 16,2 °C 90 % 1011,0 hPa 0,0 mm 1,5 km/h (1 Bft) SO 140 ° 0 min 0,000 mm 0,0 UV-I 21 W/m² 14,6 °C 16,2 °C 3,2 km/h (1 Bft)
20.07.2017 07:25 16,2 °C 16,2 °C 90 % 1011,0 hPa 0,0 mm 2,0 km/h (1 Bft) SO 140 ° 0 min 0,000 mm 0,0 UV-I 23 W/m² 14,6 °C 16,2 °C 3,2 km/h (1 Bft)
20.07.2017 07:26 16,2 °C 16,2 °C 90 % 1011,0 hPa 0,0 mm 1,3 km/h (1 Bft) SO 142 ° 0 min 0,000 mm 0,0 UV-I 23 W/m² 14,6 °C 16,2 °C 3,2 km/h (1 Bft)
20.07.2017 07:27 16,2 °C 16,2 °C 90 % 1011,1 hPa 0,0 mm 5,1 km/h (1 Bft) S 186 ° 0 min 0,000 mm 0,0 UV-I 25 W/m² 14,6 °C 16,2 °C 8,0 km/h (2 Bft)
20.07.2017 07:28 16,2 °C 16,2 °C 89 % 1011,0 hPa 0,0 mm 2,9 km/h (1 Bft) S 186 ° 0 min 0,000 mm 0,0 UV-I 25 W/m² 14,4 °C 16,2 °C 3,2 km/h (1 Bft)
20.07.2017 07:29 16,3 °C 16,3 °C 89 % 1011,0 hPa 0,0 mm 2,8 km/h (1 Bft) S 186 ° 0 min 0,000 mm 0,0 UV-I 25 W/m² 14,5 °C 16,3 °C 4,8 km/h (1 Bft)
20.07.2017 07:30 16,3 °C 16,3 °C 89 % 1011,0 hPa 0,0 mm 3,8 km/h (1 Bft) S 186 ° 0 min 0,000 mm 0,0 UV-I 26 W/m² 14,5 °C 16,3 °C 4,8 km/h (1 Bft)
20.07.2017 07:31 16,3 °C 16,3 °C 89 % 1011,0 hPa 0,0 mm 1,9 km/h (1 Bft) S 186 ° 0 min 0,000 mm 0,0 UV-I 28 W/m² 14,5 °C 16,3 °C 3,2 km/h (1 Bft)
20.07.2017 07:32 16,3 °C 16,3 °C 89 % 1011,1 hPa 0,0 mm 2,0 km/h (1 Bft) S 186 ° 0 min 0,000 mm 0,0 UV-I 28 W/m² 14,5 °C 16,3 °C 3,2 km/h (1 Bft)
20.07.2017 07:33 16,3 °C 16,3 °C 89 % 1011,1 hPa 0,0 mm 1,9 km/h (1 Bft) S 186 ° 0 min 0,000 mm 0,0 UV-I 30 W/m² 14,5 °C 16,3 °C 3,2 km/h (1 Bft)
20.07.2017 07:34 16,3 °C 16,4 °C 89 % 1011,1 hPa 0,0 mm 0,1 km/h (0 Bft) S 186 ° 0 min 0,000 mm 0,0 UV-I 30 W/m² 14,5 °C 16,3 °C 1,6 km/h (1 Bft)
20.07.2017 07:35 16,3 °C 16,3 °C 89 % 1011,1 hPa 0,0 mm 0,0 km/h (0 Bft) S 186 ° 0 min 0,000 mm 0,0 UV-I 32 W/m² 14,5 °C 16,3 °C 0,0 km/h (0 Bft)
20.07.2017 07:36 16,3 °C 16,3 °C 89 % 1011,1 hPa 0,0 mm 0,0 km/h (0 Bft) S 186 ° 0 min 0,000 mm 0,0 UV-I 33 W/m² 14,5 °C 16,3 °C 0,0 km/h (0 Bft)
20.07.2017 07:37 16,3 °C 16,3 °C 89 % 1011,1 hPa 0,0 mm 0,0 km/h (0 Bft) S 186 ° 0 min 0,000 mm 0,0 UV-I 33 W/m² 14,5 °C 16,3 °C 0,0 km/h (0 Bft)
20.07.2017 07:38 16,3 °C 16,3 °C 89 % 1011,0 hPa 0,0 mm 0,0 km/h (0 Bft) S 186 ° 0 min 0,000 mm 0,0 UV-I 33 W/m² 14,5 °C 16,3 °C 0,0 km/h (0 Bft)
20.07.2017 07:39 16,3 °C 16,3 °C 89 % 1011,1 hPa 0,0 mm 0,7 km/h (0 Bft) S 186 ° 0 min 0,000 mm 0,0 UV-I 33 W/m² 14,5 °C 16,3 °C 3,2 km/h (1 Bft)
20.07.2017 07:40 16,4 °C 16,4 °C 89 % 1011,1 hPa 0,0 mm 0,9 km/h (0 Bft) S 186 ° 0 min 0,000 mm 0,0 UV-I 33 W/m² 14,6 °C 16,4 °C 1,6 km/h (1 Bft)
20.07.2017 07:41 16,4 °C 16,4 °C 88 % 1011,1 hPa 0,0 mm 3,1 km/h (1 Bft) S 186 ° 0 min 0,000 mm 0,0 UV-I 35 W/m² 14,4 °C 16,4 °C 4,8 km/h (1 Bft)
20.07.2017 07:42 16,4 °C 16,4 °C 88 % 1011,1 hPa 0,0 mm 6,9 km/h (2 Bft) S-SW 199 ° 0 min 0,000 mm 0,0 UV-I 37 W/m² 14,4 °C 16,4 °C 8,0 km/h (2 Bft)
20.07.2017 07:43 16,6 °C 16,6 °C 88 % 1011,1 hPa 0,0 mm 7,4 km/h (2 Bft) S-SW 199 ° 0 min 0,000 mm 0,0 UV-I 39 W/m² 14,6 °C 16,6 °C 9,7 km/h (2 Bft)
20.07.2017 07:44 16,6 °C 16,6 °C 87 % 1011,1 hPa 0,0 mm 6,7 km/h (2 Bft) S-SW 197 ° 0 min 0,000 mm 0,0 UV-I 39 W/m² 14,4 °C 16,6 °C 8,0 km/h (2 Bft)
20.07.2017 07:45 16,6 °C 16,7 °C 87 % 1011,1 hPa 0,0 mm 4,0 km/h (1 Bft) S 190 ° 0 min 0,000 mm 0,0 UV-I 42 W/m² 14,4 °C 16,6 °C 6,4 km/h (2 Bft)
20.07.2017 07:46 16,7 °C 16,7 °C 87 % 1011,1 hPa 0,0 mm 3,9 km/h (1 Bft) S 190 ° 0 min 0,000 mm 0,0 UV-I 44 W/m² 14,5 °C 16,7 °C 4,8 km/h (1 Bft)
20.07.2017 07:47 16,7 °C 16,7 °C 87 % 1011,1 hPa 0,0 mm 2,7 km/h (1 Bft) S 190 ° 0 min 0,000 mm 0,0 UV-I 46 W/m² 14,5 °C 16,7 °C 4,8 km/h (1 Bft)
20.07.2017 07:48 16,7 °C 16,7 °C 88 % 1011,1 hPa 0,0 mm 2,5 km/h (1 Bft) S 190 ° 0 min 0,000 mm 0,0 UV-I 49 W/m² 14,7 °C 16,7 °C 3,2 km/h (1 Bft)
20.07.2017 07:49 16,7 °C 16,7 °C 88 % 1011,0 hPa 0,0 mm 2,4 km/h (1 Bft) S 190 ° 0 min 0,000 mm 0,0 UV-I 51 W/m² 14,7 °C 16,7 °C 3,2 km/h (1 Bft)
20.07.2017 07:50 16,7 °C 16,7 °C 88 % 1011,0 hPa 0,0 mm 2,5 km/h (1 Bft) S 190 ° 0 min 0,000 mm 0,0 UV-I 54 W/m² 14,7 °C 16,7 °C 4,8 km/h (1 Bft)
20.07.2017 07:51 16,7 °C 16,7 °C 89 % 1011,0 hPa 0,0 mm 1,2 km/h (1 Bft) S 190 ° 0 min 0,000 mm 0,0 UV-I 54 W/m² 14,9 °C 16,7 °C 1,6 km/h (1 Bft)
20.07.2017 07:52 16,7 °C 16,7 °C 89 % 1011,0 hPa 0,0 mm 0,3 km/h (0 Bft) S 190 ° 0 min 0,000 mm 0,0 UV-I 56 W/m² 14,9 °C 16,7 °C 1,6 km/h (1 Bft)
20.07.2017 07:53 16,7 °C 16,7 °C 88 % 1011,1 hPa 0,0 mm 1,6 km/h (1 Bft) S 190 ° 0 min 0,000 mm 0,0 UV-I 58 W/m² 14,7 °C 16,7 °C 1,6 km/h (1 Bft)
20.07.2017 07:54 16,7 °C 16,7 °C 88 % 1011,1 hPa 0,0 mm 1,9 km/h (1 Bft) S 190 ° 0 min 0,000 mm 0,0 UV-I 60 W/m² 14,7 °C 16,7 °C 3,2 km/h (1 Bft)
20.07.2017 07:55 16,7 °C 16,8 °C 89 % 1011,1 hPa 0,0 mm 1,3 km/h (1 Bft) S 190 ° 0 min 0,000 mm 0,5 UV-I 62 W/m² 14,9 °C 16,7 °C 3,2 km/h (1 Bft)
20.07.2017 07:56 16,8 °C 16,8 °C 89 % 1011,1 hPa 0,0 mm 3,1 km/h (1 Bft) S-SW 194 ° 0 min 0,000 mm 0,5 UV-I 63 W/m² 15,0 °C 16,8 °C 8,0 km/h (2 Bft)
20.07.2017 07:57 16,8 °C 16,8 °C 88 % 1011,1 hPa 0,0 mm 4,0 km/h (1 Bft) S 188 ° 0 min 0,000 mm 0,5 UV-I 65 W/m² 14,8 °C 16,8 °C 6,4 km/h (2 Bft)
20.07.2017 07:58 16,8 °C 16,8 °C 88 % 1011,1 hPa 0,0 mm 2,7 km/h (1 Bft) S 188 ° 0 min 0,000 mm 0,5 UV-I 67 W/m² 14,8 °C 16,8 °C 4,8 km/h (1 Bft)
20.07.2017 07:59 16,8 °C 16,8 °C 88 % 1011,0 hPa 0,0 mm 2,5 km/h (1 Bft) S 188 ° 0 min 0,000 mm 0,5 UV-I 70 W/m² 14,8 °C 16,8 °C 3,2 km/h (1 Bft)
20.07.2017 08:00 16,8 °C 16,9 °C 88 % 1011,1 hPa 0,0 mm 2,3 km/h (1 Bft) S 188 ° 0 min 0,025 mm 0,5 UV-I 72 W/m² 14,8 °C 16,8 °C 3,2 km/h (1 Bft)
20.07.2017 08:01 16,9 °C 16,9 °C 88 % 1011,1 hPa 0,0 mm 1,9 km/h (1 Bft) S 188 ° 0 min 0,000 mm 0,5 UV-I 74 W/m² 14,9 °C 16,9 °C 3,2 km/h (1 Bft)
20.07.2017 08:02 16,9 °C 16,9 °C 89 % 1011,1 hPa 0,0 mm 1,5 km/h (1 Bft) S 188 ° 0 min 0,000 mm 0,5 UV-I 76 W/m² 15,1 °C 16,9 °C 3,2 km/h (1 Bft)
20.07.2017 08:03 16,9 °C 16,9 °C 89 % 1011,1 hPa 0,0 mm 1,0 km/h (0 Bft) S 188 ° 0 min 0,000 mm 0,5 UV-I 76 W/m² 15,1 °C 16,9 °C 1,6 km/h (1 Bft)
20.07.2017 08:04 16,9 °C 16,9 °C 89 % 1011,1 hPa 0,0 mm 0,2 km/h (0 Bft) S 188 ° 0 min 0,000 mm 0,5 UV-I 76 W/m² 15,1 °C 16,9 °C 1,6 km/h (1 Bft)
20.07.2017 08:05 16,9 °C 17,0 °C 89 % 1011,0 hPa 0,0 mm 0,3 km/h (0 Bft) S 188 ° 0 min 0,000 mm 0,5 UV-I 76 W/m² 15,1 °C 16,9 °C 1,6 km/h (1 Bft)
20.07.2017 08:06 16,9 °C 16,9 °C 88 % 1011,1 hPa 0,0 mm 1,2 km/h (1 Bft) S 188 ° 0 min 0,000 mm 0,5 UV-I 76 W/m² 14,9 °C 16,9 °C 3,2 km/h (1 Bft)
20.07.2017 08:07 16,9 °C 16,9 °C 89 % 1011,1 hPa 0,0 mm 0,0 km/h (0 Bft) S 188 ° 0 min 0,000 mm 0,5 UV-I 76 W/m² 15,1 °C 16,9 °C 0,0 km/h (0 Bft)
20.07.2017 08:08 17,0 °C 17,0 °C 87 % 1011,0 hPa 0,0 mm 0,0 km/h (0 Bft) S 188 ° 0 min 0,000 mm 0,5 UV-I 76 W/m² 14,8 °C 17,0 °C 0,0 km/h (0 Bft)
20.07.2017 08:09 17,0 °C 17,1 °C 88 % 1011,0 hPa 0,0 mm 1,0 km/h (0 Bft) S 188 ° 0 min 0,000 mm 0,5 UV-I 77 W/m² 15,0 °C 17,0 °C 3,2 km/h (1 Bft)
20.07.2017 08:10 17,1 °C 17,1 °C 89 % 1011,0 hPa 0,0 mm 1,1 km/h (1 Bft) S 188 ° 0 min 0,000 mm 0,5 UV-I 79 W/m² 15,3 °C 17,1 °C 3,2 km/h (1 Bft)
20.07.2017 08:11 17,0 °C 17,1 °C 89 % 1011,0 hPa 0,0 mm 2,0 km/h (1 Bft) S-SW 199 ° 0 min 0,000 mm 0,5 UV-I 83 W/m² 15,2 °C 17,0 °C 3,2 km/h (1 Bft)
20.07.2017 08:12 16,9 °C 17,0 °C 89 % 1011,0 hPa 0,0 mm 2,3 km/h (1 Bft) SW 223 ° 0 min 0,000 mm 0,6 UV-I 84 W/m² 15,1 °C 16,9 °C 3,2 km/h (1 Bft)
20.07.2017 08:13 16,9 °C 16,9 °C 87 % 1011,0 hPa 0,0 mm 0,2 km/h (0 Bft) SW 222 ° 0 min 0,000 mm 0,6 UV-I 86 W/m² 14,7 °C 16,9 °C 1,6 km/h (1 Bft)
20.07.2017 08:14 17,0 °C 17,0 °C 85 % 1011,0 hPa 0,0 mm 0,1 km/h (0 Bft) SW 222 ° 0 min 0,000 mm 0,6 UV-I 88 W/m² 14,5 °C 17,0 °C 1,6 km/h (1 Bft)
20.07.2017 08:15 17,1 °C 17,1 °C 86 % 1011,0 hPa 0,0 mm 0,8 km/h (0 Bft) SW 222 ° 0 min 0,000 mm 0,7 UV-I 88 W/m² 14,7 °C 17,1 °C 3,2 km/h (1 Bft)
20.07.2017 08:16 17,1 °C 17,1 °C 87 % 1011,0 hPa 0,0 mm 0,1 km/h (0 Bft) SW 222 ° 0 min 0,000 mm 0,7 UV-I 90 W/m² 14,9 °C 17,1 °C 1,6 km/h (1 Bft)
20.07.2017 08:17 17,1 °C 17,1 °C 86 % 1011,0 hPa 0,0 mm 1,0 km/h (0 Bft) SW 221 ° 0 min 0,000 mm 0,8 UV-I 90 W/m² 14,7 °C 17,1 °C 3,2 km/h (1 Bft)
20.07.2017 08:18 17,0 °C 17,1 °C 87 % 1011,0 hPa 0,0 mm 0,7 km/h (0 Bft) SW 221 ° 0 min 0,000 mm 0,8 UV-I 90 W/m² 14,8 °C 17,0 °C 1,6 km/h (1 Bft)
20.07.2017 08:19 17,0 °C 17,0 °C 87 % 1010,9 hPa 0,0 mm 0,1 km/h (0 Bft) SW 222 ° 0 min 0,000 mm 0,8 UV-I 91 W/m² 14,8 °C 17,0 °C 1,6 km/h (1 Bft)
20.07.2017 08:20 16,9 °C 17,0 °C 87 % 1010,9 hPa 0,0 mm 0,0 km/h (0 Bft) SW 222 ° 0 min 0,000 mm 0,9 UV-I 97 W/m² 14,7 °C 16,9 °C 0,0 km/h (0 Bft)
20.07.2017 08:21 17,0 °C 17,0 °C 88 % 1010,9 hPa 0,0 mm 0,0 km/h (0 Bft) SW 222 ° 0 min 0,000 mm 0,9 UV-I 107 W/m² 15,0 °C 17,0 °C 0,0 km/h (0 Bft)
20.07.2017 08:22 16,9 °C 17,0 °C 89 % 1010,9 hPa 0,0 mm 0,0 km/h (0 Bft) SW 222 ° 0 min 0,000 mm 1,0 UV-I 128 W/m² 15,1 °C 16,9 °C 0,0 km/h (0 Bft)
20.07.2017 08:23 16,9 °C 16,9 °C 89 % 1010,9 hPa 0,0 mm 0,0 km/h (0 Bft) SW 222 ° 0 min 0,000 mm 1,0 UV-I 141 W/m² 15,1 °C 16,9 °C 0,0 km/h (0 Bft)
20.07.2017 08:24 16,9 °C 16,9 °C 87 % 1010,9 hPa 0,0 mm 0,0 km/h (0 Bft) SW 222 ° 0 min 0,000 mm 1,1 UV-I 151 W/m² 14,7 °C 16,9 °C 0,0 km/h (0 Bft)
20.07.2017 08:25 17,0 °C 17,0 °C 88 % 1010,9 hPa 0,0 mm 0,0 km/h (0 Bft) SW 222 ° 0 min 0,000 mm 1,2 UV-I 156 W/m² 15,0 °C 17,0 °C 0,0 km/h (0 Bft)
20.07.2017 08:26 17,0 °C 17,0 °C 88 % 1010,9 hPa 0,0 mm 0,1 km/h (0 Bft) SW 222 ° 0 min 0,000 mm 1,2 UV-I 163 W/m² 15,0 °C 17,0 °C 1,6 km/h (1 Bft)
20.07.2017 08:27 17,1 °C 17,1 °C 87 % 1010,8 hPa 0,0 mm 0,4 km/h (0 Bft) SW 222 ° 0 min 0,000 mm 1,3 UV-I 172 W/m² 14,9 °C 17,1 °C 1,6 km/h (1 Bft)
20.07.2017 08:28 17,2 °C 17,2 °C 88 % 1010,8 hPa 0,0 mm 0,0 km/h (0 Bft) SW 222 ° 0 min 0,000 mm 1,4 UV-I 190 W/m² 15,2 °C 17,2 °C 0,0 km/h (0 Bft)
20.07.2017 08:29 17,3 °C 17,3 °C 87 % 1010,8 hPa 0,0 mm 0,0 km/h (0 Bft) SW 222 ° 0 min 0,000 mm 1,4 UV-I 190 W/m² 15,1 °C 17,3 °C 0,0 km/h (0 Bft)
20.07.2017 08:30 17,4 °C 17,4 °C 86 % 1010,8 hPa 0,0 mm 0,0 km/h (0 Bft) SW 222 ° 0 min 0,000 mm 1,4 UV-I 190 W/m² 15,0 °C 17,4 °C 0,0 km/h (0 Bft)
20.07.2017 08:31 17,5 °C 17,5 °C 86 % 1010,8 hPa 0,0 mm 0,0 km/h (0 Bft) SW 222 ° 0 min 0,000 mm 1,4 UV-I 197 W/m² 15,1 °C 17,5 °C 0,0 km/h (0 Bft)
20.07.2017 08:32 17,6 °C 17,6 °C 87 % 1010,8 hPa 0,0 mm 0,0 km/h (0 Bft) SW 222 ° 0 min 0,000 mm 1,6 UV-I 197 W/m² 15,4 °C 17,6 °C 0,0 km/h (0 Bft)
20.07.2017 08:33 17,6 °C 17,6 °C 85 % 1010,8 hPa 0,0 mm 0,0 km/h (0 Bft) SW 222 ° 0 min 0,000 mm 1,8 UV-I 197 W/m² 15,0 °C 17,6 °C 0,0 km/h (0 Bft)
20.07.2017 08:34 17,7 °C 17,7 °C 86 % 1010,8 hPa 0,0 mm 0,1 km/h (0 Bft) SW 223 ° 0 min 0,000 mm 1,5 UV-I 178 W/m² 15,3 °C 17,7 °C 1,6 km/h (1 Bft)
20.07.2017 08:35 17,8 °C 17,8 °C 84 % 1010,7 hPa 0,0 mm 3,5 km/h (1 Bft) W-SW 255 ° 0 min 0,000 mm 1,4 UV-I 178 W/m² 15,1 °C 17,8 °C 4,8 km/h (1 Bft)
20.07.2017 08:36 17,9 °C 17,9 °C 84 % 1010,8 hPa 0,0 mm 3,4 km/h (1 Bft) W 269 ° 0 min 0,000 mm 1,5 UV-I 199 W/m² 15,2 °C 17,9 °C 4,8 km/h (1 Bft)
20.07.2017 08:37 18,1 °C 18,1 °C 84 % 1010,8 hPa 0,0 mm 4,5 km/h (1 Bft) NW 305 ° 0 min 0,000 mm 1,6 UV-I 199 W/m² 15,4 °C 18,1 °C 6,4 km/h (2 Bft)
20.07.2017 08:38 18,1 °C 18,1 °C 84 % 1010,8 hPa 0,0 mm 5,2 km/h (1 Bft) NW 306 ° 0 min 0,000 mm 1,4 UV-I 199 W/m² 15,4 °C 18,1 °C 6,4 km/h (2 Bft)
20.07.2017 08:39 18,2 °C 18,2 °C 84 % 1010,8 hPa 0,0 mm 3,6 km/h (1 Bft) NW 308 ° 0 min 0,000 mm 1,4 UV-I 139 W/m² 15,4 °C 18,2 °C 4,8 km/h (1 Bft)
20.07.2017 08:40 18,2 °C 18,2 °C 84 % 1010,9 hPa 0,0 mm 3,0 km/h (1 Bft) NW 311 ° 1 min 0,000 mm 2,0 UV-I 396 W/m² 15,4 °C 18,2 °C 4,8 km/h (1 Bft)
20.07.2017 08:41 18,3 °C 18,3 °C 84 % 1011,0 hPa 0,0 mm 2,3 km/h (1 Bft) NW 311 ° 1 min 0,000 mm 2,0 UV-I 396 W/m² 15,5 °C 18,3 °C 3,2 km/h (1 Bft)
20.07.2017 08:42 18,3 °C 18,3 °C 85 % 1010,9 hPa 0,0 mm 2,6 km/h (1 Bft) NW 314 ° 1 min 0,000 mm 2,0 UV-I 396 W/m² 15,7 °C 18,3 °C 4,8 km/h (1 Bft)
20.07.2017 08:43 18,3 °C 18,3 °C 84 % 1011,0 hPa 0,0 mm 3,3 km/h (1 Bft) NW 308 ° 0 min 0,000 mm 2,0 UV-I 287 W/m² 15,5 °C 18,3 °C 4,8 km/h (1 Bft)
20.07.2017 08:44 18,3 °C 18,4 °C 85 % 1011,0 hPa 0,0 mm 2,0 km/h (1 Bft) NW 308 ° 1 min 0,000 mm 2,1 UV-I 350 W/m² 15,7 °C 18,3 °C 4,8 km/h (1 Bft)
20.07.2017 08:45 18,4 °C 18,4 °C 84 % 1011,0 hPa 0,0 mm 2,4 km/h (1 Bft) NW 308 ° 1 min 0,000 mm 2,2 UV-I 413 W/m² 15,6 °C 18,4 °C 4,8 km/h (1 Bft)
20.07.2017 08:46 18,4 °C 18,4 °C 85 % 1010,9 hPa 0,0 mm 4,0 km/h (1 Bft) W 266 ° 1 min 0,000 mm 2,2 UV-I 394 W/m² 15,8 °C 18,4 °C 4,8 km/h (1 Bft)
20.07.2017 08:47 18,4 °C 18,4 °C 85 % 1011,0 hPa 0,0 mm 2,0 km/h (1 Bft) W 266 ° 1 min 0,000 mm 2,2 UV-I 413 W/m² 15,8 °C 18,4 °C 3,2 km/h (1 Bft)
20.07.2017 08:48 18,6 °C 18,6 °C 86 % 1011,0 hPa 0,0 mm 0,6 km/h (0 Bft) W 266 ° 1 min 0,000 mm 2,3 UV-I 420 W/m² 16,2 °C 18,6 °C 1,6 km/h (1 Bft)
20.07.2017 08:49 18,7 °C 18,7 °C 86 % 1010,9 hPa 0,0 mm 1,9 km/h (1 Bft) W 265 ° 1 min 0,000 mm 2,3 UV-I 424 W/m² 16,3 °C 18,7 °C 3,2 km/h (1 Bft)
20.07.2017 08:50 18,8 °C 18,8 °C 82 % 1010,9 hPa 0,0 mm 1,5 km/h (1 Bft) W 265 ° 1 min 0,000 mm 2,3 UV-I 420 W/m² 15,7 °C 18,8 °C 3,2 km/h (1 Bft)
20.07.2017 08:51 18,7 °C 18,8 °C 84 % 1010,9 hPa 0,0 mm 0,0 km/h (0 Bft) W 265 ° 1 min 0,000 mm 2,3 UV-I 431 W/m² 15,9 °C 18,7 °C 0,0 km/h (0 Bft)
20.07.2017 08:52 18,7 °C 18,7 °C 82 % 1010,9 hPa 0,0 mm 0,0 km/h (0 Bft) W 265 ° 1 min 0,000 mm 2,4 UV-I 381 W/m² 15,6 °C 18,7 °C 0,0 km/h (0 Bft)
20.07.2017 08:53 18,6 °C 18,7 °C 83 % 1010,8 hPa 0,0 mm 0,0 km/h (0 Bft) W 265 ° 1 min 0,000 mm 2,3 UV-I 397 W/m² 15,7 °C 18,6 °C 0,0 km/h (0 Bft)
20.07.2017 08:54 18,6 °C 18,6 °C 85 % 1010,8 hPa 0,0 mm 0,0 km/h (0 Bft) W 265 ° 1 min 0,000 mm 2,3 UV-I 381 W/m² 16,0 °C 18,6 °C 0,0 km/h (0 Bft)
20.07.2017 08:55 18,7 °C 18,7 °C 82 % 1010,8 hPa 0,0 mm 0,8 km/h (0 Bft) W 265 ° 1 min 0,000 mm 2,4 UV-I 413 W/m² 15,6 °C 18,7 °C 1,6 km/h (1 Bft)
20.07.2017 08:56 18,7 °C 18,7 °C 85 % 1010,9 hPa 0,0 mm 0,3 km/h (0 Bft) W 265 ° 1 min 0,000 mm 2,5 UV-I 427 W/m² 16,1 °C 18,7 °C 1,6 km/h (1 Bft)
20.07.2017 08:57 18,8 °C 18,8 °C 82 % 1010,9 hPa 0,0 mm 0,6 km/h (0 Bft) W 267 ° 1 min 0,000 mm 2,5 UV-I 438 W/m² 15,7 °C 18,8 °C 1,6 km/h (1 Bft)
20.07.2017 08:58 19,1 °C 19,1 °C 84 % 1010,9 hPa 0,0 mm 0,9 km/h (0 Bft) W-SW 252 ° 1 min 0,000 mm 2,5 UV-I 439 W/m² 16,3 °C 19,1 °C 3,2 km/h (1 Bft)
20.07.2017 08:59 19,3 °C 19,3 °C 83 % 1010,9 hPa 0,0 mm 0,1 km/h (0 Bft) W-SW 252 ° 1 min 0,000 mm 2,5 UV-I 439 W/m² 16,3 °C 19,3 °C 1,6 km/h (1 Bft)
20.07.2017 09:00 19,4 °C 19,4 °C 84 % 1010,8 hPa 0,0 mm 0,9 km/h (0 Bft) N-NW 330 ° 1 min 0,127 mm 2,6 UV-I 441 W/m² 16,6 °C 19,4 °C 4,8 km/h (1 Bft)
20.07.2017 09:01 19,5 °C 19,5 °C 84 % 1010,8 hPa 0,0 mm 2,1 km/h (1 Bft) N-NW 331 ° 1 min 0,000 mm 2,6 UV-I 450 W/m² 16,7 °C 19,5 °C 3,2 km/h (1 Bft)
20.07.2017 09:02 19,6 °C 19,6 °C 83 % 1010,8 hPa 0,0 mm 1,8 km/h (1 Bft) N-NO 31 ° 1 min 0,000 mm 2,6 UV-I 455 W/m² 16,6 °C 19,6 °C 3,2 km/h (1 Bft)
20.07.2017 09:03 19,5 °C 19,6 °C 82 % 1010,8 hPa 0,0 mm 0,4 km/h (0 Bft) N-NO 31 ° 1 min 0,000 mm 2,6 UV-I 454 W/m² 16,3 °C 19,5 °C 3,2 km/h (1 Bft)
20.07.2017 09:04 19,5 °C 19,6 °C 82 % 1010,8 hPa 0,0 mm 0,5 km/h (0 Bft) O 82 ° 1 min 0,000 mm 2,5 UV-I 422 W/m² 16,3 °C 19,5 °C 3,2 km/h (1 Bft)
20.07.2017 09:05 19,4 °C 19,6 °C 82 % 1010,8 hPa 0,0 mm 1,7 km/h (1 Bft) O 82 ° 1 min 0,000 mm 2,5 UV-I 418 W/m² 16,2 °C 19,4 °C 3,2 km/h (1 Bft)
20.07.2017 09:06 19,6 °C 19,6 °C 83 % 1010,8 hPa 0,0 mm 1,5 km/h (1 Bft) O-SO 106 ° 1 min 0,000 mm 2,5 UV-I 415 W/m² 16,6 °C 19,6 °C 4,8 km/h (1 Bft)
20.07.2017 09:07 19,7 °C 19,7 °C 83 % 1010,8 hPa 0,0 mm 0,6 km/h (0 Bft) O-SO 106 ° 1 min 0,000 mm 2,6 UV-I 420 W/m² 16,7 °C 19,7 °C 3,2 km/h (1 Bft)
20.07.2017 09:08 19,8 °C 19,8 °C 80 % 1010,7 hPa 0,0 mm 0,0 km/h (0 Bft) O-SO 106 ° 1 min 0,000 mm 2,6 UV-I 429 W/m² 16,2 °C 19,8 °C 0,0 km/h (0 Bft)
20.07.2017 09:09 20,1 °C 20,1 °C 81 % 1010,7 hPa 0,0 mm 0,2 km/h (0 Bft) O-SO 106 ° 1 min 0,000 mm 2,5 UV-I 374 W/m² 16,7 °C 20,1 °C 1,6 km/h (1 Bft)
20.07.2017 09:10 20,4 °C 20,4 °C 80 % 1010,8 hPa 0,0 mm 1,7 km/h (1 Bft) W 279 ° 1 min 0,000 mm 2,6 UV-I 401 W/m² 16,8 °C 20,4 °C 4,8 km/h (1 Bft)
20.07.2017 09:11 20,7 °C 20,7 °C 75 % 1010,8 hPa 0,0 mm 2,6 km/h (1 Bft) W 261 ° 1 min 0,000 mm 2,7 UV-I 424 W/m² 16,1 °C 20,7 °C 4,8 km/h (1 Bft)
20.07.2017 09:12 20,8 °C 20,8 °C 74 % 1010,8 hPa 0,0 mm 1,9 km/h (1 Bft) W 263 ° 1 min 0,000 mm 2,8 UV-I 454 W/m² 16,0 °C 20,8 °C 4,8 km/h (1 Bft)
20.07.2017 09:13 20,8 °C 20,8 °C 78 % 1010,8 hPa 0,0 mm 0,0 km/h (0 Bft) W 263 ° 1 min 0,000 mm 2,6 UV-I 461 W/m² 16,8 °C 20,8 °C 0,0 km/h (0 Bft)
20.07.2017 09:14 20,9 °C 20,9 °C 75 % 1010,7 hPa 0,0 mm 2,1 km/h (1 Bft) W 264 ° 1 min 0,000 mm 2,0 UV-I 461 W/m² 16,3 °C 20,9 °C 9,7 km/h (2 Bft)
20.07.2017 09:15 20,9 °C 20,9 °C 72 % 1010,7 hPa 0,0 mm 5,0 km/h (1 Bft) W 260 ° 0 min 0,000 mm 2,0 UV-I 155 W/m² 15,7 °C 20,9 °C 6,4 km/h (2 Bft)
20.07.2017 09:16 20,9 °C 20,9 °C 71 % 1010,7 hPa 0,0 mm 3,3 km/h (1 Bft) W 277 ° 0 min 0,000 mm 2,0 UV-I 155 W/m² 15,4 °C 20,9 °C 4,8 km/h (1 Bft)
20.07.2017 09:17 20,8 °C 20,9 °C 71 % 1010,7 hPa 0,0 mm 0,6 km/h (0 Bft) W 277 ° 0 min 0,000 mm 2,2 UV-I 181 W/m² 15,3 °C 20,8 °C 1,6 km/h (1 Bft)
20.07.2017 09:18 20,7 °C 20,8 °C 70 % 1010,7 hPa 0,0 mm 1,0 km/h (0 Bft) SW 221 ° 0 min 0,000 mm 2,2 UV-I 209 W/m² 15,0 °C 20,7 °C 1,6 km/h (1 Bft)
20.07.2017 09:19 20,5 °C 20,7 °C 72 % 1010,7 hPa 0,0 mm 1,3 km/h (1 Bft) SW 223 ° 0 min 0,000 mm 3,1 UV-I 209 W/m² 15,3 °C 20,5 °C 3,2 km/h (1 Bft)
20.07.2017 09:20 20,4 °C 20,5 °C 74 % 1010,6 hPa 0,0 mm 4,1 km/h (1 Bft) W-SW 250 ° 0 min 0,000 mm 3,1 UV-I 209 W/m² 15,6 °C 20,4 °C 6,4 km/h (2 Bft)
20.07.2017 09:21 20,5 °C 20,5 °C 72 % 1010,6 hPa 0,0 mm 1,0 km/h (0 Bft) W-SW 249 ° 1 min 0,000 mm 3,1 UV-I 492 W/m² 15,3 °C 20,5 °C 3,2 km/h (1 Bft)
20.07.2017 09:22 20,7 °C 20,7 °C 76 % 1010,5 hPa 0,0 mm 1,3 km/h (1 Bft) W-SW 247 ° 1 min 0,000 mm 2,9 UV-I 496 W/m² 16,3 °C 20,7 °C 3,2 km/h (1 Bft)
20.07.2017 09:23 20,7 °C 20,7 °C 75 % 1010,5 hPa 0,0 mm 1,4 km/h (1 Bft) W-SW 247 ° 1 min 0,000 mm 3,1 UV-I 483 W/m² 16,1 °C 20,7 °C 3,2 km/h (1 Bft)
20.07.2017 09:24 20,8 °C 20,8 °C 76 % 1010,5 hPa 0,0 mm 1,9 km/h (1 Bft) W-SW 247 ° 1 min 0,000 mm 2,7 UV-I 455 W/m² 16,4 °C 20,8 °C 3,2 km/h (1 Bft)
20.07.2017 09:25 20,8 °C 20,8 °C 72 % 1010,5 hPa 0,0 mm 2,0 km/h (1 Bft) S-SW 197 ° 1 min 0,000 mm 2,5 UV-I 455 W/m² 15,6 °C 20,8 °C 3,2 km/h (1 Bft)
20.07.2017 09:26 20,8 °C 20,8 °C 74 % 1010,5 hPa 0,0 mm 4,2 km/h (1 Bft) W-SW 240 ° 1 min 0,000 mm 2,6 UV-I 455 W/m² 16,0 °C 20,8 °C 6,4 km/h (2 Bft)
20.07.2017 09:27 21,0 °C 21,0 °C 70 % 1010,4 hPa 0,0 mm 3,6 km/h (1 Bft) W-SW 246 ° 0 min 0,000 mm 2,8 UV-I 287 W/m² 15,3 °C 21,0 °C 9,7 km/h (2 Bft)
20.07.2017 09:28 21,2 °C 21,2 °C 73 % 1010,3 hPa 0,0 mm 5,2 km/h (1 Bft) W-SW 239 ° 0 min 0,000 mm 2,2 UV-I 209 W/m² 16,2 °C 21,2 °C 6,4 km/h (2 Bft)
20.07.2017 09:29 21,2 °C 21,2 °C 70 % 1010,3 hPa 0,0 mm 1,9 km/h (1 Bft) W-SW 239 ° 0 min 0,000 mm 2,1 UV-I 209 W/m² 15,5 °C 21,2 °C 3,2 km/h (1 Bft)
20.07.2017 09:30 21,1 °C 21,2 °C 71 % 1010,2 hPa 0,0 mm 0,7 km/h (0 Bft) W-SW 239 ° 0 min 0,000 mm 2,2 UV-I 188 W/m² 15,6 °C 21,1 °C 3,2 km/h (1 Bft)
20.07.2017 09:31 21,1 °C 21,1 °C 74 % 1010,3 hPa 0,0 mm 3,6 km/h (1 Bft) W-SW 251 ° 0 min 0,000 mm 2,5 UV-I 230 W/m² 16,3 °C 21,1 °C 6,4 km/h (2 Bft)
20.07.2017 09:32 21,0 °C 21,1 °C 74 % 1010,2 hPa 0,0 mm 2,7 km/h (1 Bft) W-SW 251 ° 0 min 0,000 mm 2,6 UV-I 230 W/m² 16,2 °C 21,0 °C 4,8 km/h (1 Bft)
20.07.2017 09:33 20,9 °C 21,0 °C 75 % 1010,2 hPa 0,0 mm 3,5 km/h (1 Bft) W 271 ° 1 min 0,000 mm 3,0 UV-I 304 W/m² 16,3 °C 20,9 °C 6,4 km/h (2 Bft)
20.07.2017 09:34 21,0 °C 21,0 °C 72 % 1010,2 hPa 0,0 mm 3,2 km/h (1 Bft) W 279 ° 1 min 0,000 mm 3,3 UV-I 304 W/m² 15,8 °C 21,0 °C 4,8 km/h (1 Bft)
20.07.2017 09:35 21,1 °C 21,1 °C 74 % 1010,2 hPa 0,0 mm 4,0 km/h (1 Bft) W 267 ° 1 min 0,000 mm 3,2 UV-I 506 W/m² 16,3 °C 21,1 °C 9,7 km/h (2 Bft)
20.07.2017 09:36 21,2 °C 21,2 °C 67 % 1010,2 hPa 0,0 mm 6,9 km/h (2 Bft) W 259 ° 1 min 0,000 mm 3,3 UV-I 490 W/m² 14,8 °C 21,2 °C 11,3 km/h (2 Bft)
20.07.2017 09:37 21,4 °C 21,4 °C 71 % 1010,2 hPa 0,0 mm 7,6 km/h (2 Bft) W 277 ° 1 min 0,000 mm 3,4 UV-I 533 W/m² 15,9 °C 21,4 °C 9,7 km/h (2 Bft)
20.07.2017 09:38 21,6 °C 21,6 °C 68 % 1010,2 hPa 0,0 mm 1,1 km/h (1 Bft) W 277 ° 1 min 0,000 mm 3,4 UV-I 533 W/m² 15,4 °C 21,6 °C 3,2 km/h (1 Bft)
20.07.2017 09:39 21,7 °C 21,7 °C 69 % 1010,1 hPa 0,0 mm 3,8 km/h (1 Bft) NW 306 ° 1 min 0,000 mm 3,3 UV-I 533 W/m² 15,8 °C 21,7 °C 11,3 km/h (2 Bft)
20.07.2017 09:40 21,8 °C 21,8 °C 65 % 1010,1 hPa 0,0 mm 4,0 km/h (1 Bft) W 275 ° 1 min 0,000 mm 3,0 UV-I 353 W/m² 14,9 °C 21,8 °C 6,4 km/h (2 Bft)
20.07.2017 09:41 21,8 °C 21,8 °C 67 % 1010,1 hPa 0,0 mm 2,8 km/h (1 Bft) W 273 ° 1 min 0,000 mm 3,3 UV-I 353 W/m² 15,4 °C 21,8 °C 4,8 km/h (1 Bft)
20.07.2017 09:42 21,8 °C 21,8 °C 67 % 1010,1 hPa 0,0 mm 0,9 km/h (0 Bft) W 273 ° 1 min 0,000 mm 3,4 UV-I 519 W/m² 15,4 °C 21,8 °C 1,6 km/h (1 Bft)
20.07.2017 09:43 21,9 °C 21,9 °C 65 % 1010,1 hPa 0,0 mm 1,9 km/h (1 Bft) W 273 ° 1 min 0,000 mm 2,9 UV-I 519 W/m² 15,0 °C 21,9 °C 4,8 km/h (1 Bft)
20.07.2017 09:44 21,8 °C 21,9 °C 69 % 1010,0 hPa 0,0 mm 0,6 km/h (0 Bft) W 273 ° 1 min 0,000 mm 2,6 UV-I 519 W/m² 15,9 °C 21,8 °C 1,6 km/h (1 Bft)
20.07.2017 09:45 21,7 °C 21,8 °C 74 % 1010,0 hPa 0,0 mm 0,7 km/h (0 Bft) W-SW 248 ° 1 min 0,000 mm 3,0 UV-I 378 W/m² 16,9 °C 21,7 °C 3,2 km/h (1 Bft)
20.07.2017 09:46 21,4 °C 21,7 °C 72 % 1010,1 hPa 0,0 mm 0,3 km/h (0 Bft) W 265 ° 1 min 0,000 mm 2,9 UV-I 327 W/m² 16,1 °C 21,4 °C 4,8 km/h (1 Bft)
20.07.2017 09:47 21,3 °C 21,4 °C 75 % 1010,1 hPa 0,0 mm 4,1 km/h (1 Bft) W-NW 291 ° 1 min 0,000 mm 3,0 UV-I 353 W/m² 16,7 °C 21,3 °C 6,4 km/h (2 Bft)
20.07.2017 09:48 21,3 °C 21,3 °C 66 % 1010,0 hPa 0,0 mm 4,3 km/h (1 Bft) W-NW 294 ° 1 min 0,000 mm 3,4 UV-I 353 W/m² 14,7 °C 21,3 °C 6,4 km/h (2 Bft)
20.07.2017 09:49 21,5 °C 21,5 °C 66 % 1010,1 hPa 0,0 mm 3,9 km/h (1 Bft) W-NW 301 ° 1 min 0,000 mm 2,9 UV-I 353 W/m² 14,9 °C 21,5 °C 6,4 km/h (2 Bft)
20.07.2017 09:50 21,7 °C 21,7 °C 69 % 1010,0 hPa 0,0 mm 2,2 km/h (1 Bft) W-NW 301 ° 1 min 0,000 mm 3,2 UV-I 424 W/m² 15,8 °C 21,7 °C 4,8 km/h (1 Bft)
20.07.2017 09:51 21,7 °C 21,7 °C 67 % 1010,0 hPa 0,0 mm 4,4 km/h (1 Bft) NW 307 ° 1 min 0,000 mm 3,5 UV-I 490 W/m² 15,3 °C 21,7 °C 6,4 km/h (2 Bft)
20.07.2017 09:52 21,8 °C 21,8 °C 67 % 1010,0 hPa 0,0 mm 4,0 km/h (1 Bft) NW 323 ° 1 min 0,000 mm 3,4 UV-I 515 W/m² 15,4 °C 21,8 °C 6,4 km/h (2 Bft)
20.07.2017 09:53 21,9 °C 21,9 °C 66 % 1010,0 hPa 0,0 mm 4,8 km/h (1 Bft) NW 305 ° 1 min 0,000 mm 3,5 UV-I 504 W/m² 15,3 °C 21,9 °C 6,4 km/h (2 Bft)
20.07.2017 09:54 21,9 °C 21,9 °C 64 % 1010,0 hPa 0,0 mm 3,6 km/h (1 Bft) NW 318 ° 1 min 0,000 mm 3,6 UV-I 527 W/m² 14,8 °C 21,9 °C 6,4 km/h (2 Bft)
20.07.2017 09:55 22,0 °C 22,0 °C 68 % 1010,0 hPa 0,0 mm 3,4 km/h (1 Bft) NW 319 ° 1 min 0,000 mm 3,7 UV-I 540 W/m² 15,8 °C 22,0 °C 4,8 km/h (1 Bft)
20.07.2017 09:56 22,1 °C 22,1 °C 64 % 1010,0 hPa 0,0 mm 3,5 km/h (1 Bft) NW 319 ° 1 min 0,000 mm 3,8 UV-I 531 W/m² 15,0 °C 22,1 °C 4,8 km/h (1 Bft)
20.07.2017 09:57 22,2 °C 22,2 °C 65 % 1010,1 hPa 0,0 mm 3,2 km/h (1 Bft) N-NW 331 ° 1 min 0,000 mm 3,8 UV-I 554 W/m² 15,3 °C 22,2 °C 6,4 km/h (2 Bft)
20.07.2017 09:58 22,2 °C 22,2 °C 65 % 1010,0 hPa 0,0 mm 2,0 km/h (1 Bft) N-NW 327 ° 1 min 0,000 mm 3,7 UV-I 554 W/m² 15,3 °C 22,2 °C 3,2 km/h (1 Bft)
20.07.2017 09:59 22,2 °C 22,2 °C 63 % 1010,0 hPa 0,0 mm 0,9 km/h (0 Bft) W-NW 300 ° 1 min 0,000 mm 3,7 UV-I 529 W/m² 14,8 °C 22,2 °C 4,8 km/h (1 Bft)
20.07.2017 10:00 22,3 °C 22,3 °C 65 % 1010,0 hPa 0,0 mm 5,6 km/h (1 Bft) N-NW 328 ° 1 min 0,000 mm 3,7 UV-I 522 W/m² 15,4 °C 22,3 °C 9,7 km/h (2 Bft)
20.07.2017 10:01 22,3 °C 22,3 °C 63 % 1010,0 hPa 0,0 mm 4,0 km/h (1 Bft) W-NW 283 ° 1 min 0,254 mm 3,8 UV-I 548 W/m² 14,9 °C 22,3 °C 6,4 km/h (2 Bft)
20.07.2017 10:02 22,3 °C 22,3 °C 62 % 1010,0 hPa 0,0 mm 3,0 km/h (1 Bft) W-NW 286 ° 1 min 0,000 mm 3,9 UV-I 587 W/m² 14,7 °C 22,3 °C 4,8 km/h (1 Bft)
20.07.2017 10:03 22,3 °C 22,3 °C 63 % 1009,9 hPa 0,0 mm 4,2 km/h (1 Bft) NW 304 ° 1 min 0,000 mm 3,2 UV-I 587 W/m² 14,9 °C 22,3 °C 8,0 km/h (2 Bft)
20.07.2017 10:04 22,4 °C 22,4 °C 65 % 1009,9 hPa 0,0 mm 4,0 km/h (1 Bft) NW 305 ° 1 min 0,000 mm 3,2 UV-I 427 W/m² 15,5 °C 22,4 °C 6,4 km/h (2 Bft)
20.07.2017 10:05 22,3 °C 22,4 °C 62 % 1009,9 hPa 0,0 mm 3,4 km/h (1 Bft) NW 325 ° 1 min 0,000 mm 3,1 UV-I 417 W/m² 14,7 °C 22,3 °C 9,7 km/h (2 Bft)
20.07.2017 10:06 22,3 °C 22,3 °C 63 % 1009,9 hPa 0,0 mm 7,5 km/h (2 Bft) NW 320 ° 1 min 0,000 mm 3,3 UV-I 450 W/m² 14,9 °C 22,3 °C 9,7 km/h (2 Bft)
20.07.2017 10:07 22,3 °C 22,3 °C 62 % 1009,8 hPa 0,0 mm 4,1 km/h (1 Bft) NW 307 ° 1 min 0,000 mm 3,7 UV-I 508 W/m² 14,7 °C 22,3 °C 6,4 km/h (2 Bft)
20.07.2017 10:08 22,3 °C 22,3 °C 62 % 1009,9 hPa 0,0 mm 4,0 km/h (1 Bft) NW 319 ° 1 min 0,000 mm 3,8 UV-I 540 W/m² 14,7 °C 22,3 °C 6,4 km/h (2 Bft)
20.07.2017 10:09 22,3 °C 22,3 °C 59 % 1009,9 hPa 0,0 mm 1,1 km/h (1 Bft) NW 319 ° 1 min 0,000 mm 4,1 UV-I 594 W/m² 13,9 °C 22,3 °C 3,2 km/h (1 Bft)
20.07.2017 10:10 22,3 °C 22,3 °C 59 % 1009,8 hPa 0,0 mm 0,3 km/h (0 Bft) NW 319 ° 1 min 0,000 mm 4,1 UV-I 601 W/m² 13,9 °C 22,3 °C 1,6 km/h (1 Bft)
20.07.2017 10:11 22,3 °C 22,3 °C 63 % 1009,8 hPa 0,0 mm 0,7 km/h (0 Bft) NW 319 ° 1 min 0,000 mm 4,0 UV-I 599 W/m² 14,9 °C 22,3 °C 1,6 km/h (1 Bft)
20.07.2017 10:12 22,4 °C 22,4 °C 62 % 1009,7 hPa 0,0 mm 0,9 km/h (0 Bft) NW 319 ° 1 min 0,000 mm 3,9 UV-I 584 W/m² 14,8 °C 22,4 °C 1,6 km/h (1 Bft)
20.07.2017 10:13 22,4 °C 22,4 °C 61 % 1009,8 hPa 0,0 mm 0,1 km/h (0 Bft) NW 319 ° 1 min 0,000 mm 3,9 UV-I 540 W/m² 14,5 °C 22,4 °C 1,6 km/h (1 Bft)
20.07.2017 10:14 22,5 °C 22,5 °C 64 % 1009,7 hPa 0,0 mm 2,9 km/h (1 Bft) W 281 ° 1 min 0,000 mm 3,2 UV-I 380 W/m² 15,3 °C 22,5 °C 4,8 km/h (1 Bft)
20.07.2017 10:15 22,6 °C 22,6 °C 64 % 1009,7 hPa 0,0 mm 2,8 km/h (1 Bft) W 281 ° 1 min 0,000 mm 3,1 UV-I 403 W/m² 15,4 °C 22,6 °C 4,8 km/h (1 Bft)
20.07.2017 10:16 22,5 °C 22,6 °C 62 % 1009,8 hPa 0,0 mm 5,1 km/h (1 Bft) W 269 ° 1 min 0,000 mm 2,9 UV-I 350 W/m² 14,8 °C 22,5 °C 6,4 km/h (2 Bft)
20.07.2017 10:17 22,4 °C 22,5 °C 62 % 1009,8 hPa 0,0 mm 3,5 km/h (1 Bft) W 271 ° 1 min 0,000 mm 2,8 UV-I 323 W/m² 14,8 °C 22,4 °C 4,8 km/h (1 Bft)
20.07.2017 10:18 22,4 °C 22,4 °C 61 % 1009,8 hPa 0,0 mm 3,2 km/h (1 Bft) NW 305 ° 0 min 0,000 mm 2,6 UV-I 288 W/m² 14,5 °C 22,4 °C 4,8 km/h (1 Bft)
20.07.2017 10:19 22,4 °C 22,4 °C 64 % 1009,7 hPa 0,0 mm 1,9 km/h (1 Bft) NW 305 ° 0 min 0,000 mm 2,6 UV-I 285 W/m² 15,2 °C 22,4 °C 4,8 km/h (1 Bft)
20.07.2017 10:20 22,3 °C 22,4 °C 64 % 1009,8 hPa 0,0 mm 3,5 km/h (1 Bft) NW 325 ° 1 min 0,000 mm 2,7 UV-I 311 W/m² 15,2 °C 22,3 °C 6,4 km/h (2 Bft)
20.07.2017 10:21 22,3 °C 22,3 °C 66 % 1009,8 hPa 0,0 mm 3,3 km/h (1 Bft) NW 324 ° 1 min 0,000 mm 2,9 UV-I 339 W/m² 15,6 °C 22,3 °C 4,8 km/h (1 Bft)
20.07.2017 10:22 22,2 °C 22,3 °C 62 % 1009,8 hPa 0,0 mm 2,8 km/h (1 Bft) N-NW 329 ° 1 min 0,000 mm 2,8 UV-I 330 W/m² 14,6 °C 22,2 °C 4,8 km/h (1 Bft)
20.07.2017 10:23 22,2 °C 22,2 °C 66 % 1009,8 hPa 0,0 mm 6,6 km/h (2 Bft) NW 325 ° 1 min 0,000 mm 2,7 UV-I 294 W/m² 15,5 °C 22,2 °C 9,7 km/h (2 Bft)
20.07.2017 10:24 22,1 °C 22,2 °C 66 % 1009,8 hPa 0,0 mm 5,8 km/h (2 Bft) NW 325 ° 1 min 0,000 mm 2,8 UV-I 323 W/m² 15,4 °C 22,1 °C 9,7 km/h (2 Bft)
20.07.2017 10:25 22,1 °C 22,1 °C 66 % 1009,8 hPa 0,0 mm 4,0 km/h (1 Bft) W-NW 298 ° 0 min 0,000 mm 2,6 UV-I 278 W/m² 15,4 °C 22,1 °C 6,4 km/h (2 Bft)
20.07.2017 10:26 22,1 °C 22,1 °C 66 % 1009,8 hPa 0,0 mm 3,8 km/h (1 Bft) NW 315 ° 1 min 0,000 mm 2,7 UV-I 325 W/m² 15,4 °C 22,1 °C 6,4 km/h (2 Bft)
20.07.2017 10:27 22,0 °C 22,1 °C 64 % 1009,8 hPa 0,0 mm 3,8 km/h (1 Bft) NW 317 ° 1 min 0,000 mm 3,1 UV-I 357 W/m² 14,9 °C 22,0 °C 6,4 km/h (2 Bft)
20.07.2017 10:28 22,0 °C 22,0 °C 64 % 1009,8 hPa 0,0 mm 4,9 km/h (1 Bft) W-NW 285 ° 1 min 0,000 mm 3,1 UV-I 362 W/m² 14,9 °C 22,0 °C 6,4 km/h (2 Bft)
20.07.2017 10:29 22,0 °C 22,0 °C 65 % 1009,8 hPa 0,0 mm 2,4 km/h (1 Bft) W-NW 284 ° 1 min 0,000 mm 3,4 UV-I 434 W/m² 15,1 °C 22,0 °C 3,2 km/h (1 Bft)
20.07.2017 10:30 22,0 °C 22,0 °C 66 % 1009,8 hPa 0,0 mm 1,5 km/h (1 Bft) W-NW 284 ° 1 min 0,000 mm 3,3 UV-I 432 W/m² 15,3 °C 22,0 °C 3,2 km/h (1 Bft)
20.07.2017 10:31 22,0 °C 22,1 °C 67 % 1009,8 hPa 0,0 mm 7,9 km/h (2 Bft) W-SW 251 ° 1 min 0,000 mm 3,2 UV-I 434 W/m² 15,6 °C 22,0 °C 11,3 km/h (2 Bft)
20.07.2017 10:32 22,0 °C 22,1 °C 64 % 1009,8 hPa 0,0 mm 6,6 km/h (2 Bft) W-SW 257 ° 1 min 0,000 mm 3,6 UV-I 483 W/m² 14,9 °C 22,0 °C 11,3 km/h (2 Bft)
20.07.2017 10:33 22,1 °C 22,1 °C 65 % 1009,8 hPa 0,0 mm 6,1 km/h (2 Bft) W 269 ° 1 min 0,000 mm 3,8 UV-I 512 W/m² 15,2 °C 22,1 °C 11,3 km/h (2 Bft)
20.07.2017 10:34 22,1 °C 22,1 °C 66 % 1009,8 hPa 0,0 mm 5,1 km/h (1 Bft) W-NW 296 ° 1 min 0,000 mm 3,6 UV-I 459 W/m² 15,4 °C 22,1 °C 6,4 km/h (2 Bft)
20.07.2017 10:35 22,1 °C 22,1 °C 66 % 1009,8 hPa 0,0 mm 3,1 km/h (1 Bft) W-NW 284 ° 1 min 0,000 mm 3,5 UV-I 434 W/m² 15,4 °C 22,1 °C 4,8 km/h (1 Bft)
20.07.2017 10:36 22,1 °C 22,1 °C 67 % 1009,8 hPa 0,0 mm 3,0 km/h (1 Bft) W-SW 248 ° 1 min 0,000 mm 3,2 UV-I 338 W/m² 15,7 °C 22,1 °C 4,8 km/h (1 Bft)
20.07.2017 10:37 22,1 °C 22,1 °C 65 % 1009,8 hPa 0,0 mm 4,7 km/h (1 Bft) W-NW 298 ° 1 min 0,000 mm 3,8 UV-I 485 W/m² 15,2 °C 22,1 °C 8,0 km/h (2 Bft)
20.07.2017 10:38 22,1 °C 22,2 °C 66 % 1009,8 hPa 0,0 mm 6,4 km/h (2 Bft) W-SW 240 ° 1 min 0,000 mm 4,1 UV-I 485 W/m² 15,4 °C 22,1 °C 11,3 km/h (2 Bft)
20.07.2017 10:39 22,2 °C 22,2 °C 67 % 1009,8 hPa 0,0 mm 4,1 km/h (1 Bft) W 271 ° 1 min 0,000 mm 4,0 UV-I 510 W/m² 15,8 °C 22,2 °C 6,4 km/h (2 Bft)
20.07.2017 10:40 22,2 °C 22,2 °C 64 % 1009,8 hPa 0,0 mm 7,4 km/h (2 Bft) W-SW 251 ° 1 min 0,000 mm 4,8 UV-I 510 W/m² 15,1 °C 22,2 °C 11,3 km/h (2 Bft)
20.07.2017 10:41 22,3 °C 22,3 °C 67 % 1009,8 hPa 0,0 mm 6,2 km/h (2 Bft) W-NW 295 ° 1 min 0,000 mm 5,3 UV-I 733 W/m² 15,9 °C 22,3 °C 11,3 km/h (2 Bft)
20.07.2017 10:42 22,4 °C 22,4 °C 68 % 1009,8 hPa 0,0 mm 3,8 km/h (1 Bft) W-NW 295 ° 1 min 0,000 mm 5,4 UV-I 772 W/m² 16,2 °C 22,4 °C 6,4 km/h (2 Bft)
20.07.2017 10:43 22,6 °C 22,6 °C 67 % 1009,8 hPa 0,0 mm 5,5 km/h (1 Bft) NW 317 ° 1 min 0,000 mm 5,1 UV-I 751 W/m² 16,2 °C 22,6 °C 9,7 km/h (2 Bft)
20.07.2017 10:44 22,8 °C 22,8 °C 70 % 1009,8 hPa 0,0 mm 8,9 km/h (2 Bft) NW 318 ° 1 min 0,000 mm 5,3 UV-I 751 W/m² 17,0 °C 22,8 °C 12,9 km/h (3 Bft)
20.07.2017 10:45 22,9 °C 22,9 °C 65 % 1009,8 hPa 0,0 mm 6,6 km/h (2 Bft) W-NW 296 ° 1 min 0,000 mm 5,1 UV-I 693 W/m² 16,0 °C 22,9 °C 9,7 km/h (2 Bft)
20.07.2017 10:46 22,9 °C 22,9 °C 63 % 1009,8 hPa 0,0 mm 4,4 km/h (1 Bft) NW 313 ° 1 min 0,000 mm 5,2 UV-I 698 W/m² 15,5 °C 22,9 °C 6,4 km/h (2 Bft)
20.07.2017 10:47 22,8 °C 22,9 °C 63 % 1009,8 hPa 0,0 mm 5,5 km/h (1 Bft) N-NW 331 ° 1 min 0,000 mm 5,2 UV-I 717 W/m² 15,4 °C 22,8 °C 8,0 km/h (2 Bft)
20.07.2017 10:48 22,8 °C 22,8 °C 61 % 1009,8 hPa 0,0 mm 4,2 km/h (1 Bft) NW 325 ° 1 min 0,000 mm 5,0 UV-I 670 W/m² 14,9 °C 22,8 °C 6,4 km/h (2 Bft)
20.07.2017 10:49 22,8 °C 22,8 °C 63 % 1009,7 hPa 0,0 mm 5,6 km/h (1 Bft) W-SW 246 ° 1 min 0,000 mm 5,4 UV-I 740 W/m² 15,4 °C 22,8 °C 11,3 km/h (2 Bft)
20.07.2017 10:50 22,8 °C 22,8 °C 68 % 1009,8 hPa 0,0 mm 7,7 km/h (2 Bft) W 259 ° 1 min 0,000 mm 5,4 UV-I 728 W/m² 16,6 °C 22,8 °C 11,3 km/h (2 Bft)
20.07.2017 10:51 22,8 °C 22,8 °C 63 % 1009,7 hPa 0,0 mm 6,4 km/h (2 Bft) W-NW 300 ° 1 min 0,000 mm 5,2 UV-I 708 W/m² 15,4 °C 22,8 °C 9,7 km/h (2 Bft)
20.07.2017 10:52 22,8 °C 22,8 °C 64 % 1009,7 hPa 0,0 mm 5,7 km/h (1 Bft) W-NW 292 ° 1 min 0,000 mm 5,1 UV-I 691 W/m² 15,6 °C 22,8 °C 8,0 km/h (2 Bft)
20.07.2017 10:53 22,9 °C 22,9 °C 66 % 1009,8 hPa 0,0 mm 2,3 km/h (1 Bft) W-NW 292 ° 1 min 0,000 mm 4,6 UV-I 691 W/m² 16,2 °C 22,9 °C 4,8 km/h (1 Bft)
20.07.2017 10:54 22,9 °C 22,9 °C 67 % 1009,7 hPa 0,0 mm 3,6 km/h (1 Bft) N-NW 338 ° 1 min 0,000 mm 4,5 UV-I 554 W/m² 16,4 °C 22,9 °C 6,4 km/h (2 Bft)
20.07.2017 10:55 22,9 °C 22,9 °C 66 % 1009,7 hPa 0,0 mm 2,0 km/h (1 Bft) NW 308 ° 1 min 0,000 mm 3,8 UV-I 357 W/m² 16,2 °C 22,9 °C 3,2 km/h (1 Bft)
20.07.2017 10:56 22,8 °C 22,9 °C 65 % 1009,7 hPa 0,0 mm 0,8 km/h (0 Bft) NW 308 ° 1 min 0,000 mm 3,8 UV-I 322 W/m² 15,9 °C 22,8 °C 3,2 km/h (1 Bft)
20.07.2017 10:57 22,7 °C 22,8 °C 62 % 1009,7 hPa 0,0 mm 1,2 km/h (1 Bft) NW 308 ° 1 min 0,000 mm 3,6 UV-I 418 W/m² 15,0 °C 22,7 °C 1,6 km/h (1 Bft)
20.07.2017 10:58 22,6 °C 22,7 °C 66 % 1009,7 hPa 0,0 mm 3,5 km/h (1 Bft) NW 309 ° 1 min 0,000 mm 4,6 UV-I 418 W/m² 15,9 °C 22,6 °C 4,8 km/h (1 Bft)
20.07.2017 10:59 22,6 °C 22,6 °C 65 % 1009,7 hPa 0,0 mm 4,0 km/h (1 Bft) N 355 ° 1 min 0,000 mm 4,7 UV-I 599 W/m² 15,7 °C 22,6 °C 8,0 km/h (2 Bft)
20.07.2017 11:00 22,6 °C 22,6 °C 67 % 1009,7 hPa 0,0 mm 6,6 km/h (2 Bft) NW 317 ° 1 min 0,330 mm 4,3 UV-I 599 W/m² 16,2 °C 22,6 °C 8,0 km/h (2 Bft)
20.07.2017 11:01 22,7 °C 22,7 °C 66 % 1009,7 hPa 0,0 mm 3,7 km/h (1 Bft) N 360 ° 1 min 0,000 mm 4,8 UV-I 601 W/m² 16,0 °C 22,7 °C 6,4 km/h (2 Bft)
20.07.2017 11:02 22,7 °C 22,7 °C 64 % 1009,8 hPa 0,0 mm 2,0 km/h (1 Bft) N 360 ° 1 min 0,000 mm 4,4 UV-I 533 W/m² 15,5 °C 22,7 °C 3,2 km/h (1 Bft)
20.07.2017 11:03 22,8 °C 22,8 °C 65 % 1009,8 hPa 0,0 mm 2,4 km/h (1 Bft) N 355 ° 1 min 0,000 mm 4,4 UV-I 534 W/m² 15,9 °C 22,8 °C 4,8 km/h (1 Bft)
20.07.2017 11:04 22,9 °C 22,9 °C 64 % 1009,8 hPa 0,0 mm 3,6 km/h (1 Bft) NW 320 ° 1 min 0,000 mm 5,1 UV-I 534 W/m² 15,7 °C 22,9 °C 4,8 km/h (1 Bft)
20.07.2017 11:05 22,9 °C 22,9 °C 64 % 1009,7 hPa 0,0 mm 5,0 km/h (1 Bft) W-NW 298 ° 1 min 0,000 mm 4,6 UV-I 606 W/m² 15,7 °C 22,9 °C 6,4 km/h (2 Bft)
20.07.2017 11:06 22,9 °C 22,9 °C 62 % 1009,8 hPa 0,0 mm 4,5 km/h (1 Bft) N-NW 338 ° 1 min 0,000 mm 4,7 UV-I 598 W/m² 15,2 °C 22,9 °C 6,4 km/h (2 Bft)
20.07.2017 11:07 22,9 °C 22,9 °C 63 % 1009,8 hPa 0,0 mm 2,6 km/h (1 Bft) NW 324 ° 1 min 0,000 mm 4,9 UV-I 671 W/m² 15,5 °C 22,9 °C 4,8 km/h (1 Bft)
20.07.2017 11:08 22,8 °C 22,9 °C 62 % 1009,8 hPa 0,0 mm 2,9 km/h (1 Bft) N 355 ° 1 min 0,000 mm 5,2 UV-I 684 W/m² 15,1 °C 22,8 °C 4,8 km/h (1 Bft)
20.07.2017 11:09 23,0 °C 23,0 °C 69 % 1009,8 hPa 0,0 mm 3,8 km/h (1 Bft) N-NW 328 ° 1 min 0,000 mm 4,8 UV-I 605 W/m² 17,0 °C 23,0 °C 6,4 km/h (2 Bft)
20.07.2017 11:10 23,0 °C 23,1 °C 64 % 1009,8 hPa 0,0 mm 4,6 km/h (1 Bft) N-NW 341 ° 1 min 0,000 mm 4,7 UV-I 584 W/m² 15,8 °C 23,0 °C 6,4 km/h (2 Bft)
20.07.2017 11:11 23,1 °C 23,1 °C 64 % 1009,9 hPa 0,0 mm 3,6 km/h (1 Bft) W-NW 290 ° 1 min 0,000 mm 5,1 UV-I 617 W/m² 15,9 °C 23,1 °C 6,4 km/h (2 Bft)
20.07.2017 11:12 23,1 °C 23,1 °C 65 % 1009,9 hPa 0,0 mm 3,3 km/h (1 Bft) N-NW 334 ° 1 min 0,000 mm 4,9 UV-I 613 W/m² 16,2 °C 23,1 °C 4,8 km/h (1 Bft)
20.07.2017 11:13 23,2 °C 23,2 °C 66 % 1009,9 hPa 0,0 mm 5,5 km/h (1 Bft) N 9 ° 1 min 0,000 mm 4,9 UV-I 712 W/m² 16,5 °C 23,2 °C 8,0 km/h (2 Bft)
20.07.2017 11:14 23,3 °C 23,3 °C 66 % 1009,9 hPa 0,0 mm 5,5 km/h (1 Bft) N 351 ° 1 min 0,000 mm 5,4 UV-I 700 W/m² 16,6 °C 23,3 °C 8,0 km/h (2 Bft)
20.07.2017 11:15 23,3 °C 23,3 °C 67 % 1010,0 hPa 0,0 mm 2,7 km/h (1 Bft) N 355 ° 1 min 0,000 mm 5,6 UV-I 707 W/m² 16,8 °C 23,3 °C 4,8 km/h (1 Bft)
20.07.2017 11:16 23,3 °C 23,3 °C 63 % 1009,9 hPa 0,0 mm 4,3 km/h (1 Bft) N 355 ° 1 min 0,000 mm 5,7 UV-I 766 W/m² 15,9 °C 23,3 °C 6,4 km/h (2 Bft)
20.07.2017 11:17 23,3 °C 23,3 °C 62 % 1009,9 hPa 0,0 mm 5,2 km/h (1 Bft) N-NW 345 ° 1 min 0,000 mm 6,3 UV-I 821 W/m² 15,6 °C 23,3 °C 8,0 km/h (2 Bft)
20.07.2017 11:18 23,3 °C 23,3 °C 65 % 1009,9 hPa 0,0 mm 5,9 km/h (2 Bft) NW 315 ° 1 min 0,000 mm 6,4 UV-I 879 W/m² 16,3 °C 23,3 °C 8,0 km/h (2 Bft)
20.07.2017 11:19 23,4 °C 23,4 °C 64 % 1010,0 hPa 0,0 mm 4,6 km/h (1 Bft) N 9 ° 1 min 0,000 mm 6,5 UV-I 895 W/m² 16,2 °C 23,4 °C 9,7 km/h (2 Bft)
20.07.2017 11:20 23,5 °C 23,5 °C 62 % 1009,9 hPa 0,0 mm 5,3 km/h (1 Bft) N-NW 341 ° 1 min 0,000 mm 6,6 UV-I 914 W/m² 15,8 °C 23,5 °C 8,0 km/h (2 Bft)
20.07.2017 11:21 23,5 °C 23,5 °C 59 % 1010,0 hPa 0,0 mm 4,1 km/h (1 Bft) N-NO 22 ° 1 min 0,000 mm 6,7 UV-I 933 W/m² 15,0 °C 23,5 °C 6,4 km/h (2 Bft)
20.07.2017 11:22 23,3 °C 23,5 °C 58 % 1009,9 hPa 0,0 mm 2,7 km/h (1 Bft) N-NO 22 ° 1 min 0,000 mm 6,3 UV-I 951 W/m² 14,6 °C 23,3 °C 4,8 km/h (1 Bft)
20.07.2017 11:23 23,3 °C 23,3 °C 65 % 1010,0 hPa 0,0 mm 4,5 km/h (1 Bft) N-NW 334 ° 1 min 0,000 mm 6,7 UV-I 944 W/m² 16,3 °C 23,3 °C 8,0 km/h (2 Bft)
20.07.2017 11:24 23,3 °C 23,3 °C 59 % 1010,0 hPa 0,0 mm 3,5 km/h (1 Bft) NW 321 ° 1 min 0,000 mm 6,7 UV-I 944 W/m² 14,8 °C 23,3 °C 6,4 km/h (2 Bft)
20.07.2017 11:25 23,3 °C 23,3 °C 63 % 1009,9 hPa 0,0 mm 1,9 km/h (1 Bft) NW 321 ° 1 min 0,000 mm 4,5 UV-I 466 W/m² 15,9 °C 23,3 °C 4,8 km/h (1 Bft)
20.07.2017 11:26 23,3 °C 23,3 °C 65 % 1009,9 hPa 0,0 mm 3,2 km/h (1 Bft) NW 315 ° 1 min 0,000 mm 5,7 UV-I 466 W/m² 16,3 °C 23,3 °C 6,4 km/h (2 Bft)
20.07.2017 11:27 23,2 °C 23,3 °C 63 % 1009,9 hPa 0,0 mm 5,7 km/h (1 Bft) NW 325 ° 1 min 0,000 mm 4,2 UV-I 466 W/m² 15,8 °C 23,2 °C 9,7 km/h (2 Bft)
20.07.2017 11:28 23,2 °C 23,2 °C 64 % 1009,9 hPa 0,0 mm 3,4 km/h (1 Bft) W 279 ° 1 min 0,000 mm 4,5 UV-I 485 W/m² 16,0 °C 23,2 °C 4,8 km/h (1 Bft)
20.07.2017 11:29 23,2 °C 23,2 °C 63 % 1009,9 hPa 0,0 mm 3,1 km/h (1 Bft) W-NW 298 ° 1 min 0,000 mm 5,1 UV-I 461 W/m² 15,8 °C 23,2 °C 3,2 km/h (1 Bft)
20.07.2017 11:30 23,1 °C 23,2 °C 62 % 1009,9 hPa 0,0 mm 5,7 km/h (1 Bft) W 278 ° 1 min 0,000 mm 4,0 UV-I 374 W/m² 15,4 °C 23,1 °C 9,7 km/h (2 Bft)
20.07.2017 11:31 23,1 °C 23,1 °C 63 % 1009,9 hPa 0,0 mm 6,9 km/h (2 Bft) NW 323 ° 1 min 0,000 mm 3,6 UV-I 366 W/m² 15,7 °C 23,1 °C 11,3 km/h (2 Bft)
20.07.2017 11:32 23,0 °C 23,1 °C 62 % 1009,9 hPa 0,0 mm 3,2 km/h (1 Bft) NW 308 ° 1 min 0,000 mm 3,7 UV-I 374 W/m² 15,3 °C 23,0 °C 4,8 km/h (1 Bft)
20.07.2017 11:33 22,9 °C 23,0 °C 65 % 1009,9 hPa 0,0 mm 3,7 km/h (1 Bft) NW 313 ° 1 min 0,000 mm 3,7 UV-I 404 W/m² 16,0 °C 22,9 °C 6,4 km/h (2 Bft)
20.07.2017 11:34 22,8 °C 22,9 °C 65 % 1009,9 hPa 0,0 mm 2,1 km/h (1 Bft) NW 319 ° 1 min 0,000 mm 3,8 UV-I 373 W/m² 15,9 °C 22,8 °C 6,4 km/h (2 Bft)
20.07.2017 11:35 22,9 °C 22,9 °C 67 % 1009,9 hPa 0,0 mm 5,2 km/h (1 Bft) NW 312 ° 1 min 0,000 mm 4,0 UV-I 401 W/m² 16,4 °C 22,9 °C 9,7 km/h (2 Bft)
20.07.2017 11:36 22,9 °C 22,9 °C 65 % 1009,9 hPa 0,0 mm 4,9 km/h (1 Bft) NW 325 ° 1 min 0,000 mm 6,2 UV-I 707 W/m² 16,0 °C 22,9 °C 6,4 km/h (2 Bft)
20.07.2017 11:37 23,0 °C 23,0 °C 64 % 1009,9 hPa 0,0 mm 1,2 km/h (1 Bft) NW 325 ° 1 min 0,000 mm 6,6 UV-I 638 W/m² 15,8 °C 23,0 °C 4,8 km/h (1 Bft)
20.07.2017 11:38 23,1 °C 23,1 °C 61 % 1009,9 hPa 0,0 mm 2,5 km/h (1 Bft) NW 325 ° 1 min 0,000 mm 5,8 UV-I 628 W/m² 15,2 °C 23,1 °C 4,8 km/h (1 Bft)
20.07.2017 11:39 23,2 °C 23,2 °C 68 % 1009,9 hPa 0,0 mm 3,1 km/h (1 Bft) N-NW 338 ° 1 min 0,000 mm 5,2 UV-I 628 W/m² 17,0 °C 23,2 °C 8,0 km/h (2 Bft)
20.07.2017 11:40 23,3 °C 23,3 °C 62 % 1009,9 hPa 0,0 mm 0,3 km/h (0 Bft) N-NW 339 ° 1 min 0,000 mm 4,4 UV-I 462 W/m² 15,6 °C 23,3 °C 1,6 km/h (1 Bft)
20.07.2017 11:41 23,3 °C 23,3 °C 63 % 1009,9 hPa 0,0 mm 2,1 km/h (1 Bft) NW 319 ° 1 min 0,000 mm 4,4 UV-I 529 W/m² 15,9 °C 23,3 °C 4,8 km/h (1 Bft)
20.07.2017 11:42 23,3 °C 23,3 °C 62 % 1009,9 hPa 0,0 mm 2,3 km/h (1 Bft) NW 315 ° 1 min 0,000 mm 6,0 UV-I 529 W/m² 15,6 °C 23,3 °C 4,8 km/h (1 Bft)
20.07.2017 11:43 23,4 °C 23,4 °C 63 % 1009,8 hPa 0,0 mm 3,6 km/h (1 Bft) W-NW 303 ° 1 min 0,000 mm 7,4 UV-I 529 W/m² 15,9 °C 23,4 °C 6,4 km/h (2 Bft)
20.07.2017 11:44 23,6 °C 23,6 °C 65 % 1009,8 hPa 0,0 mm 3,5 km/h (1 Bft) NW 308 ° 1 min 0,000 mm 7,4 UV-I 1025 W/m² 16,6 °C 23,6 °C 6,4 km/h (2 Bft)
20.07.2017 11:45 23,7 °C 23,7 °C 63 % 1009,8 hPa 0,0 mm 4,0 km/h (1 Bft) NW 314 ° 1 min 0,000 mm 7,2 UV-I 981 W/m² 16,2 °C 23,7 °C 8,0 km/h (2 Bft)
20.07.2017 11:46 23,7 °C 23,8 °C 61 % 1009,7 hPa 0,0 mm 3,5 km/h (1 Bft) W-SW 257 ° 1 min 0,000 mm 6,6 UV-I 981 W/m² 15,7 °C 23,7 °C 11,3 km/h (2 Bft)
20.07.2017 11:47 23,8 °C 23,8 °C 63 % 1009,8 hPa 0,0 mm 9,1 km/h (2 Bft) NW 310 ° 1 min 0,000 mm 6,7 UV-I 960 W/m² 16,3 °C 23,8 °C 12,9 km/h (3 Bft)
20.07.2017 11:48 23,9 °C 23,9 °C 64 % 1009,8 hPa 0,0 mm 7,3 km/h (2 Bft) W-NW 296 ° 1 min 0,000 mm 7,0 UV-I 958 W/m² 16,7 °C 23,9 °C 12,9 km/h (3 Bft)
20.07.2017 11:49 23,9 °C 23,9 °C 60 % 1009,8 hPa 0,0 mm 3,7 km/h (1 Bft) W-NW 292 ° 1 min 0,000 mm 7,0 UV-I 953 W/m² 15,7 °C 23,9 °C 6,4 km/h (2 Bft)
20.07.2017 11:50 24,1 °C 24,1 °C 63 % 1009,8 hPa 0,0 mm 5,3 km/h (1 Bft) W-NW 292 ° 1 min 0,000 mm 6,9 UV-I 939 W/m² 16,6 °C 24,1 °C 6,4 km/h (2 Bft)
20.07.2017 11:51 24,0 °C 24,1 °C 62 % 1009,8 hPa 0,0 mm 6,6 km/h (2 Bft) W 259 ° 1 min 0,000 mm 4,9 UV-I 939 W/m² 16,3 °C 24,0 °C 9,7 km/h (2 Bft)
20.07.2017 11:52 23,9 °C 24,0 °C 58 % 1009,9 hPa 0,0 mm 10,1 km/h (2 Bft) NW 306 ° 1 min 0,000 mm 5,9 UV-I 939 W/m² 15,1 °C 23,9 °C 14,5 km/h (3 Bft)
20.07.2017 11:53 23,8 °C 23,9 °C 59 % 1009,9 hPa 0,0 mm 9,1 km/h (2 Bft) W 267 ° 1 min 0,000 mm 6,9 UV-I 867 W/m² 15,3 °C 23,8 °C 14,5 km/h (3 Bft)
20.07.2017 11:54 23,6 °C 23,8 °C 58 % 1009,9 hPa 0,0 mm 6,6 km/h (2 Bft) W-NW 285 ° 1 min 0,000 mm 6,0 UV-I 867 W/m² 14,8 °C 23,6 °C 11,3 km/h (2 Bft)
20.07.2017 11:55 23,5 °C 23,6 °C 60 % 1009,9 hPa 0,0 mm 6,4 km/h (2 Bft) NW 306 ° 1 min 0,000 mm 5,2 UV-I 649 W/m² 15,3 °C 23,5 °C 9,7 km/h (2 Bft)
20.07.2017 11:56 23,3 °C 23,5 °C 58 % 1009,9 hPa 0,0 mm 4,3 km/h (1 Bft) NW 305 ° 1 min 0,000 mm 4,4 UV-I 649 W/m² 14,6 °C 23,3 °C 4,8 km/h (1 Bft)
20.07.2017 11:57 23,3 °C 23,3 °C 59 % 1009,9 hPa 0,0 mm 7,1 km/h (2 Bft) W-NW 286 ° 1 min 0,000 mm 4,0 UV-I 295 W/m² 14,8 °C 23,3 °C 12,9 km/h (3 Bft)
20.07.2017 11:58 23,2 °C 23,3 °C 61 % 1009,9 hPa 0,0 mm 9,5 km/h (2 Bft) W 279 ° 1 min 0,000 mm 4,0 UV-I 295 W/m² 15,3 °C 23,2 °C 14,5 km/h (3 Bft)
20.07.2017 11:59 23,1 °C 23,2 °C 60 % 1009,9 hPa 0,0 mm 7,7 km/h (2 Bft) W 280 ° 1 min 0,000 mm 4,2 UV-I 311 W/m² 14,9 °C 23,1 °C 12,9 km/h (3 Bft)
20.07.2017 12:00 23,1 °C 23,1 °C 60 % 1009,9 hPa 0,0 mm 8,8 km/h (2 Bft) NW 304 ° 1 min 0,000 mm 6,6 UV-I 311 W/m² 14,9 °C 23,1 °C 14,5 km/h (3 Bft)
20.07.2017 12:01 23,2 °C 23,2 °C 59 % 1009,9 hPa 0,0 mm 5,4 km/h (1 Bft) W-SW 251 ° 1 min 0,432 mm 6,4 UV-I 798 W/m² 14,7 °C 23,2 °C 8,0 km/h (2 Bft)
20.07.2017 12:02 23,2 °C 23,2 °C 60 % 1010,0 hPa 0,0 mm 10,9 km/h (2 Bft) W 269 ° 1 min 0,000 mm 6,2 UV-I 756 W/m² 15,0 °C 23,2 °C 14,5 km/h (3 Bft)
20.07.2017 12:03 23,1 °C 23,2 °C 59 % 1010,0 hPa 0,0 mm 7,4 km/h (2 Bft) W-SW 257 ° 1 min 0,000 mm 5,9 UV-I 689 W/m² 14,6 °C 23,1 °C 9,7 km/h (2 Bft)
20.07.2017 12:04 23,2 °C 23,2 °C 62 % 1010,0 hPa 0,0 mm 8,9 km/h (2 Bft) W-SW 250 ° 1 min 0,000 mm 5,9 UV-I 729 W/m² 15,5 °C 23,2 °C 11,3 km/h (2 Bft)
20.07.2017 12:05 23,3 °C 23,3 °C 59 % 1010,0 hPa 0,0 mm 5,5 km/h (1 Bft) W-NW 289 ° 1 min 0,000 mm 6,5 UV-I 844 W/m² 14,8 °C 23,3 °C 11,3 km/h (2 Bft)
20.07.2017 12:06 23,4 °C 23,4 °C 62 % 1010,0 hPa 0,0 mm 7,6 km/h (2 Bft) NW 309 ° 1 min 0,000 mm 6,5 UV-I 814 W/m² 15,7 °C 23,4 °C 12,9 km/h (3 Bft)
20.07.2017 12:07 23,5 °C 23,5 °C 65 % 1010,1 hPa 0,0 mm 6,8 km/h (2 Bft) W 279 ° 1 min 0,000 mm 6,7 UV-I 821 W/m² 16,5 °C 23,5 °C 11,3 km/h (2 Bft)
20.07.2017 12:08 23,6 °C 23,6 °C 61 % 1010,0 hPa 0,0 mm 9,5 km/h (2 Bft) NW 322 ° 1 min 0,000 mm 6,3 UV-I 777 W/m² 15,6 °C 23,6 °C 12,9 km/h (3 Bft)
20.07.2017 12:09 23,7 °C 23,7 °C 61 % 1010,0 hPa 0,0 mm 9,0 km/h (2 Bft) W-NW 287 ° 1 min 0,000 mm 7,0 UV-I 777 W/m² 15,7 °C 23,7 °C 11,3 km/h (2 Bft)
20.07.2017 12:10 23,7 °C 23,7 °C 60 % 1010,0 hPa 0,0 mm 7,0 km/h (2 Bft) W 271 ° 1 min 0,000 mm 7,0 UV-I 912 W/m² 15,5 °C 23,7 °C 14,5 km/h (3 Bft)
20.07.2017 12:11 23,8 °C 23,8 °C 60 % 1010,0 hPa 0,0 mm 6,6 km/h (2 Bft) NW 304 ° 1 min 0,000 mm 6,9 UV-I 954 W/m² 15,6 °C 23,8 °C 11,3 km/h (2 Bft)
20.07.2017 12:12 23,8 °C 23,8 °C 61 % 1010,0 hPa 0,0 mm 8,1 km/h (2 Bft) W-SW 258 ° 1 min 0,000 mm 6,8 UV-I 954 W/m² 15,8 °C 23,8 °C 14,5 km/h (3 Bft)
20.07.2017 12:13 23,8 °C 23,8 °C 57 % 1010,0 hPa 0,0 mm 8,8 km/h (2 Bft) W 267 ° 1 min 0,000 mm 6,9 UV-I 905 W/m² 14,8 °C 23,8 °C 12,9 km/h (3 Bft)
20.07.2017 12:14 23,7 °C 23,8 °C 58 % 1010,1 hPa 0,0 mm 6,7 km/h (2 Bft) W-SW 254 ° 1 min 0,000 mm 5,9 UV-I 905 W/m² 14,9 °C 23,7 °C 12,9 km/h (3 Bft)
20.07.2017 12:15 23,6 °C 23,7 °C 58 % 1010,1 hPa 0,0 mm 4,5 km/h (1 Bft) W-SW 250 ° 1 min 0,000 mm 5,3 UV-I 482 W/m² 14,8 °C 23,6 °C 8,0 km/h (2 Bft)
20.07.2017 12:16 23,4 °C 23,6 °C 58 % 1010,0 hPa 0,0 mm 1,2 km/h (1 Bft) W-SW 251 ° 1 min 0,000 mm 6,5 UV-I 482 W/m² 14,7 °C 23,4 °C 3,2 km/h (1 Bft)
20.07.2017 12:17 23,4 °C 23,4 °C 62 % 1010,0 hPa 0,0 mm 4,8 km/h (1 Bft) W-NW 298 ° 1 min 0,000 mm 4,7 UV-I 596 W/m² 15,7 °C 23,4 °C 9,7 km/h (2 Bft)
20.07.2017 12:18 23,4 °C 23,5 °C 61 % 1010,0 hPa 0,0 mm 6,5 km/h (2 Bft) W 271 ° 1 min 0,000 mm 6,0 UV-I 687 W/m² 15,4 °C 23,4 °C 11,3 km/h (2 Bft)
20.07.2017 12:19 23,5 °C 23,5 °C 61 % 1010,0 hPa 0,0 mm 8,6 km/h (2 Bft) NW 316 ° 1 min 0,000 mm 5,7 UV-I 701 W/m² 15,5 °C 23,5 °C 12,9 km/h (3 Bft)
20.07.2017 12:20 23,6 °C 23,6 °C 60 % 1010,0 hPa 0,0 mm 3,1 km/h (1 Bft) N-NW 329 ° 1 min 0,000 mm 5,2 UV-I 701 W/m² 15,4 °C 23,6 °C 4,8 km/h (1 Bft)
20.07.2017 12:21 23,6 °C 23,6 °C 58 % 1010,0 hPa 0,0 mm 2,6 km/h (1 Bft) N-NW 329 ° 1 min 0,000 mm 5,1 UV-I 550 W/m² 14,8 °C 23,6 °C 4,8 km/h (1 Bft)
20.07.2017 12:22 23,7 °C 23,7 °C 62 % 1009,9 hPa 0,0 mm 8,6 km/h (2 Bft) W-SW 238 ° 1 min 0,000 mm 5,4 UV-I 582 W/m² 16,0 °C 23,7 °C 16,1 km/h (3 Bft)
20.07.2017 12:23 23,6 °C 23,7 °C 58 % 1010,0 hPa 0,0 mm 10,2 km/h (2 Bft) W-NW 298 ° 1 min 0,000 mm 7,1 UV-I 582 W/m² 14,8 °C 23,6 °C 16,1 km/h (3 Bft)
20.07.2017 12:24 23,7 °C 23,7 °C 62 % 1010,0 hPa 0,0 mm 5,0 km/h (1 Bft) NW 309 ° 1 min 0,000 mm 5,5 UV-I 582 W/m² 16,0 °C 23,7 °C 9,7 km/h (2 Bft)
20.07.2017 12:25 23,8 °C 23,8 °C 61 % 1010,0 hPa 0,0 mm 3,6 km/h (1 Bft) N-NW 338 ° 1 min 0,000 mm 5,1 UV-I 582 W/m² 15,8 °C 23,8 °C 4,8 km/h (1 Bft)
20.07.2017 12:26 23,8 °C 23,8 °C 61 % 1009,9 hPa 0,0 mm 8,2 km/h (2 Bft) NW 319 ° 1 min 0,000 mm 6,7 UV-I 582 W/m² 15,8 °C 23,8 °C 14,5 km/h (3 Bft)
20.07.2017 12:27 23,9 °C 23,9 °C 60 % 1010,0 hPa 0,0 mm 7,4 km/h (2 Bft) NW 310 ° 1 min 0,000 mm 6,3 UV-I 582 W/m² 15,7 °C 23,9 °C 12,9 km/h (3 Bft)
20.07.2017 12:28 24,0 °C 24,0 °C 63 % 1009,9 hPa 0,0 mm 5,6 km/h (1 Bft) W 269 ° 1 min 0,000 mm 5,0 UV-I 589 W/m² 16,5 °C 24,0 °C 9,7 km/h (2 Bft)
20.07.2017 12:29 23,9 °C 24,0 °C 58 % 1010,0 hPa 0,0 mm 10,0 km/h (2 Bft) W-NW 302 ° 1 min 0,000 mm 5,0 UV-I 589 W/m² 15,1 °C 23,9 °C 14,5 km/h (3 Bft)
20.07.2017 12:30 23,8 °C 23,9 °C 58 % 1009,9 hPa 0,0 mm 5,2 km/h (1 Bft) W-NW 291 ° 1 min 0,000 mm 4,2 UV-I 534 W/m² 15,0 °C 23,8 °C 9,7 km/h (2 Bft)
20.07.2017 12:31 23,7 °C 23,8 °C 59 % 1009,9 hPa 0,0 mm 4,3 km/h (1 Bft) W 272 ° 1 min 0,000 mm 4,1 UV-I 617 W/m² 15,2 °C 23,7 °C 6,4 km/h (2 Bft)
20.07.2017 12:32 23,7 °C 23,8 °C 62 % 1009,9 hPa 0,0 mm 6,2 km/h (2 Bft) W-NW 292 ° 1 min 0,000 mm 4,1 UV-I 617 W/m² 16,0 °C 23,7 °C 11,3 km/h (2 Bft)
20.07.2017 12:33 23,7 °C 23,8 °C 63 % 1009,9 hPa 0,0 mm 10,3 km/h (2 Bft) W 280 ° 1 min 0,000 mm 3,2 UV-I 617 W/m² 16,2 °C 23,7 °C 14,5 km/h (3 Bft)
20.07.2017 12:34 23,7 °C 23,7 °C 64 % 1009,9 hPa 0,0 mm 7,0 km/h (2 Bft) W-NW 303 ° 0 min 0,000 mm 3,0 UV-I 272 W/m² 16,5 °C 23,7 °C 9,7 km/h (2 Bft)
20.07.2017 12:35 23,6 °C 23,7 °C 64 % 1010,0 hPa 0,0 mm 8,6 km/h (2 Bft) W 281 ° 0 min 0,000 mm 2,7 UV-I 260 W/m² 16,4 °C 23,6 °C 12,9 km/h (3 Bft)
20.07.2017 12:36 23,5 °C 23,6 °C 60 % 1010,0 hPa 0,0 mm 9,8 km/h (2 Bft) W-NW 301 ° 0 min 0,000 mm 2,7 UV-I 258 W/m² 15,3 °C 23,5 °C 14,5 km/h (3 Bft)
20.07.2017 12:37 23,3 °C 23,5 °C 61 % 1010,0 hPa 0,0 mm 8,6 km/h (2 Bft) W-NW 303 ° 0 min 0,000 mm 2,6 UV-I 260 W/m² 15,3 °C 23,3 °C 12,9 km/h (3 Bft)
20.07.2017 12:38 23,3 °C 23,3 °C 63 % 1010,1 hPa 0,0 mm 9,3 km/h (2 Bft) W 267 ° 0 min 0,000 mm 2,7 UV-I 271 W/m² 15,9 °C 23,3 °C 12,9 km/h (3 Bft)
20.07.2017 12:39 23,1 °C 23,3 °C 60 % 1010,1 hPa 0,0 mm 8,3 km/h (2 Bft) NW 308 ° 0 min 0,000 mm 2,5 UV-I 251 W/m² 14,9 °C 23,1 °C 12,9 km/h (3 Bft)
20.07.2017 12:40 22,9 °C 23,1 °C 61 % 1010,0 hPa 0,0 mm 5,4 km/h (1 Bft) W-NW 290 ° 0 min 0,000 mm 2,4 UV-I 229 W/m² 15,0 °C 22,9 °C 9,7 km/h (2 Bft)
20.07.2017 12:41 22,8 °C 22,9 °C 60 % 1009,9 hPa 0,0 mm 12,0 km/h (2 Bft) W-NW 290 ° 0 min 0,000 mm 2,3 UV-I 225 W/m² 14,6 °C 22,8 °C 14,5 km/h (3 Bft)
20.07.2017 12:42 22,8 °C 22,8 °C 62 % 1010,1 hPa 0,0 mm 6,7 km/h (2 Bft) W-NW 297 ° 0 min 0,000 mm 2,3 UV-I 223 W/m² 15,1 °C 22,8 °C 11,3 km/h (2 Bft)
20.07.2017 12:43 22,7 °C 22,8 °C 65 % 1010,0 hPa 0,0 mm 8,5 km/h (2 Bft) W 279 ° 0 min 0,000 mm 2,2 UV-I 218 W/m² 15,8 °C 22,7 °C 14,5 km/h (3 Bft)
20.07.2017 12:44 22,6 °C 22,7 °C 61 % 1010,1 hPa 0,0 mm 8,6 km/h (2 Bft) W-NW 299 ° 0 min 0,000 mm 2,2 UV-I 214 W/m² 14,7 °C 22,6 °C 14,5 km/h (3 Bft)
20.07.2017 12:45 22,5 °C 22,6 °C 61 % 1010,0 hPa 0,0 mm 7,0 km/h (2 Bft) W-SW 247 ° 0 min 0,000 mm 2,2 UV-I 211 W/m² 14,6 °C 22,5 °C 11,3 km/h (2 Bft)
20.07.2017 12:46 22,4 °C 22,5 °C 61 % 1010,0 hPa 0,0 mm 9,1 km/h (2 Bft) W-NW 292 ° 0 min 0,000 mm 2,1 UV-I 213 W/m² 14,5 °C 22,4 °C 12,9 km/h (3 Bft)
20.07.2017 12:47 22,4 °C 22,4 °C 60 % 1010,0 hPa 0,0 mm 9,9 km/h (2 Bft) NW 306 ° 0 min 0,000 mm 2,1 UV-I 209 W/m² 14,2 °C 22,4 °C 14,5 km/h (3 Bft)
20.07.2017 12:48 22,3 °C 22,4 °C 61 % 1010,0 hPa 0,0 mm 6,2 km/h (2 Bft) W-NW 300 ° 0 min 0,000 mm 2,1 UV-I 204 W/m² 14,4 °C 22,3 °C 12,9 km/h (3 Bft)
20.07.2017 12:49 22,3 °C 22,3 °C 64 % 1010,1 hPa 0,0 mm 8,8 km/h (2 Bft) W 267 ° 0 min 0,000 mm 1,9 UV-I 197 W/m² 15,2 °C 22,3 °C 14,5 km/h (3 Bft)
20.07.2017 12:50 22,3 °C 22,3 °C 61 % 1010,0 hPa 0,0 mm 5,8 km/h (2 Bft) W-NW 296 ° 0 min 0,000 mm 1,9 UV-I 193 W/m² 14,4 °C 22,3 °C 9,7 km/h (2 Bft)
20.07.2017 12:51 22,3 °C 22,3 °C 61 % 1010,0 hPa 0,0 mm 4,8 km/h (1 Bft) NW 313 ° 0 min 0,000 mm 1,9 UV-I 195 W/m² 14,4 °C 22,3 °C 8,0 km/h (2 Bft)
20.07.2017 12:52 22,3 °C 22,3 °C 62 % 1010,0 hPa 0,0 mm 6,3 km/h (2 Bft) W-SW 246 ° 0 min 0,000 mm 2,0 UV-I 213 W/m² 14,7 °C 22,3 °C 14,5 km/h (3 Bft)
20.07.2017 12:53 22,3 °C 22,3 °C 63 % 1009,9 hPa 0,0 mm 11,9 km/h (2 Bft) W-SW 257 ° 0 min 0,000 mm 2,2 UV-I 225 W/m² 14,9 °C 22,3 °C 16,1 km/h (3 Bft)
20.07.2017 12:54 22,2 °C 22,3 °C 64 % 1010,0 hPa 0,0 mm 7,9 km/h (2 Bft) NW 312 ° 0 min 0,000 mm 2,3 UV-I 234 W/m² 15,1 °C 22,2 °C 12,9 km/h (3 Bft)
20.07.2017 12:55 22,2 °C 22,2 °C 64 % 1009,9 hPa 0,0 mm 7,6 km/h (2 Bft) W-NW 302 ° 0 min 0,000 mm 2,4 UV-I 237 W/m² 15,1 °C 22,2 °C 14,5 km/h (3 Bft)
20.07.2017 12:56 22,1 °C 22,2 °C 65 % 1010,0 hPa 0,0 mm 7,2 km/h (2 Bft) W-NW 284 ° 0 min 0,000 mm 2,3 UV-I 237 W/m² 15,2 °C 22,1 °C 12,9 km/h (3 Bft)
20.07.2017 12:57 22,1 °C 22,1 °C 64 % 1009,9 hPa 0,0 mm 8,0 km/h (2 Bft) N-NW 327 ° 0 min 0,000 mm 2,4 UV-I 237 W/m² 15,0 °C 22,1 °C 11,3 km/h (2 Bft)
20.07.2017 12:58 22,1 °C 22,1 °C 65 % 1009,9 hPa 0,0 mm 10,6 km/h (2 Bft) W-NW 293 ° 0 min 0,000 mm 2,5 UV-I 271 W/m² 15,2 °C 22,1 °C 14,5 km/h (3 Bft)
20.07.2017 12:59 22,1 °C 22,1 °C 64 % 1010,0 hPa 0,0 mm 6,9 km/h (2 Bft) W 279 ° 1 min 0,000 mm 3,0 UV-I 306 W/m² 15,0 °C 22,1 °C 11,3 km/h (2 Bft)
20.07.2017 13:00 22,1 °C 22,1 °C 64 % 1009,9 hPa 0,0 mm 8,4 km/h (2 Bft) W 281 ° 1 min 0,000 mm 3,7 UV-I 306 W/m² 15,0 °C 22,1 °C 11,3 km/h (2 Bft)
20.07.2017 13:01 22,2 °C 22,2 °C 65 % 1009,9 hPa 0,0 mm 4,8 km/h (1 Bft) NW 309 ° 1 min 0,356 mm 3,7 UV-I 378 W/m² 15,3 °C 22,2 °C 11,3 km/h (2 Bft)
20.07.2017 13:02 22,2 °C 22,2 °C 64 % 1009,9 hPa 0,0 mm 6,2 km/h (2 Bft) W-NW 297 ° 1 min 0,000 mm 3,5 UV-I 378 W/m² 15,1 °C 22,2 °C 11,3 km/h (2 Bft)
20.07.2017 13:03 22,2 °C 22,2 °C 65 % 1009,9 hPa 0,0 mm 6,7 km/h (2 Bft) NW 321 ° 1 min 0,000 mm 3,2 UV-I 302 W/m² 15,3 °C 22,2 °C 9,7 km/h (2 Bft)
20.07.2017 13:04 22,3 °C 22,3 °C 66 % 1009,9 hPa 0,0 mm 5,0 km/h (1 Bft) W-NW 290 ° 0 min 0,000 mm 2,6 UV-I 274 W/m² 15,6 °C 22,3 °C 6,4 km/h (2 Bft)
20.07.2017 13:05 22,3 °C 22,3 °C 66 % 1009,9 hPa 0,0 mm 4,2 km/h (1 Bft) NW 309 ° 0 min 0,000 mm 2,4 UV-I 244 W/m² 15,6 °C 22,3 °C 6,4 km/h (2 Bft)
20.07.2017 13:06 22,3 °C 22,3 °C 67 % 1009,8 hPa 0,0 mm 4,0 km/h (1 Bft) W-NW 301 ° 0 min 0,000 mm 2,1 UV-I 223 W/m² 15,9 °C 22,3 °C 6,4 km/h (2 Bft)
20.07.2017 13:07 22,3 °C 22,3 °C 65 % 1009,9 hPa 0,0 mm 8,0 km/h (2 Bft) W 259 ° 0 min 0,000 mm 1,9 UV-I 200 W/m² 15,4 °C 22,3 °C 11,3 km/h (2 Bft)
20.07.2017 13:08 22,3 °C 22,3 °C 63 % 1009,9 hPa 0,0 mm 4,8 km/h (1 Bft) NW 308 ° 0 min 0,000 mm 1,8 UV-I 188 W/m² 14,9 °C 22,3 °C 6,4 km/h (2 Bft)
20.07.2017 13:09 22,2 °C 22,3 °C 65 % 1009,9 hPa 0,0 mm 4,6 km/h (1 Bft) NW 312 ° 0 min 0,000 mm 1,7 UV-I 156 W/m² 15,3 °C 22,2 °C 8,0 km/h (2 Bft)
20.07.2017 13:10 22,1 °C 22,2 °C 66 % 1009,8 hPa 0,0 mm 3,1 km/h (1 Bft) NW 319 ° 0 min 0,000 mm 1,5 UV-I 141 W/m² 15,4 °C 22,1 °C 6,4 km/h (2 Bft)
20.07.2017 13:11 22,1 °C 22,2 °C 65 % 1009,9 hPa 0,0 mm 4,0 km/h (1 Bft) W-NW 290 ° 0 min 0,000 mm 1,3 UV-I 128 W/m² 15,2 °C 22,1 °C 8,0 km/h (2 Bft)
20.07.2017 13:12 22,0 °C 22,1 °C 63 % 1010,0 hPa 0,0 mm 3,5 km/h (1 Bft) W 266 ° 0 min 0,000 mm 1,2 UV-I 118 W/m² 14,6 °C 22,0 °C 6,4 km/h (2 Bft)
20.07.2017 13:13 21,9 °C 22,0 °C 64 % 1010,0 hPa 0,0 mm 4,7 km/h (1 Bft) W-NW 291 ° 0 min 0,000 mm 1,1 UV-I 109 W/m² 14,8 °C 21,9 °C 6,4 km/h (2 Bft)
20.07.2017 13:14 21,9 °C 21,9 °C 65 % 1010,0 hPa 0,0 mm 7,2 km/h (2 Bft) W-NW 295 ° 0 min 0,000 mm 1,0 UV-I 102 W/m² 15,0 °C 21,9 °C 12,9 km/h (3 Bft)
20.07.2017 13:15 21,8 °C 21,9 °C 64 % 1010,0 hPa 0,0 mm 5,8 km/h (2 Bft) W-NW 288 ° 0 min 0,000 mm 1,0 UV-I 90 W/m² 14,7 °C 21,8 °C 11,3 km/h (2 Bft)
20.07.2017 13:16 21,8 °C 21,8 °C 64 % 1009,9 hPa 0,0 mm 7,8 km/h (2 Bft) W 265 ° 0 min 0,000 mm 0,8 UV-I 83 W/m² 14,7 °C 21,8 °C 14,5 km/h (3 Bft)
20.07.2017 13:17 21,7 °C 21,8 °C 65 % 1010,0 hPa 0,0 mm 6,1 km/h (2 Bft) W 280 ° 0 min 0,000 mm 0,8 UV-I 77 W/m² 14,8 °C 21,7 °C 8,0 km/h (2 Bft)
20.07.2017 13:18 21,7 °C 21,7 °C 66 % 1010,0 hPa 0,0 mm 8,4 km/h (2 Bft) NW 315 ° 0 min 0,000 mm 0,7 UV-I 70 W/m² 15,1 °C 21,7 °C 12,9 km/h (3 Bft)
20.07.2017 13:19 21,6 °C 21,7 °C 65 % 1010,0 hPa 0,0 mm 5,9 km/h (2 Bft) NW 309 ° 0 min 0,000 mm 0,6 UV-I 65 W/m² 14,7 °C 21,6 °C 11,3 km/h (2 Bft)
20.07.2017 13:20 21,5 °C 21,6 °C 66 % 1010,0 hPa 0,0 mm 2,5 km/h (1 Bft) NW 304 ° 0 min 0,000 mm 0,6 UV-I 60 W/m² 14,9 °C 21,5 °C 3,2 km/h (1 Bft)
20.07.2017 13:21 21,4 °C 21,5 °C 66 % 1009,9 hPa 0,0 mm 4,7 km/h (1 Bft) W 275 ° 0 min 0,000 mm 0,6 UV-I 53 W/m² 14,8 °C 21,4 °C 11,3 km/h (2 Bft)
20.07.2017 13:22 21,4 °C 21,5 °C 66 % 1009,9 hPa 0,0 mm 8,6 km/h (2 Bft) W-NW 282 ° 0 min 0,000 mm 0,0 UV-I 51 W/m² 14,8 °C 21,4 °C 14,5 km/h (3 Bft)
20.07.2017 13:23 21,4 °C 21,4 °C 65 % 1009,9 hPa 0,0 mm 7,5 km/h (2 Bft) W-NW 292 ° 0 min 0,000 mm 0,0 UV-I 47 W/m² 14,5 °C 21,4 °C 11,3 km/h (2 Bft)
20.07.2017 13:24 21,3 °C 21,4 °C 66 % 1009,9 hPa 0,0 mm 3,4 km/h (1 Bft) W-NW 289 ° 0 min 0,000 mm 0,0 UV-I 44 W/m² 14,7 °C 21,3 °C 4,8 km/h (1 Bft)
20.07.2017 13:25 21,3 °C 21,3 °C 66 % 1009,9 hPa 0,0 mm 4,8 km/h (1 Bft) W-NW 296 ° 0 min 0,000 mm 0,0 UV-I 42 W/m² 14,7 °C 21,3 °C 8,0 km/h (2 Bft)
20.07.2017 13:26 21,3 °C 21,3 °C 65 % 1009,8 hPa 0,0 mm 2,7 km/h (1 Bft) W-NW 296 ° 0 min 0,000 mm 0,0 UV-I 40 W/m² 14,4 °C 21,3 °C 4,8 km/h (1 Bft)
20.07.2017 13:27 21,2 °C 21,3 °C 66 % 1009,8 hPa 0,0 mm 4,9 km/h (1 Bft) W 261 ° 0 min 0,000 mm 0,0 UV-I 33 W/m² 14,6 °C 21,2 °C 9,7 km/h (2 Bft)
20.07.2017 13:28 21,2 °C 21,2 °C 68 % 1009,8 hPa 0,0 mm 5,3 km/h (1 Bft) W-NW 284 ° 0 min 0,000 mm 0,0 UV-I 28 W/m² 15,1 °C 21,2 °C 8,0 km/h (2 Bft)
20.07.2017 13:29 21,1 °C 21,2 °C 68 % 1009,9 hPa 0,0 mm 4,9 km/h (1 Bft) W 259 ° 0 min 0,000 mm 0,0 UV-I 25 W/m² 15,0 °C 21,1 °C 9,7 km/h (2 Bft)
20.07.2017 13:30 21,1 °C 21,1 °C 68 % 1009,9 hPa 0,0 mm 6,1 km/h (2 Bft) W-SW 243 ° 0 min 0,000 mm 0,0 UV-I 23 W/m² 15,0 °C 21,1 °C 8,0 km/h (2 Bft)
20.07.2017 13:31 20,9 °C 21,1 °C 68 % 1009,9 hPa 0,0 mm 4,8 km/h (1 Bft) W 266 ° 0 min 0,000 mm 0,0 UV-I 21 W/m² 14,8 °C 20,9 °C 6,4 km/h (2 Bft)
20.07.2017 13:32 20,9 °C 20,9 °C 68 % 1009,9 hPa 0,0 mm 3,6 km/h (1 Bft) W 266 ° 0 min 0,000 mm 0,0 UV-I 19 W/m² 14,8 °C 20,9 °C 6,4 km/h (2 Bft)
20.07.2017 13:33 20,8 °C 20,9 °C 70 % 1010,0 hPa 0,0 mm 4,0 km/h (1 Bft) W-NW 298 ° 0 min 0,000 mm 0,0 UV-I 16 W/m² 15,1 °C 20,8 °C 8,0 km/h (2 Bft)
20.07.2017 13:34 20,7 °C 20,8 °C 69 % 1010,0 hPa 0,0 mm 3,7 km/h (1 Bft) W-SW 254 ° 0 min 0,000 mm 0,0 UV-I 14 W/m² 14,8 °C 20,7 °C 6,4 km/h (2 Bft)
20.07.2017 13:35 20,7 °C 20,7 °C 69 % 1010,1 hPa 0,0 mm 8,6 km/h (2 Bft) W-SW 248 ° 0 min 0,000 mm 0,0 UV-I 14 W/m² 14,8 °C 20,7 °C 14,5 km/h (3 Bft)
20.07.2017 13:36 20,6 °C 20,7 °C 70 % 1010,1 hPa 0,0 mm 4,6 km/h (1 Bft) W-SW 250 ° 0 min 0,000 mm 0,0 UV-I 14 W/m² 14,9 °C 20,6 °C 8,0 km/h (2 Bft)
20.07.2017 13:37 20,6 °C 20,6 °C 70 % 1010,2 hPa 0,0 mm 8,4 km/h (2 Bft) W 281 ° 0 min 0,000 mm 0,0 UV-I 16 W/m² 14,9 °C 20,6 °C 12,9 km/h (3 Bft)
20.07.2017 13:38 20,6 °C 20,6 °C 71 % 1010,3 hPa 0,0 mm 10,1 km/h (2 Bft) W 263 ° 0 min 0,000 mm 0,0 UV-I 16 W/m² 15,2 °C 20,6 °C 17,7 km/h (3 Bft)
20.07.2017 13:39 20,4 °C 20,6 °C 72 % 1010,4 hPa 0,0 mm 17,8 km/h (3 Bft) SW 234 ° 0 min 0,000 mm 0,0 UV-I 18 W/m² 15,2 °C 20,4 °C 25,7 km/h (4 Bft)
20.07.2017 13:40 20,4 °C 20,4 °C 73 % 1010,4 hPa 0,0 mm 20,0 km/h (4 Bft) W 261 ° 0 min 0,000 mm 0,0 UV-I 21 W/m² 15,4 °C 20,4 °C 29,0 km/h (5 Bft)
20.07.2017 13:41 20,2 °C 20,4 °C 74 % 1010,5 hPa 0,2 mm 13,9 km/h (3 Bft) W-SW 238 ° 0 min 0,000 mm 0,0 UV-I 28 W/m² 15,4 °C 20,2 °C 24,1 km/h (4 Bft)
20.07.2017 13:42 19,8 °C 20,2 °C 77 % 1010,5 hPa 0,2 mm 11,9 km/h (2 Bft) W-NW 301 ° 0 min 0,000 mm 0,0 UV-I 35 W/m² 15,6 °C 19,8 °C 17,7 km/h (3 Bft)
20.07.2017 13:43 19,4 °C 19,8 °C 78 % 1010,6 hPa 0,4 mm 16,9 km/h (3 Bft) W 262 ° 0 min 0,000 mm 0,0 UV-I 39 W/m² 15,5 °C 19,4 °C 22,5 km/h (4 Bft)
20.07.2017 13:44 19,2 °C 19,4 °C 79 % 1010,5 hPa 0,2 mm 18,0 km/h (3 Bft) W 269 ° 0 min 0,000 mm 0,0 UV-I 44 W/m² 15,5 °C 19,2 °C 29,0 km/h (5 Bft)
20.07.2017 13:45 18,8 °C 19,2 °C 80 % 1010,6 hPa 0,4 mm 15,0 km/h (3 Bft) W-NW 297 ° 0 min 0,000 mm 0,0 UV-I 42 W/m² 15,3 °C 18,8 °C 22,5 km/h (4 Bft)
20.07.2017 13:46 18,6 °C 18,8 °C 81 % 1010,6 hPa 0,4 mm 15,5 km/h (3 Bft) W 268 ° 0 min 0,000 mm 0,0 UV-I 39 W/m² 15,3 °C 18,6 °C 19,3 km/h (3 Bft)
20.07.2017 13:47 18,2 °C 18,6 °C 82 % 1010,6 hPa 0,0 mm 13,1 km/h (3 Bft) W-NW 288 ° 0 min 0,000 mm 0,0 UV-I 33 W/m² 15,1 °C 18,2 °C 20,9 km/h (4 Bft)
20.07.2017 13:48 17,9 °C 18,2 °C 84 % 1010,6 hPa 0,2 mm 15,0 km/h (3 Bft) W-NW 284 ° 0 min 0,000 mm 0,0 UV-I 28 W/m² 15,2 °C 17,9 °C 22,5 km/h (4 Bft)
20.07.2017 13:49 17,7 °C 17,9 °C 86 % 1010,8 hPa 0,2 mm 13,4 km/h (3 Bft) W-NW 284 ° 0 min 0,000 mm 0,0 UV-I 23 W/m² 15,3 °C 17,7 °C 17,7 km/h (3 Bft)
20.07.2017 13:50 17,6 °C 17,7 °C 86 % 1011,0 hPa 0,2 mm 12,7 km/h (3 Bft) W-NW 296 ° 0 min 0,000 mm 0,0 UV-I 14 W/m² 15,2 °C 17,6 °C 16,1 km/h (3 Bft)
20.07.2017 13:51 17,4 °C 17,6 °C 87 % 1011,0 hPa 0,2 mm 7,2 km/h (2 Bft) W-SW 254 ° 0 min 0,000 mm 0,0 UV-I 12 W/m² 15,2 °C 17,4 °C 9,7 km/h (2 Bft)
20.07.2017 13:52 17,3 °C 17,4 °C 88 % 1011,0 hPa 0,0 mm 5,5 km/h (1 Bft) W-NW 296 ° 0 min 0,000 mm 0,0 UV-I 14 W/m² 15,3 °C 17,3 °C 12,9 km/h (3 Bft)
20.07.2017 13:53 17,1 °C 17,3 °C 88 % 1011,0 hPa 0,0 mm 15,6 km/h (3 Bft) W 265 ° 0 min 0,000 mm 0,0 UV-I 16 W/m² 15,1 °C 17,1 °C 30,6 km/h (5 Bft)
20.07.2017 13:54 17,0 °C 17,1 °C 88 % 1011,1 hPa 0,0 mm 14,1 km/h (3 Bft) W-SW 251 ° 0 min 0,000 mm 0,0 UV-I 18 W/m² 15,0 °C 17,0 °C 27,4 km/h (4 Bft)
20.07.2017 13:55 16,9 °C 17,0 °C 89 % 1011,1 hPa 0,2 mm 14,9 km/h (3 Bft) W 273 ° 0 min 0,000 mm 0,0 UV-I 19 W/m² 15,1 °C 16,9 °C 22,5 km/h (4 Bft)
20.07.2017 13:56 16,8 °C 16,9 °C 89 % 1011,1 hPa 0,2 mm 8,9 km/h (2 Bft) SW 217 ° 0 min 0,000 mm 0,0 UV-I 23 W/m² 15,0 °C 16,8 °C 20,9 km/h (4 Bft)
20.07.2017 13:57 16,8 °C 16,8 °C 89 % 1011,1 hPa 0,4 mm 9,6 km/h (2 Bft) W 275 ° 0 min 0,000 mm 0,0 UV-I 23 W/m² 15,0 °C 16,8 °C 12,9 km/h (3 Bft)
20.07.2017 13:58 16,7 °C 16,8 °C 90 % 1011,2 hPa 0,4 mm 11,4 km/h (2 Bft) W-SW 256 ° 0 min 0,000 mm 0,0 UV-I 25 W/m² 15,0 °C 16,7 °C 17,7 km/h (3 Bft)
20.07.2017 13:59 16,6 °C 16,7 °C 90 % 1011,2 hPa 0,4 mm 10,7 km/h (2 Bft) W 275 ° 0 min 0,000 mm 0,0 UV-I 23 W/m² 15,0 °C 16,6 °C 14,5 km/h (3 Bft)
20.07.2017 14:00 16,6 °C 16,6 °C 90 % 1011,2 hPa 0,4 mm 6,6 km/h (2 Bft) W 265 ° 0 min 0,000 mm 0,0 UV-I 23 W/m² 15,0 °C 16,6 °C 12,9 km/h (3 Bft)
20.07.2017 14:01 16,5 °C 16,6 °C 90 % 1011,2 hPa 0,4 mm 4,8 km/h (1 Bft) W-SW 243 ° 0 min 0,076 mm 0,0 UV-I 21 W/m² 14,9 °C 16,5 °C 11,3 km/h (2 Bft)
20.07.2017 14:02 16,4 °C 16,5 °C 90 % 1011,2 hPa 0,4 mm 4,2 km/h (1 Bft) SW 229 ° 0 min 0,000 mm 0,0 UV-I 21 W/m² 14,8 °C 16,4 °C 6,4 km/h (2 Bft)
20.07.2017 14:03 16,4 °C 16,4 °C 90 % 1011,2 hPa 0,2 mm 3,4 km/h (1 Bft) S 178 ° 0 min 0,000 mm 0,0 UV-I 21 W/m² 14,8 °C 16,4 °C 4,8 km/h (1 Bft)
20.07.2017 14:04 16,3 °C 16,4 °C 91 % 1011,2 hPa 0,2 mm 3,3 km/h (1 Bft) S 179 ° 0 min 0,000 mm 0,0 UV-I 19 W/m² 14,8 °C 16,3 °C 6,4 km/h (2 Bft)
20.07.2017 14:05 16,3 °C 16,3 °C 91 % 1011,2 hPa 0,2 mm 0,8 km/h (0 Bft) S 179 ° 0 min 0,000 mm 0,0 UV-I 19 W/m² 14,8 °C 16,3 °C 1,6 km/h (1 Bft)
20.07.2017 14:06 16,3 °C 16,3 °C 91 % 1011,2 hPa 0,2 mm 1,9 km/h (1 Bft) W-NW 293 ° 0 min 0,000 mm 0,0 UV-I 18 W/m² 14,8 °C 16,3 °C 6,4 km/h (2 Bft)
20.07.2017 14:07 16,3 °C 16,3 °C 91 % 1011,2 hPa 0,2 mm 3,3 km/h (1 Bft) W-SW 242 ° 0 min 0,000 mm 0,0 UV-I 18 W/m² 14,8 °C 16,3 °C 4,8 km/h (1 Bft)
20.07.2017 14:08 16,3 °C 16,3 °C 91 % 1011,2 hPa 0,0 mm 2,4 km/h (1 Bft) W-SW 238 ° 0 min 0,000 mm 0,0 UV-I 16 W/m² 14,8 °C 16,3 °C 3,2 km/h (1 Bft)
20.07.2017 14:09 16,3 °C 16,3 °C 91 % 1011,1 hPa 0,2 mm 2,7 km/h (1 Bft) SW 214 ° 0 min 0,000 mm 0,0 UV-I 14 W/m² 14,8 °C 16,3 °C 4,8 km/h (1 Bft)
20.07.2017 14:10 16,3 °C 16,3 °C 91 % 1011,1 hPa 0,2 mm 4,7 km/h (1 Bft) S-SW 201 ° 0 min 0,000 mm 0,0 UV-I 12 W/m² 14,8 °C 16,3 °C 6,4 km/h (2 Bft)
20.07.2017 14:11 16,2 °C 16,3 °C 91 % 1011,1 hPa 0,0 mm 3,4 km/h (1 Bft) S 191 ° 0 min 0,000 mm 0,0 UV-I 11 W/m² 14,7 °C 16,2 °C 4,8 km/h (1 Bft)
20.07.2017 14:12 16,2 °C 16,3 °C 92 % 1011,1 hPa 0,2 mm 1,0 km/h (0 Bft) S-SW 192 ° 0 min 0,000 mm 0,0 UV-I 11 W/m² 14,9 °C 16,2 °C 3,2 km/h (1 Bft)
20.07.2017 14:13 16,2 °C 16,3 °C 92 % 1011,0 hPa 0,0 mm 1,9 km/h (1 Bft) S-SW 194 ° 0 min 0,000 mm 0,0 UV-I 11 W/m² 14,9 °C 16,2 °C 4,8 km/h (1 Bft)
20.07.2017 14:14 16,2 °C 16,2 °C 92 % 1010,9 hPa 0,2 mm 1,7 km/h (1 Bft) S-SW 194 ° 0 min 0,000 mm 0,0 UV-I 11 W/m² 14,9 °C 16,2 °C 4,8 km/h (1 Bft)
20.07.2017 14:15 16,2 °C 16,2 °C 92 % 1010,9 hPa 0,0 mm 2,8 km/h (1 Bft) S-SW 195 ° 0 min 0,000 mm 0,0 UV-I 11 W/m² 14,9 °C 16,2 °C 6,4 km/h (2 Bft)
20.07.2017 14:16 16,2 °C 16,2 °C 92 % 1010,9 hPa 0,2 mm 1,7 km/h (1 Bft) S-SW 195 ° 0 min 0,000 mm 0,0 UV-I 11 W/m² 14,9 °C 16,2 °C 4,8 km/h (1 Bft)
20.07.2017 14:17 16,2 °C 16,2 °C 92 % 1010,9 hPa 0,0 mm 1,7 km/h (1 Bft) S-SW 196 ° 0 min 0,000 mm 0,0 UV-I 12 W/m² 14,9 °C 16,2 °C 3,2 km/h (1 Bft)
20.07.2017 14:18 16,2 °C 16,2 °C 92 % 1010,9 hPa 0,0 mm 0,4 km/h (0 Bft) S-SW 196 ° 0 min 0,000 mm 0,0 UV-I 14 W/m² 14,9 °C 16,2 °C 3,2 km/h (1 Bft)
20.07.2017 14:19 16,2 °C 16,2 °C 92 % 1010,9 hPa 0,0 mm 1,6 km/h (1 Bft) S-SW 196 ° 0 min 0,000 mm 0,0 UV-I 16 W/m² 14,9 °C 16,2 °C 3,2 km/h (1 Bft)
20.07.2017 14:20 16,2 °C 16,2 °C 92 % 1010,9 hPa 0,0 mm 0,5 km/h (0 Bft) S-SW 196 ° 0 min 0,000 mm 0,0 UV-I 19 W/m² 14,9 °C 16,2 °C 1,6 km/h (1 Bft)
20.07.2017 14:21 16,2 °C 16,2 °C 92 % 1011,0 hPa 0,0 mm 0,8 km/h (0 Bft) S-SW 196 ° 0 min 0,000 mm 0,0 UV-I 19 W/m² 14,9 °C 16,2 °C 1,6 km/h (1 Bft)
20.07.2017 14:22 16,2 °C 16,2 °C 92 % 1011,0 hPa 0,2 mm 2,1 km/h (1 Bft) SW 225 ° 0 min 0,000 mm 0,0 UV-I 21 W/m² 14,9 °C 16,2 °C 4,8 km/h (1 Bft)
20.07.2017 14:23 16,2 °C 16,2 °C 92 % 1011,1 hPa 0,0 mm 5,0 km/h (1 Bft) W-SW 257 ° 0 min 0,000 mm 0,0 UV-I 21 W/m² 14,9 °C 16,2 °C 9,7 km/h (2 Bft)
20.07.2017 14:24 16,3 °C 16,3 °C 93 % 1011,1 hPa 0,0 mm 2,5 km/h (1 Bft) W-SW 254 ° 0 min 0,000 mm 0,0 UV-I 19 W/m² 15,2 °C 16,3 °C 4,8 km/h (1 Bft)
20.07.2017 14:25 16,3 °C 16,3 °C 92 % 1011,1 hPa 0,0 mm 2,4 km/h (1 Bft) W-SW 254 ° 0 min 0,000 mm 0,0 UV-I 18 W/m² 15,0 °C 16,3 °C 3,2 km/h (1 Bft)
20.07.2017 14:26 16,3 °C 16,3 °C 92 % 1011,2 hPa 0,0 mm 3,7 km/h (1 Bft) W-SW 238 ° 0 min 0,000 mm 0,0 UV-I 18 W/m² 15,0 °C 16,3 °C 8,0 km/h (2 Bft)
20.07.2017 14:27 16,2 °C 16,3 °C 92 % 1011,2 hPa 0,2 mm 3,0 km/h (1 Bft) W-SW 249 ° 0 min 0,000 mm 0,0 UV-I 18 W/m² 14,9 °C 16,2 °C 6,4 km/h (2 Bft)
20.07.2017 14:28 16,2 °C 16,3 °C 92 % 1011,3 hPa 0,0 mm 3,6 km/h (1 Bft) W-SW 254 ° 0 min 0,000 mm 0,0 UV-I 18 W/m² 14,9 °C 16,2 °C 4,8 km/h (1 Bft)
20.07.2017 14:29 16,2 °C 16,3 °C 93 % 1011,3 hPa 0,0 mm 4,6 km/h (1 Bft) W 260 ° 0 min 0,000 mm 0,0 UV-I 19 W/m² 15,1 °C 16,2 °C 6,4 km/h (2 Bft)
20.07.2017 14:30 16,3 °C 16,3 °C 93 % 1011,3 hPa 0,0 mm 4,3 km/h (1 Bft) W-SW 243 ° 0 min 0,000 mm 0,0 UV-I 21 W/m² 15,2 °C 16,3 °C 6,4 km/h (2 Bft)
20.07.2017 14:31 16,2 °C 16,3 °C 93 % 1011,4 hPa 0,0 mm 6,7 km/h (2 Bft) W-SW 243 ° 0 min 0,000 mm 0,0 UV-I 26 W/m² 15,1 °C 16,2 °C 12,9 km/h (3 Bft)
20.07.2017 14:32 16,2 °C 16,3 °C 93 % 1011,3 hPa 0,2 mm 5,2 km/h (1 Bft) W 267 ° 0 min 0,000 mm 0,0 UV-I 28 W/m² 15,1 °C 16,2 °C 8,0 km/h (2 Bft)
20.07.2017 14:33 16,2 °C 16,3 °C 93 % 1011,3 hPa 0,0 mm 4,1 km/h (1 Bft) W 262 ° 0 min 0,000 mm 0,0 UV-I 28 W/m² 15,1 °C 16,2 °C 6,4 km/h (2 Bft)
20.07.2017 14:34 16,2 °C 16,2 °C 92 % 1011,4 hPa 0,0 mm 12,2 km/h (2 Bft) W-SW 258 ° 0 min 0,000 mm 0,0 UV-I 30 W/m² 14,9 °C 16,2 °C 17,7 km/h (3 Bft)
20.07.2017 14:35 16,3 °C 16,3 °C 92 % 1011,3 hPa 0,0 mm 11,3 km/h (2 Bft) S-SW 193 ° 0 min 0,000 mm 0,0 UV-I 30 W/m² 15,0 °C 16,3 °C 20,9 km/h (4 Bft)
20.07.2017 14:36 16,3 °C 16,3 °C 92 % 1011,4 hPa 0,0 mm 9,7 km/h (2 Bft) S-SW 192 ° 0 min 0,000 mm 0,0 UV-I 32 W/m² 15,0 °C 16,3 °C 17,7 km/h (3 Bft)
20.07.2017 14:37 16,3 °C 16,3 °C 92 % 1011,3 hPa 0,2 mm 7,1 km/h (2 Bft) W 276 ° 0 min 0,000 mm 0,0 UV-I 37 W/m² 15,0 °C 16,3 °C 11,3 km/h (2 Bft)
20.07.2017 14:38 16,2 °C 16,3 °C 92 % 1011,3 hPa 0,0 mm 8,4 km/h (2 Bft) W 280 ° 0 min 0,000 mm 0,0 UV-I 39 W/m² 14,9 °C 16,2 °C 12,9 km/h (3 Bft)
20.07.2017 14:39 16,3 °C 16,3 °C 92 % 1011,3 hPa 0,0 mm 7,8 km/h (2 Bft) W-NW 290 ° 0 min 0,000 mm 0,0 UV-I 40 W/m² 15,0 °C 16,3 °C 12,9 km/h (3 Bft)
20.07.2017 14:40 16,3 °C 16,3 °C 92 % 1011,3 hPa 0,2 mm 5,8 km/h (2 Bft) W-NW 284 ° 0 min 0,000 mm 0,0 UV-I 40 W/m² 15,0 °C 16,3 °C 11,3 km/h (2 Bft)
20.07.2017 14:41 16,3 °C 16,3 °C 92 % 1011,3 hPa 0,0 mm 6,6 km/h (2 Bft) W-SW 253 ° 0 min 0,000 mm 0,0 UV-I 42 W/m² 15,0 °C 16,3 °C 9,7 km/h (2 Bft)
20.07.2017 14:42 16,3 °C 16,3 °C 92 % 1011,3 hPa 0,2 mm 7,8 km/h (2 Bft) W-SW 255 ° 0 min 0,000 mm 0,0 UV-I 46 W/m² 15,0 °C 16,3 °C 14,5 km/h (3 Bft)
20.07.2017 14:43 16,3 °C 16,3 °C 92 % 1011,3 hPa 0,0 mm 12,0 km/h (2 Bft) W 279 ° 0 min 0,000 mm 0,0 UV-I 51 W/m² 15,0 °C 16,3 °C 17,7 km/h (3 Bft)
20.07.2017 14:44 16,2 °C 16,3 °C 92 % 1011,2 hPa 0,0 mm 8,6 km/h (2 Bft) W-SW 248 ° 0 min 0,000 mm 0,0 UV-I 54 W/m² 14,9 °C 16,2 °C 14,5 km/h (3 Bft)
20.07.2017 14:45 16,2 °C 16,3 °C 92 % 1011,3 hPa 0,2 mm 12,0 km/h (2 Bft) W-SW 246 ° 0 min 0,000 mm 0,5 UV-I 58 W/m² 14,9 °C 16,2 °C 16,1 km/h (3 Bft)
20.07.2017 14:46 16,3 °C 16,3 °C 92 % 1011,4 hPa 0,0 mm 11,6 km/h (2 Bft) SW 225 ° 0 min 0,000 mm 0,5 UV-I 62 W/m² 15,0 °C 16,3 °C 16,1 km/h (3 Bft)
20.07.2017 14:47 16,3 °C 16,3 °C 92 % 1011,4 hPa 0,0 mm 8,7 km/h (2 Bft) W-NW 286 ° 0 min 0,000 mm 0,6 UV-I 63 W/m² 15,0 °C 16,3 °C 14,5 km/h (3 Bft)
20.07.2017 14:48 16,3 °C 16,3 °C 92 % 1011,5 hPa 0,0 mm 16,5 km/h (3 Bft) W-SW 248 ° 0 min 0,000 mm 0,6 UV-I 65 W/m² 15,0 °C 16,3 °C 24,1 km/h (4 Bft)
20.07.2017 14:49 16,3 °C 16,3 °C 92 % 1011,5 hPa 0,0 mm 9,3 km/h (2 Bft) W 265 ° 0 min 0,000 mm 0,6 UV-I 67 W/m² 15,0 °C 16,3 °C 16,1 km/h (3 Bft)
20.07.2017 14:50 16,3 °C 16,3 °C 92 % 1011,6 hPa 0,2 mm 4,9 km/h (1 Bft) W 277 ° 0 min 0,000 mm 0,7 UV-I 72 W/m² 15,0 °C 16,3 °C 11,3 km/h (2 Bft)
20.07.2017 14:51 16,3 °C 16,3 °C 92 % 1011,6 hPa 0,0 mm 10,1 km/h (2 Bft) S 185 ° 0 min 0,000 mm 0,7 UV-I 74 W/m² 15,0 °C 16,3 °C 16,1 km/h (3 Bft)
20.07.2017 14:52 16,3 °C 16,3 °C 92 % 1011,7 hPa 0,0 mm 11,2 km/h (2 Bft) W 267 ° 0 min 0,000 mm 0,7 UV-I 72 W/m² 15,0 °C 16,3 °C 17,7 km/h (3 Bft)
20.07.2017 14:53 16,3 °C 16,3 °C 92 % 1011,7 hPa 0,0 mm 12,1 km/h (2 Bft) W-NW 283 ° 0 min 0,000 mm 0,6 UV-I 70 W/m² 15,0 °C 16,3 °C 17,7 km/h (3 Bft)
20.07.2017 14:54 16,3 °C 16,3 °C 92 % 1011,8 hPa 0,0 mm 10,4 km/h (2 Bft) NW 309 ° 0 min 0,000 mm 0,6 UV-I 67 W/m² 15,0 °C 16,3 °C 16,1 km/h (3 Bft)
20.07.2017 14:55 16,4 °C 16,4 °C 92 % 1011,7 hPa 0,0 mm 7,5 km/h (2 Bft) W-SW 240 ° 0 min 0,000 mm 0,6 UV-I 70 W/m² 15,1 °C 16,4 °C 14,5 km/h (3 Bft)
20.07.2017 14:56 16,3 °C 16,4 °C 92 % 1011,7 hPa 0,2 mm 4,8 km/h (1 Bft) W-SW 252 ° 0 min 0,000 mm 0,7 UV-I 74 W/m² 15,0 °C 16,3 °C 11,3 km/h (2 Bft)
20.07.2017 14:57 16,3 °C 16,3 °C 92 % 1011,8 hPa 0,0 mm 2,2 km/h (1 Bft) W-NW 284 ° 0 min 0,000 mm 0,7 UV-I 79 W/m² 15,0 °C 16,3 °C 4,8 km/h (1 Bft)
20.07.2017 14:58 16,3 °C 16,3 °C 92 % 1011,8 hPa 0,0 mm 1,7 km/h (1 Bft) W-SW 238 ° 0 min 0,000 mm 0,8 UV-I 84 W/m² 15,0 °C 16,3 °C 3,2 km/h (1 Bft)
20.07.2017 14:59 16,3 °C 16,3 °C 92 % 1011,8 hPa 0,0 mm 3,5 km/h (1 Bft) W 275 ° 0 min 0,000 mm 0,7 UV-I 83 W/m² 15,0 °C 16,3 °C 12,9 km/h (3 Bft)
20.07.2017 15:00 16,3 °C 16,3 °C 92 % 1011,8 hPa 0,0 mm 5,0 km/h (1 Bft) SW 225 ° 0 min 0,000 mm 0,7 UV-I 74 W/m² 15,0 °C 16,3 °C 9,7 km/h (2 Bft)
20.07.2017 15:01 16,3 °C 16,3 °C 92 % 1011,8 hPa 0,0 mm 3,6 km/h (1 Bft) SW 232 ° 0 min 0,025 mm 0,7 UV-I 74 W/m² 15,0 °C 16,3 °C 8,0 km/h (2 Bft)
20.07.2017 15:02 16,3 °C 16,3 °C 92 % 1011,8 hPa 0,2 mm 4,1 km/h (1 Bft) W 271 ° 0 min 0,000 mm 0,7 UV-I 79 W/m² 15,0 °C 16,3 °C 6,4 km/h (2 Bft)
20.07.2017 15:03 16,4 °C 16,4 °C 92 % 1011,8 hPa 0,0 mm 4,0 km/h (1 Bft) W-SW 248 ° 0 min 0,000 mm 0,8 UV-I 83 W/m² 15,1 °C 16,4 °C 8,0 km/h (2 Bft)
20.07.2017 15:04 16,4 °C 16,4 °C 92 % 1011,8 hPa 0,0 mm 3,1 km/h (1 Bft) W-NW 282 ° 0 min 0,000 mm 0,8 UV-I 86 W/m² 15,1 °C 16,4 °C 9,7 km/h (2 Bft)
20.07.2017 15:05 16,3 °C 16,4 °C 92 % 1011,8 hPa 0,0 mm 2,8 km/h (1 Bft) W 265 ° 0 min 0,000 mm 0,8 UV-I 88 W/m² 15,0 °C 16,3 °C 6,4 km/h (2 Bft)
20.07.2017 15:06 16,3 °C 16,4 °C 92 % 1011,8 hPa 0,0 mm 8,3 km/h (2 Bft) W 261 ° 0 min 0,000 mm 0,8 UV-I 90 W/m² 15,0 °C 16,3 °C 14,5 km/h (3 Bft)
20.07.2017 15:07 16,4 °C 16,4 °C 92 % 1011,9 hPa 0,0 mm 5,4 km/h (1 Bft) S-SW 192 ° 0 min 0,000 mm 0,8 UV-I 88 W/m² 15,1 °C 16,4 °C 12,9 km/h (3 Bft)
20.07.2017 15:08 16,4 °C 16,4 °C 92 % 1011,9 hPa 0,0 mm 3,1 km/h (1 Bft) W-SW 257 ° 0 min 0,000 mm 0,7 UV-I 77 W/m² 15,1 °C 16,4 °C 6,4 km/h (2 Bft)
20.07.2017 15:09 16,4 °C 16,4 °C 92 % 1012,0 hPa 0,0 mm 6,2 km/h (2 Bft) SW 219 ° 0 min 0,000 mm 0,6 UV-I 65 W/m² 15,1 °C 16,4 °C 9,7 km/h (2 Bft)
20.07.2017 15:10 16,4 °C 16,4 °C 92 % 1012,0 hPa 0,0 mm 4,6 km/h (1 Bft) SW 227 ° 0 min 0,000 mm 0,6 UV-I 62 W/m² 15,1 °C 16,4 °C 6,4 km/h (2 Bft)
20.07.2017 15:11 16,4 °C 16,4 °C 92 % 1012,1 hPa 0,0 mm 3,1 km/h (1 Bft) W-SW 257 ° 0 min 0,000 mm 0,6 UV-I 65 W/m² 15,1 °C 16,4 °C 4,8 km/h (1 Bft)
20.07.2017 15:12 16,4 °C 16,4 °C 92 % 1012,0 hPa 0,2 mm 2,0 km/h (1 Bft) SW 230 ° 0 min 0,000 mm 0,7 UV-I 70 W/m² 15,1 °C 16,4 °C 3,2 km/h (1 Bft)
20.07.2017 15:13 16,4 °C 16,4 °C 92 % 1012,0 hPa 0,0 mm 2,5 km/h (1 Bft) SW 232 ° 0 min 0,000 mm 0,6 UV-I 63 W/m² 15,1 °C 16,4 °C 4,8 km/h (1 Bft)
20.07.2017 15:14 16,4 °C 16,4 °C 92 % 1012,0 hPa 0,0 mm 2,4 km/h (1 Bft) W-SW 250 ° 0 min 0,000 mm 0,5 UV-I 56 W/m² 15,1 °C 16,4 °C 6,4 km/h (2 Bft)
20.07.2017 15:15 16,4 °C 16,4 °C 92 % 1012,1 hPa 0,0 mm 5,2 km/h (1 Bft) W 267 ° 0 min 0,000 mm 0,0 UV-I 49 W/m² 15,1 °C 16,4 °C 9,7 km/h (2 Bft)
20.07.2017 15:16 16,4 °C 16,4 °C 92 % 1012,1 hPa 0,0 mm 6,8 km/h (2 Bft) W 274 ° 0 min 0,000 mm 0,0 UV-I 46 W/m² 15,1 °C 16,4 °C 11,3 km/h (2 Bft)
20.07.2017 15:17 16,4 °C 16,4 °C 92 % 1012,1 hPa 0,0 mm 8,8 km/h (2 Bft) W-SW 243 ° 0 min 0,000 mm 0,0 UV-I 46 W/m² 15,1 °C 16,4 °C 12,9 km/h (3 Bft)
20.07.2017 15:18 16,4 °C 16,4 °C 92 % 1012,1 hPa 0,0 mm 2,7 km/h (1 Bft) W 265 ° 0 min 0,000 mm 0,0 UV-I 53 W/m² 15,1 °C 16,4 °C 4,8 km/h (1 Bft)
20.07.2017 15:19 16,3 °C 16,4 °C 92 % 1012,1 hPa 0,0 mm 5,2 km/h (1 Bft) SW 232 ° 0 min 0,000 mm 0,5 UV-I 56 W/m² 15,0 °C 16,3 °C 9,7 km/h (2 Bft)
20.07.2017 15:20 16,3 °C 16,3 °C 92 % 1012,1 hPa 0,0 mm 7,3 km/h (2 Bft) W-SW 246 ° 0 min 0,000 mm 0,5 UV-I 56 W/m² 15,0 °C 16,3 °C 11,3 km/h (2 Bft)
20.07.2017 15:21 16,3 °C 16,3 °C 92 % 1012,2 hPa 0,0 mm 4,9 km/h (1 Bft) S 188 ° 0 min 0,000 mm 0,0 UV-I 54 W/m² 15,0 °C 16,3 °C 8,0 km/h (2 Bft)
20.07.2017 15:22 16,3 °C 16,3 °C 92 % 1012,2 hPa 0,0 mm 3,4 km/h (1 Bft) W 265 ° 0 min 0,000 mm 0,0 UV-I 53 W/m² 15,0 °C 16,3 °C 6,4 km/h (2 Bft)
20.07.2017 15:23 16,3 °C 16,3 °C 92 % 1012,2 hPa 0,0 mm 2,5 km/h (1 Bft) SW 234 ° 0 min 0,000 mm 0,0 UV-I 49 W/m² 15,0 °C 16,3 °C 4,8 km/h (1 Bft)
20.07.2017 15:24 16,3 °C 16,3 °C 92 % 1012,2 hPa 0,0 mm 2,5 km/h (1 Bft) S-SW 201 ° 0 min 0,000 mm 0,0 UV-I 46 W/m² 15,0 °C 16,3 °C 4,8 km/h (1 Bft)
20.07.2017 15:25 16,3 °C 16,3 °C 92 % 1012,2 hPa 0,0 mm 3,4 km/h (1 Bft) SW 227 ° 0 min 0,000 mm 0,0 UV-I 44 W/m² 15,0 °C 16,3 °C 8,0 km/h (2 Bft)
20.07.2017 15:26 16,3 °C 16,3 °C 92 % 1012,1 hPa 0,0 mm 3,0 km/h (1 Bft) W-SW 245 ° 0 min 0,000 mm 0,0 UV-I 42 W/m² 15,0 °C 16,3 °C 4,8 km/h (1 Bft)
20.07.2017 15:27 16,3 °C 16,3 °C 92 % 1012,2 hPa 0,0 mm 2,4 km/h (1 Bft) S-SW 212 ° 0 min 0,000 mm 0,0 UV-I 42 W/m² 15,0 °C 16,3 °C 4,8 km/h (1 Bft)
20.07.2017 15:28 16,3 °C 16,3 °C 92 % 1012,2 hPa 0,0 mm 2,7 km/h (1 Bft) SW 214 ° 0 min 0,000 mm 0,0 UV-I 44 W/m² 15,0 °C 16,3 °C 6,4 km/h (2 Bft)
20.07.2017 15:29 16,3 °C 16,3 °C 92 % 1012,2 hPa 0,0 mm 1,5 km/h (1 Bft) SW 214 ° 0 min 0,000 mm 0,0 UV-I 44 W/m² 15,0 °C 16,3 °C 3,2 km/h (1 Bft)
20.07.2017 15:30 16,3 °C 16,3 °C 92 % 1012,2 hPa 0,0 mm 2,7 km/h (1 Bft) S-SW 207 ° 0 min 0,000 mm 0,0 UV-I 46 W/m² 15,0 °C 16,3 °C 6,4 km/h (2 Bft)
20.07.2017 15:31 16,3 °C 16,3 °C 92 % 1012,1 hPa 0,0 mm 0,7 km/h (0 Bft) S-SW 195 ° 0 min 0,000 mm 0,0 UV-I 47 W/m² 15,0 °C 16,3 °C 1,6 km/h (1 Bft)
20.07.2017 15:32 16,3 °C 16,3 °C 92 % 1012,1 hPa 0,0 mm 4,2 km/h (1 Bft) W-SW 254 ° 0 min 0,000 mm 0,0 UV-I 49 W/m² 15,0 °C 16,3 °C 8,0 km/h (2 Bft)
20.07.2017 15:33 16,3 °C 16,3 °C 92 % 1012,2 hPa 0,0 mm 3,9 km/h (1 Bft) SW 233 ° 0 min 0,000 mm 0,0 UV-I 53 W/m² 15,0 °C 16,3 °C 6,4 km/h (2 Bft)
20.07.2017 15:34 16,3 °C 16,3 °C 92 % 1012,2 hPa 0,0 mm 0,9 km/h (0 Bft) SW 231 ° 0 min 0,000 mm 0,5 UV-I 56 W/m² 15,0 °C 16,3 °C 3,2 km/h (1 Bft)
20.07.2017 15:35 16,3 °C 16,3 °C 92 % 1012,2 hPa 0,0 mm 3,2 km/h (1 Bft) W-SW 256 ° 0 min 0,000 mm 0,5 UV-I 58 W/m² 15,0 °C 16,3 °C 11,3 km/h (2 Bft)
20.07.2017 15:36 16,3 °C 16,3 °C 92 % 1012,1 hPa 0,0 mm 4,2 km/h (1 Bft) S-SO 166 ° 0 min 0,000 mm 0,5 UV-I 60 W/m² 15,0 °C 16,3 °C 8,0 km/h (2 Bft)
20.07.2017 15:37 16,3 °C 16,3 °C 92 % 1012,2 hPa 0,0 mm 6,6 km/h (2 Bft) S 180 ° 0 min 0,000 mm 0,5 UV-I 56 W/m² 15,0 °C 16,3 °C 11,3 km/h (2 Bft)
20.07.2017 15:38 16,3 °C 16,3 °C 92 % 1012,2 hPa 0,0 mm 3,8 km/h (1 Bft) S-SW 194 ° 0 min 0,000 mm 0,0 UV-I 56 W/m² 15,0 °C 16,3 °C 8,0 km/h (2 Bft)
20.07.2017 15:39 16,3 °C 16,3 °C 92 % 1012,2 hPa 0,0 mm 2,2 km/h (1 Bft) S-SW 213 ° 0 min 0,000 mm 0,0 UV-I 47 W/m² 15,0 °C 16,3 °C 3,2 km/h (1 Bft)
20.07.2017 15:40 16,3 °C 16,3 °C 92 % 1012,2 hPa 0,0 mm 0,7 km/h (0 Bft) SW 215 ° 0 min 0,000 mm 0,0 UV-I 47 W/m² 15,0 °C 16,3 °C 3,2 km/h (1 Bft)
20.07.2017 15:41 16,3 °C 16,3 °C 92 % 1012,2 hPa 0,0 mm 1,9 km/h (1 Bft) SW 214 ° 0 min 0,000 mm 0,0 UV-I 44 W/m² 15,0 °C 16,3 °C 4,8 km/h (1 Bft)
20.07.2017 15:42 16,3 °C 16,3 °C 92 % 1012,2 hPa 0,0 mm 0,5 km/h (0 Bft) SW 214 ° 0 min 0,000 mm 0,0 UV-I 54 W/m² 15,0 °C 16,3 °C 3,2 km/h (1 Bft)
20.07.2017 15:43 16,3 °C 16,3 °C 92 % 1012,1 hPa 0,0 mm 0,5 km/h (0 Bft) SW 214 ° 0 min 0,000 mm 0,6 UV-I 65 W/m² 15,0 °C 16,3 °C 1,6 km/h (1 Bft)
20.07.2017 15:44 16,4 °C 16,4 °C 92 % 1012,1 hPa 0,0 mm 3,1 km/h (1 Bft) W 267 ° 0 min 0,000 mm 0,7 UV-I 74 W/m² 15,1 °C 16,4 °C 9,7 km/h (2 Bft)
20.07.2017 15:45 16,4 °C 16,4 °C 92 % 1012,1 hPa 0,0 mm 5,3 km/h (1 Bft) W-SW 254 ° 0 min 0,000 mm 0,6 UV-I 74 W/m² 15,1 °C 16,4 °C 8,0 km/h (2 Bft)
20.07.2017 15:46 16,4 °C 16,4 °C 92 % 1012,1 hPa 0,0 mm 3,2 km/h (1 Bft) W-SW 246 ° 0 min 0,000 mm 0,6 UV-I 67 W/m² 15,1 °C 16,4 °C 4,8 km/h (1 Bft)
20.07.2017 15:47 16,4 °C 16,4 °C 92 % 1012,1 hPa 0,0 mm 1,0 km/h (0 Bft) W-SW 246 ° 0 min 0,000 mm 0,5 UV-I 51 W/m² 15,1 °C 16,4 °C 3,2 km/h (1 Bft)
20.07.2017 15:48 16,4 °C 16,4 °C 92 % 1012,3 hPa 0,0 mm 1,8 km/h (1 Bft) W-SW 238 ° 0 min 0,000 mm 0,0 UV-I 49 W/m² 15,1 °C 16,4 °C 4,8 km/h (1 Bft)
20.07.2017 15:49 16,4 °C 16,4 °C 92 % 1012,3 hPa 0,0 mm 3,2 km/h (1 Bft) SW 217 ° 0 min 0,000 mm 0,0 UV-I 49 W/m² 15,1 °C 16,4 °C 4,8 km/h (1 Bft)
20.07.2017 15:50 16,4 °C 16,4 °C 92 % 1012,3 hPa 0,0 mm 1,9 km/h (1 Bft) SW 228 ° 0 min 0,000 mm 0,0 UV-I 49 W/m² 15,1 °C 16,4 °C 4,8 km/h (1 Bft)
20.07.2017 15:51 16,4 °C 16,4 °C 92 % 1012,3 hPa 0,0 mm 3,1 km/h (1 Bft) W-SW 250 ° 0 min 0,000 mm 0,0 UV-I 53 W/m² 15,1 °C 16,4 °C 4,8 km/h (1 Bft)
20.07.2017 15:52 16,4 °C 16,4 °C 92 % 1012,4 hPa 0,0 mm 1,1 km/h (1 Bft) W-SW 248 ° 0 min 0,000 mm 0,5 UV-I 58 W/m² 15,1 °C 16,4 °C 1,6 km/h (1 Bft)
20.07.2017 15:53 16,4 °C 16,4 °C 92 % 1012,4 hPa 0,0 mm 1,7 km/h (1 Bft) SW 223 ° 0 min 0,000 mm 0,5 UV-I 69 W/m² 15,1 °C 16,4 °C 4,8 km/h (1 Bft)
20.07.2017 15:54 16,4 °C 16,4 °C 92 % 1012,3 hPa 0,0 mm 1,7 km/h (1 Bft) SW 236 ° 0 min 0,000 mm 0,6 UV-I 69 W/m² 15,1 °C 16,4 °C 3,2 km/h (1 Bft)
20.07.2017 15:55 16,4 °C 16,4 °C 92 % 1012,4 hPa 0,0 mm 0,5 km/h (0 Bft) SW 236 ° 0 min 0,000 mm 0,6 UV-I 76 W/m² 15,1 °C 16,4 °C 1,6 km/h (1 Bft)
20.07.2017 15:56 16,4 °C 16,4 °C 92 % 1012,4 hPa 0,0 mm 0,4 km/h (0 Bft) SW 236 ° 0 min 0,000 mm 0,7 UV-I 79 W/m² 15,1 °C 16,4 °C 1,6 km/h (1 Bft)
20.07.2017 15:57 16,4 °C 16,4 °C 92 % 1012,3 hPa 0,0 mm 2,4 km/h (1 Bft) W-SW 245 ° 0 min 0,000 mm 0,7 UV-I 83 W/m² 15,1 °C 16,4 °C 4,8 km/h (1 Bft)
20.07.2017 15:58 16,5 °C 16,5 °C 93 % 1012,3 hPa 0,0 mm 3,2 km/h (1 Bft) W-SW 245 ° 0 min 0,000 mm 0,7 UV-I 84 W/m² 15,4 °C 16,5 °C 4,8 km/h (1 Bft)
20.07.2017 15:59 16,5 °C 16,5 °C 92 % 1012,3 hPa 0,0 mm 1,4 km/h (1 Bft) W-SW 245 ° 0 min 0,000 mm 0,7 UV-I 88 W/m² 15,2 °C 16,5 °C 3,2 km/h (1 Bft)
20.07.2017 16:00 16,5 °C 16,5 °C 92 % 1012,4 hPa 0,0 mm 1,2 km/h (1 Bft) W-SW 242 ° 0 min 0,026 mm 0,7 UV-I 86 W/m² 15,2 °C 16,5 °C 3,2 km/h (1 Bft)
20.07.2017 16:01 16,5 °C 16,6 °C 92 % 1012,4 hPa 0,0 mm 0,3 km/h (0 Bft) W-SW 242 ° 0 min 0,000 mm 0,7 UV-I 84 W/m² 15,2 °C 16,5 °C 1,6 km/h (1 Bft)
20.07.2017 16:02 16,6 °C 16,6 °C 93 % 1012,4 hPa 0,0 mm 1,2 km/h (1 Bft) SW 222 ° 0 min 0,000 mm 0,7 UV-I 81 W/m² 15,5 °C 16,6 °C 3,2 km/h (1 Bft)
20.07.2017 16:03 16,6 °C 16,6 °C 93 % 1012,4 hPa 0,0 mm 4,3 km/h (1 Bft) SW 225 ° 0 min 0,000 mm 0,6 UV-I 76 W/m² 15,5 °C 16,6 °C 9,7 km/h (2 Bft)
20.07.2017 16:04 16,6 °C 16,6 °C 92 % 1012,3 hPa 0,0 mm 3,4 km/h (1 Bft) S-SW 211 ° 0 min 0,000 mm 0,6 UV-I 72 W/m² 15,3 °C 16,6 °C 6,4 km/h (2 Bft)
20.07.2017 16:05 16,6 °C 16,6 °C 92 % 1012,4 hPa 0,0 mm 4,4 km/h (1 Bft) W-SW 243 ° 0 min 0,000 mm 0,5 UV-I 63 W/m² 15,3 °C 16,6 °C 8,0 km/h (2 Bft)
20.07.2017 16:06 16,6 °C 16,6 °C 93 % 1012,4 hPa 0,0 mm 2,1 km/h (1 Bft) W-SW 240 ° 0 min 0,000 mm 0,6 UV-I 67 W/m² 15,5 °C 16,6 °C 4,8 km/h (1 Bft)
20.07.2017 16:07 16,7 °C 16,7 °C 92 % 1012,4 hPa 0,0 mm 4,7 km/h (1 Bft) W 263 ° 0 min 0,000 mm 0,6 UV-I 70 W/m² 15,4 °C 16,7 °C 6,4 km/h (2 Bft)
20.07.2017 16:08 16,7 °C 16,7 °C 93 % 1012,3 hPa 0,0 mm 5,2 km/h (1 Bft) W 267 ° 0 min 0,000 mm 0,6 UV-I 70 W/m² 15,6 °C 16,7 °C 9,7 km/h (2 Bft)
20.07.2017 16:09 16,7 °C 16,7 °C 92 % 1012,4 hPa 0,0 mm 4,4 km/h (1 Bft) W 273 ° 0 min 0,000 mm 0,6 UV-I 70 W/m² 15,4 °C 16,7 °C 6,4 km/h (2 Bft)
20.07.2017 16:10 16,7 °C 16,7 °C 92 % 1012,4 hPa 0,0 mm 5,6 km/h (1 Bft) S 188 ° 0 min 0,000 mm 0,6 UV-I 70 W/m² 15,4 °C 16,7 °C 8,0 km/h (2 Bft)
20.07.2017 16:11 16,7 °C 16,7 °C 92 % 1012,3 hPa 0,0 mm 7,0 km/h (2 Bft) W-SW 257 ° 0 min 0,000 mm 0,6 UV-I 69 W/m² 15,4 °C 16,7 °C 11,3 km/h (2 Bft)
20.07.2017 16:12 16,7 °C 16,7 °C 92 % 1012,3 hPa 0,0 mm 5,8 km/h (2 Bft) W-SW 253 ° 0 min 0,000 mm 0,6 UV-I 69 W/m² 15,4 °C 16,7 °C 11,3 km/h (2 Bft)
20.07.2017 16:13 16,7 °C 16,7 °C 92 % 1012,4 hPa 0,0 mm 0,3 km/h (0 Bft) W-SW 254 ° 0 min 0,000 mm 0,6 UV-I 67 W/m² 15,4 °C 16,7 °C 1,6 km/h (1 Bft)
20.07.2017 16:14 16,7 °C 16,7 °C 92 % 1012,4 hPa 0,0 mm 1,2 km/h (1 Bft) W-SW 253 ° 0 min 0,000 mm 0,6 UV-I 65 W/m² 15,4 °C 16,7 °C 4,8 km/h (1 Bft)
20.07.2017 16:15 16,7 °C 16,7 °C 92 % 1012,4 hPa 0,0 mm 2,0 km/h (1 Bft) SW 225 ° 0 min 0,000 mm 0,5 UV-I 63 W/m² 15,4 °C 16,7 °C 4,8 km/h (1 Bft)
20.07.2017 16:16 16,6 °C 16,7 °C 92 % 1012,4 hPa 0,0 mm 5,2 km/h (1 Bft) W-SW 242 ° 0 min 0,000 mm 0,5 UV-I 60 W/m² 15,3 °C 16,6 °C 9,7 km/h (2 Bft)
20.07.2017 16:17 16,6 °C 16,6 °C 92 % 1012,4 hPa 0,0 mm 4,2 km/h (1 Bft) S-SW 192 ° 0 min 0,000 mm 0,5 UV-I 51 W/m² 15,3 °C 16,6 °C 12,9 km/h (3 Bft)
20.07.2017 16:18 16,6 °C 16,6 °C 91 % 1012,4 hPa 0,0 mm 2,1 km/h (1 Bft) S-SW 192 ° 0 min 0,000 mm 0,0 UV-I 46 W/m² 15,1 °C 16,6 °C 3,2 km/h (1 Bft)
20.07.2017 16:19 16,6 °C 16,6 °C 91 % 1012,4 hPa 0,0 mm 1,5 km/h (1 Bft) S-SW 192 ° 0 min 0,000 mm 0,0 UV-I 42 W/m² 15,1 °C 16,6 °C 3,2 km/h (1 Bft)
20.07.2017 16:20 16,6 °C 16,6 °C 92 % 1012,3 hPa 0,0 mm 1,4 km/h (1 Bft) S-SW 194 ° 0 min 0,000 mm 0,0 UV-I 40 W/m² 15,3 °C 16,6 °C 3,2 km/h (1 Bft)
20.07.2017 16:21 16,6 °C 16,6 °C 92 % 1012,3 hPa 0,0 mm 3,9 km/h (1 Bft) SW 236 ° 0 min 0,000 mm 0,0 UV-I 40 W/m² 15,3 °C 16,6 °C 8,0 km/h (2 Bft)
20.07.2017 16:22 16,6 °C 16,6 °C 92 % 1012,3 hPa 0,0 mm 4,8 km/h (1 Bft) S-SW 202 ° 0 min 0,000 mm 0,0 UV-I 54 W/m² 15,3 °C 16,6 °C 8,0 km/h (2 Bft)
20.07.2017 16:23 16,5 °C 16,6 °C 92 % 1012,3 hPa 0,0 mm 1,3 km/h (1 Bft) S-SW 202 ° 0 min 0,000 mm 0,0 UV-I 63 W/m² 15,2 °C 16,5 °C 3,2 km/h (1 Bft)
20.07.2017 16:24 16,5 °C 16,5 °C 92 % 1012,3 hPa 0,0 mm 2,5 km/h (1 Bft) S-SW 206 ° 0 min 0,000 mm 0,6 UV-I 69 W/m² 15,2 °C 16,5 °C 6,4 km/h (2 Bft)
20.07.2017 16:25 16,5 °C 16,5 °C 91 % 1012,4 hPa 0,0 mm 0,0 km/h (0 Bft) S-SW 206 ° 0 min 0,000 mm 0,6 UV-I 67 W/m² 15,0 °C 16,5 °C 0,0 km/h (0 Bft)
20.07.2017 16:26 16,5 °C 16,6 °C 92 % 1012,5 hPa 0,0 mm 5,0 km/h (1 Bft) W-SW 258 ° 0 min 0,000 mm 0,6 UV-I 62 W/m² 15,2 °C 16,5 °C 11,3 km/h (2 Bft)
20.07.2017 16:27 16,6 °C 16,6 °C 92 % 1012,5 hPa 0,0 mm 7,7 km/h (2 Bft) W 269 ° 0 min 0,000 mm 0,5 UV-I 58 W/m² 15,3 °C 16,6 °C 9,7 km/h (2 Bft)
20.07.2017 16:28 16,6 °C 16,6 °C 92 % 1012,5 hPa 0,0 mm 5,4 km/h (1 Bft) W-SW 249 ° 0 min 0,000 mm 0,5 UV-I 62 W/m² 15,3 °C 16,6 °C 9,7 km/h (2 Bft)
20.07.2017 16:29 16,6 °C 16,6 °C 92 % 1012,4 hPa 0,0 mm 4,2 km/h (1 Bft) W-SW 249 ° 0 min 0,000 mm 0,6 UV-I 62 W/m² 15,3 °C 16,6 °C 4,8 km/h (1 Bft)
20.07.2017 16:30 16,5 °C 16,6 °C 92 % 1012,5 hPa 0,0 mm 1,9 km/h (1 Bft) W-SW 250 ° 0 min 0,000 mm 0,5 UV-I 58 W/m² 15,2 °C 16,5 °C 4,8 km/h (1 Bft)
20.07.2017 16:31 16,5 °C 16,5 °C 92 % 1012,5 hPa 0,0 mm 1,3 km/h (1 Bft) W-SW 250 ° 0 min 0,000 mm 0,0 UV-I 54 W/m² 15,2 °C 16,5 °C 3,2 km/h (1 Bft)
20.07.2017 16:32 16,5 °C 16,6 °C 92 % 1012,5 hPa 0,2 mm 0,6 km/h (0 Bft) S 186 ° 0 min 0,000 mm 0,0 UV-I 51 W/m² 15,2 °C 16,5 °C 3,2 km/h (1 Bft)
20.07.2017 16:33 16,4 °C 16,5 °C 92 % 1012,6 hPa 0,0 mm 3,8 km/h (1 Bft) S-SW 203 ° 0 min 0,000 mm 0,0 UV-I 49 W/m² 15,1 °C 16,4 °C 6,4 km/h (2 Bft)
20.07.2017 16:34 16,4 °C 16,4 °C 92 % 1012,6 hPa 0,0 mm 1,9 km/h (1 Bft) S-SW 201 ° 0 min 0,000 mm 0,0 UV-I 46 W/m² 15,1 °C 16,4 °C 4,8 km/h (1 Bft)
20.07.2017 16:35 16,4 °C 16,4 °C 92 % 1012,6 hPa 0,0 mm 5,1 km/h (1 Bft) S-SW 209 ° 0 min 0,000 mm 0,0 UV-I 46 W/m² 15,1 °C 16,4 °C 8,0 km/h (2 Bft)
20.07.2017 16:36 16,4 °C 16,4 °C 92 % 1012,6 hPa 0,0 mm 1,0 km/h (0 Bft) S 183 ° 0 min 0,000 mm 0,0 UV-I 47 W/m² 15,1 °C 16,4 °C 3,2 km/h (1 Bft)
20.07.2017 16:37 16,4 °C 16,4 °C 92 % 1012,5 hPa 0,0 mm 2,6 km/h (1 Bft) W-SW 253 ° 0 min 0,000 mm 0,0 UV-I 49 W/m² 15,1 °C 16,4 °C 4,8 km/h (1 Bft)
20.07.2017 16:38 16,3 °C 16,4 °C 92 % 1012,6 hPa 0,0 mm 1,5 km/h (1 Bft) SW 229 ° 0 min 0,000 mm 0,0 UV-I 53 W/m² 15,0 °C 16,3 °C 4,8 km/h (1 Bft)
20.07.2017 16:39 16,3 °C 16,4 °C 92 % 1012,5 hPa 0,0 mm 2,7 km/h (1 Bft) W-SW 255 ° 0 min 0,000 mm 0,0 UV-I 54 W/m² 15,0 °C 16,3 °C 6,4 km/h (2 Bft)
20.07.2017 16:40 16,3 °C 16,3 °C 92 % 1012,6 hPa 0,0 mm 2,6 km/h (1 Bft) W 278 ° 0 min 0,000 mm 0,5 UV-I 60 W/m² 15,0 °C 16,3 °C 4,8 km/h (1 Bft)
20.07.2017 16:41 16,3 °C 16,3 °C 92 % 1012,5 hPa 0,0 mm 3,4 km/h (1 Bft) NW 304 ° 0 min 0,000 mm 0,5 UV-I 60 W/m² 15,0 °C 16,3 °C 4,8 km/h (1 Bft)
20.07.2017 16:42 16,3 °C 16,3 °C 92 % 1012,4 hPa 0,0 mm 1,8 km/h (1 Bft) W-NW 303 ° 0 min 0,000 mm 0,5 UV-I 62 W/m² 15,0 °C 16,3 °C 4,8 km/h (1 Bft)
20.07.2017 16:43 16,3 °C 16,3 °C 92 % 1012,4 hPa 0,0 mm 3,0 km/h (1 Bft) W-SW 257 ° 0 min 0,000 mm 0,5 UV-I 63 W/m² 15,0 °C 16,3 °C 6,4 km/h (2 Bft)
20.07.2017 16:44 16,3 °C 16,3 °C 92 % 1012,4 hPa 0,0 mm 2,8 km/h (1 Bft) W-SW 241 ° 0 min 0,000 mm 0,5 UV-I 67 W/m² 15,0 °C 16,3 °C 6,4 km/h (2 Bft)
20.07.2017 16:45 16,2 °C 16,3 °C 92 % 1012,4 hPa 0,0 mm 0,7 km/h (0 Bft) W-SW 242 ° 0 min 0,000 mm 0,5 UV-I 65 W/m² 14,9 °C 16,2 °C 1,6 km/h (1 Bft)
20.07.2017 16:46 16,2 °C 16,2 °C 92 % 1012,4 hPa 0,0 mm 2,2 km/h (1 Bft) W-SW 242 ° 0 min 0,000 mm 0,5 UV-I 63 W/m² 14,9 °C 16,2 °C 3,2 km/h (1 Bft)
20.07.2017 16:47 16,2 °C 16,3 °C 92 % 1012,4 hPa 0,0 mm 2,7 km/h (1 Bft) W 267 ° 0 min 0,000 mm 0,5 UV-I 62 W/m² 14,9 °C 16,2 °C 6,4 km/h (2 Bft)
20.07.2017 16:48 16,2 °C 16,3 °C 92 % 1012,4 hPa 0,0 mm 3,9 km/h (1 Bft) W 259 ° 0 min 0,000 mm 0,5 UV-I 63 W/m² 14,9 °C 16,2 °C 6,4 km/h (2 Bft)
20.07.2017 16:49 16,2 °C 16,3 °C 92 % 1012,4 hPa 0,0 mm 3,8 km/h (1 Bft) SW 232 ° 0 min 0,000 mm 0,5 UV-I 63 W/m² 14,9 °C 16,2 °C 6,4 km/h (2 Bft)
20.07.2017 16:50 16,2 °C 16,2 °C 92 % 1012,5 hPa 0,2 mm 1,3 km/h (1 Bft) SW 234 ° 0 min 0,000 mm 0,5 UV-I 65 W/m² 14,9 °C 16,2 °C 3,2 km/h (1 Bft)
20.07.2017 16:51 16,2 °C 16,2 °C 92 % 1012,5 hPa 0,0 mm 3,0 km/h (1 Bft) W-SW 252 ° 0 min 0,000 mm 0,5 UV-I 65 W/m² 14,9 °C 16,2 °C 4,8 km/h (1 Bft)
20.07.2017 16:52 16,2 °C 16,2 °C 92 % 1012,5 hPa 0,0 mm 4,4 km/h (1 Bft) W-SW 250 ° 0 min 0,000 mm 0,5 UV-I 62 W/m² 14,9 °C 16,2 °C 9,7 km/h (2 Bft)
20.07.2017 16:53 16,2 °C 16,2 °C 91 % 1012,5 hPa 0,0 mm 2,0 km/h (1 Bft) W-SW 250 ° 0 min 0,000 mm 0,0 UV-I 56 W/m² 14,7 °C 16,2 °C 4,8 km/h (1 Bft)
20.07.2017 16:54 16,2 °C 16,2 °C 91 % 1012,4 hPa 0,0 mm 0,7 km/h (0 Bft) W-SW 250 ° 0 min 0,000 mm 0,0 UV-I 49 W/m² 14,7 °C 16,2 °C 3,2 km/h (1 Bft)
20.07.2017 16:55 16,1 °C 16,2 °C 92 % 1012,3 hPa 0,0 mm 0,7 km/h (0 Bft) W-SW 250 ° 0 min 0,000 mm 0,0 UV-I 42 W/m² 14,8 °C 16,1 °C 1,6 km/h (1 Bft)
20.07.2017 16:56 16,1 °C 16,1 °C 92 % 1012,3 hPa 0,0 mm 0,4 km/h (0 Bft) W-SW 250 ° 0 min 0,000 mm 0,0 UV-I 39 W/m² 14,8 °C 16,1 °C 1,6 km/h (1 Bft)
20.07.2017 16:57 16,1 °C 16,1 °C 92 % 1012,2 hPa 0,0 mm 0,0 km/h (0 Bft) W-SW 250 ° 0 min 0,000 mm 0,0 UV-I 35 W/m² 14,8 °C 16,1 °C 0,0 km/h (0 Bft)
20.07.2017 16:58 16,0 °C 16,1 °C 92 % 1012,3 hPa 0,0 mm 0,8 km/h (0 Bft) SW 228 ° 0 min 0,000 mm 0,0 UV-I 37 W/m² 14,7 °C 16,0 °C 3,2 km/h (1 Bft)
20.07.2017 16:59 15,9 °C 16,0 °C 92 % 1012,4 hPa 0,0 mm 1,5 km/h (1 Bft) SW 228 ° 0 min 0,000 mm 0,0 UV-I 42 W/m² 14,6 °C 15,9 °C 3,2 km/h (1 Bft)
20.07.2017 17:00 15,9 °C 15,9 °C 92 % 1012,4 hPa 0,0 mm 0,1 km/h (0 Bft) SW 228 ° 0 min 0,000 mm 0,0 UV-I 47 W/m² 14,6 °C 15,9 °C 1,6 km/h (1 Bft)
20.07.2017 17:01 15,9 °C 15,9 °C 92 % 1012,3 hPa 0,0 mm 3,0 km/h (1 Bft) W 263 ° 0 min 0,025 mm 0,0 UV-I 51 W/m² 14,6 °C 15,9 °C 4,8 km/h (1 Bft)
20.07.2017 17:02 15,9 °C 15,9 °C 92 % 1012,3 hPa 0,0 mm 1,3 km/h (1 Bft) W 263 ° 0 min 0,000 mm 0,0 UV-I 54 W/m² 14,6 °C 15,9 °C 3,2 km/h (1 Bft)
20.07.2017 17:03 15,9 °C 15,9 °C 92 % 1012,3 hPa 0,0 mm 1,0 km/h (0 Bft) W-SW 240 ° 0 min 0,000 mm 0,5 UV-I 58 W/m² 14,6 °C 15,9 °C 3,2 km/h (1 Bft)
20.07.2017 17:04 15,9 °C 15,9 °C 92 % 1012,2 hPa 0,0 mm 1,4 km/h (1 Bft) W-SW 240 ° 0 min 0,000 mm 0,5 UV-I 63 W/m² 14,6 °C 15,9 °C 4,8 km/h (1 Bft)
20.07.2017 17:05 15,9 °C 15,9 °C 92 % 1012,2 hPa 0,0 mm 0,5 km/h (0 Bft) W-SW 240 ° 0 min 0,000 mm 0,5 UV-I 67 W/m² 14,6 °C 15,9 °C 1,6 km/h (1 Bft)
20.07.2017 17:06 15,9 °C 15,9 °C 92 % 1012,2 hPa 0,0 mm 0,7 km/h (0 Bft) W-SW 240 ° 0 min 0,000 mm 0,5 UV-I 70 W/m² 14,6 °C 15,9 °C 1,6 km/h (1 Bft)
20.07.2017 17:07 15,9 °C 15,9 °C 93 % 1012,2 hPa 0,0 mm 0,0 km/h (0 Bft) W-SW 240 ° 0 min 0,000 mm 0,5 UV-I 72 W/m² 14,8 °C 15,9 °C 0,0 km/h (0 Bft)
20.07.2017 17:08 15,9 °C 15,9 °C 93 % 1012,1 hPa 0,0 mm 0,0 km/h (0 Bft) W-SW 240 ° 0 min 0,000 mm 0,5 UV-I 72 W/m² 14,8 °C 15,9 °C 0,0 km/h (0 Bft)
20.07.2017 17:09 15,8 °C 15,9 °C 93 % 1012,1 hPa 0,0 mm 0,0 km/h (0 Bft) W-SW 240 ° 0 min 0,000 mm 0,5 UV-I 74 W/m² 14,7 °C 15,8 °C 0,0 km/h (0 Bft)
20.07.2017 17:10 15,8 °C 15,8 °C 93 % 1012,1 hPa 0,0 mm 1,1 km/h (1 Bft) W-SW 240 ° 0 min 0,000 mm 0,6 UV-I 77 W/m² 14,7 °C 15,8 °C 1,6 km/h (1 Bft)
20.07.2017 17:11 15,8 °C 15,8 °C 93 % 1012,1 hPa 0,0 mm 0,8 km/h (0 Bft) W-SW 242 ° 0 min 0,000 mm 0,6 UV-I 83 W/m² 14,7 °C 15,8 °C 3,2 km/h (1 Bft)
20.07.2017 17:12 15,8 °C 15,8 °C 93 % 1012,1 hPa 0,0 mm 0,4 km/h (0 Bft) W-SW 242 ° 0 min 0,000 mm 0,6 UV-I 86 W/m² 14,7 °C 15,8 °C 1,6 km/h (1 Bft)
20.07.2017 17:13 15,9 °C 15,9 °C 93 % 1012,0 hPa 0,0 mm 0,0 km/h (0 Bft) W-SW 242 ° 0 min 0,000 mm 0,6 UV-I 91 W/m² 14,8 °C 15,9 °C 0,0 km/h (0 Bft)
20.07.2017 17:14 15,9 °C 15,9 °C 93 % 1012,1 hPa 0,0 mm 0,3 km/h (0 Bft) W-SW 241 ° 0 min 0,000 mm 0,7 UV-I 97 W/m² 14,8 °C 15,9 °C 1,6 km/h (1 Bft)
20.07.2017 17:15 15,9 °C 15,9 °C 93 % 1012,1 hPa 0,0 mm 0,2 km/h (0 Bft) W-SW 242 ° 0 min 0,000 mm 0,7 UV-I 113 W/m² 14,8 °C 15,9 °C 1,6 km/h (1 Bft)
20.07.2017 17:16 15,9 °C 15,9 °C 93 % 1012,0 hPa 0,0 mm 0,2 km/h (0 Bft) W-SW 242 ° 0 min 0,000 mm 0,8 UV-I 125 W/m² 14,8 °C 15,9 °C 1,6 km/h (1 Bft)
20.07.2017 17:17 15,9 °C 15,9 °C 93 % 1012,0 hPa 0,0 mm 0,4 km/h (0 Bft) W-SW 241 ° 0 min 0,000 mm 0,9 UV-I 132 W/m² 14,8 °C 15,9 °C 1,6 km/h (1 Bft)
20.07.2017 17:18 15,9 °C 15,9 °C 94 % 1012,0 hPa 0,0 mm 0,0 km/h (0 Bft) W-SW 241 ° 0 min 0,000 mm 1,0 UV-I 142 W/m² 14,9 °C 15,9 °C 0,0 km/h (0 Bft)
20.07.2017 17:19 16,0 °C 16,0 °C 94 % 1012,0 hPa 0,0 mm 0,0 km/h (0 Bft) W-SW 241 ° 0 min 0,000 mm 1,0 UV-I 151 W/m² 15,0 °C 16,0 °C 0,0 km/h (0 Bft)
20.07.2017 17:20 16,1 °C 16,1 °C 94 % 1012,0 hPa 0,0 mm 0,0 km/h (0 Bft) W-SW 241 ° 0 min 0,000 mm 1,0 UV-I 153 W/m² 15,1 °C 16,1 °C 0,0 km/h (0 Bft)
20.07.2017 17:21 16,1 °C 16,1 °C 94 % 1012,0 hPa 0,0 mm 0,0 km/h (0 Bft) W-SW 241 ° 0 min 0,000 mm 1,0 UV-I 158 W/m² 15,1 °C 16,1 °C 0,0 km/h (0 Bft)
20.07.2017 17:22 16,1 °C 16,1 °C 94 % 1012,0 hPa 0,0 mm 0,0 km/h (0 Bft) W-SW 241 ° 0 min 0,000 mm 1,1 UV-I 167 W/m² 15,1 °C 16,1 °C 0,0 km/h (0 Bft)
20.07.2017 17:23 16,1 °C 16,1 °C 93 % 1012,0 hPa 0,0 mm 1,1 km/h (1 Bft) W-SW 242 ° 0 min 0,000 mm 1,2 UV-I 181 W/m² 15,0 °C 16,1 °C 3,2 km/h (1 Bft)
20.07.2017 17:24 16,1 °C 16,1 °C 93 % 1012,0 hPa 0,0 mm 0,8 km/h (0 Bft) N-NW 332 ° 0 min 0,000 mm 1,3 UV-I 204 W/m² 15,0 °C 16,1 °C 3,2 km/h (1 Bft)
20.07.2017 17:25 16,3 °C 16,3 °C 94 % 1012,0 hPa 0,0 mm 0,7 km/h (0 Bft) N-NW 332 ° 0 min 0,000 mm 1,5 UV-I 229 W/m² 15,3 °C 16,3 °C 1,6 km/h (1 Bft)
20.07.2017 17:26 16,3 °C 16,3 °C 93 % 1012,0 hPa 0,0 mm 0,0 km/h (0 Bft) N-NW 332 ° 0 min 0,000 mm 1,7 UV-I 260 W/m² 15,2 °C 16,3 °C 0,0 km/h (0 Bft)
20.07.2017 17:27 16,4 °C 16,4 °C 93 % 1012,0 hPa 0,0 mm 0,0 km/h (0 Bft) N-NW 332 ° 0 min 0,000 mm 1,9 UV-I 281 W/m² 15,3 °C 16,4 °C 0,0 km/h (0 Bft)
20.07.2017 17:28 16,6 °C 16,6 °C 93 % 1012,0 hPa 0,0 mm 0,0 km/h (0 Bft) N-NW 332 ° 0 min 0,000 mm 2,0 UV-I 285 W/m² 15,5 °C 16,6 °C 0,0 km/h (0 Bft)
20.07.2017 17:29 16,7 °C 16,7 °C 93 % 1012,0 hPa 0,0 mm 2,4 km/h (1 Bft) N-NW 339 ° 0 min 0,000 mm 2,0 UV-I 278 W/m² 15,6 °C 16,7 °C 3,2 km/h (1 Bft)
20.07.2017 17:30 16,7 °C 16,7 °C 91 % 1012,0 hPa 0,0 mm 3,9 km/h (1 Bft) N-NW 342 ° 0 min 0,000 mm 2,0 UV-I 265 W/m² 15,2 °C 16,7 °C 4,8 km/h (1 Bft)
20.07.2017 17:31 16,9 °C 16,9 °C 91 % 1012,0 hPa 0,0 mm 0,7 km/h (0 Bft) N-NW 343 ° 0 min 0,000 mm 2,0 UV-I 250 W/m² 15,4 °C 16,9 °C 3,2 km/h (1 Bft)
20.07.2017 17:32 17,1 °C 17,1 °C 91 % 1012,0 hPa 0,0 mm 1,0 km/h (0 Bft) N-NW 343 ° 0 min 0,000 mm 1,9 UV-I 239 W/m² 15,6 °C 17,1 °C 3,2 km/h (1 Bft)
20.07.2017 17:33 17,3 °C 17,3 °C 92 % 1012,0 hPa 0,0 mm 0,1 km/h (0 Bft) N-NW 343 ° 0 min 0,000 mm 1,9 UV-I 230 W/m² 16,0 °C 17,3 °C 1,6 km/h (1 Bft)
20.07.2017 17:34 17,3 °C 17,3 °C 90 % 1012,0 hPa 0,0 mm 0,0 km/h (0 Bft) N-NW 343 ° 0 min 0,000 mm 1,8 UV-I 229 W/m² 15,6 °C 17,3 °C 0,0 km/h (0 Bft)
20.07.2017 17:35 17,4 °C 17,4 °C 90 % 1012,0 hPa 0,0 mm 0,0 km/h (0 Bft) N-NW 343 ° 0 min 0,000 mm 1,7 UV-I 225 W/m² 15,7 °C 17,4 °C 0,0 km/h (0 Bft)
20.07.2017 17:36 17,5 °C 17,5 °C 91 % 1012,0 hPa 0,0 mm 0,0 km/h (0 Bft) N-NW 343 ° 0 min 0,000 mm 1,7 UV-I 218 W/m² 16,0 °C 17,5 °C 0,0 km/h (0 Bft)
20.07.2017 17:37 17,5 °C 17,5 °C 92 % 1012,1 hPa 0,0 mm 0,0 km/h (0 Bft) N-NW 343 ° 0 min 0,000 mm 1,6 UV-I 214 W/m² 16,2 °C 17,5 °C 0,0 km/h (0 Bft)
20.07.2017 17:38 17,5 °C 17,5 °C 92 % 1012,1 hPa 0,0 mm 0,3 km/h (0 Bft) N-NW 347 ° 0 min 0,000 mm 1,5 UV-I 207 W/m² 16,2 °C 17,5 °C 1,6 km/h (1 Bft)
20.07.2017 17:39 17,4 °C 17,5 °C 91 % 1012,0 hPa 0,0 mm 3,4 km/h (1 Bft) O-NO 67 ° 0 min 0,000 mm 1,5 UV-I 204 W/m² 15,9 °C 17,4 °C 4,8 km/h (1 Bft)
20.07.2017 17:40 17,4 °C 17,4 °C 91 % 1012,0 hPa 0,0 mm 3,1 km/h (1 Bft) O-NO 67 ° 0 min 0,000 mm 1,4 UV-I 195 W/m² 15,9 °C 17,4 °C 4,8 km/h (1 Bft)
20.07.2017 17:41 17,4 °C 17,4 °C 91 % 1012,1 hPa 0,0 mm 2,3 km/h (1 Bft) O-NO 67 ° 0 min 0,000 mm 1,4 UV-I 185 W/m² 15,9 °C 17,4 °C 4,8 km/h (1 Bft)
20.07.2017 17:42 17,4 °C 17,4 °C 92 % 1012,1 hPa 0,0 mm 2,0 km/h (1 Bft) O-NO 67 ° 0 min 0,000 mm 1,4 UV-I 185 W/m² 16,1 °C 17,4 °C 3,2 km/h (1 Bft)
20.07.2017 17:43 17,4 °C 17,5 °C 91 % 1012,1 hPa 0,0 mm 1,5 km/h (1 Bft) O 97 ° 0 min 0,000 mm 1,3 UV-I 163 W/m² 15,9 °C 17,4 °C 3,2 km/h (1 Bft)
20.07.2017 17:44 17,4 °C 17,4 °C 88 % 1012,1 hPa 0,0 mm 1,5 km/h (1 Bft) O 97 ° 0 min 0,000 mm 1,3 UV-I 155 W/m² 15,4 °C 17,4 °C 3,2 km/h (1 Bft)
20.07.2017 17:45 17,4 °C 17,4 °C 88 % 1012,1 hPa 0,0 mm 1,8 km/h (1 Bft) O 97 ° 0 min 0,000 mm 1,3 UV-I 141 W/m² 15,4 °C 17,4 °C 4,8 km/h (1 Bft)
20.07.2017 17:46 17,4 °C 17,4 °C 91 % 1012,2 hPa 0,0 mm 1,2 km/h (1 Bft) O 97 ° 0 min 0,000 mm 1,2 UV-I 135 W/m² 15,9 °C 17,4 °C 4,8 km/h (1 Bft)
20.07.2017 17:47 17,3 °C 17,4 °C 91 % 1012,2 hPa 0,0 mm 1,0 km/h (0 Bft) O 97 ° 0 min 0,000 mm 1,2 UV-I 134 W/m² 15,8 °C 17,3 °C 3,2 km/h (1 Bft)
20.07.2017 17:48 17,2 °C 17,3 °C 91 % 1012,2 hPa 0,0 mm 3,7 km/h (1 Bft) O-SO 115 ° 0 min 0,000 mm 1,2 UV-I 134 W/m² 15,7 °C 17,2 °C 4,8 km/h (1 Bft)
20.07.2017 17:49 17,1 °C 17,2 °C 91 % 1012,2 hPa 0,0 mm 2,3 km/h (1 Bft) O-SO 115 ° 0 min 0,000 mm 1,2 UV-I 130 W/m² 15,6 °C 17,1 °C 3,2 km/h (1 Bft)
20.07.2017 17:50 16,9 °C 17,1 °C 91 % 1012,2 hPa 0,0 mm 2,8 km/h (1 Bft) O-SO 115 ° 0 min 0,000 mm 1,1 UV-I 130 W/m² 15,4 °C 16,9 °C 3,2 km/h (1 Bft)
20.07.2017 17:51 16,8 °C 16,9 °C 91 % 1012,2 hPa 0,0 mm 2,1 km/h (1 Bft) O-SO 115 ° 0 min 0,000 mm 1,1 UV-I 130 W/m² 15,3 °C 16,8 °C 3,2 km/h (1 Bft)
20.07.2017 17:52 16,7 °C 16,8 °C 92 % 1012,2 hPa 0,0 mm 2,3 km/h (1 Bft) O-SO 115 ° 0 min 0,000 mm 1,1 UV-I 130 W/m² 15,4 °C 16,7 °C 3,2 km/h (1 Bft)
20.07.2017 17:53 16,6 °C 16,7 °C 92 % 1012,2 hPa 0,0 mm 1,0 km/h (0 Bft) O-SO 115 ° 0 min 0,000 mm 1,1 UV-I 132 W/m² 15,3 °C 16,6 °C 3,2 km/h (1 Bft)
20.07.2017 17:54 16,6 °C 16,6 °C 93 % 1012,2 hPa 0,0 mm 0,0 km/h (0 Bft) O-SO 115 ° 0 min 0,000 mm 1,1 UV-I 132 W/m² 15,5 °C 16,6 °C 0,0 km/h (0 Bft)
20.07.2017 17:55 16,6 °C 16,6 °C 93 % 1012,2 hPa 0,0 mm 0,1 km/h (0 Bft) O-SO 115 ° 0 min 0,000 mm 1,1 UV-I 134 W/m² 15,5 °C 16,6 °C 1,6 km/h (1 Bft)
20.07.2017 17:56 16,6 °C 16,6 °C 93 % 1012,3 hPa 0,0 mm 1,1 km/h (1 Bft) O-SO 115 ° 0 min 0,000 mm 1,1 UV-I 134 W/m² 15,5 °C 16,6 °C 1,6 km/h (1 Bft)
20.07.2017 17:57 16,6 °C 16,6 °C 93 % 1012,3 hPa 0,0 mm 0,0 km/h (0 Bft) O-SO 115 ° 0 min 0,000 mm 1,1 UV-I 135 W/m² 15,5 °C 16,6 °C 0,0 km/h (0 Bft)
20.07.2017 17:59 16,6 °C 16,6 °C 93 % 1012,3 hPa 0,0 mm 1,4 km/h (1 Bft) O 90 ° 0 min 0,000 mm 1,1 UV-I 135 W/m² 15,5 °C 16,6 °C 4,8 km/h (1 Bft)
20.07.2017 18:00 16,6 °C 16,7 °C 93 % 1012,3 hPa 0,0 mm 1,9 km/h (1 Bft) O-NO 76 ° 0 min 0,000 mm 1,0 UV-I 135 W/m² 15,5 °C 16,6 °C 3,2 km/h (1 Bft)
20.07.2017 18:01 16,7 °C 16,7 °C 93 % 1012,3 hPa 0,0 mm 0,1 km/h (0 Bft) O-NO 76 ° 0 min 0,076 mm 1,0 UV-I 135 W/m² 15,6 °C 16,7 °C 1,6 km/h (1 Bft)
20.07.2017 18:02 16,6 °C 16,7 °C 93 % 1012,3 hPa 0,0 mm 0,0 km/h (0 Bft) O-NO 76 ° 0 min 0,000 mm 1,0 UV-I 134 W/m² 15,5 °C 16,6 °C 0,0 km/h (0 Bft)
20.07.2017 18:03 16,6 °C 16,7 °C 93 % 1012,3 hPa 0,0 mm 0,0 km/h (0 Bft) O-NO 76 ° 0 min 0,000 mm 1,0 UV-I 132 W/m² 15,5 °C 16,6 °C 0,0 km/h (0 Bft)
20.07.2017 18:04 16,6 °C 16,6 °C 93 % 1012,3 hPa 0,0 mm 0,0 km/h (0 Bft) O-NO 75 ° 0 min 0,000 mm 1,0 UV-I 130 W/m² 15,5 °C 16,6 °C 0,0 km/h (0 Bft)
20.07.2017 18:05 16,6 °C 16,6 °C 93 % 1012,3 hPa 0,0 mm 0,3 km/h (0 Bft) O-NO 75 ° 0 min 0,000 mm 0,9 UV-I 128 W/m² 15,5 °C 16,6 °C 1,6 km/h (1 Bft)
20.07.2017 18:06 16,6 °C 16,6 °C 93 % 1012,3 hPa 0,0 mm 1,4 km/h (1 Bft) O-NO 75 ° 0 min 0,000 mm 0,9 UV-I 127 W/m² 15,5 °C 16,6 °C 3,2 km/h (1 Bft)
20.07.2017 18:07 16,6 °C 16,6 °C 93 % 1012,3 hPa 0,0 mm 0,1 km/h (0 Bft) O-NO 75 ° 0 min 0,000 mm 0,9 UV-I 125 W/m² 15,5 °C 16,6 °C 1,6 km/h (1 Bft)
20.07.2017 18:08 16,5 °C 16,6 °C 93 % 1012,2 hPa 0,0 mm 0,0 km/h (0 Bft) O-NO 75 ° 0 min 0,000 mm 0,9 UV-I 120 W/m² 15,4 °C 16,5 °C 0,0 km/h (0 Bft)
20.07.2017 18:09 16,5 °C 16,6 °C 93 % 1012,2 hPa 0,0 mm 0,0 km/h (0 Bft) O-NO 75 ° 0 min 0,000 mm 0,8 UV-I 120 W/m² 15,4 °C 16,5 °C 0,0 km/h (0 Bft)
20.07.2017 18:10 16,5 °C 16,6 °C 93 % 1012,3 hPa 0,0 mm 0,0 km/h (0 Bft) O-NO 75 ° 0 min 0,000 mm 0,8 UV-I 118 W/m² 15,4 °C 16,5 °C 0,0 km/h (0 Bft)
20.07.2017 18:11 16,5 °C 16,5 °C 93 % 1012,3 hPa 0,0 mm 0,0 km/h (0 Bft) O-NO 75 ° 0 min 0,000 mm 0,8 UV-I 116 W/m² 15,4 °C 16,5 °C 0,0 km/h (0 Bft)
20.07.2017 18:12 16,4 °C 16,5 °C 93 % 1012,3 hPa 0,0 mm 0,0 km/h (0 Bft) O-NO 75 ° 0 min 0,000 mm 0,8 UV-I 116 W/m² 15,3 °C 16,4 °C 0,0 km/h (0 Bft)
20.07.2017 18:13 16,4 °C 16,4 °C 93 % 1012,3 hPa 0,0 mm 0,6 km/h (0 Bft) O-NO 75 ° 0 min 0,000 mm 0,8 UV-I 116 W/m² 15,3 °C 16,4 °C 3,2 km/h (1 Bft)
20.07.2017 18:14 16,3 °C 16,4 °C 93 % 1012,3 hPa 0,0 mm 0,7 km/h (0 Bft) O-NO 75 ° 0 min 0,000 mm 0,8 UV-I 118 W/m² 15,2 °C 16,3 °C 3,2 km/h (1 Bft)
20.07.2017 18:15 16,3 °C 16,3 °C 93 % 1012,3 hPa 0,0 mm 0,0 km/h (0 Bft) O-NO 75 ° 0 min 0,000 mm 0,8 UV-I 118 W/m² 15,2 °C 16,3 °C 0,0 km/h (0 Bft)
20.07.2017 18:16 16,3 °C 16,3 °C 93 % 1012,3 hPa 0,0 mm 0,0 km/h (0 Bft) O-NO 75 ° 0 min 0,000 mm 0,8 UV-I 120 W/m² 15,2 °C 16,3 °C 0,0 km/h (0 Bft)
20.07.2017 18:17 16,3 °C 16,3 °C 93 % 1012,3 hPa 0,0 mm 0,0 km/h (0 Bft) O-NO 75 ° 0 min 0,000 mm 0,8 UV-I 123 W/m² 15,2 °C 16,3 °C 0,0 km/h (0 Bft)
20.07.2017 18:18 16,3 °C 16,3 °C 93 % 1012,3 hPa 0,0 mm 0,0 km/h (0 Bft) O-NO 75 ° 0 min 0,000 mm 0,8 UV-I 127 W/m² 15,2 °C 16,3 °C 0,0 km/h (0 Bft)
20.07.2017 18:19 16,3 °C 16,3 °C 93 % 1012,4 hPa 0,0 mm 0,9 km/h (0 Bft) O-NO 75 ° 0 min 0,000 mm 0,8 UV-I 128 W/m² 15,2 °C 16,3 °C 1,6 km/h (1 Bft)
20.07.2017 18:20 16,3 °C 16,3 °C 93 % 1012,4 hPa 0,0 mm 0,0 km/h (0 Bft) O-NO 75 ° 0 min 0,000 mm 0,9 UV-I 137 W/m² 15,2 °C 16,3 °C 0,0 km/h (0 Bft)
20.07.2017 18:21 16,3 °C 16,3 °C 93 % 1012,4 hPa 0,0 mm 0,0 km/h (0 Bft) O-NO 75 ° 0 min 0,000 mm 0,9 UV-I 141 W/m² 15,2 °C 16,3 °C 0,0 km/h (0 Bft)
20.07.2017 18:22 16,3 °C 16,3 °C 93 % 1012,4 hPa 0,0 mm 0,0 km/h (0 Bft) O-NO 75 ° 0 min 0,000 mm 0,9 UV-I 144 W/m² 15,2 °C 16,3 °C 0,0 km/h (0 Bft)
20.07.2017 18:23 16,3 °C 16,3 °C 93 % 1012,4 hPa 0,0 mm 0,0 km/h (0 Bft) O-NO 75 ° 0 min 0,000 mm 0,9 UV-I 148 W/m² 15,2 °C 16,3 °C 0,0 km/h (0 Bft)
20.07.2017 18:24 16,3 °C 16,3 °C 94 % 1012,4 hPa 0,0 mm 0,0 km/h (0 Bft) O-NO 75 ° 0 min 0,000 mm 1,0 UV-I 151 W/m² 15,3 °C 16,3 °C 0,0 km/h (0 Bft)
20.07.2017 18:25 16,4 °C 16,4 °C 94 % 1012,4 hPa 0,0 mm 0,2 km/h (0 Bft) O-NO 75 ° 0 min 0,000 mm 1,0 UV-I 155 W/m² 15,4 °C 16,4 °C 1,6 km/h (1 Bft)
20.07.2017 18:26 16,4 °C 16,4 °C 93 % 1012,4 hPa 0,0 mm 2,9 km/h (1 Bft) O-NO 75 ° 0 min 0,000 mm 1,0 UV-I 162 W/m² 15,3 °C 16,4 °C 3,2 km/h (1 Bft)
20.07.2017 18:27 16,5 °C 16,5 °C 93 % 1012,4 hPa 0,0 mm 0,5 km/h (0 Bft) O-NO 75 ° 0 min 0,000 mm 1,0 UV-I 165 W/m² 15,4 °C 16,5 °C 1,6 km/h (1 Bft)
20.07.2017 18:28 16,6 °C 16,6 °C 93 % 1012,4 hPa 0,0 mm 0,7 km/h (0 Bft) O-NO 75 ° 0 min 0,000 mm 1,1 UV-I 167 W/m² 15,5 °C 16,6 °C 3,2 km/h (1 Bft)
20.07.2017 18:29 16,6 °C 16,6 °C 93 % 1012,4 hPa 0,0 mm 1,1 km/h (1 Bft) O-NO 75 ° 0 min 0,000 mm 1,1 UV-I 169 W/m² 15,5 °C 16,6 °C 3,2 km/h (1 Bft)
20.07.2017 18:30 16,7 °C 16,7 °C 92 % 1012,4 hPa 0,0 mm 2,2 km/h (1 Bft) O 80 ° 0 min 0,000 mm 1,1 UV-I 171 W/m² 15,4 °C 16,7 °C 4,8 km/h (1 Bft)
20.07.2017 18:31 16,7 °C 16,7 °C 92 % 1012,4 hPa 0,0 mm 2,0 km/h (1 Bft) O 80 ° 0 min 0,000 mm 1,1 UV-I 174 W/m² 15,4 °C 16,7 °C 3,2 km/h (1 Bft)
20.07.2017 18:32 16,8 °C 16,8 °C 92 % 1012,4 hPa 0,0 mm 2,1 km/h (1 Bft) O 80 ° 0 min 0,000 mm 1,1 UV-I 172 W/m² 15,5 °C 16,8 °C 3,2 km/h (1 Bft)
20.07.2017 18:33 16,9 °C 16,9 °C 92 % 1012,4 hPa 0,0 mm 3,6 km/h (1 Bft) NO 53 ° 0 min 0,000 mm 1,1 UV-I 172 W/m² 15,6 °C 16,9 °C 6,4 km/h (2 Bft)
20.07.2017 18:34 17,1 °C 17,1 °C 92 % 1012,4 hPa 0,0 mm 3,3 km/h (1 Bft) NO 52 ° 0 min 0,000 mm 1,2 UV-I 172 W/m² 15,8 °C 17,1 °C 4,8 km/h (1 Bft)
20.07.2017 18:35 17,2 °C 17,2 °C 91 % 1012,4 hPa 0,0 mm 1,4 km/h (1 Bft) NO 52 ° 0 min 0,000 mm 1,2 UV-I 169 W/m² 15,7 °C 17,2 °C 3,2 km/h (1 Bft)
20.07.2017 18:36 17,3 °C 17,3 °C 91 % 1012,4 hPa 0,0 mm 0,1 km/h (0 Bft) NO 52 ° 0 min 0,000 mm 1,2 UV-I 167 W/m² 15,8 °C 17,3 °C 1,6 km/h (1 Bft)
20.07.2017 18:37 17,3 °C 17,3 °C 91 % 1012,4 hPa 0,0 mm 1,9 km/h (1 Bft) O-SO 117 ° 0 min 0,000 mm 1,2 UV-I 162 W/m² 15,8 °C 17,3 °C 4,8 km/h (1 Bft)
20.07.2017 18:38 17,3 °C 17,3 °C 90 % 1012,4 hPa 0,0 mm 2,6 km/h (1 Bft) O 87 ° 0 min 0,000 mm 1,2 UV-I 158 W/m² 15,6 °C 17,3 °C 4,8 km/h (1 Bft)
20.07.2017 18:39 17,3 °C 17,3 °C 90 % 1012,4 hPa 0,0 mm 2,2 km/h (1 Bft) O-SO 104 ° 0 min 0,000 mm 1,2 UV-I 155 W/m² 15,6 °C 17,3 °C 4,8 km/h (1 Bft)
20.07.2017 18:40 17,4 °C 17,4 °C 90 % 1012,4 hPa 0,0 mm 2,2 km/h (1 Bft) O-SO 104 ° 0 min 0,000 mm 1,2 UV-I 149 W/m² 15,7 °C 17,4 °C 4,8 km/h (1 Bft)
20.07.2017 18:41 17,4 °C 17,4 °C 89 % 1012,4 hPa 0,0 mm 1,0 km/h (0 Bft) O-NO 66 ° 0 min 0,000 mm 1,2 UV-I 144 W/m² 15,6 °C 17,4 °C 3,2 km/h (1 Bft)
20.07.2017 18:42 17,5 °C 17,5 °C 89 % 1012,3 hPa 0,0 mm 2,4 km/h (1 Bft) O 90 ° 0 min 0,000 mm 1,1 UV-I 139 W/m² 15,7 °C 17,5 °C 4,8 km/h (1 Bft)
20.07.2017 18:43 17,5 °C 17,5 °C 88 % 1012,3 hPa 0,0 mm 1,5 km/h (1 Bft) O 90 ° 0 min 0,000 mm 1,1 UV-I 135 W/m² 15,5 °C 17,5 °C 3,2 km/h (1 Bft)
20.07.2017 18:44 17,6 °C 17,6 °C 88 % 1012,3 hPa 0,0 mm 1,2 km/h (1 Bft) O 90 ° 0 min 0,000 mm 1,1 UV-I 127 W/m² 15,6 °C 17,6 °C 1,6 km/h (1 Bft)
20.07.2017 18:45 17,6 °C 17,6 °C 89 % 1012,3 hPa 0,0 mm 0,5 km/h (0 Bft) O 90 ° 0 min 0,000 mm 1,1 UV-I 121 W/m² 15,8 °C 17,6 °C 1,6 km/h (1 Bft)
20.07.2017 18:46 17,6 °C 17,6 °C 88 % 1012,3 hPa 0,0 mm 0,9 km/h (0 Bft) O-NO 71 ° 0 min 0,000 mm 1,1 UV-I 118 W/m² 15,6 °C 17,6 °C 3,2 km/h (1 Bft)
20.07.2017 18:47 17,7 °C 17,7 °C 88 % 1012,3 hPa 0,0 mm 3,4 km/h (1 Bft) O-NO 66 ° 0 min 0,000 mm 1,1 UV-I 114 W/m² 15,7 °C 17,7 °C 4,8 km/h (1 Bft)
20.07.2017 18:48 17,8 °C 17,8 °C 90 % 1012,3 hPa 0,0 mm 3,4 km/h (1 Bft) NO 53 ° 0 min 0,000 mm 1,1 UV-I 113 W/m² 16,1 °C 17,8 °C 6,4 km/h (2 Bft)
20.07.2017 18:49 17,7 °C 17,8 °C 87 % 1012,3 hPa 0,0 mm 1,2 km/h (1 Bft) O-NO 57 ° 0 min 0,000 mm 1,1 UV-I 109 W/m² 15,5 °C 17,7 °C 3,2 km/h (1 Bft)
20.07.2017 18:50 17,7 °C 17,7 °C 86 % 1012,3 hPa 0,0 mm 1,9 km/h (1 Bft) O 92 ° 0 min 0,000 mm 1,0 UV-I 107 W/m² 15,3 °C 17,7 °C 3,2 km/h (1 Bft)
20.07.2017 18:51 17,7 °C 17,7 °C 87 % 1012,3 hPa 0,0 mm 0,7 km/h (0 Bft) O 92 ° 0 min 0,000 mm 1,0 UV-I 123 W/m² 15,5 °C 17,7 °C 1,6 km/h (1 Bft)
20.07.2017 18:52 17,7 °C 17,7 °C 87 % 1012,3 hPa 0,0 mm 0,0 km/h (0 Bft) O 92 ° 0 min 0,000 mm 1,1 UV-I 144 W/m² 15,5 °C 17,7 °C 0,0 km/h (0 Bft)
20.07.2017 18:53 17,7 °C 17,7 °C 87 % 1012,3 hPa 0,0 mm 0,3 km/h (0 Bft) O 92 ° 0 min 0,000 mm 1,1 UV-I 134 W/m² 15,5 °C 17,7 °C 1,6 km/h (1 Bft)
20.07.2017 18:54 17,8 °C 17,8 °C 87 % 1012,3 hPa 0,0 mm 0,4 km/h (0 Bft) O 92 ° 0 min 0,000 mm 1,1 UV-I 125 W/m² 15,6 °C 17,8 °C 1,6 km/h (1 Bft)
20.07.2017 18:55 17,7 °C 17,8 °C 88 % 1012,3 hPa 0,0 mm 0,0 km/h (0 Bft) O 92 ° 0 min 0,000 mm 1,1 UV-I 120 W/m² 15,7 °C 17,7 °C 0,0 km/h (0 Bft)
20.07.2017 18:56 17,7 °C 17,7 °C 86 % 1012,3 hPa 0,0 mm 0,0 km/h (0 Bft) O 92 ° 0 min 0,000 mm 1,0 UV-I 116 W/m² 15,3 °C 17,7 °C 0,0 km/h (0 Bft)
20.07.2017 18:57 17,7 °C 17,7 °C 88 % 1012,3 hPa 0,0 mm 0,0 km/h (0 Bft) O 92 ° 0 min 0,000 mm 1,0 UV-I 109 W/m² 15,7 °C 17,7 °C 0,0 km/h (0 Bft)
20.07.2017 18:58 17,7 °C 17,7 °C 87 % 1012,2 hPa 0,0 mm 0,0 km/h (0 Bft) O 92 ° 0 min 0,000 mm 1,0 UV-I 105 W/m² 15,5 °C 17,7 °C 0,0 km/h (0 Bft)
20.07.2017 18:59 17,8 °C 17,8 °C 88 % 1012,2 hPa 0,0 mm 1,1 km/h (1 Bft) O 92 ° 0 min 0,000 mm 1,0 UV-I 135 W/m² 15,8 °C 17,8 °C 1,6 km/h (1 Bft)
20.07.2017 19:00 17,7 °C 17,8 °C 88 % 1012,2 hPa 0,0 mm 1,1 km/h (1 Bft) O 92 ° 0 min 0,077 mm 1,0 UV-I 142 W/m² 15,7 °C 17,7 °C 1,6 km/h (1 Bft)
20.07.2017 19:01 17,7 °C 17,8 °C 89 % 1012,2 hPa 0,0 mm 0,4 km/h (0 Bft) O 92 ° 0 min 0,000 mm 1,0 UV-I 127 W/m² 15,9 °C 17,7 °C 1,6 km/h (1 Bft)
20.07.2017 19:02 17,7 °C 17,7 °C 90 % 1012,2 hPa 0,0 mm 0,5 km/h (0 Bft) O 92 ° 0 min 0,000 mm 1,0 UV-I 128 W/m² 16,0 °C 17,7 °C 3,2 km/h (1 Bft)
20.07.2017 19:03 17,7 °C 17,7 °C 89 % 1012,2 hPa 0,0 mm 0,3 km/h (0 Bft) O 92 ° 0 min 0,000 mm 0,9 UV-I 130 W/m² 15,9 °C 17,7 °C 1,6 km/h (1 Bft)
20.07.2017 19:04 17,8 °C 17,8 °C 88 % 1012,2 hPa 0,0 mm 0,0 km/h (0 Bft) O 92 ° 0 min 0,000 mm 0,9 UV-I 116 W/m² 15,8 °C 17,8 °C 0,0 km/h (0 Bft)
20.07.2017 19:05 17,8 °C 17,8 °C 90 % 1012,2 hPa 0,0 mm 1,1 km/h (1 Bft) O 92 ° 0 min 0,000 mm 0,9 UV-I 113 W/m² 16,1 °C 17,8 °C 3,2 km/h (1 Bft)
20.07.2017 19:06 17,8 °C 17,8 °C 90 % 1012,2 hPa 0,0 mm 1,5 km/h (1 Bft) O 92 ° 0 min 0,000 mm 0,9 UV-I 95 W/m² 16,1 °C 17,8 °C 3,2 km/h (1 Bft)
20.07.2017 19:07 17,7 °C 17,8 °C 90 % 1012,2 hPa 0,0 mm 2,9 km/h (1 Bft) O 91 ° 0 min 0,000 mm 0,9 UV-I 93 W/m² 16,0 °C 17,7 °C 4,8 km/h (1 Bft)
20.07.2017 19:08 17,7 °C 17,7 °C 90 % 1012,2 hPa 0,0 mm 0,8 km/h (0 Bft) O 91 ° 0 min 0,000 mm 0,9 UV-I 97 W/m² 16,0 °C 17,7 °C 3,2 km/h (1 Bft)
20.07.2017 19:09 17,7 °C 17,7 °C 90 % 1012,2 hPa 0,0 mm 0,0 km/h (0 Bft) O 91 ° 0 min 0,000 mm 0,9 UV-I 97 W/m² 16,0 °C 17,7 °C 0,0 km/h (0 Bft)
20.07.2017 19:10 17,7 °C 17,7 °C 90 % 1012,2 hPa 0,0 mm 0,6 km/h (0 Bft) O 91 ° 0 min 0,000 mm 0,9 UV-I 95 W/m² 16,0 °C 17,7 °C 3,2 km/h (1 Bft)
20.07.2017 19:11 17,7 °C 17,7 °C 90 % 1012,2 hPa 0,0 mm 2,2 km/h (1 Bft) O 91 ° 0 min 0,000 mm 0,9 UV-I 90 W/m² 16,0 °C 17,7 °C 4,8 km/h (1 Bft)
20.07.2017 19:12 17,7 °C 17,7 °C 89 % 1012,1 hPa 0,0 mm 1,1 km/h (1 Bft) O-NO 65 ° 0 min 0,000 mm 0,8 UV-I 98 W/m² 15,9 °C 17,7 °C 3,2 km/h (1 Bft)
20.07.2017 19:13 17,8 °C 17,8 °C 89 % 1012,1 hPa 0,0 mm 0,0 km/h (0 Bft) O-NO 65 ° 0 min 0,000 mm 0,8 UV-I 90 W/m² 16,0 °C 17,8 °C 0,0 km/h (0 Bft)
20.07.2017 19:14 17,8 °C 17,8 °C 89 % 1012,1 hPa 0,0 mm 0,1 km/h (0 Bft) O-NO 65 ° 0 min 0,000 mm 0,8 UV-I 84 W/m² 16,0 °C 17,8 °C 1,6 km/h (1 Bft)
20.07.2017 19:15 17,9 °C 17,9 °C 89 % 1012,1 hPa 0,0 mm 1,4 km/h (1 Bft) O-NO 65 ° 0 min 0,000 mm 0,8 UV-I 86 W/m² 16,1 °C 17,9 °C 3,2 km/h (1 Bft)
20.07.2017 19:16 17,9 °C 17,9 °C 89 % 1012,1 hPa 0,0 mm 2,5 km/h (1 Bft) O-NO 65 ° 0 min 0,000 mm 0,8 UV-I 95 W/m² 16,1 °C 17,9 °C 3,2 km/h (1 Bft)
20.07.2017 19:17 18,0 °C 18,0 °C 89 % 1012,1 hPa 0,0 mm 1,2 km/h (1 Bft) O-NO 65 ° 0 min 0,000 mm 0,8 UV-I 102 W/m² 16,2 °C 18,0 °C 3,2 km/h (1 Bft)
20.07.2017 19:18 17,9 °C 18,0 °C 90 % 1012,1 hPa 0,0 mm 2,4 km/h (1 Bft) O-NO 65 ° 0 min 0,000 mm 0,7 UV-I 77 W/m² 16,2 °C 17,9 °C 3,2 km/h (1 Bft)
20.07.2017 19:19 17,9 °C 17,9 °C 90 % 1012,1 hPa 0,0 mm 2,7 km/h (1 Bft) O-NO 65 ° 0 min 0,000 mm 0,7 UV-I 84 W/m² 16,2 °C 17,9 °C 3,2 km/h (1 Bft)
20.07.2017 19:20 17,9 °C 17,9 °C 91 % 1012,0 hPa 0,0 mm 1,0 km/h (0 Bft) O-NO 65 ° 0 min 0,000 mm 0,7 UV-I 79 W/m² 16,4 °C 17,9 °C 3,2 km/h (1 Bft)
20.07.2017 19:21 17,9 °C 17,9 °C 90 % 1012,1 hPa 0,0 mm 0,0 km/h (0 Bft) O-NO 65 ° 0 min 0,000 mm 0,7 UV-I 83 W/m² 16,2 °C 17,9 °C 0,0 km/h (0 Bft)
20.07.2017 19:22 17,9 °C 17,9 °C 89 % 1012,1 hPa 0,0 mm 0,0 km/h (0 Bft) O-NO 65 ° 0 min 0,000 mm 0,7 UV-I 77 W/m² 16,1 °C 17,9 °C 0,0 km/h (0 Bft)
20.07.2017 19:23 18,0 °C 18,0 °C 90 % 1012,1 hPa 0,0 mm 0,0 km/h (0 Bft) O-NO 65 ° 0 min 0,000 mm 0,7 UV-I 70 W/m² 16,3 °C 18,0 °C 0,0 km/h (0 Bft)
20.07.2017 19:24 18,1 °C 18,1 °C 90 % 1012,1 hPa 0,0 mm 0,0 km/h (0 Bft) O-NO 65 ° 0 min 0,000 mm 0,7 UV-I 67 W/m² 16,4 °C 18,1 °C 0,0 km/h (0 Bft)
20.07.2017 19:25 18,1 °C 18,1 °C 88 % 1012,1 hPa 0,0 mm 0,1 km/h (0 Bft) O-NO 65 ° 0 min 0,000 mm 0,6 UV-I 65 W/m² 16,1 °C 18,1 °C 1,6 km/h (1 Bft)
20.07.2017 19:26 18,2 °C 18,2 °C 87 % 1012,1 hPa 0,0 mm 0,5 km/h (0 Bft) O-NO 65 ° 0 min 0,000 mm 0,6 UV-I 65 W/m² 16,0 °C 18,2 °C 1,6 km/h (1 Bft)
20.07.2017 19:27 18,2 °C 18,2 °C 88 % 1012,0 hPa 0,0 mm 1,2 km/h (1 Bft) O-NO 65 ° 0 min 0,000 mm 0,6 UV-I 70 W/m² 16,2 °C 18,2 °C 3,2 km/h (1 Bft)
20.07.2017 19:28 18,2 °C 18,2 °C 87 % 1012,0 hPa 0,0 mm 2,7 km/h (1 Bft) NO 49 ° 0 min 0,000 mm 0,6 UV-I 81 W/m² 16,0 °C 18,2 °C 4,8 km/h (1 Bft)
20.07.2017 19:29 18,2 °C 18,2 °C 87 % 1012,0 hPa 0,0 mm 2,9 km/h (1 Bft) W 277 ° 0 min 0,000 mm 0,6 UV-I 88 W/m² 16,0 °C 18,2 °C 4,8 km/h (1 Bft)
20.07.2017 19:30 18,2 °C 18,2 °C 88 % 1012,0 hPa 0,0 mm 1,3 km/h (1 Bft) W 277 ° 0 min 0,000 mm 0,6 UV-I 63 W/m² 16,2 °C 18,2 °C 3,2 km/h (1 Bft)
20.07.2017 19:31 18,2 °C 18,2 °C 88 % 1012,0 hPa 0,0 mm 0,7 km/h (0 Bft) W 277 ° 0 min 0,000 mm 0,6 UV-I 70 W/m² 16,2 °C 18,2 °C 3,2 km/h (1 Bft)
20.07.2017 19:32 18,2 °C 18,2 °C 88 % 1011,9 hPa 0,0 mm 1,1 km/h (1 Bft) W 277 ° 0 min 0,000 mm 0,6 UV-I 72 W/m² 16,2 °C 18,2 °C 1,6 km/h (1 Bft)
20.07.2017 19:33 18,2 °C 18,2 °C 89 % 1011,9 hPa 0,0 mm 0,1 km/h (0 Bft) W 277 ° 0 min 0,000 mm 0,6 UV-I 79 W/m² 16,4 °C 18,2 °C 1,6 km/h (1 Bft)
20.07.2017 19:34 18,2 °C 18,2 °C 90 % 1012,0 hPa 0,0 mm 1,7 km/h (1 Bft) W 277 ° 0 min 0,000 mm 0,6 UV-I 83 W/m² 16,5 °C 18,2 °C 3,2 km/h (1 Bft)
20.07.2017 19:35 18,3 °C 18,3 °C 89 % 1011,9 hPa 0,0 mm 0,0 km/h (0 Bft) W 277 ° 0 min 0,000 mm 0,6 UV-I 98 W/m² 16,5 °C 18,3 °C 0,0 km/h (0 Bft)
20.07.2017 19:36 18,3 °C 18,3 °C 90 % 1011,9 hPa 0,0 mm 0,0 km/h (0 Bft) W 277 ° 0 min 0,000 mm 0,6 UV-I 160 W/m² 16,6 °C 18,3 °C 0,0 km/h (0 Bft)
20.07.2017 19:37 18,3 °C 18,3 °C 89 % 1012,0 hPa 0,0 mm 0,0 km/h (0 Bft) W 277 ° 0 min 0,000 mm 0,5 UV-I 158 W/m² 16,5 °C 18,3 °C 0,0 km/h (0 Bft)
20.07.2017 19:38 18,2 °C 18,3 °C 89 % 1012,0 hPa 0,0 mm 0,0 km/h (0 Bft) W 277 ° 0 min 0,000 mm 0,5 UV-I 155 W/m² 16,4 °C 18,2 °C 0,0 km/h (0 Bft)
20.07.2017 19:39 18,2 °C 18,2 °C 90 % 1012,0 hPa 0,0 mm 0,1 km/h (0 Bft) W 277 ° 0 min 0,000 mm 0,5 UV-I 151 W/m² 16,5 °C 18,2 °C 1,6 km/h (1 Bft)
20.07.2017 19:40 18,1 °C 18,2 °C 90 % 1012,0 hPa 0,0 mm 0,0 km/h (0 Bft) W 277 ° 0 min 0,000 mm 0,5 UV-I 148 W/m² 16,4 °C 18,1 °C 0,0 km/h (0 Bft)
20.07.2017 19:41 18,1 °C 18,1 °C 90 % 1012,0 hPa 0,0 mm 0,0 km/h (0 Bft) W 277 ° 0 min 0,000 mm 0,5 UV-I 146 W/m² 16,4 °C 18,1 °C 0,0 km/h (0 Bft)
20.07.2017 19:42 18,0 °C 18,1 °C 90 % 1011,9 hPa 0,0 mm 0,0 km/h (0 Bft) W 277 ° 0 min 0,000 mm 0,5 UV-I 141 W/m² 16,3 °C 18,0 °C 0,0 km/h (0 Bft)
20.07.2017 19:43 17,9 °C 18,0 °C 90 % 1012,0 hPa 0,0 mm 0,0 km/h (0 Bft) W 277 ° 0 min 0,000 mm 0,5 UV-I 137 W/m² 16,2 °C 17,9 °C 0,0 km/h (0 Bft)
20.07.2017 19:44 17,9 °C 17,9 °C 90 % 1012,0 hPa 0,0 mm 0,1 km/h (0 Bft) W 277 ° 0 min 0,000 mm 0,5 UV-I 132 W/m² 16,2 °C 17,9 °C 1,6 km/h (1 Bft)
20.07.2017 19:45 17,8 °C 17,9 °C 91 % 1012,0 hPa 0,0 mm 1,1 km/h (1 Bft) N 355 ° 0 min 0,000 mm 0,5 UV-I 128 W/m² 16,3 °C 17,8 °C 3,2 km/h (1 Bft)
20.07.2017 19:46 17,7 °C 17,8 °C 91 % 1012,0 hPa 0,0 mm 1,2 km/h (1 Bft) NO 44 ° 0 min 0,000 mm 0,5 UV-I 125 W/m² 16,2 °C 17,7 °C 3,2 km/h (1 Bft)
20.07.2017 19:47 17,7 °C 17,7 °C 91 % 1012,1 hPa 0,0 mm 2,1 km/h (1 Bft) NO 46 ° 0 min 0,000 mm 0,5 UV-I 123 W/m² 16,2 °C 17,7 °C 3,2 km/h (1 Bft)
20.07.2017 19:48 17,7 °C 17,7 °C 91 % 1012,0 hPa 0,0 mm 0,3 km/h (0 Bft) NO 46 ° 0 min 0,000 mm 0,0 UV-I 116 W/m² 16,2 °C 17,7 °C 1,6 km/h (1 Bft)
20.07.2017 19:49 17,7 °C 17,7 °C 91 % 1012,0 hPa 0,0 mm 0,0 km/h (0 Bft) NO 46 ° 0 min 0,000 mm 0,0 UV-I 113 W/m² 16,2 °C 17,7 °C 0,0 km/h (0 Bft)
20.07.2017 19:50 17,7 °C 17,7 °C 91 % 1012,1 hPa 0,0 mm 0,2 km/h (0 Bft) NO 46 ° 0 min 0,000 mm 0,0 UV-I 113 W/m² 16,2 °C 17,7 °C 1,6 km/h (1 Bft)
20.07.2017 19:51 17,6 °C 17,7 °C 91 % 1012,0 hPa 0,0 mm 0,8 km/h (0 Bft) NO 46 ° 0 min 0,000 mm 0,0 UV-I 109 W/m² 16,1 °C 17,6 °C 3,2 km/h (1 Bft)
20.07.2017 19:52 17,7 °C 17,7 °C 91 % 1012,0 hPa 0,0 mm 0,0 km/h (0 Bft) NO 46 ° 0 min 0,000 mm 0,0 UV-I 105 W/m² 16,2 °C 17,7 °C 0,0 km/h (0 Bft)
20.07.2017 19:53 17,6 °C 17,7 °C 91 % 1012,1 hPa 0,0 mm 0,0 km/h (0 Bft) NO 46 ° 0 min 0,000 mm 0,0 UV-I 104 W/m² 16,1 °C 17,6 °C 0,0 km/h (0 Bft)
20.07.2017 19:54 17,6 °C 17,6 °C 91 % 1012,0 hPa 0,0 mm 0,0 km/h (0 Bft) NO 46 ° 0 min 0,000 mm 0,0 UV-I 100 W/m² 16,1 °C 17,6 °C 0,0 km/h (0 Bft)
20.07.2017 19:55 17,5 °C 17,6 °C 91 % 1012,0 hPa 0,0 mm 0,0 km/h (0 Bft) NO 46 ° 0 min 0,000 mm 0,0 UV-I 98 W/m² 16,0 °C 17,5 °C 0,0 km/h (0 Bft)
20.07.2017 19:56 17,5 °C 17,5 °C 91 % 1011,9 hPa 0,0 mm 0,5 km/h (0 Bft) NO 46 ° 0 min 0,000 mm 0,0 UV-I 93 W/m² 16,0 °C 17,5 °C 1,6 km/h (1 Bft)
20.07.2017 19:57 17,4 °C 17,5 °C 91 % 1012,0 hPa 0,0 mm 0,3 km/h (0 Bft) NO 46 ° 0 min 0,000 mm 0,0 UV-I 91 W/m² 15,9 °C 17,4 °C 1,6 km/h (1 Bft)
20.07.2017 19:58 17,4 °C 17,4 °C 91 % 1012,0 hPa 0,0 mm 0,8 km/h (0 Bft) NO 46 ° 0 min 0,000 mm 0,0 UV-I 90 W/m² 15,9 °C 17,4 °C 1,6 km/h (1 Bft)
20.07.2017 19:59 17,3 °C 17,4 °C 91 % 1012,0 hPa 0,0 mm 0,6 km/h (0 Bft) NO 46 ° 0 min 0,000 mm 0,0 UV-I 84 W/m² 15,8 °C 17,3 °C 1,6 km/h (1 Bft)
20.07.2017 20:00 17,3 °C 17,3 °C 91 % 1012,0 hPa 0,0 mm 0,0 km/h (0 Bft) NO 46 ° 0 min 0,000 mm 0,0 UV-I 83 W/m² 15,8 °C 17,3 °C 0,0 km/h (0 Bft)
20.07.2017 20:01 17,3 °C 17,3 °C 92 % 1012,0 hPa 0,0 mm 0,0 km/h (0 Bft) NO 46 ° 0 min 0,050 mm 0,0 UV-I 83 W/m² 16,0 °C 17,3 °C 0,0 km/h (0 Bft)
20.07.2017 20:02 17,2 °C 17,3 °C 92 % 1012,0 hPa 0,0 mm 0,0 km/h (0 Bft) NO 46 ° 0 min 0,000 mm 0,0 UV-I 76 W/m² 15,9 °C 17,2 °C 0,0 km/h (0 Bft)
20.07.2017 20:03 17,2 °C 17,2 °C 92 % 1012,0 hPa 0,0 mm 0,1 km/h (0 Bft) NO 46 ° 0 min 0,000 mm 0,0 UV-I 74 W/m² 15,9 °C 17,2 °C 1,6 km/h (1 Bft)
20.07.2017 20:04 17,1 °C 17,2 °C 92 % 1012,0 hPa 0,0 mm 0,0 km/h (0 Bft) NO 46 ° 0 min 0,000 mm 0,0 UV-I 72 W/m² 15,8 °C 17,1 °C 0,0 km/h (0 Bft)
20.07.2017 20:05 17,1 °C 17,1 °C 92 % 1012,0 hPa 0,0 mm 0,3 km/h (0 Bft) NO 46 ° 0 min 0,000 mm 0,0 UV-I 67 W/m² 15,8 °C 17,1 °C 1,6 km/h (1 Bft)
20.07.2017 20:06 17,0 °C 17,1 °C 92 % 1012,1 hPa 0,0 mm 0,3 km/h (0 Bft) NO 46 ° 0 min 0,000 mm 0,0 UV-I 63 W/m² 15,7 °C 17,0 °C 1,6 km/h (1 Bft)
20.07.2017 20:07 17,0 °C 17,0 °C 92 % 1012,1 hPa 0,0 mm 0,0 km/h (0 Bft) NO 46 ° 0 min 0,000 mm 0,0 UV-I 63 W/m² 15,7 °C 17,0 °C 0,0 km/h (0 Bft)
20.07.2017 20:08 17,0 °C 17,0 °C 92 % 1012,1 hPa 0,0 mm 0,0 km/h (0 Bft) NO 46 ° 0 min 0,000 mm 0,0 UV-I 62 W/m² 15,7 °C 17,0 °C 0,0 km/h (0 Bft)
20.07.2017 20:09 17,0 °C 17,0 °C 92 % 1012,1 hPa 0,0 mm 0,0 km/h (0 Bft) NO 46 ° 0 min 0,000 mm 0,0 UV-I 60 W/m² 15,7 °C 17,0 °C 0,0 km/h (0 Bft)
20.07.2017 20:10 16,9 °C 17,0 °C 92 % 1012,1 hPa 0,0 mm 0,0 km/h (0 Bft) NO 46 ° 0 min 0,000 mm 0,0 UV-I 58 W/m² 15,6 °C 16,9 °C 0,0 km/h (0 Bft)
20.07.2017 20:11 16,9 °C 17,0 °C 92 % 1012,1 hPa 0,0 mm 0,0 km/h (0 Bft) NO 46 ° 0 min 0,000 mm 0,0 UV-I 54 W/m² 15,6 °C 16,9 °C 0,0 km/h (0 Bft)
20.07.2017 20:12 16,9 °C 16,9 °C 92 % 1012,1 hPa 0,0 mm 0,0 km/h (0 Bft) NO 46 ° 0 min 0,000 mm 0,0 UV-I 53 W/m² 15,6 °C 16,9 °C 0,0 km/h (0 Bft)
20.07.2017 20:13 16,9 °C 16,9 °C 92 % 1012,1 hPa 0,0 mm 0,0 km/h (0 Bft) NO 46 ° 0 min 0,000 mm 0,0 UV-I 51 W/m² 15,6 °C 16,9 °C 0,0 km/h (0 Bft)
20.07.2017 20:14 16,9 °C 16,9 °C 92 % 1012,1 hPa 0,0 mm 0,0 km/h (0 Bft) NO 46 ° 0 min 0,000 mm 0,0 UV-I 47 W/m² 15,6 °C 16,9 °C 0,0 km/h (0 Bft)
20.07.2017 20:15 16,9 °C 16,9 °C 92 % 1012,1 hPa 0,0 mm 0,0 km/h (0 Bft) NO 46 ° 0 min 0,000 mm 0,0 UV-I 40 W/m² 15,6 °C 16,9 °C 0,0 km/h (0 Bft)
20.07.2017 20:16 16,8 °C 16,9 °C 92 % 1012,1 hPa 0,0 mm 0,0 km/h (0 Bft) NO 46 ° 0 min 0,000 mm 0,0 UV-I 35 W/m² 15,5 °C 16,8 °C 0,0 km/h (0 Bft)
20.07.2017 20:17 16,8 °C 16,8 °C 92 % 1012,1 hPa 0,0 mm 0,0 km/h (0 Bft) NO 46 ° 0 min 0,000 mm 0,0 UV-I 35 W/m² 15,5 °C 16,8 °C 0,0 km/h (0 Bft)
20.07.2017 20:18 16,7 °C 16,8 °C 92 % 1012,1 hPa 0,0 mm 0,0 km/h (0 Bft) NO 46 ° 0 min 0,000 mm 0,0 UV-I 35 W/m² 15,4 °C 16,7 °C 0,0 km/h (0 Bft)
20.07.2017 20:19 16,7 °C 16,7 °C 92 % 1012,1 hPa 0,0 mm 0,0 km/h (0 Bft) NO 46 ° 0 min 0,000 mm 0,0 UV-I 35 W/m² 15,4 °C 16,7 °C 0,0 km/h (0 Bft)
20.07.2017 20:20 16,7 °C 16,7 °C 92 % 1012,2 hPa 0,0 mm 0,0 km/h (0 Bft) NO 46 ° 0 min 0,000 mm 0,0 UV-I 33 W/m² 15,4 °C 16,7 °C 0,0 km/h (0 Bft)
20.07.2017 20:21 16,6 °C 16,7 °C 92 % 1012,1 hPa 0,0 mm 0,0 km/h (0 Bft) NO 46 ° 0 min 0,000 mm 0,0 UV-I 33 W/m² 15,3 °C 16,6 °C 0,0 km/h (0 Bft)
20.07.2017 20:22 16,6 °C 16,6 °C 93 % 1012,1 hPa 0,0 mm 0,0 km/h (0 Bft) NO 46 ° 0 min 0,000 mm 0,0 UV-I 32 W/m² 15,5 °C 16,6 °C 0,0 km/h (0 Bft)
20.07.2017 20:23 16,6 °C 16,6 °C 93 % 1012,1 hPa 0,0 mm 0,2 km/h (0 Bft) NO 46 ° 0 min 0,000 mm 0,0 UV-I 28 W/m² 15,5 °C 16,6 °C 1,6 km/h (1 Bft)
20.07.2017 20:24 16,6 °C 16,6 °C 93 % 1012,1 hPa 0,0 mm 0,1 km/h (0 Bft) NO 46 ° 0 min 0,000 mm 0,0 UV-I 26 W/m² 15,5 °C 16,6 °C 1,6 km/h (1 Bft)
20.07.2017 20:25 16,5 °C 16,6 °C 93 % 1012,1 hPa 0,0 mm 0,0 km/h (0 Bft) NO 46 ° 0 min 0,000 mm 0,0 UV-I 26 W/m² 15,4 °C 16,5 °C 0,0 km/h (0 Bft)
20.07.2017 20:26 16,5 °C 16,5 °C 92 % 1012,1 hPa 0,0 mm 0,0 km/h (0 Bft) NO 46 ° 0 min 0,000 mm 0,0 UV-I 26 W/m² 15,2 °C 16,5 °C 0,0 km/h (0 Bft)
20.07.2017 20:27 16,4 °C 16,5 °C 92 % 1012,2 hPa 0,0 mm 0,0 km/h (0 Bft) NO 46 ° 0 min 0,000 mm 0,0 UV-I 28 W/m² 15,1 °C 16,4 °C 0,0 km/h (0 Bft)
20.07.2017 20:28 16,4 °C 16,4 °C 92 % 1012,2 hPa 0,0 mm 0,0 km/h (0 Bft) NO 46 ° 0 min 0,000 mm 0,0 UV-I 28 W/m² 15,1 °C 16,4 °C 0,0 km/h (0 Bft)
20.07.2017 20:29 16,3 °C 16,4 °C 92 % 1012,2 hPa 0,0 mm 0,0 km/h (0 Bft) NO 46 ° 0 min 0,000 mm 0,0 UV-I 28 W/m² 15,0 °C 16,3 °C 0,0 km/h (0 Bft)
20.07.2017 20:30 16,3 °C 16,3 °C 92 % 1012,3 hPa 0,0 mm 0,0 km/h (0 Bft) NO 46 ° 0 min 0,000 mm 0,0 UV-I 26 W/m² 15,0 °C 16,3 °C 0,0 km/h (0 Bft)
20.07.2017 20:31 16,3 °C 16,3 °C 92 % 1012,2 hPa 0,0 mm 0,0 km/h (0 Bft) NO 46 ° 0 min 0,000 mm 0,0 UV-I 25 W/m² 15,0 °C 16,3 °C 0,0 km/h (0 Bft)
20.07.2017 20:32 16,2 °C 16,3 °C 92 % 1012,3 hPa 0,0 mm 0,0 km/h (0 Bft) NO 46 ° 0 min 0,000 mm 0,0 UV-I 23 W/m² 14,9 °C 16,2 °C 0,0 km/h (0 Bft)
20.07.2017 20:33 16,2 °C 16,2 °C 93 % 1012,3 hPa 0,0 mm 0,0 km/h (0 Bft) NO 46 ° 0 min 0,000 mm 0,0 UV-I 23 W/m² 15,1 °C 16,2 °C 0,0 km/h (0 Bft)
20.07.2017 20:34 16,2 °C 16,2 °C 92 % 1012,3 hPa 0,0 mm 0,0 km/h (0 Bft) NO 46 ° 0 min 0,000 mm 0,0 UV-I 19 W/m² 14,9 °C 16,2 °C 0,0 km/h (0 Bft)
20.07.2017 20:35 16,2 °C 16,2 °C 92 % 1012,3 hPa 0,0 mm 0,0 km/h (0 Bft) NO 46 ° 0 min 0,000 mm 0,0 UV-I 16 W/m² 14,9 °C 16,2 °C 0,0 km/h (0 Bft)
20.07.2017 20:36 16,2 °C 16,2 °C 92 % 1012,3 hPa 0,0 mm 0,0 km/h (0 Bft) NO 46 ° 0 min 0,000 mm 0,0 UV-I 16 W/m² 14,9 °C 16,2 °C 0,0 km/h (0 Bft)
20.07.2017 20:37 16,2 °C 16,2 °C 92 % 1012,3 hPa 0,0 mm 0,0 km/h (0 Bft) NO 46 ° 0 min 0,000 mm 0,0 UV-I 14 W/m² 14,9 °C 16,2 °C 0,0 km/h (0 Bft)
20.07.2017 20:38 16,1 °C 16,2 °C 92 % 1012,3 hPa 0,0 mm 0,0 km/h (0 Bft) NO 46 ° 0 min 0,000 mm 0,0 UV-I 14 W/m² 14,8 °C 16,1 °C 0,0 km/h (0 Bft)
20.07.2017 20:39 16,1 °C 16,1 °C 92 % 1012,3 hPa 0,0 mm 0,0 km/h (0 Bft) NO 46 ° 0 min 0,000 mm 0,0 UV-I 14 W/m² 14,8 °C 16,1 °C 0,0 km/h (0 Bft)
20.07.2017 20:40 16,0 °C 16,1 °C 92 % 1012,4 hPa 0,0 mm 0,0 km/h (0 Bft) NO 46 ° 0 min 0,000 mm 0,0 UV-I 12 W/m² 14,7 °C 16,0 °C 0,0 km/h (0 Bft)
20.07.2017 20:41 15,9 °C 16,0 °C 92 % 1012,3 hPa 0,0 mm 0,0 km/h (0 Bft) NO 46 ° 0 min 0,000 mm 0,0 UV-I 12 W/m² 14,6 °C 15,9 °C 0,0 km/h (0 Bft)
20.07.2017 20:42 15,9 °C 15,9 °C 93 % 1012,3 hPa 0,0 mm 0,0 km/h (0 Bft) NO 46 ° 0 min 0,000 mm 0,0 UV-I 12 W/m² 14,8 °C 15,9 °C 0,0 km/h (0 Bft)
20.07.2017 20:43 15,9 °C 15,9 °C 93 % 1012,3 hPa 0,0 mm 0,0 km/h (0 Bft) NO 46 ° 0 min 0,000 mm 0,0 UV-I 11 W/m² 14,8 °C 15,9 °C 0,0 km/h (0 Bft)
20.07.2017 20:44 15,8 °C 15,9 °C 93 % 1012,3 hPa 0,0 mm 0,0 km/h (0 Bft) NO 46 ° 0 min 0,000 mm 0,0 UV-I 11 W/m² 14,7 °C 15,8 °C 0,0 km/h (0 Bft)
20.07.2017 20:45 15,8 °C 15,8 °C 93 % 1012,4 hPa 0,0 mm 0,0 km/h (0 Bft) NO 46 ° 0 min 0,000 mm 0,0 UV-I 11 W/m² 14,7 °C 15,8 °C 0,0 km/h (0 Bft)
20.07.2017 20:46 15,8 °C 15,8 °C 93 % 1012,4 hPa 0,0 mm 0,0 km/h (0 Bft) NO 46 ° 0 min 0,000 mm 0,0 UV-I 11 W/m² 14,7 °C 15,8 °C 0,0 km/h (0 Bft)
20.07.2017 20:47 15,7 °C 15,8 °C 93 % 1012,4 hPa 0,0 mm 0,0 km/h (0 Bft) NO 46 ° 0 min 0,000 mm 0,0 UV-I 11 W/m² 14,6 °C 15,7 °C 0,0 km/h (0 Bft)
20.07.2017 20:48 15,7 °C 15,8 °C 93 % 1012,4 hPa 0,0 mm 0,0 km/h (0 Bft) NO 46 ° 0 min 0,000 mm 0,0 UV-I 9 W/m² 14,6 °C 15,7 °C 0,0 km/h (0 Bft)
20.07.2017 20:49 15,7 °C 15,8 °C 93 % 1012,4 hPa 0,0 mm 0,0 km/h (0 Bft) NO 46 ° 0 min 0,000 mm 0,0 UV-I 9 W/m² 14,6 °C 15,7 °C 0,0 km/h (0 Bft)
20.07.2017 20:50 15,7 °C 15,7 °C 93 % 1012,4 hPa 0,0 mm 0,0 km/h (0 Bft) NO 46 ° 0 min 0,000 mm 0,0 UV-I 9 W/m² 14,6 °C 15,7 °C 0,0 km/h (0 Bft)
20.07.2017 20:51 15,6 °C 15,7 °C 94 % 1012,3 hPa 0,0 mm 0,0 km/h (0 Bft) NO 46 ° 0 min 0,000 mm 0,0 UV-I 9 W/m² 14,6 °C 15,6 °C 0,0 km/h (0 Bft)
20.07.2017 20:52 15,6 °C 15,6 °C 94 % 1012,3 hPa 0,0 mm 0,0 km/h (0 Bft) NO 46 ° 0 min 0,000 mm 0,0 UV-I 7 W/m² 14,6 °C 15,6 °C 0,0 km/h (0 Bft)
20.07.2017 20:53 15,6 °C 15,6 °C 94 % 1012,4 hPa 0,0 mm 0,0 km/h (0 Bft) NO 46 ° 0 min 0,000 mm 0,0 UV-I 7 W/m² 14,6 °C 15,6 °C 0,0 km/h (0 Bft)
20.07.2017 20:54 15,6 °C 15,6 °C 94 % 1012,4 hPa 0,0 mm 0,0 km/h (0 Bft) NO 46 ° 0 min 0,000 mm 0,0 UV-I 7 W/m² 14,6 °C 15,6 °C 0,0 km/h (0 Bft)
20.07.2017 20:55 15,4 °C 15,6 °C 94 % 1012,4 hPa 0,0 mm 0,0 km/h (0 Bft) NO 46 ° 0 min 0,000 mm 0,0 UV-I 7 W/m² 14,4 °C 15,4 °C 0,0 km/h (0 Bft)
20.07.2017 20:56 15,4 °C 15,5 °C 94 % 1012,4 hPa 0,0 mm 0,0 km/h (0 Bft) NO 46 ° 0 min 0,000 mm 0,0 UV-I 7 W/m² 14,4 °C 15,4 °C 0,0 km/h (0 Bft)
20.07.2017 20:57 15,4 °C 15,4 °C 94 % 1012,4 hPa 0,0 mm 0,5 km/h (0 Bft) N-NO 28 ° 0 min 0,000 mm 0,0 UV-I 5 W/m² 14,4 °C 15,4 °C 3,2 km/h (1 Bft)
20.07.2017 20:58 15,4 °C 15,4 °C 94 % 1012,4 hPa 0,0 mm 0,0 km/h (0 Bft) N-NO 28 ° 0 min 0,000 mm 0,0 UV-I 5 W/m² 14,4 °C 15,4 °C 0,0 km/h (0 Bft)
20.07.2017 20:59 15,4 °C 15,4 °C 94 % 1012,4 hPa 0,0 mm 0,0 km/h (0 Bft) N-NO 28 ° 0 min 0,000 mm 0,0 UV-I 5 W/m² 14,4 °C 15,4 °C 0,0 km/h (0 Bft)
20.07.2017 21:00 15,4 °C 15,4 °C 94 % 1012,4 hPa 0,0 mm 0,1 km/h (0 Bft) N-NO 28 ° 0 min 0,000 mm 0,0 UV-I 5 W/m² 14,4 °C 15,4 °C 1,6 km/h (1 Bft)
20.07.2017 21:01 15,3 °C 15,4 °C 94 % 1012,4 hPa 0,0 mm 0,0 km/h (0 Bft) N-NO 28 ° 0 min 0,026 mm 0,0 UV-I 5 W/m² 14,3 °C 15,3 °C 0,0 km/h (0 Bft)
20.07.2017 21:02 15,3 °C 15,3 °C 94 % 1012,4 hPa 0,0 mm 0,0 km/h (0 Bft) N-NO 28 ° 0 min 0,000 mm 0,0 UV-I 5 W/m² 14,3 °C 15,3 °C 0,0 km/h (0 Bft)
20.07.2017 21:03 15,3 °C 15,3 °C 94 % 1012,5 hPa 0,0 mm 0,0 km/h (0 Bft) N-NO 28 ° 0 min 0,000 mm 0,0 UV-I 5 W/m² 14,3 °C 15,3 °C 0,0 km/h (0 Bft)
20.07.2017 21:04 15,2 °C 15,3 °C 94 % 1012,5 hPa 0,0 mm 0,0 km/h (0 Bft) N-NO 28 ° 0 min 0,000 mm 0,0 UV-I 0 W/m² 14,2 °C 15,2 °C 0,0 km/h (0 Bft)
20.07.2017 21:05 15,2 °C 15,2 °C 94 % 1012,5 hPa 0,0 mm 0,1 km/h (0 Bft) N-NO 28 ° 0 min 0,000 mm 0,0 UV-I 0 W/m² 14,2 °C 15,2 °C 1,6 km/h (1 Bft)
20.07.2017 21:06 15,2 °C 15,2 °C 94 % 1012,5 hPa 0,0 mm 0,0 km/h (0 Bft) N-NO 28 ° 0 min 0,000 mm 0,0 UV-I 0 W/m² 14,2 °C 15,2 °C 0,0 km/h (0 Bft)
20.07.2017 21:07 15,2 °C 15,2 °C 94 % 1012,5 hPa 0,0 mm 0,0 km/h (0 Bft) N-NO 28 ° 0 min 0,000 mm 0,0 UV-I 0 W/m² 14,2 °C 15,2 °C 0,0 km/h (0 Bft)
20.07.2017 21:08 15,1 °C 15,2 °C 94 % 1012,6 hPa 0,0 mm 0,0 km/h (0 Bft) N-NO 28 ° 0 min 0,000 mm 0,0 UV-I 0 W/m² 14,1 °C 15,1 °C 0,0 km/h (0 Bft)
20.07.2017 21:09 15,1 °C 15,1 °C 94 % 1012,6 hPa 0,0 mm 0,0 km/h (0 Bft) N-NO 28 ° 0 min 0,000 mm 0,0 UV-I 0 W/m² 14,1 °C 15,1 °C 0,0 km/h (0 Bft)
20.07.2017 21:10 15,1 °C 15,1 °C 94 % 1012,7 hPa 0,0 mm 0,0 km/h (0 Bft) N-NO 28 ° 0 min 0,000 mm 0,0 UV-I 0 W/m² 14,1 °C 15,1 °C 0,0 km/h (0 Bft)
20.07.2017 21:11 15,1 °C 15,1 °C 94 % 1012,7 hPa 0,0 mm 0,1 km/h (0 Bft) N-NO 28 ° 0 min 0,000 mm 0,0 UV-I 0 W/m² 14,1 °C 15,1 °C 1,6 km/h (1 Bft)
20.07.2017 21:12 15,1 °C 15,1 °C 94 % 1012,7 hPa 0,0 mm 0,0 km/h (0 Bft) N-NO 28 ° 0 min 0,000 mm 0,0 UV-I 0 W/m² 14,1 °C 15,1 °C 0,0 km/h (0 Bft)
20.07.2017 21:13 15,0 °C 15,1 °C 94 % 1012,8 hPa 0,0 mm 0,0 km/h (0 Bft) N-NO 28 ° 0 min 0,000 mm 0,0 UV-I 0 W/m² 14,0 °C 15,0 °C 0,0 km/h (0 Bft)
20.07.2017 21:14 15,0 °C 15,0 °C 94 % 1012,7 hPa 0,0 mm 0,0 km/h (0 Bft) N-NO 28 ° 0 min 0,000 mm 0,0 UV-I 0 W/m² 14,0 °C 15,0 °C 0,0 km/h (0 Bft)
20.07.2017 21:15 14,9 °C 15,0 °C 94 % 1012,7 hPa 0,0 mm 0,0 km/h (0 Bft) N-NO 28 ° 0 min 0,000 mm 0,0 UV-I 0 W/m² 13,9 °C 14,9 °C 0,0 km/h (0 Bft)
20.07.2017 21:16 14,9 °C 15,0 °C 95 % 1012,7 hPa 0,0 mm 0,0 km/h (0 Bft) N-NO 28 ° 0 min 0,000 mm 0,0 UV-I 0 W/m² 14,1 °C 14,9 °C 0,0 km/h (0 Bft)
20.07.2017 21:17 15,0 °C 15,0 °C 95 % 1012,8 hPa 0,0 mm 0,0 km/h (0 Bft) N-NO 28 ° 0 min 0,000 mm 0,0 UV-I 0 W/m² 14,2 °C 15,0 °C 0,0 km/h (0 Bft)
20.07.2017 21:18 15,0 °C 15,0 °C 95 % 1012,7 hPa 0,0 mm 0,0 km/h (0 Bft) N-NO 28 ° 0 min 0,000 mm 0,0 UV-I 0 W/m² 14,2 °C 15,0 °C 0,0 km/h (0 Bft)
20.07.2017 21:19 15,0 °C 15,0 °C 95 % 1012,8 hPa 0,0 mm 0,0 km/h (0 Bft) N-NO 28 ° 0 min 0,000 mm 0,0 UV-I 0 W/m² 14,2 °C 15,0 °C 0,0 km/h (0 Bft)
20.07.2017 21:20 14,9 °C 15,0 °C 95 % 1012,8 hPa 0,0 mm 0,0 km/h (0 Bft) N-NO 27 ° 0 min 0,000 mm 0,0 UV-I 0 W/m² 14,1 °C 14,9 °C 0,0 km/h (0 Bft)
20.07.2017 21:21 14,9 °C 15,0 °C 94 % 1012,8 hPa 0,0 mm 0,9 km/h (0 Bft) N 349 ° 0 min 0,000 mm 0,0 UV-I 0 W/m² 13,9 °C 14,9 °C 3,2 km/h (1 Bft)
20.07.2017 21:22 14,9 °C 14,9 °C 94 % 1012,8 hPa 0,0 mm 0,1 km/h (0 Bft) N 349 ° 0 min 0,000 mm 0,0 UV-I 0 W/m² 13,9 °C 14,9 °C 1,6 km/h (1 Bft)
20.07.2017 21:23 14,9 °C 14,9 °C 94 % 1012,8 hPa 0,0 mm 0,0 km/h (0 Bft) N 349 ° 0 min 0,000 mm 0,0 UV-I 0 W/m² 13,9 °C 14,9 °C 0,0 km/h (0 Bft)
20.07.2017 21:24 14,9 °C 14,9 °C 94 % 1012,8 hPa 0,0 mm 0,5 km/h (0 Bft) N 349 ° 0 min 0,000 mm 0,0 UV-I 0 W/m² 13,9 °C 14,9 °C 1,6 km/h (1 Bft)
20.07.2017 21:25 14,9 °C 14,9 °C 94 % 1012,8 hPa 0,0 mm 0,0 km/h (0 Bft) N 349 ° 0 min 0,000 mm 0,0 UV-I 0 W/m² 13,9 °C 14,9 °C 0,0 km/h (0 Bft)
20.07.2017 21:26 14,8 °C 14,9 °C 94 % 1012,8 hPa 0,0 mm 0,0 km/h (0 Bft) N 349 ° 0 min 0,000 mm 0,0 UV-I 0 W/m² 13,8 °C 14,8 °C 0,0 km/h (0 Bft)
20.07.2017 21:27 14,8 °C 14,8 °C 94 % 1012,8 hPa 0,0 mm 0,0 km/h (0 Bft) N 349 ° 0 min 0,000 mm 0,0 UV-I 0 W/m² 13,8 °C 14,8 °C 0,0 km/h (0 Bft)
20.07.2017 21:28 14,8 °C 14,8 °C 94 % 1012,8 hPa 0,0 mm 0,0 km/h (0 Bft) O-NO 69 ° 0 min 0,000 mm 0,0 UV-I 0 W/m² 13,8 °C 14,8 °C 0,0 km/h (0 Bft)
20.07.2017 21:29 14,8 °C 14,8 °C 94 % 1012,9 hPa 0,0 mm 0,0 km/h (0 Bft) O-NO 69 ° 0 min 0,000 mm 0,0 UV-I 0 W/m² 13,8 °C 14,8 °C 0,0 km/h (0 Bft)
20.07.2017 21:30 14,8 °C 14,8 °C 95 % 1012,9 hPa 0,0 mm 0,0 km/h (0 Bft) O-NO 69 ° 0 min 0,000 mm 0,0 UV-I 0 W/m² 14,0 °C 14,8 °C 0,0 km/h (0 Bft)
20.07.2017 21:31 14,8 °C 14,8 °C 94 % 1012,9 hPa 0,0 mm 0,0 km/h (0 Bft) O-NO 69 ° 0 min 0,000 mm 0,0 UV-I 0 W/m² 13,8 °C 14,8 °C 0,0 km/h (0 Bft)
20.07.2017 21:32 14,8 °C 14,8 °C 95 % 1012,9 hPa 0,0 mm 0,0 km/h (0 Bft) O-NO 67 ° 0 min 0,000 mm 0,0 UV-I 0 W/m² 14,0 °C 14,8 °C 0,0 km/h (0 Bft)
20.07.2017 21:33 14,8 °C 14,8 °C 94 % 1012,9 hPa 0,0 mm 0,0 km/h (0 Bft) O-NO 67 ° 0 min 0,000 mm 0,0 UV-I 0 W/m² 13,8 °C 14,8 °C 0,0 km/h (0 Bft)
20.07.2017 21:34 14,8 °C 14,8 °C 95 % 1012,9 hPa 0,0 mm 0,0 km/h (0 Bft) O-NO 67 ° 0 min 0,000 mm 0,0 UV-I 0 W/m² 14,0 °C 14,8 °C 0,0 km/h (0 Bft)
20.07.2017 21:35 14,7 °C 14,8 °C 95 % 1012,9 hPa 0,0 mm 0,0 km/h (0 Bft) O-NO 67 ° 0 min 0,000 mm 0,0 UV-I 0 W/m² 13,9 °C 14,7 °C 0,0 km/h (0 Bft)
20.07.2017 21:36 14,7 °C 14,7 °C 95 % 1012,9 hPa 0,0 mm 0,0 km/h (0 Bft) O-NO 67 ° 0 min 0,000 mm 0,0 UV-I 0 W/m² 13,9 °C 14,7 °C 0,0 km/h (0 Bft)
20.07.2017 21:37 14,7 °C 14,8 °C 95 % 1012,9 hPa 0,0 mm 0,0 km/h (0 Bft) O-NO 67 ° 0 min 0,000 mm 0,0 UV-I 0 W/m² 13,9 °C 14,7 °C 0,0 km/h (0 Bft)
20.07.2017 21:38 14,7 °C 14,8 °C 95 % 1013,0 hPa 0,0 mm 0,0 km/h (0 Bft) O-NO 67 ° 0 min 0,000 mm 0,0 UV-I 0 W/m² 13,9 °C 14,7 °C 0,0 km/h (0 Bft)
20.07.2017 21:39 14,7 °C 14,7 °C 95 % 1013,0 hPa 0,0 mm 0,0 km/h (0 Bft) O-NO 67 ° 0 min 0,000 mm 0,0 UV-I 0 W/m² 13,9 °C 14,7 °C 0,0 km/h (0 Bft)
20.07.2017 21:40 14,7 °C 14,7 °C 95 % 1013,0 hPa 0,0 mm 0,0 km/h (0 Bft) O-NO 67 ° 0 min 0,000 mm 0,0 UV-I 0 W/m² 13,9 °C 14,7 °C 0,0 km/h (0 Bft)
20.07.2017 21:41 14,7 °C 14,7 °C 95 % 1013,1 hPa 0,0 mm 0,0 km/h (0 Bft) O-NO 67 ° 0 min 0,000 mm 0,0 UV-I 0 W/m² 13,9 °C 14,7 °C 0,0 km/h (0 Bft)
20.07.2017 21:42 14,7 °C 14,7 °C 95 % 1013,1 hPa 0,0 mm 1,3 km/h (1 Bft) O-NO 67 ° 0 min 0,000 mm 0,0 UV-I 0 W/m² 13,9 °C 14,7 °C 6,4 km/h (2 Bft)
20.07.2017 21:43 14,7 °C 14,7 °C 95 % 1013,1 hPa 0,0 mm 3,4 km/h (1 Bft) W 267 ° 0 min 0,000 mm 0,0 UV-I 0 W/m² 13,9 °C 14,7 °C 6,4 km/h (2 Bft)
20.07.2017 21:44 14,7 °C 14,7 °C 95 % 1013,1 hPa 0,0 mm 3,1 km/h (1 Bft) W 267 ° 0 min 0,000 mm 0,0 UV-I 0 W/m² 13,9 °C 14,7 °C 4,8 km/h (1 Bft)
20.07.2017 21:45 14,7 °C 14,7 °C 94 % 1013,2 hPa 0,0 mm 2,7 km/h (1 Bft) W 267 ° 0 min 0,000 mm 0,0 UV-I 0 W/m² 13,7 °C 14,7 °C 3,2 km/h (1 Bft)
20.07.2017 21:46 14,6 °C 14,7 °C 94 % 1013,2 hPa 0,0 mm 1,1 km/h (1 Bft) W 267 ° 0 min 0,000 mm 0,0 UV-I 0 W/m² 13,6 °C 14,6 °C 3,2 km/h (1 Bft)
20.07.2017 21:47 14,6 °C 14,6 °C 94 % 1013,2 hPa 0,0 mm 1,1 km/h (1 Bft) W 267 ° 0 min 0,000 mm 0,0 UV-I 0 W/m² 13,6 °C 14,6 °C 1,6 km/h (1 Bft)
20.07.2017 21:48 14,6 °C 14,6 °C 94 % 1013,2 hPa 0,0 mm 0,0 km/h (0 Bft) W 267 ° 0 min 0,000 mm 0,0 UV-I 0 W/m² 13,6 °C 14,6 °C 0,0 km/h (0 Bft)
20.07.2017 21:49 14,6 °C 14,6 °C 95 % 1013,2 hPa 0,0 mm 0,0 km/h (0 Bft) W 267 ° 0 min 0,000 mm 0,0 UV-I 0 W/m² 13,8 °C 14,6 °C 0,0 km/h (0 Bft)
20.07.2017 21:50 14,6 °C 14,6 °C 95 % 1013,2 hPa 0,0 mm 0,0 km/h (0 Bft) W 267 ° 0 min 0,000 mm 0,0 UV-I 0 W/m² 13,8 °C 14,6 °C 0,0 km/h (0 Bft)
20.07.2017 21:51 14,6 °C 14,7 °C 95 % 1013,2 hPa 0,0 mm 0,0 km/h (0 Bft) W 267 ° 0 min 0,000 mm 0,0 UV-I 0 W/m² 13,8 °C 14,6 °C 0,0 km/h (0 Bft)
20.07.2017 21:52 14,6 °C 14,6 °C 94 % 1013,2 hPa 0,0 mm 0,0 km/h (0 Bft) W 267 ° 0 min 0,000 mm 0,0 UV-I 0 W/m² 13,6 °C 14,6 °C 0,0 km/h (0 Bft)
20.07.2017 21:53 14,6 °C 14,6 °C 94 % 1013,1 hPa 0,0 mm 0,0 km/h (0 Bft) W 267 ° 0 min 0,000 mm 0,0 UV-I 0 W/m² 13,6 °C 14,6 °C 0,0 km/h (0 Bft)
20.07.2017 21:54 14,5 °C 14,6 °C 94 % 1013,1 hPa 0,0 mm 0,0 km/h (0 Bft) W 267 ° 0 min 0,000 mm 0,0 UV-I 0 W/m² 13,5 °C 14,5 °C 0,0 km/h (0 Bft)
20.07.2017 21:55 14,4 °C 14,5 °C 94 % 1013,1 hPa 0,0 mm 0,0 km/h (0 Bft) W 267 ° 0 min 0,000 mm 0,0 UV-I 0 W/m² 13,4 °C 14,4 °C 0,0 km/h (0 Bft)
20.07.2017 21:56 14,4 °C 14,4 °C 94 % 1013,1 hPa 0,0 mm 0,0 km/h (0 Bft) W 267 ° 0 min 0,000 mm 0,0 UV-I 0 W/m² 13,4 °C 14,4 °C 0,0 km/h (0 Bft)
20.07.2017 21:57 14,4 °C 14,5 °C 94 % 1013,1 hPa 0,0 mm 0,0 km/h (0 Bft) W 267 ° 0 min 0,000 mm 0,0 UV-I 0 W/m² 13,4 °C 14,4 °C 0,0 km/h (0 Bft)
20.07.2017 21:58 14,5 °C 14,5 °C 95 % 1013,1 hPa 0,0 mm 0,0 km/h (0 Bft) W 267 ° 0 min 0,000 mm 0,0 UV-I 0 W/m² 13,7 °C 14,5 °C 0,0 km/h (0 Bft)
20.07.2017 21:59 14,5 °C 14,5 °C 95 % 1013,1 hPa 0,0 mm 0,0 km/h (0 Bft) W 267 ° 0 min 0,000 mm 0,0 UV-I 0 W/m² 13,7 °C 14,5 °C 0,0 km/h (0 Bft)
20.07.2017 22:00 14,4 °C 14,5 °C 94 % 1013,0 hPa 0,0 mm 0,0 km/h (0 Bft) W 267 ° 0 min 0,000 mm 0,0 UV-I 0 W/m² 13,4 °C 14,4 °C 0,0 km/h (0 Bft)
20.07.2017 22:01 14,4 °C 14,4 °C 94 % 1013,0 hPa 0,0 mm 0,0 km/h (0 Bft) W 267 ° 0 min 0,000 mm 0,0 UV-I 0 W/m² 13,4 °C 14,4 °C 0,0 km/h (0 Bft)
20.07.2017 22:02 14,3 °C 14,4 °C 94 % 1013,0 hPa 0,0 mm 0,0 km/h (0 Bft) W 267 ° 0 min 0,000 mm 0,0 UV-I 0 W/m² 13,3 °C 14,3 °C 0,0 km/h (0 Bft)
20.07.2017 22:03 14,3 °C 14,3 °C 94 % 1013,0 hPa 0,0 mm 0,0 km/h (0 Bft) W 267 ° 0 min 0,000 mm 0,0 UV-I 0 W/m² 13,3 °C 14,3 °C 0,0 km/h (0 Bft)
20.07.2017 22:04 14,2 °C 14,3 °C 94 % 1013,0 hPa 0,0 mm 0,0 km/h (0 Bft) W 267 ° 0 min 0,000 mm 0,0 UV-I 0 W/m² 13,2 °C 14,2 °C 0,0 km/h (0 Bft)
20.07.2017 22:05 14,2 °C 14,3 °C 94 % 1013,0 hPa 0,0 mm 0,0 km/h (0 Bft) W 267 ° 0 min 0,000 mm 0,0 UV-I 0 W/m² 13,2 °C 14,2 °C 0,0 km/h (0 Bft)
20.07.2017 22:06 14,3 °C 14,3 °C 95 % 1013,0 hPa 0,0 mm 0,0 km/h (0 Bft) W 267 ° 0 min 0,000 mm 0,0 UV-I 0 W/m² 13,5 °C 14,3 °C 0,0 km/h (0 Bft)
20.07.2017 22:07 14,3 °C 14,3 °C 95 % 1013,0 hPa 0,0 mm 0,0 km/h (0 Bft) W 267 ° 0 min 0,000 mm 0,0 UV-I 0 W/m² 13,5 °C 14,3 °C 0,0 km/h (0 Bft)
20.07.2017 22:08 14,3 °C 14,3 °C 95 % 1013,0 hPa 0,0 mm 0,0 km/h (0 Bft) W 267 ° 0 min 0,000 mm 0,0 UV-I 0 W/m² 13,5 °C 14,3 °C 0,0 km/h (0 Bft)
20.07.2017 22:09 14,3 °C 14,3 °C 95 % 1013,0 hPa 0,0 mm 0,0 km/h (0 Bft) W 267 ° 0 min 0,000 mm 0,0 UV-I 0 W/m² 13,5 °C 14,3 °C 0,0 km/h (0 Bft)
20.07.2017 22:10 14,3 °C 14,3 °C 95 % 1013,0 hPa 0,0 mm 0,0 km/h (0 Bft) W 267 ° 0 min 0,000 mm 0,0 UV-I 0 W/m² 13,5 °C 14,3 °C 0,0 km/h (0 Bft)
20.07.2017 22:11 14,4 °C 14,4 °C 95 % 1013,0 hPa 0,0 mm 0,0 km/h (0 Bft) W 267 ° 0 min 0,000 mm 0,0 UV-I 0 W/m² 13,6 °C 14,4 °C 0,0 km/h (0 Bft)
20.07.2017 22:12 14,3 °C 14,4 °C 95 % 1012,9 hPa 0,0 mm 0,0 km/h (0 Bft) W 267 ° 0 min 0,000 mm 0,0 UV-I 0 W/m² 13,5 °C 14,3 °C 0,0 km/h (0 Bft)
20.07.2017 22:13 14,3 °C 14,4 °C 95 % 1013,0 hPa 0,0 mm 0,0 km/h (0 Bft) W 267 ° 0 min 0,000 mm 0,0 UV-I 0 W/m² 13,5 °C 14,3 °C 0,0 km/h (0 Bft)
20.07.2017 22:14 14,3 °C 14,3 °C 95 % 1013,0 hPa 0,0 mm 0,0 km/h (0 Bft) W 267 ° 0 min 0,000 mm 0,0 UV-I 0 W/m² 13,5 °C 14,3 °C 0,0 km/h (0 Bft)
20.07.2017 22:15 14,3 °C 14,3 °C 95 % 1013,0 hPa 0,0 mm 0,0 km/h (0 Bft) W 267 ° 0 min 0,000 mm 0,0 UV-I 0 W/m² 13,5 °C 14,3 °C 0,0 km/h (0 Bft)
20.07.2017 22:16 14,3 °C 14,3 °C 95 % 1013,0 hPa 0,0 mm 0,0 km/h (0 Bft) W-NW 297 ° 0 min 0,000 mm 0,0 UV-I 0 W/m² 13,5 °C 14,3 °C 0,0 km/h (0 Bft)
20.07.2017 22:17 14,2 °C 14,3 °C 95 % 1013,1 hPa 0,0 mm 0,0 km/h (0 Bft) W-NW 297 ° 0 min 0,000 mm 0,0 UV-I 0 W/m² 13,4 °C 14,2 °C 0,0 km/h (0 Bft)
20.07.2017 22:18 14,3 °C 14,3 °C 95 % 1013,1 hPa 0,0 mm 0,0 km/h (0 Bft) W-NW 297 ° 0 min 0,000 mm 0,0 UV-I 0 W/m² 13,5 °C 14,3 °C 0,0 km/h (0 Bft)
20.07.2017 22:19 14,2 °C 14,3 °C 95 % 1013,1 hPa 0,0 mm 0,0 km/h (0 Bft) W-NW 297 ° 0 min 0,000 mm 0,0 UV-I 0 W/m² 13,4 °C 14,2 °C 0,0 km/h (0 Bft)
20.07.2017 22:20 14,1 °C 14,2 °C 94 % 1013,1 hPa 0,0 mm 0,0 km/h (0 Bft) W-NW 297 ° 0 min 0,000 mm 0,0 UV-I 0 W/m² 13,1 °C 14,1 °C 0,0 km/h (0 Bft)
20.07.2017 22:21 14,1 °C 14,2 °C 95 % 1013,1 hPa 0,0 mm 0,0 km/h (0 Bft) W-NW 297 ° 0 min 0,000 mm 0,0 UV-I 0 W/m² 13,3 °C 14,1 °C 0,0 km/h (0 Bft)
20.07.2017 22:22 14,1 °C 14,1 °C 95 % 1013,1 hPa 0,0 mm 0,0 km/h (0 Bft) W-NW 297 ° 0 min 0,000 mm 0,0 UV-I 0 W/m² 13,3 °C 14,1 °C 0,0 km/h (0 Bft)
20.07.2017 22:23 14,1 °C 14,1 °C 95 % 1013,1 hPa 0,0 mm 0,0 km/h (0 Bft) W-NW 297 ° 0 min 0,000 mm 0,0 UV-I 0 W/m² 13,3 °C 14,1 °C 0,0 km/h (0 Bft)
20.07.2017 22:24 14,1 °C 14,1 °C 95 % 1013,1 hPa 0,0 mm 0,0 km/h (0 Bft) W-NW 297 ° 0 min 0,000 mm 0,0 UV-I 0 W/m² 13,3 °C 14,1 °C 0,0 km/h (0 Bft)
20.07.2017 22:25 14,1 °C 14,1 °C 95 % 1013,1 hPa 0,0 mm 0,0 km/h (0 Bft) W-NW 297 ° 0 min 0,000 mm 0,0 UV-I 0 W/m² 13,3 °C 14,1 °C 0,0 km/h (0 Bft)
20.07.2017 22:26 14,0 °C 14,1 °C 95 % 1013,1 hPa 0,0 mm 0,0 km/h (0 Bft) W-NW 297 ° 0 min 0,000 mm 0,0 UV-I 0 W/m² 13,2 °C 14,0 °C 0,0 km/h (0 Bft)
20.07.2017 22:27 13,9 °C 14,0 °C 95 % 1013,1 hPa 0,0 mm 0,0 km/h (0 Bft) W-NW 297 ° 0 min 0,000 mm 0,0 UV-I 0 W/m² 13,1 °C 13,9 °C 0,0 km/h (0 Bft)
20.07.2017 22:28 13,9 °C 13,9 °C 95 % 1013,1 hPa 0,0 mm 0,0 km/h (0 Bft) W-NW 297 ° 0 min 0,000 mm 0,0 UV-I 0 W/m² 13,1 °C 13,9 °C 0,0 km/h (0 Bft)
20.07.2017 22:29 13,9 °C 13,9 °C 95 % 1013,1 hPa 0,0 mm 0,0 km/h (0 Bft) W-NW 297 ° 0 min 0,000 mm 0,0 UV-I 0 W/m² 13,1 °C 13,9 °C 0,0 km/h (0 Bft)
20.07.2017 22:30 13,9 °C 13,9 °C 95 % 1013,1 hPa 0,0 mm 0,0 km/h (0 Bft) W-NW 297 ° 0 min 0,000 mm 0,0 UV-I 0 W/m² 13,1 °C 13,9 °C 0,0 km/h (0 Bft)
20.07.2017 22:31 13,9 °C 13,9 °C 95 % 1013,1 hPa 0,0 mm 0,0 km/h (0 Bft) W-NW 297 ° 0 min 0,000 mm 0,0 UV-I 0 W/m² 13,1 °C 13,9 °C 0,0 km/h (0 Bft)
20.07.2017 22:32 13,9 °C 13,9 °C 95 % 1013,1 hPa 0,0 mm 0,0 km/h (0 Bft) W-NW 297 ° 0 min 0,000 mm 0,0 UV-I 0 W/m² 13,1 °C 13,9 °C 0,0 km/h (0 Bft)
20.07.2017 22:33 13,9 °C 13,9 °C 95 % 1013,1 hPa 0,0 mm 0,0 km/h (0 Bft) W-NW 297 ° 0 min 0,000 mm 0,0 UV-I 0 W/m² 13,1 °C 13,9 °C 0,0 km/h (0 Bft)
20.07.2017 22:34 13,9 °C 13,9 °C 95 % 1013,1 hPa 0,0 mm 0,0 km/h (0 Bft) W-NW 297 ° 0 min 0,000 mm 0,0 UV-I 0 W/m² 13,1 °C 13,9 °C 0,0 km/h (0 Bft)
20.07.2017 22:35 13,8 °C 13,9 °C 95 % 1013,1 hPa 0,0 mm 0,0 km/h (0 Bft) W-NW 297 ° 0 min 0,000 mm 0,0 UV-I 0 W/m² 13,0 °C 13,8 °C 0,0 km/h (0 Bft)
20.07.2017 22:36 13,8 °C 13,8 °C 95 % 1013,1 hPa 0,0 mm 0,0 km/h (0 Bft) W-NW 297 ° 0 min 0,000 mm 0,0 UV-I 0 W/m² 13,0 °C 13,8 °C 0,0 km/h (0 Bft)
20.07.2017 22:37 13,8 °C 13,8 °C 95 % 1013,1 hPa 0,0 mm 0,0 km/h (0 Bft) W-NW 297 ° 0 min 0,000 mm 0,0 UV-I 0 W/m² 13,0 °C 13,8 °C 0,0 km/h (0 Bft)
20.07.2017 22:38 13,8 °C 13,8 °C 95 % 1013,1 hPa 0,0 mm 0,0 km/h (0 Bft) W-NW 297 ° 0 min 0,000 mm 0,0 UV-I 0 W/m² 13,0 °C 13,8 °C 0,0 km/h (0 Bft)
20.07.2017 22:39 13,8 °C 13,8 °C 95 % 1013,1 hPa 0,0 mm 0,0 km/h (0 Bft) W-NW 297 ° 0 min 0,000 mm 0,0 UV-I 0 W/m² 13,0 °C 13,8 °C 0,0 km/h (0 Bft)
20.07.2017 22:40 13,8 °C 13,8 °C 95 % 1013,1 hPa 0,0 mm 0,0 km/h (0 Bft) W-NW 297 ° 0 min 0,000 mm 0,0 UV-I 0 W/m² 13,0 °C 13,8 °C 0,0 km/h (0 Bft)
20.07.2017 22:41 13,8 °C 13,8 °C 95 % 1013,1 hPa 0,0 mm 0,0 km/h (0 Bft) W-NW 297 ° 0 min 0,000 mm 0,0 UV-I 0 W/m² 13,0 °C 13,8 °C 0,0 km/h (0 Bft)
20.07.2017 22:42 13,7 °C 13,8 °C 95 % 1013,1 hPa 0,0 mm 0,0 km/h (0 Bft) W-NW 297 ° 0 min 0,000 mm 0,0 UV-I 0 W/m² 12,9 °C 13,7 °C 0,0 km/h (0 Bft)
20.07.2017 22:43 13,7 °C 13,7 °C 95 % 1013,1 hPa 0,0 mm 0,0 km/h (0 Bft) W-NW 297 ° 0 min 0,000 mm 0,0 UV-I 0 W/m² 12,9 °C 13,7 °C 0,0 km/h (0 Bft)
20.07.2017 22:44 13,8 °C 13,8 °C 95 % 1013,1 hPa 0,0 mm 0,0 km/h (0 Bft) W-NW 297 ° 0 min 0,000 mm 0,0 UV-I 0 W/m² 13,0 °C 13,8 °C 0,0 km/h (0 Bft)
20.07.2017 22:45 13,7 °C 13,8 °C 95 % 1013,1 hPa 0,0 mm 0,0 km/h (0 Bft) W-NW 297 ° 0 min 0,000 mm 0,0 UV-I 0 W/m² 12,9 °C 13,7 °C 0,0 km/h (0 Bft)
20.07.2017 22:46 13,7 °C 13,7 °C 95 % 1013,1 hPa 0,0 mm 0,0 km/h (0 Bft) W-NW 297 ° 0 min 0,000 mm 0,0 UV-I 0 W/m² 12,9 °C 13,7 °C 0,0 km/h (0 Bft)
20.07.2017 22:47 13,7 °C 13,7 °C 95 % 1013,2 hPa 0,0 mm 0,0 km/h (0 Bft) W-NW 297 ° 0 min 0,000 mm 0,0 UV-I 0 W/m² 12,9 °C 13,7 °C 0,0 km/h (0 Bft)
20.07.2017 22:48 13,8 °C 13,8 °C 95 % 1013,1 hPa 0,0 mm 0,0 km/h (0 Bft) W-NW 297 ° 0 min 0,000 mm 0,0 UV-I 0 W/m² 13,0 °C 13,8 °C 0,0 km/h (0 Bft)
20.07.2017 22:49 13,8 °C 13,8 °C 95 % 1013,1 hPa 0,0 mm 0,0 km/h (0 Bft) W-NW 297 ° 0 min 0,000 mm 0,0 UV-I 0 W/m² 13,0 °C 13,8 °C 0,0 km/h (0 Bft)
20.07.2017 22:50 13,7 °C 13,8 °C 95 % 1013,1 hPa 0,0 mm 0,0 km/h (0 Bft) W-NW 297 ° 0 min 0,000 mm 0,0 UV-I 0 W/m² 12,9 °C 13,7 °C 0,0 km/h (0 Bft)
20.07.2017 22:51 13,8 °C 13,8 °C 95 % 1013,2 hPa 0,0 mm 0,0 km/h (0 Bft) NW 315 ° 0 min 0,000 mm 0,0 UV-I 0 W/m² 13,0 °C 13,8 °C 0,0 km/h (0 Bft)
20.07.2017 22:52 13,8 °C 13,8 °C 95 % 1013,1 hPa 0,0 mm 0,9 km/h (0 Bft) NW 325 ° 0 min 0,000 mm 0,0 UV-I 0 W/m² 13,0 °C 13,8 °C 4,8 km/h (1 Bft)
20.07.2017 22:53 13,8 °C 13,8 °C 95 % 1013,2 hPa 0,0 mm 0,2 km/h (0 Bft) NW 325 ° 0 min 0,000 mm 0,0 UV-I 0 W/m² 13,0 °C 13,8 °C 1,6 km/h (1 Bft)
20.07.2017 22:54 13,8 °C 13,8 °C 95 % 1013,2 hPa 0,0 mm 0,1 km/h (0 Bft) NW 325 ° 0 min 0,000 mm 0,0 UV-I 0 W/m² 13,0 °C 13,8 °C 1,6 km/h (1 Bft)
20.07.2017 22:55 13,8 °C 13,8 °C 95 % 1013,2 hPa 0,0 mm 0,0 km/h (0 Bft) NW 325 ° 0 min 0,000 mm 0,0 UV-I 0 W/m² 13,0 °C 13,8 °C 0,0 km/h (0 Bft)
20.07.2017 22:56 13,9 °C 13,9 °C 95 % 1013,2 hPa 0,0 mm 0,0 km/h (0 Bft) NW 325 ° 0 min 0,000 mm 0,0 UV-I 0 W/m² 13,1 °C 13,9 °C 0,0 km/h (0 Bft)
20.07.2017 22:57 13,9 °C 13,9 °C 95 % 1013,2 hPa 0,0 mm 0,8 km/h (0 Bft) NW 325 ° 0 min 0,000 mm 0,0 UV-I 0 W/m² 13,1 °C 13,9 °C 3,2 km/h (1 Bft)
20.07.2017 22:58 13,9 °C 13,9 °C 95 % 1013,2 hPa 0,0 mm 1,9 km/h (1 Bft) NW 325 ° 0 min 0,000 mm 0,0 UV-I 0 W/m² 13,1 °C 13,9 °C 3,2 km/h (1 Bft)
20.07.2017 22:59 13,9 °C 13,9 °C 96 % 1013,2 hPa 0,0 mm 2,5 km/h (1 Bft) NW 325 ° 0 min 0,000 mm 0,0 UV-I 0 W/m² 13,3 °C 13,9 °C 4,8 km/h (1 Bft)
20.07.2017 23:00 13,9 °C 13,9 °C 96 % 1013,2 hPa 0,0 mm 1,9 km/h (1 Bft) NW 325 ° 0 min 0,000 mm 0,0 UV-I 0 W/m² 13,3 °C 13,9 °C 3,2 km/h (1 Bft)
20.07.2017 23:01 13,9 °C 14,0 °C 96 % 1013,2 hPa 0,0 mm 0,4 km/h (0 Bft) NW 325 ° 0 min 0,000 mm 0,0 UV-I 0 W/m² 13,3 °C 13,9 °C 1,6 km/h (1 Bft)
20.07.2017 23:02 13,9 °C 14,0 °C 96 % 1013,3 hPa 0,0 mm 0,5 km/h (0 Bft) NW 325 ° 0 min 0,000 mm 0,0 UV-I 0 W/m² 13,3 °C 13,9 °C 1,6 km/h (1 Bft)
20.07.2017 23:03 13,9 °C 14,0 °C 96 % 1013,3 hPa 0,0 mm 0,0 km/h (0 Bft) NW 325 ° 0 min 0,000 mm 0,0 UV-I 0 W/m² 13,3 °C 13,9 °C 0,0 km/h (0 Bft)
20.07.2017 23:04 13,9 °C 13,9 °C 95 % 1013,3 hPa 0,0 mm 0,0 km/h (0 Bft) NW 325 ° 0 min 0,000 mm 0,0 UV-I 0 W/m² 13,1 °C 13,9 °C 0,0 km/h (0 Bft)
20.07.2017 23:05 13,9 °C 13,9 °C 95 % 1013,3 hPa 0,0 mm 0,0 km/h (0 Bft) NW 325 ° 0 min 0,000 mm 0,0 UV-I 0 W/m² 13,1 °C 13,9 °C 0,0 km/h (0 Bft)
20.07.2017 23:06 13,9 °C 13,9 °C 95 % 1013,3 hPa 0,0 mm 0,0 km/h (0 Bft) NW 325 ° 0 min 0,000 mm 0,0 UV-I 0 W/m² 13,1 °C 13,9 °C 0,0 km/h (0 Bft)
20.07.2017 23:07 13,9 °C 13,9 °C 95 % 1013,3 hPa 0,0 mm 0,0 km/h (0 Bft) NW 325 ° 0 min 0,000 mm 0,0 UV-I 0 W/m² 13,1 °C 13,9 °C 0,0 km/h (0 Bft)
20.07.2017 23:08 14,0 °C 14,0 °C 96 % 1013,3 hPa 0,0 mm 0,5 km/h (0 Bft) NW 325 ° 0 min 0,000 mm 0,0 UV-I 0 W/m² 13,4 °C 14,0 °C 1,6 km/h (1 Bft)
20.07.2017 23:09 13,9 °C 14,0 °C 96 % 1013,4 hPa 0,0 mm 0,8 km/h (0 Bft) NW 325 ° 0 min 0,000 mm 0,0 UV-I 0 W/m² 13,3 °C 13,9 °C 1,6 km/h (1 Bft)
20.07.2017 23:10 13,9 °C 13,9 °C 95 % 1013,3 hPa 0,0 mm 0,2 km/h (0 Bft) NW 325 ° 0 min 0,000 mm 0,0 UV-I 0 W/m² 13,1 °C 13,9 °C 1,6 km/h (1 Bft)
20.07.2017 23:11 13,9 °C 13,9 °C 95 % 1013,3 hPa 0,0 mm 0,0 km/h (0 Bft) NW 325 ° 0 min 0,000 mm 0,0 UV-I 0 W/m² 13,1 °C 13,9 °C 0,0 km/h (0 Bft)
20.07.2017 23:12 13,8 °C 13,9 °C 95 % 1013,3 hPa 0,0 mm 0,1 km/h (0 Bft) NW 325 ° 0 min 0,000 mm 0,0 UV-I 0 W/m² 13,0 °C 13,8 °C 1,6 km/h (1 Bft)
20.07.2017 23:13 13,8 °C 13,8 °C 95 % 1013,3 hPa 0,0 mm 1,1 km/h (1 Bft) NW 325 ° 0 min 0,000 mm 0,0 UV-I 0 W/m² 13,0 °C 13,8 °C 3,2 km/h (1 Bft)
20.07.2017 23:14 13,8 °C 13,8 °C 95 % 1013,3 hPa 0,0 mm 1,4 km/h (1 Bft) N-NW 327 ° 0 min 0,000 mm 0,0 UV-I 0 W/m² 13,0 °C 13,8 °C 3,2 km/h (1 Bft)
20.07.2017 23:15 13,8 °C 13,8 °C 95 % 1013,2 hPa 0,0 mm 0,0 km/h (0 Bft) N-NW 327 ° 0 min 0,000 mm 0,0 UV-I 0 W/m² 13,0 °C 13,8 °C 0,0 km/h (0 Bft)
20.07.2017 23:16 13,8 °C 13,8 °C 95 % 1013,3 hPa 0,0 mm 0,1 km/h (0 Bft) N-NW 327 ° 0 min 0,000 mm 0,0 UV-I 0 W/m² 13,0 °C 13,8 °C 1,6 km/h (1 Bft)
20.07.2017 23:17 13,8 °C 13,8 °C 95 % 1013,3 hPa 0,0 mm 0,3 km/h (0 Bft) N-NW 327 ° 0 min 0,000 mm 0,0 UV-I 0 W/m² 13,0 °C 13,8 °C 1,6 km/h (1 Bft)
20.07.2017 23:18 13,8 °C 13,8 °C 95 % 1013,2 hPa 0,0 mm 1,4 km/h (1 Bft) N-NW 327 ° 0 min 0,000 mm 0,0 UV-I 0 W/m² 13,0 °C 13,8 °C 3,2 km/h (1 Bft)
20.07.2017 23:19 13,8 °C 13,8 °C 95 % 1013,2 hPa 0,0 mm 1,0 km/h (0 Bft) N-NW 327 ° 0 min 0,000 mm 0,0 UV-I 0 W/m² 13,0 °C 13,8 °C 3,2 km/h (1 Bft)
20.07.2017 23:20 13,8 °C 13,8 °C 95 % 1013,2 hPa 0,0 mm 0,1 km/h (0 Bft) N-NW 327 ° 0 min 0,000 mm 0,0 UV-I 0 W/m² 13,0 °C 13,8 °C 1,6 km/h (1 Bft)
20.07.2017 23:21 13,8 °C 13,8 °C 95 % 1013,1 hPa 0,0 mm 0,4 km/h (0 Bft) N-NW 327 ° 0 min 0,000 mm 0,0 UV-I 0 W/m² 13,0 °C 13,8 °C 1,6 km/h (1 Bft)
20.07.2017 23:22 13,7 °C 13,8 °C 95 % 1013,2 hPa 0,0 mm 0,0 km/h (0 Bft) N-NW 327 ° 0 min 0,000 mm 0,0 UV-I 0 W/m² 12,9 °C 13,7 °C 0,0 km/h (0 Bft)
20.07.2017 23:23 13,7 °C 13,7 °C 95 % 1013,2 hPa 0,0 mm 0,5 km/h (0 Bft) N-NW 327 ° 0 min 0,000 mm 0,0 UV-I 0 W/m² 12,9 °C 13,7 °C 3,2 km/h (1 Bft)
20.07.2017 23:24 13,7 °C 13,7 °C 95 % 1013,1 hPa 0,0 mm 0,0 km/h (0 Bft) N-NW 327 ° 0 min 0,000 mm 0,0 UV-I 0 W/m² 12,9 °C 13,7 °C 0,0 km/h (0 Bft)
20.07.2017 23:25 13,7 °C 13,7 °C 95 % 1013,1 hPa 0,0 mm 0,0 km/h (0 Bft) N-NW 327 ° 0 min 0,000 mm 0,0 UV-I 0 W/m² 12,9 °C 13,7 °C 0,0 km/h (0 Bft)
20.07.2017 23:26 13,7 °C 13,7 °C 95 % 1013,1 hPa 0,0 mm 0,0 km/h (0 Bft) N-NW 327 ° 0 min 0,000 mm 0,0 UV-I 0 W/m² 12,9 °C 13,7 °C 0,0 km/h (0 Bft)
20.07.2017 23:27 13,7 °C 13,7 °C 95 % 1013,2 hPa 0,0 mm 0,4 km/h (0 Bft) N-NW 327 ° 0 min 0,000 mm 0,0 UV-I 0 W/m² 12,9 °C 13,7 °C 3,2 km/h (1 Bft)
20.07.2017 23:28 13,7 °C 13,7 °C 95 % 1013,2 hPa 0,0 mm 2,4 km/h (1 Bft) N-NW 327 ° 0 min 0,000 mm 0,0 UV-I 0 W/m² 12,9 °C 13,7 °C 4,8 km/h (1 Bft)
20.07.2017 23:29 13,7 °C 13,7 °C 95 % 1013,2 hPa 0,0 mm 0,1 km/h (0 Bft) N-NW 327 ° 0 min 0,000 mm 0,0 UV-I 0 W/m² 12,9 °C 13,7 °C 1,6 km/h (1 Bft)
20.07.2017 23:30 13,7 °C 13,7 °C 95 % 1013,2 hPa 0,0 mm 0,0 km/h (0 Bft) N-NW 327 ° 0 min 0,000 mm 0,0 UV-I 0 W/m² 12,9 °C 13,7 °C 0,0 km/h (0 Bft)
20.07.2017 23:31 13,7 °C 13,7 °C 95 % 1013,2 hPa 0,0 mm 0,8 km/h (0 Bft) N-NW 327 ° 0 min 0,000 mm 0,0 UV-I 0 W/m² 12,9 °C 13,7 °C 3,2 km/h (1 Bft)
20.07.2017 23:32 13,7 °C 13,7 °C 95 % 1013,3 hPa 0,0 mm 1,2 km/h (1 Bft) N-NW 327 ° 0 min 0,000 mm 0,0 UV-I 0 W/m² 12,9 °C 13,7 °C 3,2 km/h (1 Bft)
20.07.2017 23:33 13,8 °C 13,8 °C 95 % 1013,3 hPa 0,0 mm 0,0 km/h (0 Bft) N-NW 327 ° 0 min 0,000 mm 0,0 UV-I 0 W/m² 13,0 °C 13,8 °C 0,0 km/h (0 Bft)
20.07.2017 23:34 13,8 °C 13,8 °C 95 % 1013,3 hPa 0,0 mm 0,0 km/h (0 Bft) N-NW 327 ° 0 min 0,000 mm 0,0 UV-I 0 W/m² 13,0 °C 13,8 °C 0,0 km/h (0 Bft)
20.07.2017 23:35 13,8 °C 13,8 °C 95 % 1013,3 hPa 0,0 mm 0,0 km/h (0 Bft) N-NW 327 ° 0 min 0,000 mm 0,0 UV-I 0 W/m² 13,0 °C 13,8 °C 0,0 km/h (0 Bft)
20.07.2017 23:36 13,8 °C 13,8 °C 95 % 1013,2 hPa 0,0 mm 0,0 km/h (0 Bft) N-NW 327 ° 0 min 0,000 mm 0,0 UV-I 0 W/m² 13,0 °C 13,8 °C 0,0 km/h (0 Bft)
20.07.2017 23:37 13,8 °C 13,8 °C 95 % 1013,3 hPa 0,0 mm 0,0 km/h (0 Bft) N-NW 327 ° 0 min 0,000 mm 0,0 UV-I 0 W/m² 13,0 °C 13,8 °C 0,0 km/h (0 Bft)
20.07.2017 23:38 13,8 °C 13,8 °C 95 % 1013,3 hPa 0,0 mm 0,0 km/h (0 Bft) N-NW 327 ° 0 min 0,000 mm 0,0 UV-I 0 W/m² 13,0 °C 13,8 °C 0,0 km/h (0 Bft)
20.07.2017 23:39 13,8 °C 13,8 °C 95 % 1013,2 hPa 0,0 mm 0,0 km/h (0 Bft) N-NW 327 ° 0 min 0,000 mm 0,0 UV-I 0 W/m² 13,0 °C 13,8 °C 0,0 km/h (0 Bft)
20.07.2017 23:40 13,8 °C 13,8 °C 95 % 1013,3 hPa 0,0 mm 0,0 km/h (0 Bft) N-NW 327 ° 0 min 0,000 mm 0,0 UV-I 0 W/m² 13,0 °C 13,8 °C 0,0 km/h (0 Bft)
20.07.2017 23:41 13,8 °C 13,8 °C 95 % 1013,3 hPa 0,0 mm 0,0 km/h (0 Bft) N-NW 327 ° 0 min 0,000 mm 0,0 UV-I 0 W/m² 13,0 °C 13,8 °C 0,0 km/h (0 Bft)
20.07.2017 23:42 13,8 °C 13,8 °C 95 % 1013,3 hPa 0,0 mm 0,0 km/h (0 Bft) N-NW 327 ° 0 min 0,000 mm 0,0 UV-I 0 W/m² 13,0 °C 13,8 °C 0,0 km/h (0 Bft)
20.07.2017 23:43 13,8 °C 13,8 °C 95 % 1013,3 hPa 0,0 mm 0,1 km/h (0 Bft) N-NW 327 ° 0 min 0,000 mm 0,0 UV-I 0 W/m² 13,0 °C 13,8 °C 1,6 km/h (1 Bft)
20.07.2017 23:44 13,8 °C 13,8 °C 95 % 1013,4 hPa 0,0 mm 0,0 km/h (0 Bft) N-NW 327 ° 0 min 0,000 mm 0,0 UV-I 0 W/m² 13,0 °C 13,8 °C 0,0 km/h (0 Bft)
20.07.2017 23:45 13,9 °C 13,9 °C 95 % 1013,3 hPa 0,0 mm 0,0 km/h (0 Bft) N-NW 327 ° 0 min 0,000 mm 0,0 UV-I 0 W/m² 13,1 °C 13,9 °C 0,0 km/h (0 Bft)
20.07.2017 23:46 13,9 °C 13,9 °C 95 % 1013,4 hPa 0,0 mm 0,0 km/h (0 Bft) N-NW 327 ° 0 min 0,000 mm 0,0 UV-I 0 W/m² 13,1 °C 13,9 °C 0,0 km/h (0 Bft)
20.07.2017 23:47 13,9 °C 13,9 °C 95 % 1013,3 hPa 0,0 mm 0,0 km/h (0 Bft) N-NW 327 ° 0 min 0,000 mm 0,0 UV-I 0 W/m² 13,1 °C 13,9 °C 0,0 km/h (0 Bft)
20.07.2017 23:48 13,9 °C 13,9 °C 95 % 1013,4 hPa 0,0 mm 0,0 km/h (0 Bft) N-NW 327 ° 0 min 0,000 mm 0,0 UV-I 0 W/m² 13,1 °C 13,9 °C 0,0 km/h (0 Bft)
20.07.2017 23:49 13,9 °C 13,9 °C 95 % 1013,4 hPa 0,0 mm 0,0 km/h (0 Bft) N-NW 327 ° 0 min 0,000 mm 0,0 UV-I 0 W/m² 13,1 °C 13,9 °C 0,0 km/h (0 Bft)
20.07.2017 23:50 13,8 °C 13,9 °C 95 % 1013,4 hPa 0,0 mm 0,0 km/h (0 Bft) N-NW 327 ° 0 min 0,000 mm 0,0 UV-I 0 W/m² 13,0 °C 13,8 °C 0,0 km/h (0 Bft)
20.07.2017 23:51 13,9 °C 13,9 °C 95 % 1013,3 hPa 0,0 mm 0,0 km/h (0 Bft) N-NW 327 ° 0 min 0,000 mm 0,0 UV-I 0 W/m² 13,1 °C 13,9 °C 0,0 km/h (0 Bft)
20.07.2017 23:52 13,9 °C 13,9 °C 95 % 1013,3 hPa 0,0 mm 0,0 km/h (0 Bft) N-NW 327 ° 0 min 0,000 mm 0,0 UV-I 0 W/m² 13,1 °C 13,9 °C 0,0 km/h (0 Bft)
20.07.2017 23:53 13,9 °C 13,9 °C 95 % 1013,3 hPa 0,0 mm 0,4 km/h (0 Bft) N-NW 327 ° 0 min 0,000 mm 0,0 UV-I 0 W/m² 13,1 °C 13,9 °C 1,6 km/h (1 Bft)
20.07.2017 23:54 13,9 °C 13,9 °C 95 % 1013,3 hPa 0,0 mm 1,5 km/h (1 Bft) N-NW 327 ° 0 min 0,000 mm 0,0 UV-I 0 W/m² 13,1 °C 13,9 °C 1,6 km/h (1 Bft)
20.07.2017 23:55 13,9 °C 13,9 °C 95 % 1013,3 hPa 0,0 mm 2,3 km/h (1 Bft) NW 326 ° 0 min 0,000 mm 0,0 UV-I 0 W/m² 13,1 °C 13,9 °C 3,2 km/h (1 Bft)
20.07.2017 23:56 13,9 °C 14,0 °C 95 % 1013,3 hPa 0,0 mm 1,9 km/h (1 Bft) NW 325 ° 0 min 0,000 mm 0,0 UV-I 0 W/m² 13,1 °C 13,9 °C 3,2 km/h (1 Bft)
20.07.2017 23:57 13,9 °C 13,9 °C 94 % 1013,4 hPa 0,0 mm 2,5 km/h (1 Bft) NW 325 ° 0 min 0,000 mm 0,0 UV-I 0 W/m² 12,9 °C 13,9 °C 3,2 km/h (1 Bft)
20.07.2017 23:58 13,9 °C 13,9 °C 94 % 1013,4 hPa 0,0 mm 0,1 km/h (0 Bft) NW 325 ° 0 min 0,000 mm 0,0 UV-I 0 W/m² 12,9 °C 13,9 °C 1,6 km/h (1 Bft)
20.07.2017 23:59 13,9 °C 13,9 °C 94 % 1013,4 hPa 0,0 mm 0,0 km/h (0 Bft) NW 325 ° 0 min 0,000 mm 0,0 UV-I 0 W/m² 12,9 °C 13,9 °C 0,0 km/h (0 Bft)
_ Min-Zeit 23:32 23:32 12:13 03:09 - 23:59 - - - - - - 04:12 23:32 23:59
Minimum _ 13,7 °C 13,7 °C 57 % 1009,3 hPa - 0,0 km/h (0 Bft) - - - - - - 12,9 °C 13,7 °C 0,0 km/h (0 Bft)
_ Max-Zeit 11:50 11:51 23:09 23:59 13:57 13:40 - - 13:03 12:01 11:44 11:44 10:44 11:50 13:53
Maximum _ 24,1 °C 24,1 °C 96 % 1013,4 hPa 0,4 mm 20,0 km/h
W (4 Bft)
- - 1 min 0,432 mm 7,4 UV-I 1025 W/m² 17,0 °C 24,1 °C 30,6 km/h
W (5 Bft)
Durchschnitt _ 17,2 °C 17,2 °C 86 % 1011,2 hPa #12,0 mm 2,6 km/h (1 Bft) W - #3:43 h #1,956 mm 2,3 UV-I 124 W/m² 14,6 °C 17,2 °C 4,7 km/h (1 Bft)